# Wetter Temperatur Luftdruck Luftfeuchtigkeit Sichtweite Windgeschwindigkeit Windrichtung Zeit
1 Rain 6 1009 80 14484 6.7 340 20:40 02.04.2020
2 Rain 6 1009 80 14484 6.7 340 20:21 02.04.2020
3 Rain 5 1010 80 14484 4.6 310 19:44 02.04.2020
4 Rain 6 1010 80 14484 4.6 310 19:21 02.04.2020
5 Rain 5 1010 75 14484 5.1 330 18:58 02.04.2020
6 Rain 5 1010 75 14484 5.1 330 18:39 02.04.2020
7 Rain 5 1010 75 14484 5.1 330 18:39 02.04.2020
8 Rain 5 1010 75 14484 5.1 330 18:39 02.04.2020
9 -273 0 0 0 0 0 18:20 02.04.2020
10 Rain 5 1011 74 14484 6.2 340 17:56 02.04.2020
11 Rain 5 1011 74 14484 6.2 340 17:38 02.04.2020
12 Rain 5 1011 74 14484 6.2 340 17:19 02.04.2020
13 Rain 5 1011 69 14484 5.7 330 16:55 02.04.2020
14 Clouds 5 1011 64 14484 7.2 350 16:37 02.04.2020
15 Clouds 4 1011 64 14484 7.2 350 16:19 02.04.2020
16 Clouds 4 1011 74 14484 5.1 340 15:44 02.04.2020
17 Clouds 3 1011 74 14484 5.1 340 15:22 02.04.2020
18 Clouds 3 1012 74 14484 5.1 340 14:59 02.04.2020
19 Clouds 2 1012 74 14484 5.1 340 14:40 02.04.2020
20 Clouds 2 1012 74 14484 5.1 340 14:20 02.04.2020
21 Clouds 2 1011 80 14484 4.1 340 13:58 02.04.2020
22 Clouds 1 1011 80 14484 4.1 340 13:39 02.04.2020
23 Clouds 1 1011 80 14484 4.1 340 13:21 02.04.2020
24 Clouds 1 1011 74 14484 4.6 340 12:56 02.04.2020
25 Clouds 1 1011 74 14484 4.6 340 12:56 02.04.2020
26 Clouds 1 1011 74 14484 4.6 340 12:37 02.04.2020
27 Clouds 1 1011 74 14484 4.6 340 12:19 02.04.2020
28 Clouds 1 1012 86 14484 3.6 350 11:57 02.04.2020
29 Clouds 1 1012 86 14484 3.6 350 11:38 02.04.2020
30 Clouds 2 1012 86 14484 3.6 350 11:19 02.04.2020
31 Clouds 2 1012 86 14484 3.6 350 11:19 02.04.2020
32 Clouds 2 1011 86 14484 3.6 330 10:55 02.04.2020
33 Clouds 2 1011 86 14484 3.6 330 10:55 02.04.2020
34 Clouds 2 1011 86 14484 3.6 330 10:37 02.04.2020
35 Clouds 2 1011 86 14484 3.6 330 10:18 02.04.2020
36 Clouds 2 1012 94 14484 2.6 350 09:43 02.04.2020
37 Clouds 2 1012 94 14484 2.6 350 09:25 02.04.2020
38 Clouds 2 1012 96 14484 2.6 340 08:58 02.04.2020
39 Clouds 2 1012 96 14484 2.6 340 08:40 02.04.2020
40 Clouds 2 1012 96 14484 2.6 340 08:22 02.04.2020
41 Clouds 2 1012 80 14484 2.6 360 07:44 02.04.2020
42 Clouds 3 1012 80 14484 2.6 360 07:20 02.04.2020
43 Clouds 3 1013 74 14484 3.1 10 06:58 02.04.2020
44 Clouds 3 1013 74 14484 3.1 10 06:21 02.04.2020
45 Clouds 3 1013 74 14484 3.6 10 05:44 02.04.2020
46 Clouds 3 1014 74 14484 3.1 20 03:57 02.04.2020
47 Clouds 5 1013 69 14484 4.6 20 01:34 02.04.2020
48 Clouds 5 1013 65 14484 5.1 40 00:48 02.04.2020
49 Clouds 5 1013 65 14484 5.1 40 00:26 02.04.2020
50 Clouds 5 1013 60 14484 5.1 40 23:54 01.04.2020
51 Clouds 5 1013 60 14484 5.1 40 23:36 01.04.2020
52 Clouds 5 1013 60 14484 5.1 40 23:18 01.04.2020
53 Clouds 5 1013 65 14484 5.1 10 22:40 01.04.2020
54 Clouds 5 1013 65 14484 5.1 10 22:21 01.04.2020
55 Clouds 5 1013 73 14484 5.1 10 21:55 01.04.2020
56 Clouds 5 1013 73 14484 5.1 10 21:37 01.04.2020
57 Clouds 5 1013 73 14484 5.1 10 21:18 01.04.2020
58 Clouds 5 1013 73 14484 6.2 30 20:54 01.04.2020
59 Clouds 5 1013 73 14484 6.2 30 20:54 01.04.2020
60 Clouds 5 1013 73 14484 6.2 30 20:54 01.04.2020
61 Clouds 5 1013 73 14484 6.2 30 20:36 01.04.2020
62 Clouds 5 1013 73 14484 6.2 30 20:18 01.04.2020
63 Clouds 5 1014 73 14484 5.7 10 19:42 01.04.2020
64 Clouds 5 1014 73 14484 5.7 10 19:21 01.04.2020
65 Clouds 5 1014 65 14484 5.7 50 18:56 01.04.2020
66 Clouds 5 1014 65 14484 5.7 50 18:56 01.04.2020
67 Clouds 5 1014 65 14484 5.7 50 18:38 01.04.2020
68 Clouds 5 1014 65 14484 5.7 50 18:19 01.04.2020
69 Clouds 4 1014 69 14484 5.1 40 17:55 01.04.2020
70 Clouds 4 1014 69 14484 6.2 30 17:36 01.04.2020
71 Clouds 4 1014 69 14484 6.2 30 17:18 01.04.2020
72 Clouds 4 1015 69 14484 5.7 40 16:42 01.04.2020
73 Clear 4 1015 69 14484 5.7 40 16:24 01.04.2020
74 Clouds 3 1015 80 14484 4.1 50 15:58 01.04.2020
75 Clouds 3 1015 80 14484 4.1 50 15:40 01.04.2020
76 Clouds 3 1015 80 14484 4.1 50 15:21 01.04.2020
77 Clouds 1 1015 86 14484 4.6 50 14:57 01.04.2020
78 Clouds 1 1015 86 14484 4.6 50 14:38 01.04.2020
79 Clouds 1 1015 86 14484 4.6 50 14:38 01.04.2020
80 Clouds 1 1015 86 14484 4.6 50 14:19 01.04.2020
81 Clouds 1 1015 86 14484 4.6 50 14:19 01.04.2020
82 Clouds 0 1015 92 14484 4.1 30 13:58 01.04.2020
83 Clouds 0 1015 92 14484 4.1 30 13:38 01.04.2020
84 Clouds 0 1015 92 14484 4.1 30 13:19 01.04.2020
85 Clouds -1 1015 92 14484 4.1 20 12:55 01.04.2020
86 Clear -1 1015 86 14484 4.1 30 12:36 01.04.2020
87 Clear -1 1015 86 14484 4.1 30 12:18 01.04.2020
88 Clear -1 1015 86 14484 5.7 30 11:42 01.04.2020
89 Clear -1 1015 86 14484 5.7 30 11:23 01.04.2020
90 Clear -1 1015 86 14484 5.1 20 10:59 01.04.2020
91 Clear 0 1015 86 14484 5.1 20 10:38 01.04.2020
92 Clear 0 1015 86 14484 5.1 20 10:19 01.04.2020
93 Clear 0 1015 86 14484 5.1 20 09:57 01.04.2020
94 Clear 0 1015 86 14484 5.1 20 09:39 01.04.2020
95 Clear 0 1015 86 14484 5.1 20 09:19 01.04.2020
96 Clouds 0 1016 93 14484 4.6 40 08:42 01.04.2020
97 Clouds 0 1016 93 14484 4.6 40 08:18 01.04.2020
98 Clear 0 1016 93 14484 4.6 50 07:48 01.04.2020
99 Clear 1 1016 93 14484 4.6 50 07:22 01.04.2020
100 Clear 1 1017 93 14484 3.1 50 06:58 01.04.2020
101 Clear 1 1017 93 14484 3.1 50 06:27 01.04.2020
102 Clear 1 1017 64 14484 3.6 40 05:59 01.04.2020
103 Clear 2 1018 51 14484 6.2 60 04:36 01.04.2020
104 Clouds 3 1018 51 14484 4.6 40 03:33 01.04.2020
105 Clouds 4 1018 51 14484 5.1 40 02:57 01.04.2020
106 Clouds 4 1018 51 14484 5.1 40 02:21 01.04.2020
107 Clear 5 1018 44 14484 5.1 50 01:43 01.04.2020
108 Clear 5 1018 44 14484 5.1 50 01:22 01.04.2020
109 Clear 6 1018 30 14484 6.2 50 00:46 01.04.2020
110 Clear 6 1018 30 14484 6.2 50 00:46 01.04.2020
111 Clear 7 1018 30 14484 6.2 50 00:21 01.04.2020
112 Clear 7 1018 30 14484 6.2 50 00:21 01.04.2020
113 Clear 7 1018 39 14484 8.7 40 23:49 31.03.2020
114 Clear 7 1018 39 14484 8.7 40 23:28 31.03.2020
115 Clear 7 1018 42 14484 6.7 40 22:59 31.03.2020
116 Clear 7 1018 42 14484 6.7 40 22:38 31.03.2020
117 Clear 7 1018 42 14484 6.7 40 22:20 31.03.2020
118 Clear 7 1019 45 14484 6.7 40 21:57 31.03.2020
119 Clear 7 1019 45 14484 6.7 40 21:39 31.03.2020
120 Clear 7 1019 45 14484 6.7 40 21:20 31.03.2020
121 Clear 7 1019 52 14484 7.7 20 20:56 31.03.2020
122 Clear 7 1019 52 14484 7.7 20 20:37 31.03.2020
123 Clear 7 1020 52 14484 7.7 30 20:18 31.03.2020
124 Clear 7 1020 52 14484 7.7 30 19:55 31.03.2020
125 Clear 7 1020 52 14484 7.7 30 19:36 31.03.2020
126 Clear 6 1020 52 14484 7.7 30 19:18 31.03.2020
127 Clear 6 1020 56 14484 6.7 40 18:41 31.03.2020
128 Clear 6 1020 56 14484 6.7 40 18:20 31.03.2020
129 Clear 5 1021 60 14484 7.2 40 17:56 31.03.2020
130 Clear 5 1021 60 14484 7.2 40 17:56 31.03.2020
131 Clear 5 1021 60 14484 7.2 40 17:56 31.03.2020
132 Clear 5 1021 60 14484 7.2 40 17:38 31.03.2020
133 Clear 5 1021 60 14484 7.2 40 17:20 31.03.2020
134 Clear 4 1021 60 14484 7.2 50 16:42 31.03.2020
135 Clear 4 1021 60 14484 7.2 50 16:20 31.03.2020
136 Clouds 3 1022 74 14484 6.7 50 15:59 31.03.2020
137 Clouds 3 1022 74 14484 6.7 50 15:41 31.03.2020
138 Clouds 2 1022 74 14484 6.7 50 15:23 31.03.2020
139 Clouds 2 1021 80 14484 5.7 50 15:00 31.03.2020
140 Clouds 2 1021 80 14484 5.7 50 15:00 31.03.2020
141 Clouds 2 1021 80 14484 5.7 50 14:41 31.03.2020
142 Clouds 1 1021 80 14484 5.7 50 14:22 31.03.2020
143 Clouds 1 1021 86 14484 5.1 40 13:55 31.03.2020
144 Clouds 1 1021 86 14484 5.1 40 13:37 31.03.2020
145 Clouds 1 1021 86 14484 5.1 40 13:18 31.03.2020
146 Clouds 1 1020 86 14484 5.1 40 12:44 31.03.2020
147 Clouds 1 1020 86 14484 5.1 40 12:20 31.03.2020
148 Clouds 1 1020 86 14484 5.1 40 12:20 31.03.2020
149 Clouds 1 1020 86 14484 5.1 30 11:55 31.03.2020
150 Clouds 1 1020 86 14484 5.1 30 11:36 31.03.2020
151 Clouds 1 1020 86 14484 5.1 30 11:36 31.03.2020
152 Clouds 1 1020 86 14484 5.1 30 11:18 31.03.2020
153 Clouds 1 1019 89 14484 5.7 40 10:55 31.03.2020
154 Clouds 1 1019 89 14484 5.7 40 10:37 31.03.2020
155 Clouds 1 1019 89 14484 5.7 40 10:18 31.03.2020
156 Clouds 2 1019 89 14484 5.7 50 09:43 31.03.2020
157 Rain 2 1019 89 14484 6.2 50 09:24 31.03.2020
158 Rain 2 1019 93 14484 6.7 50 08:57 31.03.2020
159 Clouds 2 1019 93 14484 5.1 50 08:39 31.03.2020
160 Clouds 2 1019 93 14484 5.1 50 08:19 31.03.2020
161 Clouds 2 1019 93 14484 4.1 50 07:56 31.03.2020
162 Rain 2 1018 93 14484 5.7 50 07:38 31.03.2020
163 Rain 2 1018 93 14484 5.7 50 07:19 31.03.2020
164 Rain 2 1018 93 14484 6.2 50 06:47 31.03.2020
165 Rain 2 1018 93 14484 6.2 50 06:23 31.03.2020
166 Rain 2 1018 93 14484 6.7 50 05:39 31.03.2020
167 Rain 3 1017 93 9656 6.2 40 03:43 31.03.2020
168 Rain 4 1016 100 8047 3.6 20 02:25 31.03.2020
169 Rain 4 1016 93 9656 3.1 10 01:46 31.03.2020
170 Rain 4 1015 93 4828 2.6 20 00:51 31.03.2020
171 Rain 4 1014 100 14484 2.6 30 00:25 31.03.2020
172 Rain 4 1014 93 12874 2.6 10 23:59 30.03.2020
173 Rain 5 1014 93 12874 2.6 10 23:38 30.03.2020
174 Rain 5 1014 93 12874 2.6 10 23:18 30.03.2020
175 Rain 5 1013 93 14484 1.5 100 22:56 30.03.2020
176 Rain 5 1013 93 14484 1.5 100 22:37 30.03.2020
177 Rain 5 1013 93 14484 1.5 100 22:18 30.03.2020
178 Rain 5 1013 93 14484 2.6 140 21:55 30.03.2020
179 Rain 6 1013 93 14484 2.6 140 21:36 30.03.2020
180 Rain 6 1013 93 14484 2.6 140 21:18 30.03.2020
181 Rain 6 1013 93 9656 4.1 150 20:42 30.03.2020
182 Rain 6 1013 93 9656 4.1 150 20:24 30.03.2020
183 Rain 6 1013 93 9656 4.1 150 20:24 30.03.2020
184 Rain 6 1013 93 9656 4.1 150 20:24 30.03.2020
185 Rain 6 1012 81 14484 5.1 160 19:59 30.03.2020
186 Rain 6 1012 81 14484 5.1 160 19:40 30.03.2020
187 Rain 6 1012 81 14484 5.1 160 19:21 30.03.2020
188 Rain 7 1012 87 14484 3.6 160 18:57 30.03.2020
189 Rain 7 1011 81 14484 6.2 170 18:38 30.03.2020
190 Rain 7 1011 81 14484 6.2 170 18:20 30.03.2020
191 Rain 7 1011 70 14484 6.2 190 17:56 30.03.2020
192 Rain 8 1011 70 14484 6.2 190 17:37 30.03.2020
193 Rain 8 1011 70 14484 6.2 190 17:18 30.03.2020
194 Rain 8 1011 76 14484 7.7 160 16:55 30.03.2020
195 Clouds 7 1011 75 14484 7.2 160 16:36 30.03.2020
196 Clouds 7 1011 75 14484 7.2 160 16:18 30.03.2020
197 Clouds 7 1011 81 14484 8.2 170 15:54 30.03.2020
198 Clouds 6 1011 81 14484 8.2 170 15:36 30.03.2020
199 Clouds 5 1011 81 14484 8.2 170 15:18 30.03.2020
200 Clouds 5 1011 86 14484 5.7 160 14:39 30.03.2020
201 Clouds 5 1011 86 14484 5.7 160 14:19 30.03.2020
202 Clouds 5 1011 81 14484 6.7 160 13:59 30.03.2020
203 Clouds 5 1011 81 14484 6.7 160 13:40 30.03.2020
204 Clouds 5 1011 81 14484 6.7 160 13:20 30.03.2020
205 Rain 5 1010 86 9656 5.7 170 12:56 30.03.2020
206 Rain 5 1010 86 8047 8.2 180 12:37 30.03.2020
207 Rain 5 1010 86 8047 8.2 180 12:19 30.03.2020
208 Clouds 5 1009 86 14484 7.7 170 11:55 30.03.2020
209 Clouds 5 1009 86 14484 7.7 170 11:55 30.03.2020
210 Rain 5 1009 86 14484 6.7 170 11:37 30.03.2020
211 Rain 5 1009 86 14484 6.7 170 11:18 30.03.2020
212 Rain 5 1009 86 14484 8.7 170 10:39 30.03.2020
213 Rain 5 1009 86 14484 8.7 170 10:21 30.03.2020
214 Rain 5 1009 86 14484 8.7 170 10:21 30.03.2020
215 Clouds 5 1010 86 14484 8.2 160 09:55 30.03.2020
216 Clouds 5 1010 86 14484 8.2 160 09:37 30.03.2020
217 Clouds 5 1010 86 14484 8.2 160 09:18 30.03.2020
218 Clouds 5 1010 86 14484 8.7 160 08:40 30.03.2020
219 Clouds 5 1010 86 14484 8.7 160 08:22 30.03.2020
220 Rain 5 1011 86 14484 7.7 170 07:49 30.03.2020
221 Clouds 5 1011 86 14484 7.7 160 07:26 30.03.2020
222 Clouds 5 1011 86 14484 6.2 160 06:52 30.03.2020
223 Rain 5 1011 86 14484 6.7 160 06:30 30.03.2020
224 Mist 5 1011 86 4828 7.2 150 05:52 30.03.2020
225 Rain 5 1011 86 4828 7.2 160 05:18 30.03.2020
226 Clouds 4 1011 93 14484 6.2 140 04:22 30.03.2020
227 Rain 4 1011 93 14484 4.1 120 03:34 30.03.2020
228 Rain 4 1011 100 9656 5.1 110 02:37 30.03.2020
229 Rain 4 1010 93 9656 5.1 90 01:35 30.03.2020
230 Rain 5 1010 93 9656 5.1 90 00:47 30.03.2020
231 Rain 5 1009 93 4828 5.7 80 00:21 30.03.2020
232 Rain 5 1009 93 4828 5.1 80 23:41 29.03.2020
233 Rain 5 1009 93 6437 7.7 90 23:23 29.03.2020
234 Rain 5 1009 100 6437 7.7 100 22:57 29.03.2020
235 Rain 5 1009 93 14484 6.7 100 22:37 29.03.2020
236 Rain 5 1009 93 14484 6.7 100 22:19 29.03.2020
237 Rain 5 1010 93 11265 8.2 110 21:55 29.03.2020
238 Rain 5 1011 93 9656 6.2 110 21:36 29.03.2020
239 Rain 5 1011 93 9656 6.2 110 21:36 29.03.2020
240 Rain 5 1011 93 9656 6.2 110 21:18 29.03.2020
241 Rain 5 1011 93 8047 7.7 100 20:54 29.03.2020
242 Rain 5 1012 93 8047 6.2 100 20:36 29.03.2020
243 Rain 6 1012 93 8047 6.2 100 20:18 29.03.2020
244 Rain 5 1014 87 12874 6.2 100 19:42 29.03.2020
245 Rain 5 1014 87 12874 6.2 100 19:24 29.03.2020
246 Rain 5 1015 81 14484 5.1 90 18:58 29.03.2020
247 Rain 5 1015 81 14484 5.1 90 18:40 29.03.2020
248 Rain 5 1015 81 14484 5.1 90 18:20 29.03.2020
249 Rain 5 1015 81 14484 5.1 90 18:20 29.03.2020
250 Rain 5 1015 81 14484 5.1 90 18:20 29.03.2020
251 Rain 5 1016 80 14484 4.1 80 17:58 29.03.2020
252 Rain 4 1016 80 14484 4.1 80 17:40 29.03.2020
253 Rain 4 1016 80 14484 4.1 80 17:22 29.03.2020
254 Rain 4 1017 90 14484 5.1 110 16:58 29.03.2020
255 Rain 4 1017 90 14484 5.1 110 16:39 29.03.2020
256 Rain 5 1017 90 14484 5.1 110 16:20 29.03.2020
257 Rain 5 1017 56 14484 4.1 40 15:58 29.03.2020
258 Clouds 4 1018 60 14484 4.1 40 15:39 29.03.2020
259 Clouds 4 1018 60 14484 4.1 40 15:19 29.03.2020
260 Clouds 4 1018 64 14484 3.6 30 14:55 29.03.2020
261 Clouds 4 1018 64 14484 3.6 30 14:36 29.03.2020
262 Clouds 4 1018 64 14484 3.6 30 14:36 29.03.2020
263 Clouds 4 1018 64 14484 3.6 30 14:18 29.03.2020
264 Clouds 4 1019 60 14484 3.6 10 13:42 29.03.2020
265 Clouds 4 1019 60 14484 3.6 10 13:22 29.03.2020
266 Clouds 4 1018 64 14484 3.6 20 12:58 29.03.2020
267 Clouds 4 1018 64 14484 3.6 20 12:39 29.03.2020
268 Clouds 4 1018 64 14484 3.6 20 12:19 29.03.2020
269 Clouds 4 1018 64 14484 3.6 10 11:59 29.03.2020
270 Clouds 4 1018 64 14484 3.6 10 11:38 29.03.2020
271 Clouds 4 1018 64 14484 3.6 10 11:19 29.03.2020
272 Clouds 4 1019 64 14484 3.6 20 10:39 29.03.2020
273 Clouds 4 1019 64 14484 3.6 20 10:21 29.03.2020
274 Clouds 4 1019 64 14484 1.5 20 09:57 29.03.2020
275 Clouds 4 1019 64 14484 1.5 20 09:38 29.03.2020
276 Clouds 4 1019 64 14484 1.5 20 09:18 29.03.2020
277 Clouds 4 1019 64 14484 1.5 20 09:18 29.03.2020
278 Clouds 4 1019 55 14484 3.6 20 08:45 29.03.2020
279 Clouds 4 1019 55 14484 3.6 20 08:26 29.03.2020
280 Clouds 4 1020 64 14484 2.6 30 07:48 29.03.2020
281 Clouds 4 1020 64 14484 2.6 30 07:24 29.03.2020
282 Clouds 4 1020 60 14484 4.1 30 06:55 29.03.2020
283 Clouds 4 1020 55 14484 4.6 40 04:57 29.03.2020
284 Clouds 5 1021 55 14484 4.6 30 03:41 29.03.2020
285 Clouds 5 1021 55 14484 4.6 30 03:23 29.03.2020
286 Clouds 5 1020 60 14484 4.1 20 01:50 29.03.2020
287 Clouds 6 1020 60 14484 4.1 20 01:23 29.03.2020
288 Clouds 6 1020 52 14484 3.1 20 00:48 29.03.2020
289 Clouds 6 1020 52 14484 3.1 20 00:29 29.03.2020
290 Clouds 7 1019 56 14484 3.6 40 23:41 28.03.2020
291 Clouds 8 1019 56 14484 3.6 40 23:23 28.03.2020
292 Clouds 9 1019 36 14484 3.1 90 22:56 28.03.2020
293 Clouds 9 1019 36 14484 3.1 90 22:37 28.03.2020
294 Clouds 9 1019 36 14484 3.1 90 22:18 28.03.2020
295 Clouds 9 1019 36 14484 3.1 60 21:41 28.03.2020
296 Clouds 9 1019 36 14484 3.1 60 21:23 28.03.2020
297 Clouds 9 1020 36 14484 3.6 100 20:58 28.03.2020
298 Clouds 9 1020 36 14484 3.6 100 20:58 28.03.2020
299 Clouds 8 1020 36 14484 3.6 100 20:39 28.03.2020
300 Clouds 8 1020 36 14484 3.6 100 20:21 28.03.2020
301 Clouds 8 1020 33 14484 2.1 100 19:56 28.03.2020
302 Clouds 8 1020 33 14484 2.1 100 19:37 28.03.2020
303 Clouds 8 1020 33 14484 2.1 100 19:18 28.03.2020
304 Clouds 8 1021 36 14484 1.5 50 18:47 28.03.2020
305 Clouds 7 1021 36 14484 1.5 50 18:22 28.03.2020
306 Clouds 7 1021 35 14484 1 0 17:58 28.03.2020
307 Clouds 6 1021 35 14484 1 0 17:38 28.03.2020
308 Clouds 6 1021 35 14484 1 0 17:19 28.03.2020
309 Clouds 6 1022 41 14484 2.1 80 16:42 28.03.2020
310 Clouds 5 1022 41 14484 2.1 80 16:20 28.03.2020
311 Clouds 5 1022 44 14484 2.6 100 15:56 28.03.2020
312 Clouds 4 1022 44 14484 2.6 100 15:37 28.03.2020
313 Clouds 4 1022 44 14484 2.6 100 15:18 28.03.2020
314 Clouds 3 1022 55 14484 1 70 14:42 28.03.2020
315 Clouds 2 1022 55 14484 1 70 14:22 28.03.2020
316 Clear 2 1021 87 14484 1.29 90 13:57 28.03.2020
317 Clear 1 1021 87 14484 1.29 90 13:37 28.03.2020
318 Clear 0 1021 88 14484 1.51 86 13:18 28.03.2020
319 Clear -2 1021 73 14484 1 60 12:38 28.03.2020
320 Clear -3 1021 73 14484 1 60 12:19 28.03.2020
321 Clear -3 1021 85 14484 1 90 11:42 28.03.2020
322 Clear -3 1021 85 14484 1 90 11:42 28.03.2020
323 Clear -3 1021 85 14484 1 90 11:21 28.03.2020
324 Clear -3 1020 85 14484 1.5 80 10:55 28.03.2020
325 Clear -3 1020 85 14484 1.5 80 10:36 28.03.2020
326 Clear -3 1020 85 14484 1.5 80 10:18 28.03.2020
327 Clear -2 1020 79 14484 1 150 09:40 28.03.2020
328 Clear -2 1020 79 14484 1 150 09:22 28.03.2020
329 Clear -2 1020 68 14484 1 0 08:45 28.03.2020
330 Clear -2 1020 68 14484 1 0 08:25 28.03.2020
331 Clear -2 1020 68 14484 1 0 07:58 28.03.2020
332 Clear -2 1020 68 14484 1 0 07:40 28.03.2020
333 Clear -1 1019 87 14484 1.5 20 06:54 28.03.2020
334 Clear -1 1019 87 14484 1.5 20 06:29 28.03.2020
335 Clear 0 1019 55 14484 1 0 05:38 28.03.2020
336 Clear 0 1019 55 14484 1 0 05:19 28.03.2020
337 Clear 0 1019 55 14484 2.1 40 04:39 28.03.2020
338 Clear 3 1017 44 14484 3.1 290 02:52 28.03.2020
339 Clear 5 1016 38 14484 4.1 300 01:48 28.03.2020
340 Clear 5 1016 38 14484 4.1 300 01:23 28.03.2020
341 Clear 6 1016 33 14484 4.6 280 00:51 28.03.2020
342 Clear 7 1016 33 14484 4.6 280 00:28 28.03.2020
343 Clear 8 1015 26 14484 5.1 280 23:44 27.03.2020
344 Clear 8 1015 26 14484 5.1 280 23:26 27.03.2020
345 Clear 9 1014 36 14484 6.2 260 22:57 27.03.2020
346 Clear 9 1014 36 14484 6.2 260 22:39 27.03.2020
347 Clear 9 1014 36 14484 6.2 260 22:21 27.03.2020
348 Clear 9 1014 36 14484 5.7 260 21:59 27.03.2020
349 Clear 9 1014 36 14484 5.7 260 21:40 27.03.2020
350 Clear 9 1014 36 14484 5.7 260 21:22 27.03.2020
351 Clear 8 1014 49 14484 6.7 230 20:57 27.03.2020
352 Clear 8 1014 49 14484 6.7 230 20:39 27.03.2020
353 Clear 8 1014 49 14484 6.7 230 20:19 27.03.2020
354 Clear 8 1013 42 14484 5.1 250 19:55 27.03.2020
355 Clear 8 1013 42 14484 5.1 250 19:36 27.03.2020
356 Clear 8 1013 42 14484 5.1 250 19:18 27.03.2020
357 Clouds 8 1013 48 14484 2.1 290 18:42 27.03.2020
358 Clouds 7 1013 48 14484 2.1 290 18:23 27.03.2020
359 Clear 7 1013 52 14484 4.6 330 17:55 27.03.2020
360 Clear 6 1013 52 14484 4.6 330 17:36 27.03.2020
361 Clear 6 1013 52 14484 4.6 330 17:18 27.03.2020
362 Clear 5 1013 60 14484 3.1 290 16:44 27.03.2020
363 Clear 5 1013 60 14484 3.1 290 16:25 27.03.2020
364 Clear 5 1013 65 14484 4.6 290 15:45 27.03.2020
365 Clear 5 1013 65 14484 4.6 290 15:26 27.03.2020
366 Clear 4 1012 74 14484 4.1 280 14:56 27.03.2020
367 Clear 4 1012 74 14484 4.1 280 14:37 27.03.2020
368 Clear 3 1012 74 14484 4.1 280 14:18 27.03.2020
369 Clear 2 1011 80 14484 6.2 270 13:43 27.03.2020
370 Clear 2 1011 80 14484 6.2 270 13:22 27.03.2020
371 Clear 1 1010 86 14484 4.1 270 12:59 27.03.2020
372 Clear 1 1010 86 14484 4.1 270 12:41 27.03.2020
373 Clear 1 1010 86 14484 4.1 270 12:19 27.03.2020
374 Clear 1 1009 86 14484 5.7 290 11:43 27.03.2020
375 Clear 1 1009 86 14484 5.7 290 11:25 27.03.2020
376 Clear 1 1009 80 14484 5.7 270 10:57 27.03.2020
377 Clear 1 1009 80 14484 5.7 270 10:39 27.03.2020
378 Clear 1 1009 80 14484 5.7 270 10:20 27.03.2020
379 Clear 2 1008 91 14484 5.7 270 09:58 27.03.2020
380 Clear 2 1008 91 14484 5.7 270 09:39 27.03.2020
381 Clear 2 1008 91 14484 5.7 270 09:21 27.03.2020
382 Clear 2 1007 91 14484 4.6 280 08:58 27.03.2020
383 Clear 2 1007 91 14484 4.6 280 08:39 27.03.2020
384 Clear 2 1007 91 14484 4.6 280 08:21 27.03.2020
385 Clouds 2 1008 82 24140 4.1 260 07:53 27.03.2020
386 Clouds 3 1007 80 14484 5.1 280 07:28 27.03.2020
387 Clouds 3 1007 86 24140 5.1 260 06:59 27.03.2020
388 Clouds 3 1007 86 24140 5.1 260 06:37 27.03.2020
389 Clouds 4 1005 86 14484 7.2 290 05:38 27.03.2020
390 Clouds 7 1004 93 14484 6.2 270 02:52 27.03.2020
391 Clouds 7 1004 93 11265 3.6 210 01:54 27.03.2020
392 Rain 7 1005 93 14484 4.6 180 00:56 27.03.2020
393 Rain 7 1005 93 14484 4.6 180 00:37 27.03.2020
394 Rain 8 1005 93 14484 4.6 180 00:18 27.03.2020
395 Rain 8 1005 93 14484 4.6 180 00:18 27.03.2020
396 Rain 8 1006 66 14484 5.7 210 23:36 26.03.2020
397 Rain 8 1006 66 14484 5.7 210 23:18 26.03.2020
398 Rain 9 1004 53 14484 6.7 170 22:54 26.03.2020
399 Rain 10 1004 53 14484 6.7 170 22:36 26.03.2020
400 Rain 11 1004 53 14484 6.7 170 22:18 26.03.2020
401 Clouds 11 1006 53 14484 9.8 170 21:39 26.03.2020
402 Clouds 11 1006 53 14484 9.8 170 21:21 26.03.2020
403 Clouds 10 1008 57 14484 7.2 160 20:58 26.03.2020
404 Clouds 10 1008 57 14484 7.2 160 20:39 26.03.2020
405 Clouds 10 1008 57 14484 7.2 160 20:20 26.03.2020
406 Clear 10 1009 57 14484 4.6 170 19:57 26.03.2020
407 Clear 10 1009 57 14484 4.6 170 19:57 26.03.2020
408 Clear 10 1009 57 14484 4.6 170 19:39 26.03.2020
409 Clear 10 1009 57 14484 4.6 170 19:20 26.03.2020
410 Clouds 9 1011 57 14484 7.7 170 18:58 26.03.2020
411 Clouds 9 1011 57 14484 7.7 170 18:39 26.03.2020
412 Clouds 9 1011 57 14484 7.7 170 18:21 26.03.2020
413 Clouds 8 1012 65 14484 5.1 170 17:44 26.03.2020
414 Clouds 6 1012 65 14484 5.1 170 17:19 26.03.2020
415 Clouds 5 1014 85 14484 4.6 160 16:55 26.03.2020
416 Clouds 5 1014 85 14484 4.6 160 16:55 26.03.2020
417 Clouds 6 1014 85 14484 4.6 160 16:37 26.03.2020
418 Clouds 6 1014 85 14484 4.6 160 16:18 26.03.2020
419 Clouds 5 1014 65 14484 6.7 170 15:41 26.03.2020
420 Clouds 5 1014 65 14484 6.7 170 15:22 26.03.2020
421 Clouds 5 1015 69 14484 4.6 160 14:59 26.03.2020
422 Clouds 4 1015 69 14484 4.6 160 14:41 26.03.2020
423 Clouds 4 1015 69 14484 4.6 160 14:23 26.03.2020
424 Clouds 3 1015 69 14484 4.1 150 13:54 26.03.2020
425 Clouds 3 1015 69 14484 4.1 150 13:36 26.03.2020
426 Clouds 3 1015 69 14484 4.1 150 13:18 26.03.2020
427 Clouds 3 1016 69 14484 3.6 150 12:38 26.03.2020
428 Clouds 3 1016 69 14484 3.6 150 12:20 26.03.2020
429 Clouds 3 1016 74 14484 2.1 160 11:46 26.03.2020
430 Clouds 3 1016 74 14484 2.1 160 11:22 26.03.2020
431 Clouds 3 1016 69 14484 2.6 160 10:57 26.03.2020
432 Clouds 3 1016 69 14484 2.6 160 10:38 26.03.2020
433 Clouds 3 1016 69 14484 2.6 160 10:19 26.03.2020
434 Clouds 3 1016 74 14484 3.1 180 09:44 26.03.2020
435 Clouds 3 1016 74 14484 3.1 180 09:21 26.03.2020
436 Clouds 4 1016 69 14484 3.6 170 08:57 26.03.2020
437 Clouds 4 1016 69 14484 3.6 170 08:38 26.03.2020
438 Clouds 4 1016 69 14484 3.6 170 08:19 26.03.2020
439 Clouds 4 1016 64 14484 3.6 160 07:44 26.03.2020
440 Clouds 4 1016 64 14484 3.6 160 07:22 26.03.2020
441 Clouds 4 1016 69 14484 2.6 140 06:56 26.03.2020
442 Clouds 4 1016 69 24140 2.6 130 06:27 26.03.2020
443 Clouds 4 1016 64 14484 2.6 160 05:22 26.03.2020
444 Clouds 4 1017 60 14484 4.1 160 03:45 26.03.2020
445 Clouds 5 1017 60 14484 3.6 160 02:56 26.03.2020
446 Clouds 6 1017 56 14484 3.1 140 01:50 26.03.2020
447 Clouds 7 1018 52 14484 3.6 170 00:56 26.03.2020
448 Clouds 7 1018 52 14484 3.6 170 00:22 26.03.2020
449 Clouds 7 1017 52 14484 6.2 160 23:41 25.03.2020
450 Clouds 7 1017 52 14484 6.2 160 23:22 25.03.2020
451 Clouds 8 1018 49 14484 6.7 170 22:42 25.03.2020
452 Clouds 8 1018 49 14484 6.7 170 22:22 25.03.2020
453 Clouds 8 1018 52 14484 6.2 180 21:57 25.03.2020
454 Clouds 8 1018 52 14484 6.2 180 21:38 25.03.2020
455 Clouds 8 1018 52 14484 6.2 180 21:20 25.03.2020
456 Clouds 8 1018 49 14484 6.7 150 20:56 25.03.2020
457 Clouds 8 1018 49 14484 6.7 150 20:37 25.03.2020
458 Clouds 8 1018 49 14484 6.7 150 20:18 25.03.2020
459 Clouds 8 1018 49 14484 6.7 150 20:18 25.03.2020
460 Clear 7 1019 52 14484 6.7 150 19:43 25.03.2020
461 Clear 7 1019 52 14484 6.7 150 19:23 25.03.2020
462 Clear 7 1019 52 14484 7.2 190 18:59 25.03.2020
463 Clear 7 1020 52 14484 6.7 140 18:40 25.03.2020
464 Clear 7 1020 52 14484 6.7 140 18:22 25.03.2020
465 Clouds 6 1020 56 14484 6.2 140 17:56 25.03.2020
466 Clouds 6 1020 56 14484 6.2 140 17:38 25.03.2020
467 Clouds 6 1020 56 14484 6.2 140 17:38 25.03.2020
468 Clouds 5 1020 56 14484 6.2 140 17:20 25.03.2020
469 Clouds 4 1021 60 14484 5.7 130 16:55 25.03.2020
470 Clouds 4 1021 60 14484 5.7 130 16:36 25.03.2020
471 Clouds 4 1021 60 14484 5.7 130 16:18 25.03.2020
472 Clouds 3 1022 74 14484 3.6 100 15:41 25.03.2020
473 Clouds 2 1022 74 14484 3.6 100 15:20 25.03.2020
474 Clouds 1 1022 91 14484 2.1 100 14:56 25.03.2020
475 Clouds 1 1022 91 14484 2.1 100 14:37 25.03.2020
476 Clouds 1 1022 98 14484 2.1 100 14:18 25.03.2020
477 Clear 0 1022 92 14484 2.6 90 13:42 25.03.2020
478 Clear 0 1022 92 14484 2.6 90 13:22 25.03.2020
479 Mist -2 1022 92 9656 1.5 100 12:38 25.03.2020
480 Mist -2 1022 92 9656 1.5 100 12:20 25.03.2020
481 Clear -3 1022 100 14484 3.1 120 11:56 25.03.2020
482 Clear -3 1022 100 14484 3.1 120 11:38 25.03.2020
483 Clear -3 1022 100 14484 3.1 120 11:20 25.03.2020
484 Clear -3 1022 92 12874 1 70 10:57 25.03.2020
485 Clear -3 1022 92 12874 1 70 10:39 25.03.2020
486 Clear -3 1022 92 12874 1 70 10:18 25.03.2020
487 Clear -2 1022 92 14484 3.1 170 09:43 25.03.2020
488 Clear -2 1022 92 14484 3.1 170 09:24 25.03.2020
489 Clear -1 1022 92 14484 2.1 160 08:57 25.03.2020
490 Clear -1 1022 92 14484 2.1 160 08:39 25.03.2020
491 Clear -1 1022 92 14484 2.1 160 08:19 25.03.2020
492 Clear -1 1022 92 14484 2.1 160 08:19 25.03.2020
493 Clear -1 1022 92 14484 2.6 150 07:41 25.03.2020
494 Clear -1 1022 92 14484 2.6 150 07:23 25.03.2020
495 Clear -1 1022 92 14484 2.6 150 06:50 25.03.2020
496 Clear -1 1022 92 14484 2.6 150 06:28 25.03.2020
497 Clear 0 1023 98 14484 3.6 180 05:58 25.03.2020
498 Clear 0 1023 98 14484 3.6 180 05:37 25.03.2020
499 Clouds 1 1023 98 14484 2.6 160 04:41 25.03.2020
500 Clear 2 1023 80 14484 1.5 220 03:52 25.03.2020
501 Clear 2 1023 80 14484 1.5 220 03:29 25.03.2020
502 Clear 3 1022 69 14484 2.6 200 01:31 25.03.2020
503 Clear 4 1022 64 14484 4.6 240 00:49 25.03.2020
504 Clear 4 1022 64 14484 4.6 240 00:26 25.03.2020
505 Clear 5 1021 60 14484 5.1 240 23:53 24.03.2020
506 Clear 5 1021 60 14484 5.1 240 23:28 24.03.2020
507 Clear 6 1021 60 14484 4.1 210 22:58 24.03.2020
508 Clear 6 1021 60 14484 4.1 210 22:38 24.03.2020
509 Clear 6 1021 60 14484 4.1 210 22:20 24.03.2020
510 Clear 6 1021 60 14484 4.1 210 22:20 24.03.2020
511 Clouds 6 1021 60 14484 1 0 21:57 24.03.2020
512 Clouds 6 1021 60 14484 1 0 21:39 24.03.2020
513 Clouds 6 1021 60 14484 1 0 21:18 24.03.2020
514 Clear 5 1021 60 14484 1 0 20:57 24.03.2020
515 Clear 5 1021 60 14484 1 0 20:39 24.03.2020
516 Clear 6 1021 60 14484 1 0 20:21 24.03.2020
517 Clouds 5 1022 64 14484 3.6 260 19:46 24.03.2020
518 Clouds 4 1022 64 14484 3.6 260 19:20 24.03.2020
519 Clouds 4 1022 69 14484 2.6 310 18:56 24.03.2020
520 Clouds 4 1022 64 14484 1.76 247 18:38 24.03.2020
521 Clouds 3 1022 64 14484 1.76 247 18:19 24.03.2020
522 Clouds 3 1023 69 14484 1.76 247 17:56 24.03.2020
523 Clouds 3 1023 69 14484 1.76 247 17:38 24.03.2020
524 Clouds 3 1023 69 14484 1.76 264 17:19 24.03.2020
525 Clouds 2 1023 86 12874 1 0 16:56 24.03.2020
526 Clouds 2 1023 86 12874 1 0 16:37 24.03.2020
527 Clouds 2 1023 86 12874 1 0 16:19 24.03.2020
528 Haze 1 1022 80 9656 1 0 15:42 24.03.2020
529 Haze 1 1022 80 9656 1 0 15:23 24.03.2020
530 Clouds 0 1022 96 11265 1 310 14:44 24.03.2020
531 Clouds 1 1022 95 12874 1.5 310 14:22 24.03.2020
532 Mist 0 1022 98 9656 1.5 310 13:59 24.03.2020
533 Mist 0 1022 100 6437 1.5 320 13:40 24.03.2020
534 Mist 0 1022 100 6437 1.5 320 13:22 24.03.2020
535 Mist -1 1021 100 6437 1.5 310 12:42 24.03.2020
536 Mist -1 1021 100 6437 1.5 310 12:24 24.03.2020
537 Mist -1 1020 100 8047 1.5 320 11:41 24.03.2020
538 Mist -1 1020 100 8047 1.5 320 11:22 24.03.2020
539 Mist -1 1020 100 4828 1.5 360 10:59 24.03.2020
540 Mist -1 1020 100 4828 2.6 350 10:41 24.03.2020
541 Mist -1 1020 100 4828 2.6 350 10:18 24.03.2020
542 Mist -1 1019 100 4828 2.1 350 09:46 24.03.2020
543 Mist -1 1019 100 4828 2.1 350 09:27 24.03.2020
544 Mist -1 1019 100 8047 2.1 360 08:57 24.03.2020
545 Mist -1 1019 100 8047 2.1 360 08:38 24.03.2020
546 Mist -1 1019 100 8047 2.1 360 08:19 24.03.2020
547 Mist -1 1020 100 4828 1.5 350 07:44 24.03.2020
548 Snow -1 1020 100 4828 1 20 07:22 24.03.2020
549 Snow -1 1020 100 3219 1 40 06:42 24.03.2020
550 Snow -1 1020 100 4828 0.43 139 06:21 24.03.2020
551 Snow -1 1021 100 4828 2.6 110 04:52 24.03.2020
552 Snow -1 1022 100 2816 2.1 110 03:41 24.03.2020
553 Snow -1 1022 100 4023 1.5 100 02:44 24.03.2020
554 Snow -1 1023 100 2816 3.1 130 00:57 24.03.2020
555 Snow -1 1023 100 2816 3.6 130 00:28 24.03.2020
556 Snow -1 1023 100 4828 3.1 130 23:59 23.03.2020
557 Snow -1 1023 98 2816 4.6 110 23:38 23.03.2020
558 Snow -1 1024 100 4828 3.6 130 23:19 23.03.2020
559 Snow 0 1024 100 2012 4.1 130 22:45 23.03.2020
560 Snow 0 1025 92 2012 2.6 150 22:23 23.03.2020
561 Snow -1 1025 92 2012 2.1 160 21:55 23.03.2020
562 Snow -1 1025 92 1609 4.1 160 21:37 23.03.2020
563 Snow -1 1025 92 1609 4.1 160 21:37 23.03.2020
564 Snow 0 1025 92 1609 4.1 160 21:19 23.03.2020
565 Snow 0 1025 92 1006 5.1 150 20:56 23.03.2020
566 Snow 0 1026 89 1006 7.2 140 20:38 23.03.2020
567 Snow 1 1026 60 1006 7.2 140 20:19 23.03.2020
568 Clouds 1 1026 59 8047 5.7 160 19:42 23.03.2020
569 Clouds 2 1027 51 14484 6.2 170 19:23 23.03.2020
570 Clouds 2 1027 55 11265 6.2 160 18:56 23.03.2020
571 Clouds 2 1028 47 14484 8.2 180 18:38 23.03.2020
572 Clouds 2 1028 47 14484 8.2 180 18:19 23.03.2020
573 Snow 1 1028 64 9656 7.2 150 17:42 23.03.2020
574 Rain 1 1029 43 14484 9.3 190 17:21 23.03.2020
575 Snow 1 1029 50 24140 7.7 150 16:56 23.03.2020
576 Clouds 1 1030 43 14484 9.3 180 16:38 23.03.2020
577 Clouds 1 1030 43 14484 9.3 180 16:19 23.03.2020
578 Clouds 1 1030 43 14484 8.7 180 15:41 23.03.2020
579 Clouds 1 1031 47 14484 8.2 170 15:19 23.03.2020
580 Clouds 0 1031 56 14484 4.6 160 14:38 23.03.2020
581 Clouds -2 1031 68 14484 4.6 160 14:20 23.03.2020
582 Clouds -2 1031 58 14484 2.6 140 13:59 23.03.2020
583 Clouds -3 1031 58 14484 2.6 140 13:40 23.03.2020
584 Clouds -4 1031 58 14484 2.6 140 13:20 23.03.2020
585 Clouds -4 1032 58 14484 3.1 120 12:44 23.03.2020
586 Clouds -4 1032 58 14484 3.1 120 12:25 23.03.2020
587 Clouds -5 1034 73 14484 2.6 30 11:59 23.03.2020
588 Clouds -5 1034 73 14484 2.6 30 11:40 23.03.2020
589 Clouds -5 1034 73 14484 2.6 30 11:20 23.03.2020
590 Clouds -5 1034 73 14484 2.6 30 11:20 23.03.2020
591 Clouds -5 1034 73 14484 2.1 40 10:58 23.03.2020
592 Clouds -6 1034 73 14484 2.1 40 10:38 23.03.2020
593 Clouds -6 1034 73 14484 2.1 40 10:38 23.03.2020
594 Clouds -6 1034 73 14484 2.1 40 10:20 23.03.2020
595 Clouds -6 1035 67 14484 2.6 10 09:44 23.03.2020
596 Clouds -6 1035 67 14484 2.6 10 09:21 23.03.2020
597 Clouds -6 1036 73 14484 2.6 30 08:57 23.03.2020
598 Clouds -6 1036 73 14484 2.6 30 08:36 23.03.2020
599 Clouds -6 1036 73 14484 2.6 30 08:18 23.03.2020
600 Clear -6 1037 67 14484 3.1 40 07:45 23.03.2020
601 Clear -6 1037 67 14484 3.1 40 07:27 23.03.2020
602 Clear -6 1037 67 14484 3.6 30 06:52 23.03.2020
603 Clear -6 1038 73 14484 3.6 30 05:55 23.03.2020
604 Clear -6 1038 73 14484 3.6 30 05:29 23.03.2020
605 Clear -5 1039 57 14484 1 60 03:41 23.03.2020
606 Clear -5 1040 53 14484 1.5 70 02:29 23.03.2020
607 Clear -4 1040 45 14484 2.1 110 01:34 23.03.2020
608 Clear -3 1040 35 14484 2.6 110 00:40 23.03.2020
609 Clear -2 1041 30 14484 2.6 110 23:48 22.03.2020
610 Clear -2 1041 30 14484 2.6 110 23:26 22.03.2020
611 Clear -2 1041 30 14484 2.6 110 23:26 22.03.2020
612 Clear -2 1041 33 14484 2.1 70 22:47 22.03.2020
613 Clear -2 1041 33 14484 2.1 70 22:26 22.03.2020
614 Clear -2 1041 36 14484 2.6 80 21:57 22.03.2020
615 Clear -2 1041 36 14484 2.6 80 21:57 22.03.2020
616 Clear -2 1041 36 14484 2.6 80 21:39 22.03.2020
617 Clear -2 1041 36 14484 2.6 80 21:20 22.03.2020
618 Clear -2 1042 38 14484 3.6 30 20:56 22.03.2020
619 Clear -2 1042 38 14484 3.6 30 20:38 22.03.2020
620 Clear -2 1042 38 14484 3.6 30 20:20 22.03.2020
621 Clear -3 1043 38 14484 2.1 0 19:55 22.03.2020
622 Clear -3 1043 38 14484 2.1 0 19:37 22.03.2020
623 Clear -3 1043 38 14484 2.1 0 19:18 22.03.2020
624 Clear -3 1043 35 14484 2.1 40 18:55 22.03.2020
625 Clear -3 1043 35 14484 2.1 40 18:37 22.03.2020
626 Clear -4 1043 35 14484 2.1 40 18:18 22.03.2020
627 Clear -4 1043 45 14484 3.6 50 17:55 22.03.2020
628 Clear -4 1043 45 14484 3.6 50 17:36 22.03.2020
629 Clear -4 1043 45 14484 3.6 50 17:18 22.03.2020
630 Clear -4 1043 45 14484 2.1 60 16:41 22.03.2020
631 Clear -5 1043 45 14484 2.1 60 16:22 22.03.2020
632 Clear -5 1043 44 14484 3.6 360 15:59 22.03.2020
633 Clear -5 1043 44 14484 3.6 360 15:39 22.03.2020
634 Clear -6 1043 52 14484 3.1 360 14:47 22.03.2020
635 Clear -7 1043 52 14484 3.1 360 14:20 22.03.2020
636 Clear -7 1042 61 14484 3.6 10 13:58 22.03.2020
637 Clear -7 1042 61 14484 3.6 10 13:58 22.03.2020
638 Clear -7 1042 61 14484 3.6 10 13:40 22.03.2020
639 Clear -8 1042 61 14484 3.6 10 13:19 22.03.2020
640 Clear -9 1041 66 14484 3.1 360 12:44 22.03.2020
641 Clear -9 1041 66 14484 3.1 360 12:23 22.03.2020
642 Clear -9 1040 57 14484 2.02 60 11:58 22.03.2020
643 Clear -9 1040 57 14484 2.02 60 11:39 22.03.2020
644 Clear -9 1040 57 14484 2.02 60 11:21 22.03.2020
645 Clear -9 1039 61 14484 2.33 42 10:44 22.03.2020
646 Clear -9 1039 61 14484 2.33 42 10:24 22.03.2020
647 Clear -9 1039 61 14484 2.33 42 10:24 22.03.2020
648 Clear -9 1039 66 14484 1 350 10:00 22.03.2020
649 Clear -9 1039 66 14484 1 350 09:40 22.03.2020
650 Clear -8 1039 66 14484 1 350 09:19 22.03.2020
651 Clear -8 1038 61 14484 1.5 50 08:42 22.03.2020
652 Clear -8 1038 61 14484 1.5 50 08:24 22.03.2020
653 Clear -7 1038 57 14484 3.1 10 07:50 22.03.2020
654 Clear -7 1038 57 14484 3.1 10 07:23 22.03.2020
655 Clear -7 1038 52 14484 4.1 20 06:35 22.03.2020
656 Clear -6 1037 53 14484 5.7 20 05:31 22.03.2020
657 Clear -5 1036 49 14484 3.6 340 03:25 22.03.2020
658 Clouds -4 1034 35 14484 4.1 310 01:27 22.03.2020
659 Clear -4 1033 32 14484 3.6 290 00:47 22.03.2020
660 Clear -3 1033 32 14484 3.6 290 00:25 22.03.2020
661 Clouds -2 1033 33 14484 3.1 270 23:43 21.03.2020
662 Clouds -2 1033 33 14484 3.1 270 23:19 21.03.2020
663 Clouds -2 1032 30 14484 6.2 300 22:55 21.03.2020
664 Clouds -2 1032 30 14484 6.2 300 22:37 21.03.2020
665 Clouds -2 1032 30 14484 6.2 300 22:18 21.03.2020
666 Clouds -1 1031 30 14484 2.6 310 21:54 21.03.2020
667 Clouds -1 1031 30 14484 2.6 310 21:36 21.03.2020
668 Clouds -2 1031 30 14484 2.6 310 21:18 21.03.2020
669 Clear -2 1032 33 14484 6.7 320 20:41 21.03.2020
670 Clear -2 1032 33 14484 6.7 320 20:20 21.03.2020
671 Clear -2 1033 42 14484 5.7 320 19:44 21.03.2020
672 Clear -3 1033 42 14484 5.7 320 19:25 21.03.2020
673 Clear -3 1033 45 14484 3.1 260 18:59 21.03.2020
674 Clear -3 1033 45 14484 3.1 260 18:39 21.03.2020
675 Clear -3 1033 45 14484 3.1 260 18:20 21.03.2020
676 Clear -4 1033 41 14484 4.6 310 17:57 21.03.2020
677 Clear -4 1033 41 14484 4.6 310 17:39 21.03.2020
678 Clear -4 1033 41 14484 4.6 310 17:20 21.03.2020
679 Clear -5 1033 41 14484 5.1 310 16:41 21.03.2020
680 Clear -5 1033 41 14484 5.1 310 16:22 21.03.2020
681 Clear -6 1032 37 14484 5.1 350 15:57 21.03.2020
682 Clear -6 1032 37 14484 5.1 350 15:39 21.03.2020
683 Clear -6 1032 37 14484 5.1 350 15:21 21.03.2020
684 Clear -6 1031 41 14484 5.1 310 14:55 21.03.2020
685 Clear -6 1031 41 14484 5.1 310 14:37 21.03.2020
686 Clear -7 1031 41 14484 5.1 310 14:18 21.03.2020
687 Clear -7 1030 44 14484 6.7 330 13:57 21.03.2020
688 Clear -7 1030 44 14484 6.7 330 13:38 21.03.2020
689 Clear -7 1030 44 14484 6.7 330 13:19 21.03.2020
690 Clear -7 1028 48 14484 5.1 310 12:41 21.03.2020
691 Clear -7 1028 48 14484 5.1 310 12:21 21.03.2020
692 Clear -7 1027 44 14484 5.7 330 11:59 21.03.2020
693 Clear -7 1027 44 14484 5.7 330 11:39 21.03.2020
694 Clear -7 1027 44 14484 5.7 330 11:39 21.03.2020
695 Clear -6 1027 44 14484 5.7 330 11:20 21.03.2020
696 Clear -6 1025 57 14484 5.1 300 10:58 21.03.2020
697 Clear -6 1025 57 14484 5.1 300 10:40 21.03.2020
698 Clear -6 1025 57 14484 5.1 300 10:22 21.03.2020
699 Clear -5 1024 58 14484 5.1 320 09:59 21.03.2020
700 Clear -5 1024 58 14484 5.1 320 09:39 21.03.2020
701 Clear -5 1024 58 14484 5.1 320 09:39 21.03.2020
702 Clear -5 1024 58 14484 5.1 320 09:20 21.03.2020
703 Clouds -4 1022 58 14484 8.2 310 08:55 21.03.2020
704 Clouds -4 1022 58 14484 8.2 310 08:37 21.03.2020
705 Clouds -4 1022 58 14484 8.2 310 08:19 21.03.2020
706 Clouds -3 1020 63 14484 7.7 290 07:37 21.03.2020
707 Clouds -3 1020 63 14484 7.7 290 07:19 21.03.2020
708 Clouds -2 1018 58 14484 8.2 310 06:44 21.03.2020
709 Clouds -2 1018 58 14484 8.2 310 06:24 21.03.2020
710 Clouds 0 1016 55 14484 8.7 310 05:40 21.03.2020
711 Clouds 1 1014 64 14484 9.8 300 04:26 21.03.2020
712 Clouds 4 1009 61 14484 7.7 280 02:37 21.03.2020
713 Clouds 5 1006 70 14484 9.8 290 01:45 21.03.2020
714 Clouds 5 1006 70 14484 9.8 290 01:25 21.03.2020
715 Clouds 7 1002 66 14484 12.3 280 00:43 21.03.2020
716 Clouds 7 1002 66 14484 12.3 280 00:23 21.03.2020
717 Clear 9 999 66 14484 13.9 270 23:44 20.03.2020
718 Clear 10 999 66 14484 13.9 270 23:22 20.03.2020
719 Clouds 12 996 67 14484 15.4 270 22:44 20.03.2020
720 Clouds 12 996 67 14484 15.4 270 22:44 20.03.2020
721 Clouds 13 996 67 14484 15.4 270 22:25 20.03.2020
722 Clouds 14 997 71 32767 13.4 280 21:59 20.03.2020
723 Rain 15 995 72 24140 11.3 250 21:40 20.03.2020
724 Rain 15 995 72 24140 11.3 250 21:20 20.03.2020
725 Clouds 14 994 82 14484 15.9 240 20:59 20.03.2020
726 Thunderstorm 13 994 93 9656 9.8 220 20:41 20.03.2020
727 Thunderstorm 12 994 93 9656 9.8 220 20:20 20.03.2020
728 Rain 11 994 93 24140 16.5 240 19:48 20.03.2020
729 Rain 10 995 93 14484 8.7 170 19:22 20.03.2020
730 Rain 10 996 87 4023 5.1 150 18:58 20.03.2020
731 Rain 10 996 87 4828 5.7 150 18:39 20.03.2020
732 Rain 10 996 87 4828 5.7 150 18:20 20.03.2020
733 Rain 10 997 87 9656 6.7 150 17:56 20.03.2020
734 Clouds 9 999 93 14484 8.7 180 17:38 20.03.2020
735 Clouds 8 999 93 14484 8.7 180 17:19 20.03.2020
736 Clouds 8 1000 93 14484 7.2 180 16:42 20.03.2020
737 Clouds 7 1000 93 14484 7.2 180 16:21 20.03.2020
738 Rain 7 1001 93 14484 7.2 180 15:58 20.03.2020
739 Rain 6 1001 100 2816 7.7 180 15:39 20.03.2020
740 Rain 6 1001 100 2816 7.7 180 15:20 20.03.2020
741 Rain 6 1002 93 4828 10.8 180 14:42 20.03.2020
742 Rain 5 1002 93 3621 3.1 140 14:21 20.03.2020
743 Rain 5 1002 93 3621 3.1 140 14:21 20.03.2020
744 Rain 5 1003 93 3219 8.2 180 13:50 20.03.2020
745 Clouds 5 1003 93 11265 8.2 170 13:26 20.03.2020
746 Rain 5 1004 100 4828 8.7 170 12:59 20.03.2020
747 Rain 5 1005 100 3621 7.7 160 12:38 20.03.2020
748 Rain 5 1005 100 3621 7.7 160 12:20 20.03.2020
749 Rain 4 1006 93 4828 7.7 150 11:41 20.03.2020
750 Rain 4 1006 93 4828 7.7 150 11:21 20.03.2020
751 Rain 4 1008 93 14484 5.1 150 10:58 20.03.2020
752 Rain 4 1009 93 14484 5.1 140 10:40 20.03.2020
753 Rain 4 1009 93 14484 5.1 140 10:18 20.03.2020
754 Rain 4 1011 93 14484 4.1 140 09:47 20.03.2020
755 Rain 4 1011 93 14484 4.1 140 09:21 20.03.2020
756 Rain 4 1014 80 14484 1.5 140 08:59 20.03.2020
757 Rain 4 1014 80 14484 1.5 140 08:40 20.03.2020
758 Rain 4 1014 80 14484 1.5 140 08:19 20.03.2020
759 Clouds 4 1015 80 14484 4.1 120 07:45 20.03.2020
760 Clouds 4 1015 80 14484 4.1 120 07:26 20.03.2020
761 Clouds 4 1017 86 14484 3.1 140 06:47 20.03.2020
762 Clouds 4 1017 86 14484 3.1 140 06:29 20.03.2020
763 Clouds 4 1020 80 14484 3.1 120 04:49 20.03.2020
764 Clouds 3 1021 99 14484 2.1 80 03:18 20.03.2020
765 Clear 3 1023 80 14484 2.1 30 01:51 20.03.2020
766 Clear 4 1023 74 14484 2.6 20 00:46 20.03.2020
767 Clear 4 1023 74 14484 2.6 20 00:24 20.03.2020
768 Clouds 6 1024 98 14484 3.1 40 23:42 19.03.2020
769 Clouds 6 1024 98 14484 3.1 40 23:23 19.03.2020
770 Clouds 7 1024 60 14484 4.1 30 22:55 19.03.2020
771 Clouds 7 1024 60 14484 4.1 30 22:37 19.03.2020
772 Clouds 6 1024 60 14484 4.1 30 22:18 19.03.2020
773 Clouds 7 1025 96 14484 4.1 40 21:40 19.03.2020
774 Clouds 7 1025 96 14484 4.1 40 21:20 19.03.2020
775 Clouds 7 1025 96 14484 3.1 50 20:55 19.03.2020
776 Clouds 7 1025 96 14484 3.1 50 20:37 19.03.2020
777 Clouds 8 1025 95 14484 3.1 50 20:19 19.03.2020
778 Clouds 8 1025 65 14484 3.6 90 19:55 19.03.2020
779 Clouds 8 1025 65 14484 3.6 90 19:36 19.03.2020
780 Clouds 7 1025 65 14484 3.6 90 19:18 19.03.2020
781 Clouds 6 1026 65 14484 3.1 100 18:42 19.03.2020
782 Clouds 6 1026 65 14484 3.1 100 18:22 19.03.2020
783 Clouds 5 1027 64 14484 3.6 30 17:56 19.03.2020
784 Clouds 4 1027 64 14484 3.6 30 17:38 19.03.2020
785 Clouds 3 1027 64 14484 3.6 30 17:18 19.03.2020
786 Clouds 2 1028 64 14484 4.1 20 16:43 19.03.2020
787 Clouds 2 1028 64 14484 4.1 20 16:22 19.03.2020
788 Clouds 1 1027 69 14484 4.1 20 15:44 19.03.2020
789 Clouds 2 1027 69 14484 4.1 20 15:25 19.03.2020
790 Clouds 1 1026 96 14484 4.6 30 14:55 19.03.2020
791 Clouds 1 1026 96 14484 4.6 30 14:37 19.03.2020
792 Clouds 2 1026 89 14484 4.6 30 14:18 19.03.2020
793 Clouds 1 1027 74 14484 5.1 20 13:39 19.03.2020
794 Clouds 0 1027 74 14484 5.1 20 13:19 19.03.2020
795 Clouds 0 1027 68 14484 4.6 30 12:55 19.03.2020
796 Clouds 0 1027 68 14484 4.6 30 12:37 19.03.2020
797 Clouds 0 1027 68 14484 4.6 30 12:18 19.03.2020
798 Clouds 0 1027 68 14484 5.1 20 11:41 19.03.2020
799 Clouds -1 1027 68 14484 5.1 20 11:23 19.03.2020
800 Clouds 0 1026 86 14484 4.6 10 10:56 19.03.2020
801 Clouds 0 1026 86 14484 4.6 10 10:36 19.03.2020
802 Clouds 0 1026 86 14484 4.6 10 10:18 19.03.2020
803 Clouds 0 1026 86 14484 4.1 30 09:42 19.03.2020
804 Clouds 0 1026 86 14484 4.1 30 09:24 19.03.2020
805 Clouds 0 1027 86 14484 3.6 30 08:48 19.03.2020
806 Clouds 0 1027 82 14484 3.6 30 08:23 19.03.2020
807 Clouds 0 1027 78 14484 4.6 30 07:59 19.03.2020
808 Clouds 0 1027 78 14484 4.6 30 07:38 19.03.2020
809 Clouds 0 1027 78 14484 4.6 30 07:19 19.03.2020
810 Clouds 0 1028 78 14484 3.6 40 06:27 19.03.2020
811 Clouds 0 1028 78 14484 4.6 30 05:25 19.03.2020
812 Clouds 0 1029 75 14484 3.1 30 04:47 19.03.2020
813 Clouds 0 1030 75 14484 2.6 40 03:55 19.03.2020
814 Clouds 1 1030 74 14484 2.1 40 01:58 19.03.2020
815 Clouds 1 1030 64 14484 2.1 50 00:53 19.03.2020
816 Clouds 1 1030 64 14484 2.1 50 00:19 19.03.2020
817 Clouds 2 1030 43 14484 2.6 90 23:43 18.03.2020
818 Clouds 2 1030 43 14484 2.6 90 23:23 18.03.2020
819 Clouds 2 1031 47 14484 3.1 130 22:43 18.03.2020
820 Clouds 2 1031 47 14484 3.1 130 22:23 18.03.2020
821 Clouds 2 1031 40 14484 3.6 160 21:58 18.03.2020
822 Clouds 3 1031 40 14484 3.6 160 21:40 18.03.2020
823 Clouds 3 1031 40 14484 3.6 160 21:20 18.03.2020
824 Clouds 3 1032 43 14484 4.6 100 20:55 18.03.2020
825 Clouds 3 1032 43 14484 4.6 100 20:37 18.03.2020
826 Clouds 2 1032 43 14484 4.6 100 20:19 18.03.2020
827 Clear 2 1032 40 14484 2.6 0 19:41 18.03.2020
828 Clear 2 1032 40 14484 2.6 0 19:21 18.03.2020
829 Clear 2 1033 37 14484 4.1 130 18:59 18.03.2020
830 Clear 2 1033 37 14484 4.1 130 18:40 18.03.2020
831 Clear 2 1033 37 14484 4.1 130 18:19 18.03.2020
832 Clear 2 1033 37 14484 4.1 130 18:19 18.03.2020
833 Clouds 1 1033 78 14484 2.6 10 17:56 18.03.2020
834 Clouds 1 1033 78 14484 2.6 10 17:38 18.03.2020
835 Clouds 1 1033 76 14484 2.6 10 17:19 18.03.2020
836 Clouds 1 1034 36 14484 0.38 16 16:43 18.03.2020
837 Clouds 1 1034 36 14484 0.38 16 16:21 18.03.2020
838 Clouds 0 1033 33 32767 2.6 50 15:58 18.03.2020
839 Clouds 0 1033 36 14484 2.1 50 15:38 18.03.2020
840 Clouds 0 1033 33 32767 2.6 50 15:20 18.03.2020
841 Clouds -1 1032 54 14484 2.6 20 14:43 18.03.2020
842 Clouds -2 1032 54 14484 2.6 20 14:21 18.03.2020
843 Clouds -2 1031 58 14484 2.1 10 13:42 18.03.2020
844 Clouds -3 1031 58 14484 2.1 10 13:19 18.03.2020
845 Clouds -3 1031 58 14484 2.1 10 13:19 18.03.2020
846 Clouds -3 1030 58 14484 3.6 350 12:55 18.03.2020
847 Clouds -3 1030 58 14484 3.6 350 12:37 18.03.2020
848 Clouds -3 1030 58 14484 3.6 350 12:19 18.03.2020
849 Clear -3 1029 63 14484 3.1 360 11:38 18.03.2020
850 Clear -3 1029 63 14484 3.1 360 11:19 18.03.2020
851 Clear -3 1027 68 14484 3.6 330 10:57 18.03.2020
852 Clear -3 1027 68 14484 3.6 330 10:37 18.03.2020
853 Clear -2 1027 68 14484 3.6 330 10:19 18.03.2020
854 Clear -2 1026 74 14484 2.6 310 09:43 18.03.2020
855 Clear -2 1026 74 14484 2.6 310 09:24 18.03.2020
856 Clouds -1 1025 87 14484 3.6 330 08:56 18.03.2020
857 Clouds -1 1025 87 14484 3.6 330 08:38 18.03.2020
858 Clouds -1 1025 87 14484 3.6 330 08:38 18.03.2020
859 Clouds -1 1025 89 14484 3.6 330 08:20 18.03.2020
860 Clear 0 1023 59 14484 6.7 290 07:44 18.03.2020
861 Clear 0 1023 59 14484 6.7 290 07:26 18.03.2020
862 Clouds 0 1022 83 14484 3.6 220 06:44 18.03.2020
863 Clouds 0 1022 83 14484 3.6 220 06:18 18.03.2020
864 Clouds 0 1022 83 14484 3.6 220 05:34 18.03.2020
865 Clear 1 1021 74 14484 3.1 270 04:24 18.03.2020
866 Clouds 2 1019 74 24140 2.6 280 02:43 18.03.2020
867 Clouds 3 1018 64 14484 4.1 290 01:48 18.03.2020
868 Clouds 3 1017 74 32767 1 0 01:26 18.03.2020
869 Clouds 4 1015 81 14484 6.7 240 00:24 18.03.2020
870 Clouds 5 1014 70 14484 7.2 240 23:48 17.03.2020
871 Clouds 5 1014 70 14484 7.2 240 23:27 17.03.2020
872 Clouds 5 1013 70 14484 9.8 250 22:57 17.03.2020
873 Clouds 5 1013 70 14484 9.8 250 22:37 17.03.2020
874 Clouds 5 1013 70 14484 9.8 250 22:19 17.03.2020
875 Clouds 5 1013 80 14484 8.7 250 21:39 17.03.2020
876 Clouds 5 1013 80 14484 8.7 250 21:21 17.03.2020
877 Clouds 5 1013 80 14484 8.7 250 21:21 17.03.2020
878 Clouds 5 1013 80 14484 8.7 250 21:21 17.03.2020
879 Clouds 4 1013 86 14484 7.7 230 20:40 17.03.2020
880 Clouds 4 1013 86 14484 7.7 230 20:40 17.03.2020
881 Clouds 4 1013 86 14484 7.7 230 20:21 17.03.2020
882 Rain 3 1013 93 14484 10.3 240 19:58 17.03.2020
883 Rain 3 1013 93 14484 10.3 240 19:39 17.03.2020
884 Rain 3 1013 93 14484 10.3 240 19:18 17.03.2020
885 Rain 3 1014 86 24140 10.8 230 18:56 17.03.2020
886 Rain 3 1014 86 24140 10.8 230 18:37 17.03.2020
887 Rain 2 1012 93 12874 5.1 230 18:19 17.03.2020
888 Snow 2 1013 99 3219 8.2 190 17:40 17.03.2020
889 Snow 2 1013 99 3219 8.2 190 17:40 17.03.2020
890 Snow 2 1013 99 3219 8.2 190 17:21 17.03.2020
891 Snow 2 1013 99 3219 6.2 190 16:55 17.03.2020
892 Rain 2 1013 99 24140 5.1 180 16:37 17.03.2020
893 Rain 2 1013 99 24140 5.1 180 16:18 17.03.2020
894 Snow 1 1014 99 4828 8.7 180 15:43 17.03.2020
895 Snow 1 1014 99 2414 8.7 180 15:21 17.03.2020
896 Snow 1 1014 99 3621 6.7 180 14:43 17.03.2020
897 Snow 1 1014 99 3621 6.7 180 14:43 17.03.2020
898 Snow 1 1015 86 3621 8.7 180 14:21 17.03.2020
899 Snow 1 1015 86 4023 9.8 170 13:45 17.03.2020
900 Snow 1 1016 86 8047 8.2 170 13:27 17.03.2020
901 Snow 1 1016 86 9656 9.3 170 12:59 17.03.2020
902 Snow 1 1016 83 4828 11.3 170 12:40 17.03.2020
903 Snow 1 1016 83 4828 11.3 170 12:22 17.03.2020
904 Snow 1 1017 86 4828 11.3 170 11:47 17.03.2020
905 Snow 1 1017 83 4828 10.8 180 11:28 17.03.2020
906 Snow 1 1017 86 6437 7.2 150 10:58 17.03.2020
907 Snow 1 1018 80 8047 8.2 180 10:38 17.03.2020
908 Snow 1 1018 80 8047 8.2 180 10:20 17.03.2020
909 Clouds 1 1019 64 12874 10.3 180 09:59 17.03.2020
910 Rain 1 1019 59 14484 10.3 170 09:39 17.03.2020
911 Rain 1 1019 59 14484 10.3 170 09:19 17.03.2020
912 Rain 1 1019 59 14484 9.8 180 08:47 17.03.2020
913 Clouds 1 1019 55 14484 10.8 180 08:22 17.03.2020
914 Clouds 1 1021 51 14484 7.7 180 07:50 17.03.2020
915 Clouds 0 1021 51 14484 7.7 180 07:26 17.03.2020
916 Clouds 0 1021 43 14484 8.7 180 06:58 17.03.2020
917 Clouds -1 1021 43 14484 8.7 180 06:33 17.03.2020
918 Clouds -2 1022 67 14484 6.7 180 05:49 17.03.2020
919 Clouds -3 1026 68 14484 2.1 20 03:43 17.03.2020
920 Clouds -3 1027 68 14484 3.6 30 02:46 17.03.2020
921 Clouds -3 1027 68 14484 3.1 40 01:43 17.03.2020
922 Clouds -3 1027 68 14484 3.1 40 01:24 17.03.2020
923 Clouds -3 1029 58 14484 3.6 50 00:38 17.03.2020
924 Clear -2 1030 54 14484 3.6 40 23:45 16.03.2020
925 Clear -2 1030 54 14484 3.6 40 23:27 16.03.2020
926 Clouds -1 1030 46 14484 4.6 30 22:41 16.03.2020
927 Clouds -1 1030 46 14484 4.6 30 22:41 16.03.2020
928 Clouds -1 1030 46 14484 4.6 30 22:23 16.03.2020
929 Clear -1 1032 39 14484 2.6 100 21:57 16.03.2020
930 Clear -1 1032 39 14484 2.6 100 21:39 16.03.2020
931 Clear -1 1032 39 14484 2.6 100 21:21 16.03.2020
932 Clouds -1 1033 39 14484 2.6 80 20:56 16.03.2020
933 Clouds -1 1033 39 14484 2.6 80 20:37 16.03.2020
934 Clouds -1 1033 39 14484 2.6 80 20:19 16.03.2020
935 Clear -2 1035 45 14484 3.1 70 19:41 16.03.2020
936 Clear -2 1035 45 14484 3.1 70 19:20 16.03.2020
937 Clear -3 1036 45 14484 2.6 60 18:43 16.03.2020
938 Clear -3 1036 45 14484 2.6 60 18:22 16.03.2020
939 Clear -4 1037 49 14484 3.1 10 17:56 16.03.2020
940 Clear -4 1037 49 14484 3.1 10 17:37 16.03.2020
941 Clear -5 1038 52 14484 3.6 30 17:18 16.03.2020
942 Clear -5 1038 52 14484 3.6 30 16:45 16.03.2020
943 Clear -5 1038 52 14484 3.6 30 16:27 16.03.2020
944 Clear -6 1039 57 14484 3.1 30 15:56 16.03.2020
945 Clear -6 1039 57 14484 3.1 30 15:37 16.03.2020
946 Clear -7 1039 57 14484 3.1 30 15:18 16.03.2020
947 Clear -8 1039 52 14484 3.1 50 14:39 16.03.2020
948 Clear -8 1039 52 14484 3.1 50 14:19 16.03.2020
949 Clear -9 1040 61 14484 4.1 50 13:41 16.03.2020
950 Clear -9 1040 61 14484 4.1 50 13:22 16.03.2020
951 Clear -10 1040 66 14484 2.1 30 12:45 16.03.2020
952 Clear -10 1040 66 14484 2.1 30 12:26 16.03.2020
953 Clear -10 1040 66 14484 2.6 30 11:58 16.03.2020
954 Clear -10 1040 66 14484 2.6 30 11:39 16.03.2020
955 Clear -10 1040 66 14484 2.6 30 11:18 16.03.2020
956 Clear -10 1039 61 14484 3.6 10 10:41 16.03.2020
957 Clear -9 1039 61 14484 3.6 10 10:19 16.03.2020
958 Clear -9 1039 61 14484 3.6 30 09:44 16.03.2020
959 Clear -9 1039 61 14484 3.6 30 09:24 16.03.2020
960 Clear -8 1039 57 14484 4.1 40 08:54 16.03.2020
961 Clear -8 1039 57 14484 4.1 40 08:25 16.03.2020
962 Clear -8 1040 57 14484 3.6 20 07:50 16.03.2020
963 Clear -7 1040 57 14484 3.6 20 07:27 16.03.2020
964 Clear -7 1039 52 14484 4.6 360 06:54 16.03.2020
965 Clear -7 1039 52 14484 4.6 360 06:26 16.03.2020
966 Clear -6 1039 48 14484 4.1 10 05:50 16.03.2020
967 Clear -4 1038 49 14484 4.3 32 02:45 16.03.2020
968 Clear -4 1037 53 14484 2.6 230 01:20 16.03.2020
969 Clear -3 1037 53 14484 4.1 230 00:40 16.03.2020
970 Clear -2 1037 42 14484 2.6 240 23:48 15.03.2020
971 Clear -2 1037 42 14484 2.6 240 23:20 15.03.2020
972 Clear -2 1037 36 14484 2.6 240 22:43 15.03.2020
973 Clear -1 1037 36 14484 2.6 240 22:23 15.03.2020
974 Clear -2 1037 36 14484 3.6 330 21:59 15.03.2020
975 Clear -1 1037 36 14484 3.6 330 21:38 15.03.2020
976 Clear -2 1037 36 14484 3.6 330 21:19 15.03.2020
977 Clear -2 1037 42 14484 2.1 0 20:43 15.03.2020
978 Clear -3 1037 42 14484 2.1 0 20:22 15.03.2020
979 Clear -3 1037 45 14484 4.1 340 19:58 15.03.2020
980 Clear -3 1037 45 14484 4.1 340 19:40 15.03.2020
981 Clear -3 1037 45 14484 4.1 340 19:21 15.03.2020
982 Clear -4 1038 53 14484 4.6 340 18:56 15.03.2020
983 Clear -4 1038 53 14484 4.6 340 18:38 15.03.2020
984 Clear -4 1038 53 14484 4.6 340 18:20 15.03.2020
985 Clouds -5 1038 57 14484 2.1 280 17:41 15.03.2020
986 Clouds -5 1038 57 14484 2.1 280 17:22 15.03.2020
987 Clouds -5 1038 52 14484 3.6 20 16:59 15.03.2020
988 Clouds -6 1038 52 14484 3.6 20 16:40 15.03.2020
989 Clouds -6 1038 52 14484 3.6 20 16:21 15.03.2020
990 Clear -6 1038 61 14484 5.1 20 15:56 15.03.2020
991 Clear -6 1038 61 14484 5.1 20 15:38 15.03.2020
992 Clear -7 1038 61 14484 5.1 20 15:19 15.03.2020
993 Clouds -7 1037 61 14484 6.7 10 14:40 15.03.2020
994 Clouds -7 1037 61 14484 6.7 10 14:22 15.03.2020
995 Clouds -7 1037 67 14484 7.7 20 13:56 15.03.2020
996 Clouds -8 1037 67 14484 7.7 20 13:38 15.03.2020
997 Clouds -8 1037 67 14484 7.7 20 13:18 15.03.2020
998 Clouds -8 1036 67 14484 5.7 360 12:40 15.03.2020
999 Clouds -8 1036 67 14484 5.7 360 12:22 15.03.2020
1000 Clear -7 1035 62 14484 4.6 20 11:45 15.03.2020
1001 Clear -7 1035 62 14484 4.6 20 11:26 15.03.2020
1002 Clear -7 1034 62 14484 6.2 10 10:59 15.03.2020
1003 Clear -7 1034 62 14484 6.2 10 10:41 15.03.2020
1004 Clear -6 1034 62 14484 6.2 10 10:22 15.03.2020
1005 Clear -6 1034 62 14484 6.2 10 10:22 15.03.2020
1006 Clear -6 1032 62 14484 5.7 360 09:59 15.03.2020
1007 Clear -6 1032 62 14484 5.7 360 09:39 15.03.2020
1008 Clear -5 1032 62 14484 5.7 360 09:20 15.03.2020
1009 Clear -5 1032 62 14484 6.2 360 08:41 15.03.2020
1010 Clear -5 1032 62 14484 6.2 360 08:20 15.03.2020
1011 Clear -4 1031 58 14484 5.1 350 07:50 15.03.2020
1012 Clear -4 1031 58 14484 5.1 350 07:23 15.03.2020
1013 Clear -3 1030 53 14484 4.6 350 06:44 15.03.2020
1014 Clear -2 1030 50 14484 5.7 350 05:49 15.03.2020
1015 Clouds -1 1030 54 14484 2.6 10 04:58 15.03.2020
1016 Clouds -1 1030 54 14484 2.6 10 04:40 15.03.2020
1017 Clouds 0 1030 54 14484 2.6 10 04:21 15.03.2020
1018 Clouds 0 1029 37 14484 5.1 320 03:25 15.03.2020
1019 Clouds 1 1028 34 14484 6.7 310 02:36 15.03.2020
1020 Clouds 2 1028 31 24140 6.2 320 01:19 15.03.2020
1021 Clear 2 1026 32 14484 6.2 320 00:42 15.03.2020
1022 Clear 3 1026 32 14484 6.2 320 00:20 15.03.2020
1023 Clear 4 1025 30 14484 7.7 310 23:41 14.03.2020
1024 Clear 4 1025 30 14484 7.7 310 23:20 14.03.2020
1025 Clear 5 1024 32 14484 8.7 300 22:57 14.03.2020
1026 Clear 5 1024 32 14484 8.7 300 22:38 14.03.2020
1027 Clear 5 1024 32 14484 8.7 300 22:20 14.03.2020
1028 Clear 5 1023 35 14484 7.7 290 21:56 14.03.2020
1029 Clear 5 1023 35 14484 7.7 290 21:36 14.03.2020
1030 Clear 5 1023 35 14484 7.7 290 21:18 14.03.2020
1031 Clear 5 1023 41 14484 7.2 270 20:58 14.03.2020
1032 Clear 5 1023 41 14484 7.2 270 20:39 14.03.2020
1033 Clear 5 1023 41 14484 7.2 270 20:19 14.03.2020
1034 Clear 5 1022 44 14484 7.2 290 19:42 14.03.2020
1035 Clear 5 1022 44 14484 7.2 290 19:42 14.03.2020
1036 Clear 5 1022 44 14484 7.2 290 19:24 14.03.2020
1037 Clouds 5 1022 51 14484 8.7 280 18:41 14.03.2020
1038 Clouds 4 1022 51 14484 8.7 280 18:23 14.03.2020
1039 Clouds 4 1022 51 14484 11.3 280 17:56 14.03.2020
1040 Clouds 4 1022 51 14484 11.3 280 17:38 14.03.2020
1041 Clouds 3 1022 51 14484 11.3 280 17:20 14.03.2020
1042 Clouds 3 1022 47 14484 7.2 290 16:41 14.03.2020
1043 Clouds 3 1022 47 14484 7.2 290 16:23 14.03.2020
1044 Clouds 3 1021 51 14484 11.8 280 15:56 14.03.2020
1045 Clouds 3 1021 51 14484 11.8 280 15:26 14.03.2020
1046 Clouds 3 1019 55 14484 10.8 280 14:58 14.03.2020
1047 Clouds 2 1019 55 14484 10.8 280 14:36 14.03.2020
1048 Clouds 1 1019 55 14484 10.8 280 14:18 14.03.2020
1049 Clouds 1 1018 64 14484 7.7 270 13:42 14.03.2020
1050 Clouds 1 1018 64 14484 7.7 270 13:23 14.03.2020
1051 Clouds 1 1017 59 14484 10.8 280 12:47 14.03.2020
1052 Clouds 1 1017 59 14484 10.8 280 12:27 14.03.2020
1053 Clouds 1 1015 55 14484 11.3 260 11:59 14.03.2020
1054 Clouds 1 1015 55 14484 11.3 260 11:39 14.03.2020
1055 Clouds 2 1015 55 14484 11.3 260 11:20 14.03.2020
1056 Clouds 2 1014 59 14484 12.9 260 10:46 14.03.2020
1057 Clouds 2 1014 59 14484 12.9 260 10:27 14.03.2020
1058 Clouds 2 1012 59 14484 13.9 260 09:57 14.03.2020
1059 Clouds 2 1012 59 14484 13.9 260 09:39 14.03.2020
1060 Clouds 2 1012 59 14484 13.9 260 09:19 14.03.2020
1061 Clouds 2 1012 64 14484 11.8 260 08:45 14.03.2020
1062 Snow 3 1013 59 24140 14.4 260 08:23 14.03.2020
1063 Clouds 3 1011 59 14484 12.3 250 07:39 14.03.2020
1064 Clouds 3 1011 59 14484 12.3 250 07:20 14.03.2020
1065 Clouds 3 1010 59 14484 11.3 250 06:41 14.03.2020
1066 Clouds 3 1010 59 14484 12.3 250 05:56 14.03.2020
1067 Clouds 3 1009 59 14484 13.9 250 04:51 14.03.2020
1068 Clouds 4 1008 55 14484 12.9 250 03:25 14.03.2020
1069 Clouds 4 1008 55 14484 13.4 250 02:35 14.03.2020
1070 Clouds 4 1008 55 14484 13.4 250 02:35 14.03.2020
1071 Clouds 4 1007 60 14484 12.9 240 01:27 14.03.2020
1072 Clouds 5 1006 56 14484 10.8 240 00:22 14.03.2020
1073 Clouds 5 1005 56 14484 13.4 240 23:38 13.03.2020
1074 Clouds 5 1005 56 14484 13.4 240 23:18 13.03.2020
1075 Clear 6 1004 56 14484 12.9 240 22:41 13.03.2020
1076 Clear 6 1004 56 14484 12.9 240 22:20 13.03.2020
1077 Clouds 7 1003 63 14484 13.4 240 21:40 13.03.2020
1078 Clouds 7 1003 63 14484 13.4 240 21:18 13.03.2020
1079 Clouds 7 1001 65 14484 17 250 20:42 13.03.2020
1080 Clouds 7 1001 65 14484 17 250 20:22 13.03.2020
1081 Clouds 8 999 66 14484 18 240 19:55 13.03.2020
1082 Clouds 8 999 66 14484 18 240 19:36 13.03.2020
1083 Clouds 8 999 66 14484 18 240 19:18 13.03.2020
1084 Rain 7 999 93 14484 8.2 190 18:39 13.03.2020
1085 Rain 7 999 93 14484 8.2 190 18:21 13.03.2020
1086 Rain 6 998 100 8047 11.3 180 17:42 13.03.2020
1087 Rain 5 998 100 8047 11.3 180 17:21 13.03.2020
1088 Rain 5 997 87 16093 9.8 170 16:56 13.03.2020
1089 Mist 5 998 93 4828 11.3 180 16:38 13.03.2020
1090 Mist 5 998 93 4828 11.3 180 16:19 13.03.2020
1091 Mist 4 998 93 4828 9.3 170 15:42 13.03.2020
1092 Rain 4 999 86 8047 10.3 160 15:21 13.03.2020
1093 Rain 4 999 86 19312 15.4 140 14:55 13.03.2020
1094 Rain 4 1001 93 8047 9.8 150 14:36 13.03.2020
1095 Rain 3 1001 93 8047 9.8 150 14:18 13.03.2020
1096 Rain 4 1002 86 8047 8.7 150 13:42 13.03.2020
1097 Rain 4 1003 93 9656 9.3 140 13:21 13.03.2020
1098 Rain 4 1004 86 6437 9.8 130 12:58 13.03.2020
1099 Rain 4 1006 80 14484 6.7 150 12:38 13.03.2020
1100 Rain 4 1006 80 14484 6.7 150 12:19 13.03.2020
1101 Rain 4 1007 80 14484 4.1 130 11:55 13.03.2020
1102 Clouds 4 1007 75 24140 9.8 130 11:36 13.03.2020
1103 Clouds 4 1009 80 14484 5.7 140 11:18 13.03.2020
1104 Clouds 3 1010 93 14484 5.7 130 10:46 13.03.2020
1105 Clouds 3 1010 93 14484 5.7 130 10:25 13.03.2020
1106 Rain 2 1011 93 9656 5.7 130 09:48 13.03.2020
1107 Rain 2 1012 93 14484 5.7 130 09:28 13.03.2020
1108 Clouds 2 1013 93 14484 5.7 130 08:59 13.03.2020
1109 Clouds 2 1013 93 14484 5.7 130 08:38 13.03.2020
1110 Clouds 2 1013 90 14484 5.7 130 08:20 13.03.2020
1111 Clouds 1 1015 90 14484 4.1 340 07:44 13.03.2020
1112 Clouds 1 1015 90 14484 4.1 340 07:25 13.03.2020
1113 Clouds 1 1016 90 14484 4.1 350 06:46 13.03.2020
1114 Clouds 1 1016 90 14484 4.1 350 06:21 13.03.2020
1115 Clouds 0 1016 90 14484 3.6 30 05:45 13.03.2020
1116 Clouds 0 1018 93 14484 3.6 10 04:57 13.03.2020
1117 Clouds 0 1018 93 14484 3.6 10 04:25 13.03.2020
1118 Clouds 0 1019 93 14484 5.7 30 02:43 13.03.2020
1119 Clouds 0 1020 89 14484 6.2 30 01:37 13.03.2020
1120 Clouds 0 1020 90 14484 6.2 30 01:18 13.03.2020
1121 Clouds 0 1020 90 14484 6.2 30 00:41 13.03.2020
1122 Clouds 0 1020 90 14484 6.2 30 00:19 13.03.2020
1123 Clouds 1 1021 64 14484 5.7 20 23:39 12.03.2020
1124 Clouds 1 1021 64 14484 5.7 20 23:19 12.03.2020
1125 Clouds 2 1020 64 14484 5.1 30 22:47 12.03.2020
1126 Clouds 2 1020 64 14484 5.1 30 22:28 12.03.2020
1127 Clouds 2 1021 64 14484 4.6 40 21:57 12.03.2020
1128 Clouds 2 1021 64 14484 4.6 40 21:39 12.03.2020
1129 Clouds 2 1021 64 14484 4.6 40 21:20 12.03.2020
1130 Clouds 2 1022 59 14484 5.7 30 20:42 12.03.2020
1131 Clouds 2 1022 59 14484 5.7 30 20:42 12.03.2020
1132 Clouds 1 1022 59 14484 5.7 30 20:20 12.03.2020
1133 Clear 1 1022 96 14484 5.7 40 19:56 12.03.2020
1134 Clear 1 1022 96 14484 5.7 40 19:37 12.03.2020
1135 Clear 1 1022 96 14484 5.7 40 19:18 12.03.2020
1136 Clouds 1 1022 96 14484 4.6 40 18:42 12.03.2020
1137 Clouds 1 1022 96 14484 4.6 40 18:22 12.03.2020
1138 Clouds 0 1022 63 14484 5.7 40 17:56 12.03.2020
1139 Clouds 0 1022 63 14484 5.7 40 17:37 12.03.2020
1140 Clouds 0 1022 63 14484 5.7 40 17:18 12.03.2020
1141 Clouds -1 1023 68 14484 5.1 40 16:41 12.03.2020
1142 Clouds -1 1023 68 14484 5.1 40 16:23 12.03.2020
1143 Clouds -1 1023 68 14484 4.6 40 15:59 12.03.2020
1144 Clouds -2 1023 68 14484 4.6 40 15:39 12.03.2020
1145 Clouds -2 1023 68 14484 4.6 40 15:21 12.03.2020
1146 Clouds -3 1023 73 14484 5.1 30 14:38 12.03.2020
1147 Clouds -3 1023 73 14484 5.1 30 14:19 12.03.2020
1148 Clouds -4 1023 79 14484 3.1 40 13:40 12.03.2020
1149 Clouds -4 1023 79 14484 3.1 40 13:21 12.03.2020
1150 Clouds -4 1023 79 14484 3.1 40 13:21 12.03.2020
1151 Clouds -4 1022 79 14484 4.1 50 12:55 12.03.2020
1152 Clouds -4 1022 79 14484 4.1 50 12:37 12.03.2020
1153 Clouds -4 1022 79 14484 4.1 50 12:18 12.03.2020
1154 Clouds -4 1022 79 14484 3.1 40 11:56 12.03.2020
1155 Clouds -4 1022 79 14484 3.1 40 11:37 12.03.2020
1156 Clouds -4 1022 79 14484 3.1 40 11:18 12.03.2020
1157 Clouds -4 1022 73 14484 3.1 40 10:44 12.03.2020
1158 Clouds -4 1022 73 14484 3.1 40 10:26 12.03.2020
1159 Clouds -4 1022 79 14484 2.76 40 09:59 12.03.2020
1160 Clouds -4 1022 79 14484 2.76 40 09:41 12.03.2020
1161 Clouds -4 1022 79 14484 2.76 40 09:23 12.03.2020
1162 Clouds -4 1022 73 14484 2.76 40 08:39 12.03.2020
1163 Clouds -4 1022 73 14484 1.83 64 08:19 12.03.2020
1164 Clouds -4 1022 85 14484 1.5 30 07:48 12.03.2020
1165 Clouds -4 1022 85 14484 1.5 30 07:23 12.03.2020
1166 Clouds -4 1022 79 14484 1.5 130 06:38 12.03.2020
1167 Clear -4 1022 79 14484 1 90 05:40 12.03.2020
1168 Clouds -4 1022 63 14484 2.6 160 03:54 12.03.2020
1169 Clouds -3 1022 63 14484 2.6 240 02:21 12.03.2020
1170 Clouds -2 1022 58 14484 4.1 230 01:29 12.03.2020
1171 Clouds -2 1022 58 14484 5.7 200 00:42 12.03.2020
1172 Clouds -2 1022 54 14484 4.1 230 23:59 11.03.2020
1173 Clouds -2 1022 54 14484 4.1 230 23:59 11.03.2020
1174 Clouds -2 1022 54 14484 4.1 230 23:40 11.03.2020
1175 Clouds -2 1022 54 14484 4.1 230 23:22 11.03.2020
1176 Clouds -2 1022 50 14484 3.6 230 22:45 11.03.2020
1177 Clouds -2 1022 50 14484 3.6 230 22:25 11.03.2020
1178 Clouds -2 1022 50 14484 4.1 200 21:59 11.03.2020
1179 Clouds -1 1022 50 14484 4.1 200 21:41 11.03.2020
1180 Clouds -1 1022 50 14484 4.1 200 21:22 11.03.2020
1181 Clouds -1 1022 46 14484 4.1 240 20:58 11.03.2020
1182 Clouds -1 1022 46 14484 4.1 240 20:39 11.03.2020
1183 Clouds -2 1022 46 14484 4.1 240 20:19 11.03.2020
1184 Clear -2 1023 50 14484 4.6 240 19:43 11.03.2020
1185 Clear -2 1023 50 14484 4.6 240 19:25 11.03.2020
1186 Clouds -2 1024 46 14484 3.6 220 18:58 11.03.2020
1187 Clouds -2 1024 46 14484 3.6 220 18:38 11.03.2020
1188 Clouds -2 1024 46 14484 3.6 220 18:20 11.03.2020
1189 Clear -2 1024 41 14484 0.99 115 17:56 11.03.2020
1190 Clear -3 1024 41 14484 0.99 115 17:37 11.03.2020
1191 Clear -3 1024 41 14484 1.85 31 17:19 11.03.2020
1192 Clear -3 1024 49 14484 3.6 350 16:45 11.03.2020
1193 Clear -4 1024 49 14484 3.6 350 16:22 11.03.2020
1194 Clear -4 1024 57 14484 5.1 350 15:45 11.03.2020
1195 Clear -4 1024 57 14484 5.1 350 15:24 11.03.2020
1196 Clouds -4 1023 53 14484 4.6 350 14:58 11.03.2020
1197 Clouds -4 1023 53 14484 4.6 350 14:40 11.03.2020
1198 Clouds -5 1023 53 14484 4.6 350 14:21 11.03.2020
1199 Clouds -5 1023 62 14484 2.6 310 13:44 11.03.2020
1200 Clouds -5 1023 62 14484 2.6 310 13:26 11.03.2020
1201 Clouds -5 1022 57 14484 6.2 310 12:58 11.03.2020
1202 Clouds -5 1022 57 14484 6.2 310 12:39 11.03.2020
1203 Clouds -5 1022 57 14484 6.2 310 12:19 11.03.2020
1204 Clouds -4 1022 63 14484 6.2 290 11:42 11.03.2020
1205 Clouds -5 1022 63 14484 6.2 290 11:24 11.03.2020
1206 Clouds -4 1021 68 14484 5.1 290 10:59 11.03.2020
1207 Clouds -4 1021 68 14484 5.1 290 10:41 11.03.2020
1208 Clouds -4 1021 68 14484 5.1 290 10:18 11.03.2020
1209 Clouds -3 1020 63 14484 7.2 300 09:43 11.03.2020
1210 Clouds -3 1020 63 14484 7.2 300 09:24 11.03.2020
1211 Clouds -2 1019 68 14484 6.7 290 08:45 11.03.2020
1212 Clouds -2 1019 68 14484 6.7 290 08:27 11.03.2020
1213 Clouds -2 1018 80 14484 5.7 290 07:58 11.03.2020
1214 Clouds -1 1018 80 14484 5.7 290 07:38 11.03.2020
1215 Clouds -1 1018 80 14484 5.7 290 07:18 11.03.2020
1216 Clouds 0 1018 74 14484 4.6 280 06:37 11.03.2020
1217 Clouds 0 1017 74 24140 6.2 280 05:35 11.03.2020
1218 Clouds 2 1016 80 24140 7.7 280 04:18 11.03.2020
1219 Mist 3 1011 93 9656 4.6 310 02:19 11.03.2020
1220 Mist 4 1010 93 6437 4.6 310 01:27 11.03.2020
1221 Rain 4 1009 100 4828 3.6 290 00:45 11.03.2020
1222 Rain 4 1008 100 4828 5.1 270 23:58 10.03.2020
1223 Rain 4 1008 93 3219 2.6 220 23:39 10.03.2020
1224 Rain 4 1007 93 2012 2.1 250 23:20 10.03.2020
1225 Rain 4 1007 93 2816 1 310 22:38 10.03.2020
1226 Rain 4 1007 93 2816 1 310 22:20 10.03.2020
1227 Rain 4 1006 93 2012 1 30 21:57 10.03.2020
1228 Rain 4 1006 100 1609 2.1 340 21:38 10.03.2020
1229 Rain 4 1006 100 1609 2.1 340 21:20 10.03.2020
1230 Rain 4 1006 100 2414 2.1 350 20:58 10.03.2020
1231 Rain 4 1006 100 2012 3.1 330 20:40 10.03.2020
1232 Rain 5 1006 100 2012 3.1 330 20:18 10.03.2020
1233 Rain 5 1006 93 6437 2.6 250 19:56 10.03.2020
1234 Rain 5 1006 100 9656 1.5 190 19:37 10.03.2020
1235 Rain 5 1006 100 9656 1.5 190 19:19 10.03.2020
1236 Rain 5 1007 100 4828 1.5 170 18:44 10.03.2020
1237 Rain 5 1007 100 3219 1 0 18:25 10.03.2020
1238 Mist 4 1008 99 1609 1 0 17:57 10.03.2020
1239 Rain 4 1009 93 2414 1 0 17:38 10.03.2020
1240 Rain 3 1009 93 2414 1 0 17:20 10.03.2020
1241 Rain 4 1010 100 2816 2.1 40 16:39 10.03.2020
1242 Rain 3 1010 100 2816 2.1 40 16:19 10.03.2020
1243 Rain 3 1012 98 2816 2.1 40 15:55 10.03.2020
1244 Rain 3 1012 98 2816 2.1 40 15:55 10.03.2020
1245 Rain 3 1012 98 2816 2.1 40 15:37 10.03.2020
1246 Rain 3 1012 98 2816 2.1 40 15:19 10.03.2020
1247 Rain 3 1013 98 4023 1.5 20 14:41 10.03.2020
1248 Rain 3 1013 99 4023 1.5 20 14:20 10.03.2020
1249 Rain 3 1013 99 3219 2.6 40 13:57 10.03.2020
1250 Rain 3 1013 99 3219 2.6 40 13:38 10.03.2020
1251 Rain 2 1013 99 3219 2.6 40 13:19 10.03.2020
1252 Rain 1 1014 99 3219 1.5 80 12:41 10.03.2020
1253 Rain 1 1014 99 3219 1.5 80 12:19 10.03.2020
1254 Mist 0 1015 99 6437 1.5 90 11:57 10.03.2020
1255 Snow 0 1016 92 3621 1 0 11:39 10.03.2020
1256 Snow 0 1016 92 3621 1 0 11:20 10.03.2020
1257 -273 0 0 0 0 0 10:42 10.03.2020
1258 Snow -1 1017 92 4828 1.62 154 10:23 10.03.2020
1259 Mist -1 1017 92 6437 1.5 60 09:57 10.03.2020
1260 Snow -1 1018 92 6437 1.5 70 09:39 10.03.2020
1261 Snow -1 1018 92 6437 1.5 70 09:19 10.03.2020
1262 Mist -1 1017 92 6437 2.1 50 08:51 10.03.2020
1263 Snow -1 1018 92 8047 2.6 20 08:32 10.03.2020
1264 Mist -1 1018 92 9656 2.6 50 07:50 10.03.2020
1265 Mist -1 1019 92 8047 2.1 40 07:31 10.03.2020
1266 Clouds -2 1020 92 11265 2.6 40 06:45 10.03.2020
1267 Clouds -2 1020 92 11265 2.6 40 06:27 10.03.2020
1268 Mist -2 1021 92 9656 1.5 360 05:41 10.03.2020
1269 Snow -1 1021 92 14484 4.1 20 04:40 10.03.2020
1270 Clouds -1 1021 86 24140 5.7 40 03:41 10.03.2020
1271 Clouds -1 1020 97 24140 5.1 40 02:26 10.03.2020
1272 Snow 0 1021 96 14484 2.6 320 01:22 10.03.2020
1273 Clouds 0 1021 80 14484 6.2 360 00:42 10.03.2020
1274 Clouds 0 1021 80 14484 6.2 360 00:22 10.03.2020
1275 Clouds 1 1020 74 14484 6.7 10 23:40 09.03.2020
1276 Clouds 1 1020 74 14484 6.7 10 23:21 09.03.2020
1277 Clouds 3 1020 74 14484 5.7 10 22:41 09.03.2020
1278 Clouds 3 1020 74 14484 5.7 10 22:22 09.03.2020
1279 Clouds 4 1019 69 14484 5.1 10 21:59 09.03.2020
1280 Clouds 5 1020 79 0 3.04 31 21:40 09.03.2020
1281 Clouds 5 1012 67 0 4.47 12 21:20 09.03.2020
1282 Clouds 6 1012 64 0 4.02 307 20:56 09.03.2020
1283 Clouds 6 1012 64 0 4.02 307 20:56 09.03.2020
1284 Clouds 6 1019 66 0 0.45 23 20:38 09.03.2020
1285 Clouds 6 1020 66 0 0.89 23 20:20 09.03.2020
1286 Clouds 6 1020 64 0 2.24 45 19:44 09.03.2020
1287 Clouds 6 1020 75 0 0.65 321 19:25 09.03.2020
1288 Clouds 6 1017 81 0 0.89 90 18:58 09.03.2020
1289 Clouds 5 1020 74 0 0.65 321 18:38 09.03.2020
1290 Clouds 6 1017 80 0 0.89 68 18:20 09.03.2020
1291 Clouds 7 1017 79 0 0.45 68 17:57 09.03.2020
1292 Clouds 7 1020 74 0 0.65 321 17:38 09.03.2020
1293 Clear 7 1019 39 14484 5.7 260 17:20 09.03.2020
1294 Clear 9 1019 39 14484 5.7 260 16:58 09.03.2020
1295 Clear 9 1019 39 14484 5.7 260 16:40 09.03.2020
1296 Clear 9 1019 39 14484 5.7 260 16:21 09.03.2020
1297 Clear 7 1019 49 14484 6.2 250 15:58 09.03.2020
1298 Clear 7 1019 49 14484 6.2 250 15:58 09.03.2020
1299 Clear 7 1019 49 14484 6.2 250 15:38 09.03.2020
1300 Clear 7 1019 49 14484 6.2 250 15:20 09.03.2020
1301 Clear 7 1019 56 14484 4.1 240 14:55 09.03.2020
1302 Clear 6 1019 56 14484 4.1 240 14:37 09.03.2020
1303 Clear 5 1019 56 14484 4.1 240 14:18 09.03.2020
1304 Clouds 4 1019 60 14484 3.1 250 13:55 09.03.2020
1305 Clouds 3 1019 60 14484 3.1 250 13:37 09.03.2020
1306 Clouds 3 1019 60 14484 3.1 250 13:18 09.03.2020
1307 Clouds 3 1019 60 14484 3.1 250 13:18 09.03.2020
1308 Clouds 2 1019 64 32767 1.5 250 12:41 09.03.2020
1309 Clouds 2 1019 64 14484 1 130 12:22 09.03.2020
1310 Clouds 3 1019 64 14484 2.1 160 11:42 09.03.2020
1311 Clouds 3 1019 64 14484 2.1 160 11:22 09.03.2020
1312 Clouds 3 1019 56 24140 2.6 210 10:59 09.03.2020
1313 Clouds 3 1019 56 24140 2.6 210 10:41 09.03.2020
1314 Clouds 2 1019 69 14484 3.1 160 10:20 09.03.2020
1315 Clouds 2 1019 69 14484 3.1 150 09:59 09.03.2020
1316 Clouds 2 1019 69 14484 3.1 150 09:37 09.03.2020
1317 Clouds 2 1019 69 14484 3.1 150 09:19 09.03.2020
1318 Clouds 2 1020 64 14484 1.5 190 08:43 09.03.2020
1319 Clouds 2 1020 64 14484 1.5 190 08:43 09.03.2020
1320 Clouds 2 1020 64 14484 1.5 190 08:25 09.03.2020
1321 Clouds 2 1020 60 14484 3.1 240 07:41 09.03.2020
1322 Clouds 2 1020 60 14484 3.1 240 07:22 09.03.2020
1323 Clouds 2 1019 60 14484 3.6 210 06:46 09.03.2020
1324 Clouds 2 1019 60 14484 3.6 210 06:25 09.03.2020
1325 Clouds 2 1020 64 14484 3.1 190 05:52 09.03.2020
1326 Clouds 2 1020 64 14484 3.1 190 05:34 09.03.2020
1327 Clouds 2 1020 64 14484 2.6 180 04:43 09.03.2020
1328 Clouds 2 1020 64 14484 2.6 180 04:22 09.03.2020
1329 Clouds 2 1021 69 14484 2.1 150 03:21 09.03.2020
1330 Clouds 2 1022 59 14484 3.1 180 01:49 09.03.2020
1331 Clouds 3 1022 59 32767 1.52 172 00:39 09.03.2020
1332 Clouds 3 1023 64 14484 2.6 180 00:20 09.03.2020
1333 Clouds 3 1023 60 14484 3.6 210 23:51 08.03.2020
1334 Clouds 4 1023 60 14484 3.6 210 23:25 08.03.2020
1335 Clouds 4 1023 55 14484 5.1 230 22:58 08.03.2020
1336 Clouds 4 1023 55 14484 5.1 230 22:38 08.03.2020
1337 Clouds 4 1023 55 14484 5.1 230 22:20 08.03.2020
1338 Clear 5 1024 55 14484 6.7 240 21:56 08.03.2020
1339 Clear 4 1024 55 14484 6.7 240 21:38 08.03.2020
1340 Clear 4 1024 55 14484 6.7 240 21:19 08.03.2020
1341 Clouds 4 1024 51 14484 8.2 240 20:40 08.03.2020
1342 Clouds 4 1024 51 14484 8.2 240 20:40 08.03.2020
1343 Clouds 4 1024 51 14484 8.2 240 20:21 08.03.2020
1344 Clouds 4 1024 51 14484 8.2 240 20:21 08.03.2020
1345 Clouds 4 1024 51 14484 8.2 240 20:21 08.03.2020
1346 Clouds 4 1025 51 14484 6.7 250 19:57 08.03.2020
1347 Clouds 4 1025 51 14484 6.7 250 19:37 08.03.2020
1348 Clear 3 1025 59 14484 4.6 230 19:19 08.03.2020
1349 Clear 3 1025 59 14484 4.6 230 18:42 08.03.2020
1350 Clear 3 1025 59 14484 4.6 230 18:42 08.03.2020
1351 Clear 3 1025 59 14484 4.6 230 18:24 08.03.2020
1352 Clouds 3 1026 59 14484 4.6 240 17:56 08.03.2020
1353 Clouds 3 1026 59 14484 4.6 240 17:38 08.03.2020
1354 Clouds 2 1027 59 14484 4.1 270 17:19 08.03.2020
1355 Clouds 2 1027 59 14484 4.1 270 16:46 08.03.2020
1356 Clouds 2 1027 59 14484 4.1 270 16:28 08.03.2020
1357 Clouds 2 1027 59 14484 4.1 270 16:28 08.03.2020
1358 Clear 1 1026 69 14484 6.2 250 15:58 08.03.2020
1359 Clear 1 1026 69 14484 6.2 250 15:40 08.03.2020
1360 Clear 1 1026 69 14484 6.2 250 15:20 08.03.2020
1361 Clouds 1 1026 90 14484 6.7 250 14:42 08.03.2020
1362 Clouds 0 1026 90 14484 6.7 250 14:22 08.03.2020
1363 Clouds -1 1026 68 14484 5.1 250 13:59 08.03.2020
1364 Clouds -1 1026 68 14484 5.1 250 13:39 08.03.2020
1365 Clouds -2 1026 68 14484 5.1 250 13:19 08.03.2020
1366 Clouds -2 1025 68 14484 5.7 250 12:43 08.03.2020
1367 Clouds -2 1025 68 14484 5.7 250 12:25 08.03.2020
1368 Clouds -2 1025 63 14484 6.7 260 11:57 08.03.2020
1369 Clouds -2 1025 63 14484 6.7 260 11:57 08.03.2020
1370 Clouds -2 1025 63 14484 6.7 260 11:39 08.03.2020
1371 Clouds -2 1025 68 24140 5.1 240 11:20 08.03.2020
1372 Clouds -1 1024 85 14484 8.2 250 10:41 08.03.2020
1373 Clouds -1 1024 85 14484 8.2 250 10:23 08.03.2020
1374 Clouds -2 1024 63 14484 5.7 240 09:57 08.03.2020
1375 Clouds -2 1024 63 14484 5.7 240 09:36 08.03.2020
1376 Clouds -2 1024 63 14484 5.7 240 09:18 08.03.2020
1377 Clouds -2 1024 63 14484 5.7 240 09:18 08.03.2020
1378 Clouds -2 1024 58 14484 7.2 240 08:40 08.03.2020
1379 Clouds -2 1024 58 14484 7.2 240 08:19 08.03.2020
1380 Clouds -2 1025 58 14484 8.7 240 07:44 08.03.2020
1381 Clouds -2 1025 58 14484 8.7 240 07:25 08.03.2020
1382 Clouds -3 1025 54 14484 6.7 240 06:42 08.03.2020
1383 Clouds -3 1025 63 24140 5.7 240 06:22 08.03.2020
1384 Clouds -3 1025 54 14484 4.6 220 05:39 08.03.2020
1385 Clouds -4 1026 42 14484 5.7 240 03:52 08.03.2020
1386 Clear -3 1026 42 14484 6.7 240 02:30 08.03.2020
1387 Clear -3 1026 46 14484 7.2 250 01:34 08.03.2020
1388 Clear -3 1026 46 14484 5.7 230 00:52 08.03.2020
1389 Clear -3 1026 46 14484 5.7 230 00:27 08.03.2020
1390 Clear -2 1026 39 14484 7.2 240 23:46 07.03.2020
1391 Clear -1 1026 39 14484 7.2 240 23:24 07.03.2020
1392 Clear -1 1027 39 14484 6.7 240 22:54 07.03.2020
1393 Clear -1 1027 39 14484 6.7 240 22:36 07.03.2020
1394 Clear -1 1027 39 14484 6.7 240 22:18 07.03.2020
1395 Clear -1 1027 39 14484 5.1 220 21:42 07.03.2020
1396 Clear -1 1027 39 14484 5.1 220 21:19 07.03.2020
1397 Clear -1 1028 30 14484 4.6 290 20:39 07.03.2020
1398 Clear -2 1028 30 14484 4.6 290 20:20 07.03.2020
1399 Clear -2 1028 33 14484 3.1 280 19:41 07.03.2020
1400 Clear -2 1028 33 14484 3.1 280 19:22 07.03.2020
1401 Clear -3 1028 35 14484 3.1 310 18:47 07.03.2020
1402 Clear -3 1028 35 14484 3.1 310 18:29 07.03.2020
1403 Clear -3 1029 41 14484 2.6 350 17:59 07.03.2020
1404 Clear -3 1029 41 14484 2.6 350 17:41 07.03.2020
1405 Clear -5 1029 41 14484 2.6 350 17:19 07.03.2020
1406 Clear -5 1030 44 14484 4.1 340 16:56 07.03.2020
1407 Clear -5 1030 44 14484 4.1 340 16:38 07.03.2020
1408 Clear -5 1030 44 14484 4.1 340 16:19 07.03.2020
1409 Clear -6 1029 48 14484 3.6 350 15:42 07.03.2020
1410 Clear -6 1029 48 14484 3.6 350 15:22 07.03.2020
1411 Clear -7 1029 52 14484 5.1 360 14:59 07.03.2020
1412 Clear -7 1029 52 14484 5.1 360 14:41 07.03.2020
1413 Clear -8 1029 52 14484 5.1 360 14:23 07.03.2020
1414 Clear -9 1028 56 14484 4.6 350 13:43 07.03.2020
1415 Clear -10 1028 56 14484 4.6 350 13:22 07.03.2020
1416 Clear -10 1027 61 14484 4.1 360 12:59 07.03.2020
1417 Clear -10 1027 61 14484 4.1 360 12:38 07.03.2020
1418 Clear -10 1027 61 14484 4.1 360 12:19 07.03.2020
1419 Clear -9 1026 61 14484 3.1 20 11:44 07.03.2020
1420 Clear -9 1026 61 14484 3.1 20 11:24 07.03.2020
1421 Clouds -8 1025 61 14484 5.7 10 10:59 07.03.2020
1422 Clouds -8 1025 61 14484 5.7 10 10:38 07.03.2020
1423 Clouds -8 1025 61 14484 5.7 10 10:19 07.03.2020
1424 Clear -8 1025 67 14484 5.1 10 09:41 07.03.2020
1425 Clear -7 1025 67 14484 5.1 10 09:20 07.03.2020
1426 Clear -7 1025 62 14484 6.7 20 08:58 07.03.2020
1427 Clear -7 1025 62 14484 6.7 20 08:40 07.03.2020
1428 Clear -7 1025 62 14484 6.7 20 08:20 07.03.2020
1429 Clear -6 1025 57 14484 7.2 30 07:47 07.03.2020
1430 Clear -6 1025 57 14484 7.2 30 07:21 07.03.2020
1431 Clouds -6 1024 69 0 3.13 5 06:43 07.03.2020
1432 Clear -5 1024 62 14484 6.7 10 06:25 07.03.2020
1433 Clear -5 1024 62 14484 6.7 10 06:25 07.03.2020
1434 Clear -5 1024 62 14484 6.7 10 05:41 07.03.2020
1435 Clouds -4 1022 58 14484 8.7 10 03:57 07.03.2020
1436 Clouds -2 1021 54 14484 8.7 10 02:45 07.03.2020
1437 Clouds -2 1020 54 14484 8.7 10 01:58 07.03.2020
1438 Clouds -1 1020 54 14484 8.7 10 01:18 07.03.2020
1439 Clouds -1 1020 58 14484 7.2 20 00:28 07.03.2020
1440 Clouds 0 1019 83 14484 8.7 30 23:59 06.03.2020
1441 Clouds 0 1019 83 14484 8.7 30 23:40 06.03.2020
1442 Clouds 0 1019 83 14484 8.7 30 23:22 06.03.2020
1443 Clouds 0 1019 94 14484 8.2 30 22:46 06.03.2020
1444 Clouds 0 1019 94 14484 8.2 30 22:20 06.03.2020
1445 Clouds 0 1019 94 24140 13.4 40 21:49 06.03.2020
1446 Snow 0 1018 94 24140 11.8 40 21:21 06.03.2020
1447 Clouds 0 1019 74 14484 11.3 30 20:46 06.03.2020
1448 Snow 0 1019 80 14484 9.3 30 20:23 06.03.2020
1449 Clouds 0 1019 80 14484 10.3 30 19:59 06.03.2020
1450 Clouds 0 1019 80 14484 10.3 30 19:40 06.03.2020
1451 Snow 0 1019 80 9656 10.3 30 19:22 06.03.2020
1452 Snow -1 1019 86 8047 10.3 30 18:42 06.03.2020
1453 Snow -1 1019 92 4828 9.3 30 18:20 06.03.2020
1454 Snow -1 1019 92 2816 10.8 30 17:57 06.03.2020
1455 Snow -1 1019 92 2816 10.8 30 17:39 06.03.2020
1456 Snow -1 1019 92 2816 10.8 30 17:39 06.03.2020
1457 Snow -1 1019 92 2816 10.8 30 17:20 06.03.2020
1458 Snow -1 1019 86 1207 10.8 30 16:54 06.03.2020
1459 Snow -1 1019 86 2012 7.2 30 16:36 06.03.2020
1460 Snow -1 1019 86 2012 7.2 30 16:18 06.03.2020
1461 Snow -1 1019 92 2414 8.2 20 15:42 06.03.2020
1462 Snow -1 1019 92 3621 7.7 30 15:23 06.03.2020
1463 Snow -1 1019 92 2414 5.1 30 14:41 06.03.2020
1464 Snow -1 1019 86 4023 8.7 40 14:23 06.03.2020
1465 Snow -1 1019 86 4023 8.7 40 14:23 06.03.2020
1466 Snow -1 1019 92 9656 5.7 40 13:57 06.03.2020
1467 Snow -1 1019 92 9656 5.7 40 13:39 06.03.2020
1468 Snow -1 1018 92 3219 3.1 40 13:19 06.03.2020
1469 Snow -1 1018 92 3219 4.1 40 12:54 06.03.2020
1470 Snow -1 1018 92 3219 4.1 40 12:36 06.03.2020
1471 Snow -1 1019 86 8047 1.5 10 12:18 06.03.2020
1472 Snow -1 1018 86 14484 3.76 42 11:42 06.03.2020
1473 Clouds -1 1018 86 14484 2.1 100 11:20 06.03.2020
1474 Clouds -1 1018 86 14484 2.1 100 10:56 06.03.2020
1475 Clouds -1 1018 86 14484 2.1 100 10:36 06.03.2020
1476 Clouds -1 1018 86 14484 2.1 100 10:18 06.03.2020
1477 Clouds -1 1018 92 14484 1.5 70 09:42 06.03.2020
1478 Clouds -1 1018 92 14484 1.5 70 09:23 06.03.2020
1479 Clouds -1 1018 92 14484 1.5 70 09:23 06.03.2020
1480 Clouds -2 1018 86 24140 1.74 69 08:56 06.03.2020
1481 Clouds -2 1018 86 24140 1.74 69 08:37 06.03.2020
1482 Clouds -2 1018 92 14484 1 150 08:18 06.03.2020
1483 Clouds -2 1019 86 14484 1 100 07:42 06.03.2020
1484 Clouds -2 1019 86 14484 1 100 07:22 06.03.2020
1485 Clouds -2 1019 93 14484 1.5 180 06:43 06.03.2020
1486 Clouds -1 1019 93 14484 1.5 180 06:22 06.03.2020
1487 Clouds -1 1020 86 14484 2.1 190 05:39 06.03.2020
1488 Clouds -1 1020 86 14484 2.1 190 05:20 06.03.2020
1489 Clouds -2 1019 86 14484 1.5 160 04:39 06.03.2020
1490 Clouds 1 1020 74 14484 3.6 240 01:45 06.03.2020
1491 Clouds 1 1020 74 14484 3.6 240 01:26 06.03.2020
1492 Clouds 1 1019 74 32767 2.6 250 00:57 06.03.2020
1493 Clouds 1 1019 69 14484 4.6 250 00:31 06.03.2020
1494 Clear 2 1019 69 14484 8.2 250 23:44 05.03.2020
1495 Clear 2 1019 69 14484 8.2 250 23:25 05.03.2020
1496 Clear 2 1018 69 14484 7.7 240 22:56 05.03.2020
1497 Clear 3 1018 69 14484 7.7 240 22:37 05.03.2020
1498 Clear 3 1018 69 14484 7.7 240 22:18 05.03.2020
1499 Clouds 3 1018 69 14484 7.2 230 21:55 05.03.2020
1500 Clouds 3 1018 69 14484 7.2 230 21:37 05.03.2020
1501 Clouds 3 1018 74 14484 6.7 230 21:19 05.03.2020
1502 Clouds 3 1018 74 14484 7.2 230 20:43 05.03.2020
1503 Clouds 3 1018 74 14484 8.7 240 20:21 05.03.2020
1504 Clouds 3 1017 69 14484 7.2 250 19:59 05.03.2020
1505 Clouds 3 1017 69 14484 7.2 250 19:40 05.03.2020
1506 Clouds 3 1017 69 14484 8.2 250 19:22 05.03.2020
1507 Clouds 2 1018 69 14484 7.2 220 18:59 05.03.2020
1508 Clouds 3 1018 69 14484 7.2 220 18:38 05.03.2020
1509 Clouds 3 1018 69 14484 7.2 220 18:19 05.03.2020
1510 Clouds 2 1018 69 14484 5.7 240 17:58 05.03.2020
1511 Clouds 2 1018 69 14484 5.7 240 17:40 05.03.2020
1512 Clouds 2 1018 69 14484 5.7 240 17:21 05.03.2020
1513 Clouds 1 1018 74 14484 5.7 220 16:42 05.03.2020
1514 Clouds 1 1018 74 14484 5.7 220 16:24 05.03.2020
1515 Clouds 1 1017 74 14484 4.1 250 15:59 05.03.2020
1516 Clouds 1 1017 74 14484 4.1 250 15:40 05.03.2020
1517 Clouds 1 1017 74 14484 4.1 250 15:21 05.03.2020
1518 Clouds 0 1017 91 14484 4.1 250 14:54 05.03.2020
1519 Clouds 0 1017 91 14484 4.1 250 14:36 05.03.2020
1520 Clouds -1 1017 92 14484 4.1 250 14:18 05.03.2020
1521 Clear -2 1016 80 14484 3.1 270 13:41 05.03.2020
1522 Clear -2 1016 80 14484 3.1 270 13:21 05.03.2020
1523 Clear -2 1016 80 14484 3.1 270 13:21 05.03.2020
1524 Clear -2 1014 80 14484 3.6 270 12:56 05.03.2020
1525 Clear -2 1014 80 14484 3.6 270 12:38 05.03.2020
1526 Clear -2 1014 80 14484 3.6 270 12:18 05.03.2020
1527 Clear -2 1014 80 14484 4.1 280 11:56 05.03.2020
1528 Clear -2 1014 80 14484 4.1 280 11:37 05.03.2020
1529 Clear -1 1014 80 14484 4.1 280 11:18 05.03.2020
1530 Clear -1 1014 80 14484 4.1 280 11:18 05.03.2020
1531 Clear -1 1012 89 14484 5.1 280 10:56 05.03.2020
1532 Clear -1 1012 89 14484 5.1 280 10:38 05.03.2020
1533 Clear -1 1012 89 14484 5.1 280 10:19 05.03.2020
1534 Clear -1 1011 89 14484 4.6 290 09:44 05.03.2020
1535 Clear -1 1011 89 14484 4.6 290 09:26 05.03.2020
1536 Clear -1 1011 74 14484 5.7 270 08:44 05.03.2020
1537 Clear 0 1011 74 14484 5.7 270 08:25 05.03.2020
1538 Clear 0 1009 74 14484 4.1 280 07:47 05.03.2020
1539 Clear 0 1009 74 14484 4.1 280 07:22 05.03.2020
1540 Clouds 0 1008 74 14484 4.6 280 06:49 05.03.2020
1541 Clouds 0 1008 74 14484 4.6 280 06:22 05.03.2020
1542 Clouds 0 1007 69 14484 5.7 270 05:57 05.03.2020
1543 Clouds 1 1007 69 14484 5.7 270 05:25 05.03.2020
1544 Clouds 1 1007 69 14484 5.1 280 04:22 05.03.2020
1545 Clouds 1 1006 69 14484 4.6 250 03:51 05.03.2020
1546 Clouds 2 1005 64 14484 6.7 270 01:58 05.03.2020
1547 Clouds 2 1005 64 14484 6.7 270 01:22 05.03.2020
1548 Clouds 3 1004 64 14484 6.2 270 00:26 05.03.2020
1549 Clouds 3 1003 64 14484 7.7 260 23:43 04.03.2020
1550 Clouds 3 1003 64 14484 7.7 260 23:24 04.03.2020
1551 Snow 3 1003 69 24140 9.3 280 22:59 04.03.2020
1552 Snow 4 1003 69 24140 9.3 280 22:39 04.03.2020
1553 Clouds 4 1001 64 14484 8.7 270 22:19 04.03.2020
1554 Rain 3 1002 64 24140 8.2 270 21:58 04.03.2020
1555 Rain 3 1002 64 24140 8.2 270 21:40 04.03.2020
1556 Clouds 3 1000 69 14484 9.3 280 21:20 04.03.2020
1557 Rain 3 1001 64 24140 8.7 270 20:56 04.03.2020
1558 Rain 3 1001 64 24140 8.7 270 20:37 04.03.2020
1559 Snow 3 1000 64 24140 11.3 270 20:18 04.03.2020
1560 Clouds 3 999 59 14484 8.2 270 19:42 04.03.2020
1561 Rain 3 999 59 14484 10.3 260 19:23 04.03.2020
1562 Clouds 3 998 59 14484 12.3 260 18:56 04.03.2020
1563 Clouds 3 998 59 14484 12.3 260 18:36 04.03.2020
1564 Rain 3 998 64 14484 12.3 270 18:18 04.03.2020
1565 Clouds 3 998 64 14484 10.8 260 17:55 04.03.2020
1566 Clouds 3 998 64 14484 10.8 260 17:37 04.03.2020
1567 Clouds 3 998 64 14484 10.8 260 17:19 04.03.2020
1568 Clouds 3 998 69 14484 9.3 260 16:44 04.03.2020
1569 Clouds 3 997 80 14484 11.3 260 16:25 04.03.2020
1570 Clouds 3 997 80 14484 9.3 260 15:59 04.03.2020
1571 Clouds 3 997 80 14484 9.3 260 15:40 04.03.2020
1572 Clouds 3 997 74 14484 9.3 260 15:21 04.03.2020
1573 Rain 2 998 80 24140 9.3 260 14:55 04.03.2020
1574 Rain 2 998 80 24140 9.3 260 14:36 04.03.2020
1575 Clouds 2 996 80 14484 9.8 250 14:18 04.03.2020
1576 Rain 2 997 80 24140 8.2 260 13:55 04.03.2020
1577 Rain 2 997 80 24140 8.2 260 13:36 04.03.2020
1578 Clouds 2 995 83 14484 10.8 250 13:18 04.03.2020
1579 Clouds 2 994 83 14484 11.3 250 12:43 04.03.2020
1580 Clouds 2 994 83 14484 11.3 250 12:43 04.03.2020
1581 Clouds 2 993 83 14484 10.8 260 12:25 04.03.2020
1582 Clouds 2 993 83 14484 10.3 260 11:56 04.03.2020
1583 Clouds 2 993 83 14484 10.3 260 11:37 04.03.2020
1584 Clouds 2 993 83 14484 10.3 260 11:37 04.03.2020
1585 Clouds 2 992 90 14484 9.3 250 11:19 04.03.2020
1586 Clouds 2 991 90 14484 10.3 250 10:47 04.03.2020
1587 Clouds 2 991 90 14484 10.3 250 10:26 04.03.2020
1588 Clouds 2 990 90 32767 7.2 250 09:58 04.03.2020
1589 Clouds 2 990 90 32767 7.2 250 09:40 04.03.2020
1590 Clouds 2 990 90 14484 12.3 250 09:20 04.03.2020
1591 Rain 2 990 100 24140 7.2 240 08:43 04.03.2020
1592 Clouds 1 990 100 11265 11.8 240 08:24 04.03.2020
1593 Mist 2 990 93 8047 10.8 240 07:48 04.03.2020
1594 Clouds 2 990 93 11265 11.8 240 07:30 04.03.2020
1595 Rain 2 990 93 2816 7.7 220 06:54 04.03.2020
1596 Rain 2 990 93 2816 7.7 220 06:54 04.03.2020
1597 Rain 2 990 100 2816 3.6 290 06:27 04.03.2020
1598 Rain 1 990 93 9656 1 320 05:59 04.03.2020
1599 Rain 2 991 93 6437 9.8 240 05:33 04.03.2020
1600 Mist 1 992 99 2414 6.7 40 03:58 04.03.2020
1601 Mist 1 992 99 2414 6.7 40 03:37 04.03.2020
1602 Rain 1 994 99 3219 6.7 30 02:59 04.03.2020
1603 Rain 1 995 99 3219 6.7 30 02:31 04.03.2020
1604 Mist 2 996 99 4828 5.1 360 01:57 04.03.2020
1605 Mist 1 996 99 4828 5.1 360 01:38 04.03.2020
1606 Rain 2 998 74 14484 5.1 30 00:42 04.03.2020
1607 Rain 2 998 74 14484 5.1 30 00:24 04.03.2020
1608 Rain 3 998 69 24140 4.1 50 23:45 03.03.2020
1609 Rain 3 998 69 24140 4.1 50 23:27 03.03.2020
1610 Clouds 4 999 80 32767 1.5 50 22:56 03.03.2020
1611 Clouds 4 999 80 32767 1.5 50 22:38 03.03.2020
1612 Clouds 4 1000 99 14484 4.6 40 22:19 03.03.2020
1613 Clouds 4 1002 74 14484 3.1 20 21:56 03.03.2020
1614 Clouds 5 1002 74 14484 3.1 20 21:36 03.03.2020
1615 Clouds 4 1002 74 14484 3.1 20 21:18 03.03.2020
1616 Clouds 5 1003 69 14484 1.5 30 20:40 03.03.2020
1617 Clouds 5 1003 69 14484 1.5 30 20:20 03.03.2020
1618 Clouds 5 1003 69 14484 1.5 30 20:20 03.03.2020
1619 Clouds 5 1004 60 14484 1.6 116 19:59 03.03.2020
1620 Clouds 5 1004 60 14484 1.6 116 19:37 03.03.2020
1621 Clouds 4 1004 60 14484 1.6 116 19:19 03.03.2020
1622 Clear 4 1005 64 14484 2.6 210 18:58 03.03.2020
1623 Clear 4 1005 64 14484 2.6 210 18:40 03.03.2020
1624 Clear 4 1005 64 14484 2.6 210 18:21 03.03.2020
1625 Clear 4 1005 74 14484 2.6 210 17:56 03.03.2020
1626 Clear 4 1005 74 14484 2.6 210 17:37 03.03.2020
1627 Clear 3 1005 74 14484 2.6 210 17:19 03.03.2020
1628 Mist 3 1005 99 9656 2.1 260 16:56 03.03.2020
1629 Mist 2 1005 99 9656 2.1 260 16:37 03.03.2020
1630 Clear 2 1006 80 14484 3.1 220 16:18 03.03.2020
1631 Mist 2 1005 100 3219 2.1 230 15:44 03.03.2020
1632 Mist 2 1006 99 9656 2.6 260 15:22 03.03.2020
1633 Mist 1 1006 99 8047 4.1 230 14:57 03.03.2020
1634 Mist 1 1006 99 8047 4.1 230 14:37 03.03.2020
1635 Mist 1 1006 94 6437 6.2 230 14:19 03.03.2020
1636 Mist 1 1005 94 6437 6.7 240 13:56 03.03.2020
1637 Mist 1 1005 94 6437 6.7 240 13:38 03.03.2020
1638 Mist 1 1005 94 6437 6.7 240 13:18 03.03.2020
1639 Mist 1 1005 94 4828 4.1 230 12:43 03.03.2020
1640 Mist 1 1005 100 4828 4.6 250 12:24 03.03.2020
1641 Mist 1 1005 93 4828 4.1 240 11:55 03.03.2020
1642 Mist 2 1005 93 4828 4.1 240 11:37 03.03.2020
1643 Mist 2 1005 100 4828 5.1 250 11:18 03.03.2020
1644 Mist 2 1005 100 4828 2.6 230 10:55 03.03.2020
1645 Mist 2 1005 100 4828 2.6 230 10:37 03.03.2020
1646 Mist 2 1005 100 4828 2.6 230 10:18 03.03.2020
1647 Mist 2 1004 93 4828 2.6 230 09:42 03.03.2020
1648 Mist 2 1004 93 4828 2.6 230 09:21 03.03.2020
1649 Mist 1 1004 100 4828 2.6 230 08:42 03.03.2020
1650 Mist 1 1004 100 4828 2.6 230 08:42 03.03.2020
1651 Mist 2 1004 100 4828 2.6 230 08:24 03.03.2020
1652 Mist 2 1004 100 4828 4.6 230 07:58 03.03.2020
1653 Mist 2 1004 100 4828 4.6 230 07:39 03.03.2020
1654 Mist 2 1004 100 4828 4.6 230 07:19 03.03.2020
1655 Mist 2 1003 100 4828 4.6 240 06:40 03.03.2020
1656 Mist 2 1003 100 4828 4.6 240 06:21 03.03.2020
1657 Mist 2 1003 100 3219 3.1 230 05:46 03.03.2020
1658 Mist 2 1003 100 2816 2.1 80 04:56 03.03.2020
1659 Clouds 1 1003 100 14484 2.1 200 03:26 03.03.2020
1660 Rain 2 1002 100 9656 5.1 170 01:35 03.03.2020
1661 Mist 2 1003 100 4023 3.6 190 00:47 03.03.2020
1662 Mist 2 1003 93 6437 4.1 200 00:26 03.03.2020
1663 Mist 2 1003 99 4023 1.5 90 23:51 02.03.2020
1664 Mist 1 1003 93 6437 5.1 180 23:23 02.03.2020
1665 Mist 0 1003 99 4828 2.1 350 22:58 02.03.2020
1666 Mist 0 1003 99 4828 2.1 350 22:58 02.03.2020
1667 Mist 0 1003 99 4828 2.1 350 22:39 02.03.2020
1668 Clouds 0 1003 99 11265 7.7 190 22:20 02.03.2020
1669 Mist 0 1003 99 9656 5.7 170 21:58 02.03.2020
1670 Mist 0 1003 99 9656 5.7 170 21:39 02.03.2020
1671 Rain 0 1003 80 11265 7.7 170 21:21 02.03.2020
1672 Rain 0 1003 64 14484 7.2 170 20:58 02.03.2020
1673 Rain 0 1003 64 14484 7.2 170 20:38 02.03.2020
1674 Clouds 0 1004 64 14484 7.2 170 20:20 02.03.2020
1675 Clouds 0 1004 64 14484 7.2 170 20:20 02.03.2020
1676 Clouds 0 1005 59 14484 8.2 180 19:55 02.03.2020
1677 Clouds 0 1005 59 14484 8.2 180 19:55 02.03.2020
1678 Clouds 0 1005 59 14484 8.2 180 19:37 02.03.2020
1679 Clouds 0 1005 59 14484 8.2 180 19:18 02.03.2020
1680 Clouds 0 1006 64 14484 7.7 180 18:44 02.03.2020
1681 Clouds -1 1006 64 14484 7.7 180 18:19 02.03.2020
1682 Clouds -1 1007 64 14484 5.7 180 17:58 02.03.2020
1683 Clouds -2 1007 64 14484 5.7 180 17:40 02.03.2020
1684 Clouds -3 1007 64 14484 5.7 180 17:21 02.03.2020
1685 Clouds -3 1008 87 14484 6.7 180 16:55 02.03.2020
1686 Clouds -3 1008 87 14484 6.7 180 16:37 02.03.2020
1687 Clouds -3 1008 87 14484 6.7 180 16:19 02.03.2020
1688 Clouds -3 1009 74 14484 4.1 170 15:43 02.03.2020
1689 Clouds -3 1009 74 14484 4.1 170 15:20 02.03.2020
1690 Clouds -3 1009 73 14484 4.6 140 14:55 02.03.2020
1691 Clouds -3 1009 73 14484 4.6 140 14:36 02.03.2020
1692 Clouds -4 1009 73 14484 4.6 140 14:18 02.03.2020
1693 Clouds -4 1011 73 14484 4.1 150 13:39 02.03.2020
1694 Clouds -5 1011 73 14484 4.1 150 13:19 02.03.2020
1695 Clouds -5 1012 79 14484 4.1 130 12:44 02.03.2020
1696 Clouds -5 1012 79 14484 4.1 130 12:20 02.03.2020
1697 Clouds -5 1013 85 14484 5.7 140 11:57 02.03.2020
1698 Clouds -5 1013 85 14484 5.7 140 11:37 02.03.2020
1699 Snow -6 1013 79 14484 6.2 140 11:18 02.03.2020
1700 Snow -6 1014 79 9656 5.1 140 10:54 02.03.2020
1701 Snow -6 1014 79 9656 5.1 140 10:36 02.03.2020
1702 Snow -7 1015 79 8047 5.7 160 10:18 02.03.2020
1703 Snow -7 1016 72 14484 3.6 150 09:42 02.03.2020
1704 Snow -7 1017 67 14484 3.6 150 09:24 02.03.2020
1705 Clouds -8 1018 66 14484 2.6 140 08:47 02.03.2020
1706 Clouds -8 1018 66 14484 2.6 140 08:22 02.03.2020
1707 Clouds -8 1018 72 14484 1.5 130 07:43 02.03.2020
1708 Clouds -8 1018 72 14484 1.5 130 07:20 02.03.2020
1709 Clouds -8 1018 72 14484 2.6 150 06:45 02.03.2020
1710 Clouds -9 1019 72 14484 3.1 140 05:55 02.03.2020
1711 Clouds -11 1019 72 14484 2.1 160 04:26 02.03.2020
1712 Clouds -11 1020 72 14484 2.1 170 03:23 02.03.2020
1713 Clear -10 1020 61 14484 2.1 240 02:48 02.03.2020
1714 Clear -9 1020 62 14484 2.6 220 01:52 02.03.2020
1715 Clear -9 1020 62 14484 2.6 220 01:31 02.03.2020
1716 Clear -8 1019 62 14484 3.6 250 00:24 02.03.2020
1717 Clear -7 1019 57 14484 5.7 250 23:58 01.03.2020
1718 Clear -6 1019 57 14484 5.7 250 23:40 01.03.2020
1719 Clear -6 1019 57 14484 5.7 250 23:20 01.03.2020
1720 Clear -5 1019 57 14484 4.6 250 22:43 01.03.2020
1721 Clear -5 1019 57 14484 4.6 250 22:21 01.03.2020
1722 Clear -5 1019 53 14484 5.1 240 21:57 01.03.2020
1723 Clear -5 1019 53 14484 5.1 240 21:38 01.03.2020
1724 Clear -5 1019 53 14484 5.1 240 21:19 01.03.2020
1725 Clear -5 1019 48 14484 4.1 240 20:44 01.03.2020
1726 Clear -5 1019 48 14484 4.1 240 20:25 01.03.2020
1727 Clear -6 1019 52 14484 4.1 260 19:57 01.03.2020
1728 Clear -6 1019 52 14484 4.1 260 19:39 01.03.2020
1729 Clear -6 1019 52 14484 4.1 260 19:21 01.03.2020
1730 Clear -6 1019 48 14484 6.2 250 18:41 01.03.2020
1731 Clear -6 1019 48 14484 6.2 250 18:20 01.03.2020
1732 Clear -6 1019 52 14484 5.1 280 17:58 01.03.2020
1733 Clear -7 1019 52 14484 5.1 280 17:40 01.03.2020
1734 Clear -7 1019 52 14484 5.1 280 17:21 01.03.2020
1735 Clear -8 1019 61 14484 5.7 270 16:59 01.03.2020
1736 Clear -8 1019 61 14484 5.7 270 16:39 01.03.2020
1737 Clear -9 1019 61 14484 5.7 270 16:19 01.03.2020
1738 Clear -9 1019 66 14484 5.1 280 15:58 01.03.2020
1739 Clear -9 1019 66 14484 5.1 280 15:40 01.03.2020
1740 Clear -10 1019 66 14484 5.1 280 15:21 01.03.2020
1741 Clear -11 1019 66 14484 4.1 290 14:57 01.03.2020
1742 Clear -11 1019 66 14484 4.1 290 14:39 01.03.2020
1743 Clear -13 1019 66 14484 4.1 290 14:21 01.03.2020
1744 Clear -13 1018 72 14484 4.6 270 13:56 01.03.2020
1745 Clear -13 1018 72 14484 4.6 270 13:38 01.03.2020
1746 Clear -13 1018 72 14484 4.6 270 13:19 01.03.2020
1747 Clear -14 1017 72 14484 3.1 260 12:44 01.03.2020
1748 Clear -14 1017 72 14484 3.1 260 12:23 01.03.2020
1749 Clear -14 1017 72 14484 3.1 260 12:23 01.03.2020
1750 Clear -14 1017 78 14484 3.6 280 11:58 01.03.2020
1751 Clear -14 1017 78 14484 3.6 280 11:39 01.03.2020
1752 Clear -14 1017 78 14484 3.6 280 11:19 01.03.2020
1753 Clear -13 1016 78 14484 3.6 260 10:56 01.03.2020
1754 Clear -13 1016 78 14484 3.6 260 10:37 01.03.2020
1755 Clear -13 1016 78 14484 3.6 260 10:18 01.03.2020
1756 Clear -13 1016 78 14484 3.6 260 10:18 01.03.2020
1757 Clear -12 1016 72 14484 4.1 250 09:42 01.03.2020
1758 Clear -12 1016 72 14484 4.1 250 09:42 01.03.2020
1759 Clear -12 1016 72 14484 4.1 250 09:23 01.03.2020
1760 Clear -12 1016 72 14484 4.1 250 08:46 01.03.2020
1761 Clear -12 1016 72 14484 4.1 250 08:28 01.03.2020
1762 Clear -12 1016 72 14484 4.6 250 07:57 01.03.2020
1763 Clear -11 1016 72 14484 4.6 250 07:39 01.03.2020
1764 Clear -11 1016 72 14484 4.6 250 07:21 01.03.2020
1765 Clouds -11 1015 72 14484 4.6 250 06:42 01.03.2020
1766 Clouds -11 1015 72 14484 4.1 240 05:58 01.03.2020
1767 Clouds -10 1015 66 14484 5.1 250 03:38 01.03.2020
1768 Snow -10 1014 66 14484 6.2 250 02:23 01.03.2020
1769 Snow -10 1014 66 14484 8.2 250 01:45 01.03.2020
1770 Clear -10 1013 66 14484 9.3 260 00:59 01.03.2020
1771 Clear -10 1013 66 14484 9.3 260 00:39 01.03.2020
1772 Clear -10 1013 66 14484 9.3 260 00:18 01.03.2020
1773 Clouds -10 1012 61 14484 6.7 260 23:40 29.02.2020
1774 Snow -9 1012 66 11265 7.2 260 23:22 29.02.2020
1775 Snow -9 1011 66 14484 7.2 250 22:39 29.02.2020
1776 Snow -9 1011 66 14484 7.2 250 22:21 29.02.2020
1777 Snow -9 1011 66 9656 6.7 260 21:41 29.02.2020
1778 Snow -9 1011 66 9656 9.3 250 21:21 29.02.2020
1779 Haze -8 1011 66 8047 7.7 240 20:42 29.02.2020
1780 Clouds -8 1010 61 14484 7.7 250 20:21 29.02.2020
1781 Haze -8 1010 66 9656 7.7 230 19:56 29.02.2020
1782 Haze -8 1010 66 9656 7.7 230 19:37 29.02.2020
1783 Snow -9 1010 66 8047 8.7 240 19:19 29.02.2020
1784 Snow -9 1010 66 14484 7.2 240 18:42 29.02.2020
1785 Clouds -9 1010 61 14484 6.7 230 18:23 29.02.2020
1786 Clouds -9 1009 66 14484 5.7 240 17:57 29.02.2020
1787 Clouds -9 1009 66 14484 5.7 240 17:39 29.02.2020
1788 Clouds -9 1009 66 14484 5.7 240 17:39 29.02.2020
1789 Clouds -10 1009 66 14484 5.7 240 17:19 29.02.2020
1790 Clear -10 1009 61 14484 7.7 250 16:45 29.02.2020
1791 Clear -11 1009 61 14484 7.7 250 16:20 29.02.2020
1792 Clouds -11 1009 66 14484 6.2 270 15:58 29.02.2020
1793 Clouds -11 1009 66 14484 6.2 270 15:39 29.02.2020
1794 Clouds -11 1008 66 14484 4.1 260 15:21 29.02.2020
1795 Clouds -11 1008 66 14484 4.1 260 14:41 29.02.2020
1796 Snow -12 1008 66 14484 3.6 270 14:22 29.02.2020
1797 Clouds -12 1008 78 14484 3.1 270 13:46 29.02.2020
1798 Snow -12 1008 78 14484 2.6 260 13:28 29.02.2020
1799 Snow -13 1008 78 9656 3.1 260 12:58 29.02.2020
1800 Snow -13 1008 78 9656 3.1 260 12:39 29.02.2020
1801 Snow -12 1007 72 8047 4.1 270 12:21 29.02.2020
1802 Snow -12 1007 72 8047 4.1 270 11:55 29.02.2020
1803 Snow -12 1007 72 8047 4.1 270 11:37 29.02.2020
1804 Snow -12 1007 72 14484 3.6 270 11:18 29.02.2020
1805 Clouds -12 1007 72 14484 3.1 290 10:44 29.02.2020
1806 Clouds -12 1007 72 14484 3.1 290 10:26 29.02.2020
1807 Clouds -12 1006 78 14484 3.1 240 09:47 29.02.2020
1808 Snow -12 1006 72 14484 2.6 250 09:23 29.02.2020
1809 Snow -11 1007 72 14484 2.6 260 08:42 29.02.2020
1810 Clouds -11 1007 72 14484 3.6 250 08:22 29.02.2020
1811 Clouds -11 1006 66 14484 5.1 260 07:56 29.02.2020
1812 Clouds -11 1006 66 14484 5.1 260 07:36 29.02.2020
1813 Clouds -11 1006 66 14484 5.1 260 07:18 29.02.2020
1814 Snow -11 1006 78 24140 1.5 250 06:41 29.02.2020
1815 Haze -11 1006 78 9656 3.6 240 06:22 29.02.2020
1816 Clouds -10 1006 61 14484 2.1 270 05:40 29.02.2020
1817 Clouds -10 1006 66 14484 3.6 260 04:44 29.02.2020
1818 Snow -9 1006 72 9656 3.6 260 03:40 29.02.2020
1819 Snow -9 1006 72 4023 4.1 320 03:21 29.02.2020
1820 Snow -9 1006 67 14484 2.6 300 02:34 29.02.2020
1821 Clouds -8 1004 67 14484 2.1 310 00:58 29.02.2020
1822 Clouds -8 1004 67 14484 2.1 310 00:36 29.02.2020
1823 Clouds -8 1003 62 14484 3.6 320 23:43 28.02.2020
1824 Clouds -8 1003 62 14484 3.6 320 23:25 28.02.2020
1825 Clouds -7 1003 62 14484 2.6 310 22:54 28.02.2020
1826 Clouds -6 1003 62 14484 2.6 310 22:36 28.02.2020
1827 Clouds -6 1003 62 14484 2.6 310 22:18 28.02.2020
1828 Clear -6 1002 53 14484 5.1 270 21:41 28.02.2020
1829 Clear -6 1002 53 14484 5.1 270 21:41 28.02.2020
1830 Clear -6 1002 53 14484 5.1 270 21:21 28.02.2020
1831 Clear -6 1002 57 14484 9.3 260 20:41 28.02.2020
1832 Clear -6 1002 57 14484 9.3 260 20:22 28.02.2020
1833 Clear -6 1002 57 14484 9.3 260 20:22 28.02.2020
1834 Clear -6 1002 57 14484 9.3 260 20:22 28.02.2020
1835 Clouds -6 1002 57 14484 8.2 260 19:59 28.02.2020
1836 Clouds -6 1002 57 14484 8.2 260 19:39 28.02.2020
1837 Clouds -7 1002 57 14484 8.2 260 19:21 28.02.2020
1838 Clouds -7 1002 61 14484 12.3 260 18:57 28.02.2020
1839 Clouds -7 1002 61 14484 12.3 260 18:39 28.02.2020
1840 Clouds -8 1002 61 14484 12.3 260 18:20 28.02.2020
1841 Clouds -8 1002 56 14484 9.8 250 17:41 28.02.2020
1842 Clouds -8 1002 56 14484 9.8 250 17:22 28.02.2020
1843 Clouds -8 1001 61 14484 8.7 260 16:47 28.02.2020
1844 Snow -9 1001 61 12874 10.8 250 16:21 28.02.2020
1845 Snow -9 1001 66 12874 9.8 250 15:59 28.02.2020
1846 Snow -9 1001 66 12874 9.8 250 15:41 28.02.2020
1847 Haze -9 1001 61 9656 10.3 260 15:20 28.02.2020
1848 Clouds -9 1001 66 11265 9.8 250 14:58 28.02.2020
1849 Clouds -10 1001 66 11265 9.8 250 14:39 28.02.2020
1850 Snow -10 1000 61 6437 11.3 260 14:19 28.02.2020
1851 Snow -10 1000 61 9656 11.8 250 13:57 28.02.2020
1852 Snow -10 1000 61 9656 11.8 250 13:39 28.02.2020
1853 Snow -10 1000 66 4828 12.3 250 13:19 28.02.2020
1854 Snow -10 999 66 9656 10.3 260 12:41 28.02.2020
1855 Clouds -10 999 61 14484 10.8 250 12:23 28.02.2020
1856 Clouds -10 999 66 12874 9.3 250 11:43 28.02.2020
1857 Clouds -10 998 61 14484 9.3 260 11:24 28.02.2020
1858 Clouds -9 998 61 14484 9.3 260 10:59 28.02.2020
1859 Clouds -9 998 61 14484 9.3 260 10:40 28.02.2020
1860 Snow -9 997 61 3621 12.9 250 10:20 28.02.2020
1861 Snow -9 997 61 8047 11.8 250 09:47 28.02.2020
1862 Snow -9 997 61 8047 11.8 250 09:47 28.02.2020
1863 Clouds -8 997 61 14484 7.7 260 09:21 28.02.2020
1864 Snow -8 997 62 4828 9.3 260 08:57 28.02.2020
1865 Snow -8 997 62 4828 9.3 260 08:37 28.02.2020
1866 Snow -8 997 67 4828 9.8 250 08:19 28.02.2020
1867 Snow -8 997 67 6437 10.8 250 07:40 28.02.2020
1868 Snow -8 997 67 9656 8.7 260 07:21 28.02.2020
1869 Snow -8 997 67 8047 13.4 250 06:45 28.02.2020
1870 Snow -8 996 73 3219 10.8 250 06:20 28.02.2020
1871 Snow -7 996 73 3219 9.3 250 04:45 28.02.2020
1872 Snow -6 995 79 1207 14.4 240 04:18 28.02.2020
1873 Snow -5 995 85 2012 12.9 250 02:46 28.02.2020
1874 Snow -5 995 85 2414 9.3 260 02:27 28.02.2020
1875 Snow -5 994 79 2816 11.8 250 01:23 28.02.2020
1876 Snow -5 993 79 1207 12.9 250 00:28 28.02.2020
1877 Snow -4 993 79 1609 12.9 250 23:42 27.02.2020
1878 Snow -4 992 79 1006 14.4 240 23:21 27.02.2020
1879 Snow -4 992 85 1207 10.3 230 22:46 27.02.2020
1880 Snow -4 992 85 1207 10.3 230 22:26 27.02.2020
1881 Snow -4 991 85 1609 11.8 230 21:59 27.02.2020
1882 Snow -3 991 85 1609 11.8 230 21:39 27.02.2020
1883 Snow -3 991 86 2012 10.3 230 21:19 27.02.2020
1884 Snow -3 990 86 1609 12.3 230 20:57 27.02.2020
1885 Snow -3 990 86 1609 12.3 230 20:38 27.02.2020
1886 Snow -2 989 92 1609 9.3 230 20:20 27.02.2020
1887 Snow -2 989 92 1609 9.3 230 20:20 27.02.2020
1888 Snow -2 989 92 1609 9.3 230 20:20 27.02.2020
1889 Snow -2 989 92 1609 9.3 230 20:20 27.02.2020
1890 Snow -2 989 86 2012 10.3 230 19:56 27.02.2020
1891 Snow -1 989 86 2012 10.3 230 19:37 27.02.2020
1892 Snow -1 989 86 2012 10.3 230 19:18 27.02.2020
1893 Snow 0 989 92 2012 11.3 220 18:40 27.02.2020
1894 Snow 0 988 96 2012 6.7 210 18:22 27.02.2020
1895 Snow 0 989 96 1006 7.7 220 17:58 27.02.2020
1896 Snow 0 989 96 1006 7.7 220 17:40 27.02.2020
1897 Snow 0 988 99 2414 5.7 50 17:19 27.02.2020
1898 Snow 1 989 99 3621 5.1 50 16:56 27.02.2020
1899 Snow 1 989 99 3621 5.1 50 16:38 27.02.2020
1900 Mist 1 989 93 4828 7.2 60 16:18 27.02.2020
1901 Mist 1 989 93 4828 8.7 60 15:56 27.02.2020
1902 Mist 1 989 93 4828 8.7 60 15:36 27.02.2020
1903 Clouds 1 989 99 4023 9.3 50 15:18 27.02.2020
1904 Mist 2 991 86 9656 10.8 80 14:42 27.02.2020
1905 Mist 2 992 86 9656 7.2 70 14:23 27.02.2020
1906 Mist 2 993 99 8047 4.6 40 13:58 27.02.2020
1907 Mist 1 993 99 8047 4.6 40 13:40 27.02.2020
1908 Rain 1 994 98 14484 6.2 30 13:20 27.02.2020
1909 Rain 1 995 80 14484 5.7 10 12:46 27.02.2020
1910 Rain 2 996 80 14484 5.1 50 12:25 27.02.2020
1911 Rain 2 997 69 14484 7.2 70 11:58 27.02.2020
1912 Rain 2 997 69 14484 7.2 70 11:38 27.02.2020
1913 Rain 2 998 69 14484 6.2 80 11:20 27.02.2020
1914 Clouds 2 999 74 14484 4.6 50 10:43 27.02.2020
1915 Clouds 2 999 74 14484 4.6 50 10:22 27.02.2020
1916 Clouds 1 1001 80 14484 7.7 30 09:47 27.02.2020
1917 Clouds 1 1001 80 14484 7.7 30 09:29 27.02.2020
1918 Clouds 1 1004 86 14484 6.7 40 08:56 27.02.2020
1919 Clouds 1 1004 86 14484 6.7 40 08:38 27.02.2020
1920 Clouds 1 1004 86 14484 6.7 40 08:18 27.02.2020
1921 Clouds 0 1006 80 14484 6.7 40 07:43 27.02.2020
1922 Clouds 0 1006 80 14484 6.7 40 07:24 27.02.2020
1923 Clouds 0 1006 80 14484 6.7 40 07:24 27.02.2020
1924 Rain 0 1007 97 14484 6.7 40 06:30 27.02.2020
1925 Rain 0 1009 97 14484 5.7 40 05:23 27.02.2020
1926 Snow 0 1011 99 14484 6.2 40 03:20 27.02.2020
1927 Snow 0 1013 99 8047 5.1 30 01:34 27.02.2020
1928 Snow 0 1014 99 9656 5.7 40 00:42 27.02.2020
1929 Snow 0 1014 99 4023 5.1 40 00:19 27.02.2020
1930 Snow -1 1014 80 1609 4.6 60 23:38 26.02.2020
1931 Snow -1 1015 86 12874 5.1 50 23:18 26.02.2020
1932 Snow -1 1015 80 9656 5.7 50 22:55 26.02.2020
1933 Snow -1 1015 80 9656 5.7 50 22:37 26.02.2020
1934 Snow -1 1014 80 4828 6.2 50 22:19 26.02.2020
1935 Snow -1 1016 74 11265 4.6 40 21:40 26.02.2020
1936 Snow -1 1016 74 14484 4.6 40 21:20 26.02.2020
1937 Snow -1 1016 68 24140 5.7 60 20:56 26.02.2020
1938 Snow -1 1016 68 24140 5.7 60 20:38 26.02.2020
1939 Snow -1 1017 68 14484 5.7 40 20:19 26.02.2020
1940 Clouds -1 1018 68 14484 5.7 30 19:56 26.02.2020
1941 Clouds -1 1018 68 14484 5.7 30 19:38 26.02.2020
1942 Clouds -1 1018 68 14484 5.7 30 19:19 26.02.2020
1943 Clouds -1 1018 68 14484 6.2 40 18:57 26.02.2020
1944 Clouds -1 1018 68 14484 6.2 40 18:37 26.02.2020
1945 Clouds -1 1018 68 14484 6.2 40 18:19 26.02.2020
1946 Clouds -1 1019 68 14484 5.1 50 17:41 26.02.2020
1947 Clouds -1 1019 68 14484 5.1 50 17:41 26.02.2020
1948 Clouds -1 1019 68 14484 5.1 50 17:20 26.02.2020
1949 Clouds -1 1019 68 24140 7.7 40 16:57 26.02.2020
1950 Clouds -1 1019 68 14484 8.2 30 16:38 26.02.2020
1951 Clouds -2 1019 68 24140 7.7 40 16:20 26.02.2020
1952 Clouds -2 1019 68 14484 7.7 30 15:45 26.02.2020
1953 Clouds -2 1019 68 14484 7.7 30 15:27 26.02.2020
1954 Clouds -3 1019 68 14484 5.7 40 14:55 26.02.2020
1955 Clouds -3 1019 68 14484 5.7 40 14:55 26.02.2020
1956 Clouds -3 1019 68 14484 5.7 40 14:37 26.02.2020
1957 Clouds -3 1019 68 14484 5.7 40 14:37 26.02.2020
1958 Clouds -3 1019 68 14484 5.7 40 14:18 26.02.2020
1959 Clouds -3 1019 68 14484 5.7 30 13:41 26.02.2020
1960 Clouds -3 1019 68 14484 5.7 30 13:20 26.02.2020
1961 Clouds -2 1019 68 14484 5.7 30 12:39 26.02.2020
1962 Clouds -2 1019 68 14484 5.7 30 12:20 26.02.2020
1963 Clouds -2 1018 63 14484 6.2 30 11:56 26.02.2020
1964 Clouds -2 1018 63 14484 6.2 30 11:56 26.02.2020
1965 Clouds -2 1018 63 14484 6.2 30 11:38 26.02.2020
1966 Clouds -2 1018 63 14484 6.2 30 11:20 26.02.2020
1967 Clouds -2 1018 68 14484 6.2 30 10:41 26.02.2020
1968 Clouds -2 1018 68 14484 6.2 30 10:23 26.02.2020
1969 Clouds -1 1017 63 14484 8.2 30 09:57 26.02.2020
1970 Clouds -1 1017 63 14484 8.2 30 09:39 26.02.2020
1971 Clouds -1 1017 63 14484 8.2 30 09:19 26.02.2020
1972 Clouds -1 1018 68 14484 4.6 10 08:39 26.02.2020
1973 Clouds -1 1018 68 14484 4.6 10 08:39 26.02.2020
1974 Clouds -1 1018 68 14484 4.6 10 08:19 26.02.2020
1975 Clouds 0 1018 88 14484 5.1 10 07:50 26.02.2020
1976 Clouds 0 1018 88 14484 5.1 10 07:29 26.02.2020
1977 Clouds 0 1017 64 14484 5.7 30 06:57 26.02.2020
1978 Clouds 0 1017 64 14484 5.7 30 06:39 26.02.2020
1979 Clouds 0 1017 64 14484 5.7 30 06:18 26.02.2020
1980 Clouds 0 1017 64 14484 4.1 30 05:47 26.02.2020
1981 Clouds 2 1017 64 14484 5.7 20 04:52 26.02.2020
1982 Clouds 2 1016 74 14484 2.6 30 02:55 26.02.2020
1983 Clouds 2 1016 74 14484 2.6 20 01:51 26.02.2020
1984 Clouds 2 1016 74 14484 2.6 20 01:21 26.02.2020
1985 Clouds 2 1015 69 14484 2.1 50 00:28 26.02.2020
1986 Clouds 2 1015 69 14484 2.1 50 00:28 26.02.2020
1987 Clouds 3 1015 64 14484 3.1 10 23:59 25.02.2020
1988 Clouds 3 1015 64 14484 3.1 10 23:41 25.02.2020
1989 Clouds 4 1015 64 14484 3.1 10 23:21 25.02.2020
1990 Clouds 4 1015 64 14484 3.1 10 23:21 25.02.2020
1991 Clouds 4 1014 64 14484 3.1 40 22:43 25.02.2020
1992 Clouds 4 1014 64 14484 3.1 40 22:20 25.02.2020
1993 Clouds 4 1014 64 14484 3.6 30 21:59 25.02.2020
1994 Clouds 4 1014 64 14484 3.6 30 21:38 25.02.2020
1995 Clouds 4 1014 64 14484 3.6 30 21:20 25.02.2020
1996 Clouds 4 1014 64 14484 4.6 20 20:56 25.02.2020
1997 Clouds 4 1014 64 14484 4.6 20 20:37 25.02.2020
1998 Clouds 4 1014 64 14484 4.6 20 20:19 25.02.2020
1999 Clouds 4 1014 64 14484 4.1 20 19:44 25.02.2020
2000 Clouds 4 1014 64 14484 4.1 20 19:23 25.02.2020
2001 Clouds 4 1015 59 14484 6.2 20 18:59 25.02.2020
2002 Clouds 4 1015 59 14484 6.2 20 18:39 25.02.2020
2003 Clouds 4 1015 59 14484 6.2 20 18:20 25.02.2020
2004 Clouds 4 1015 64 24140 4.6 20 17:56 25.02.2020
2005 Clouds 4 1015 69 14484 5.7 20 17:37 25.02.2020
2006 Clouds 3 1015 69 14484 5.7 20 17:18 25.02.2020
2007 Clouds 3 1015 64 24140 5.7 20 16:55 25.02.2020
2008 Clouds 3 1015 64 24140 5.7 20 16:37 25.02.2020
2009 Clouds 3 1015 64 24140 5.7 20 16:19 25.02.2020
2010 Clouds 2 1015 69 14484 4.6 30 15:45 25.02.2020
2011 Clouds 2 1015 69 14484 5.1 20 15:20 25.02.2020
2012 Clouds 2 1015 99 14484 5.1 30 14:59 25.02.2020
2013 Clouds 1 1015 99 14484 5.1 30 14:39 25.02.2020
2014 Clouds 1 1015 99 14484 5.1 30 14:39 25.02.2020
2015 Clouds 1 1015 99 14484 5.1 30 14:18 25.02.2020
2016 Clouds 1 1015 99 14484 5.1 30 14:18 25.02.2020
2017 Clouds 0 1015 80 14484 4.1 10 13:58 25.02.2020
2018 Clouds 0 1015 80 14484 4.1 10 13:40 25.02.2020
2019 Clouds 0 1015 80 14484 4.1 10 13:20 25.02.2020
2020 Clouds -1 1015 80 14484 4.1 10 13:20 25.02.2020
2021 Clear -1 1014 86 12874 3.6 20 12:56 25.02.2020
2022 Clear -1 1014 86 12874 3.6 20 12:37 25.02.2020
2023 Clear -1 1014 86 12874 3.6 20 12:19 25.02.2020
2024 Mist -1 1014 92 9656 2.1 40 11:55 25.02.2020
2025 Mist -1 1014 92 9656 2.1 40 11:37 25.02.2020
2026 Mist -1 1014 100 4828 1.5 10 11:18 25.02.2020
2027 Mist -1 1013 92 4828 1.5 10 10:42 25.02.2020
2028 Mist -1 1013 92 4828 1.5 10 10:23 25.02.2020
2029 Mist -1 1013 92 8047 1.5 350 09:42 25.02.2020
2030 Mist -1 1013 92 9656 2.1 360 09:23 25.02.2020
2031 Clouds 0 1013 86 12874 2 21 09:00 25.02.2020
2032 Clouds 0 1013 86 12874 2 21 08:41 25.02.2020
2033 Clouds 0 1013 86 12874 1.04 33 08:22 25.02.2020
2034 Clouds 0 1014 86 14484 1.5 120 07:48 25.02.2020
2035 Clouds 1 1014 86 14484 1.5 120 07:23 25.02.2020
2036 Clouds 1 1014 86 14484 1.5 120 07:23 25.02.2020
2037 Clouds 1 1014 80 12874 1 160 06:55 25.02.2020
2038 Clouds 2 1014 80 24140 1.5 220 05:51 25.02.2020
2039 Clouds 3 1014 69 14484 3.6 250 03:56 25.02.2020
2040 Clouds 2 1013 69 14484 3.6 230 02:34 25.02.2020
2041 Clear 4 1012 65 14484 3.6 240 00:58 25.02.2020
2042 Clear 5 1012 65 14484 3.6 240 00:31 25.02.2020
2043 Clouds 5 1012 60 14484 5.1 250 23:48 24.02.2020
2044 Clouds 5 1012 60 14484 5.1 250 23:29 24.02.2020
2045 Clear 6 1011 56 14484 6.2 250 22:59 24.02.2020
2046 Clear 7 1011 56 14484 6.2 250 22:37 24.02.2020
2047 Clear 7 1011 56 14484 6.2 250 22:18 24.02.2020
2048 Clear 7 1011 56 14484 7.7 240 21:54 24.02.2020
2049 Clear 7 1011 56 14484 7.7 240 21:36 24.02.2020
2050 Clear 7 1011 56 14484 7.7 240 21:18 24.02.2020
2051 Clear 7 1011 52 14484 9.8 250 20:41 24.02.2020
2052 Clear 7 1011 52 14484 9.8 250 20:21 24.02.2020
2053 Clear 7 1011 52 14484 6.2 240 19:59 24.02.2020
2054 Clear 7 1011 52 14484 6.2 240 19:41 24.02.2020
2055 Clear 7 1011 52 14484 6.2 240 19:22 24.02.2020
2056 Clear 7 1011 48 14484 9.8 240 18:59 24.02.2020
2057 Clear 7 1011 48 14484 9.8 240 18:41 24.02.2020
2058 Clear 7 1011 48 14484 9.8 240 18:22 24.02.2020
2059 Clear 7 1012 56 14484 5.1 190 17:54 24.02.2020
2060 Clear 6 1012 56 14484 5.1 190 17:36 24.02.2020
2061 Clear 5 1012 56 14484 5.1 190 17:18 24.02.2020
2062 Clear 5 1012 55 14484 7.2 180 16:54 24.02.2020
2063 Clear 5 1012 55 14484 7.2 180 16:36 24.02.2020
2064 Clear 5 1012 55 14484 7.2 180 16:18 24.02.2020
2065 Clear 4 1012 55 14484 6.7 190 15:54 24.02.2020
2066 Clear 3 1012 55 14484 6.7 190 15:36 24.02.2020
2067 Clear 4 1012 55 14484 6.7 190 15:18 24.02.2020
2068 Clear 3 1011 59 14484 6.2 180 14:40 24.02.2020
2069 Clear 2 1011 59 14484 6.2 180 14:22 24.02.2020
2070 Clear 0 1011 64 14484 6.2 180 13:58 24.02.2020
2071 Clear 0 1011 64 14484 6.2 180 13:58 24.02.2020
2072 Clear 0 1011 64 14484 6.2 180 13:58 24.02.2020
2073 Clear 0 1011 64 14484 6.2 180 13:39 24.02.2020
2074 Clear 0 1011 64 14484 6.2 180 13:21 24.02.2020
2075 Clouds 0 1011 59 14484 6.2 170 12:57 24.02.2020
2076 Clouds 0 1011 59 14484 6.2 170 12:39 24.02.2020
2077 Clouds 0 1011 59 14484 6.2 170 12:21 24.02.2020
2078 Clouds 0 1011 59 14484 5.1 180 11:46 24.02.2020
2079 Clouds 0 1011 59 14484 5.1 180 11:28 24.02.2020
2080 Clouds 1 1011 59 14484 5.1 180 10:48 24.02.2020
2081 Clouds 1 1011 59 14484 5.1 180 10:30 24.02.2020
2082 Clouds 1 1011 59 14484 4.6 190 09:55 24.02.2020
2083 Clouds 1 1011 59 14484 4.6 190 09:37 24.02.2020
2084 Clouds 0 1011 59 14484 4.6 190 09:18 24.02.2020
2085 Clouds 0 1012 59 14484 5.1 180 08:47 24.02.2020
2086 Clouds 0 1012 59 14484 5.1 180 08:47 24.02.2020
2087 Clouds 1 1012 59 14484 5.1 180 08:28 24.02.2020
2088 Clouds 0 1012 64 14484 4.6 170 07:48 24.02.2020
2089 Clouds 0 1012 64 14484 4.6 170 07:28 24.02.2020
2090 Clouds 0 1013 64 14484 4.6 170 06:45 24.02.2020
2091 Clouds 0 1013 64 14484 4.6 170 06:21 24.02.2020
2092 Clear 0 1014 69 14484 4.1 160 05:30 24.02.2020
2093 Clear 0 1014 69 14484 3.1 160 04:48 24.02.2020
2094 Clouds 1 1015 69 14484 2.1 200 02:56 24.02.2020
2095 Clouds 2 1015 64 14484 2.6 160 01:50 24.02.2020
2096 Clouds 2 1015 64 14484 2.6 160 01:28 24.02.2020
2097 Clouds 2 1014 60 14484 3.6 180 00:36 24.02.2020
2098 Clouds 3 1014 60 14484 3.6 180 00:18 24.02.2020
2099 Clouds 4 1015 60 14484 3.1 190 23:42 23.02.2020
2100 Clouds 5 1015 60 14484 3.1 190 23:20 23.02.2020
2101 Clear 5 1015 60 14484 4.1 180 22:57 23.02.2020
2102 Clear 5 1015 60 14484 4.1 180 22:39 23.02.2020
2103 Clear 5 1015 60 14484 4.1 180 22:19 23.02.2020
2104 Clear 6 1015 56 14484 3.6 180 21:46 23.02.2020
2105 Clear 6 1015 56 14484 3.6 180 21:46 23.02.2020
2106 Clear 6 1015 56 14484 3.6 180 21:20 23.02.2020
2107 Clear 5 1015 56 14484 5.1 170 20:57 23.02.2020
2108 Clear 5 1015 56 14484 5.1 170 20:57 23.02.2020
2109 Clear 5 1015 56 14484 5.1 170 20:39 23.02.2020
2110 Clear 5 1015 56 14484 5.1 170 20:20 23.02.2020
2111 Clear 5 1016 60 14484 6.2 180 19:58 23.02.2020
2112 Clear 5 1016 60 14484 6.2 180 19:40 23.02.2020
2113 Clear 5 1016 60 14484 6.2 180 19:19 23.02.2020
2114 Clear 4 1017 64 14484 5.1 190 18:58 23.02.2020
2115 Clear 4 1017 64 14484 5.1 190 18:37 23.02.2020
2116 Clear 4 1017 64 14484 5.1 190 18:19 23.02.2020
2117 Clear 3 1017 64 14484 5.7 180 17:57 23.02.2020
2118 Clear 3 1017 64 14484 5.7 180 17:38 23.02.2020
2119 Clear 2 1017 64 14484 5.7 180 17:19 23.02.2020
2120 Clear 1 1018 64 14484 4.1 180 16:46 23.02.2020
2121 Clear 1 1018 64 14484 4.1 180 16:27 23.02.2020
2122 Clear 0 1018 79 14484 3.6 180 15:59 23.02.2020
2123 Clear 0 1018 79 14484 3.6 180 15:39 23.02.2020
2124 Clear -1 1018 79 14484 3.6 180 15:20 23.02.2020
2125 Clear -2 1018 79 14484 4.1 190 14:59 23.02.2020
2126 Clear -2 1018 79 14484 4.1 190 14:40 23.02.2020
2127 Clear -3 1018 79 14484 4.1 190 14:21 23.02.2020
2128 Clear -3 1018 79 14484 4.1 180 13:57 23.02.2020
2129 Clear -3 1018 79 14484 4.1 180 13:38 23.02.2020
2130 Clear -4 1018 79 14484 4.1 180 13:20 23.02.2020
2131 Clear -4 1017 79 14484 5.1 180 12:43 23.02.2020
2132 Clear -4 1017 79 14484 5.1 180 12:43 23.02.2020
2133 Clear -4 1017 79 14484 5.1 180 12:22 23.02.2020
2134 Clear -4 1018 79 14484 4.6 180 11:58 23.02.2020
2135 Clear -3 1018 79 14484 4.6 180 11:37 23.02.2020
2136 Clear -3 1018 79 14484 4.6 180 11:18 23.02.2020
2137 Clear -3 1017 79 14484 4.6 170 10:55 23.02.2020
2138 Clear -3 1017 79 14484 4.6 170 10:37 23.02.2020
2139 Clear -3 1017 79 14484 4.6 170 10:19 23.02.2020
2140 Clear -3 1018 86 14484 3.1 180 09:40 23.02.2020
2141 Clear -3 1018 86 14484 3.1 180 09:21 23.02.2020
2142 Clear -3 1018 86 14484 4.6 210 08:56 23.02.2020
2143 Clear -3 1018 86 14484 4.6 210 08:38 23.02.2020
2144 Clear -2 1018 86 14484 4.6 210 08:18 23.02.2020
2145 Clear -2 1018 79 14484 4.1 210 07:40 23.02.2020
2146 Clear -2 1018 89 14484 4.6 220 06:52 23.02.2020
2147 Clear -1 1018 89 14484 7.2 230 05:50 23.02.2020
2148 Clear -1 1018 86 14484 7.2 240 04:42 23.02.2020
2149 Clear -1 1018 86 14484 7.2 230 03:21 23.02.2020
2150 Clear 0 1018 86 14484 6.7 230 02:27 23.02.2020
2151 Clear 0 1018 64 14484 7.2 230 01:25 23.02.2020
2152 Clear 1 1017 64 14484 8.2 240 00:48 23.02.2020
2153 Clear 1 1017 64 14484 8.2 240 00:26 23.02.2020
2154 Clear 1 1017 59 14484 7.2 250 23:47 22.02.2020
2155 Clear 1 1017 59 14484 7.2 250 23:29 22.02.2020
2156 Clear 2 1016 59 14484 10.3 250 22:59 22.02.2020
2157 Clear 2 1016 59 14484 10.3 250 22:40 22.02.2020
2158 Clear 2 1016 59 14484 10.3 250 22:18 22.02.2020
2159 Clear 2 1016 59 14484 11.3 240 21:41 22.02.2020
2160 Clear 2 1016 59 14484 11.3 240 21:23 22.02.2020
2161 Clear 2 1017 55 14484 9.8 250 20:47 22.02.2020
2162 Clear 2 1017 55 14484 9.8 250 20:25 22.02.2020
2163 Clear 2 1017 59 14484 9.3 240 19:59 22.02.2020
2164 Clear 1 1017 59 14484 9.3 240 19:41 22.02.2020
2165 Clear 2 1017 59 14484 9.3 240 19:21 22.02.2020
2166 Clear 1 1017 59 14484 10.3 240 18:41 22.02.2020
2167 Clear 1 1017 59 14484 10.3 240 18:22 22.02.2020
2168 Clouds 1 1018 92 14484 9.8 240 17:58 22.02.2020
2169 Clouds 1 1018 92 14484 9.8 240 17:40 22.02.2020
2170 Clouds 0 1018 92 14484 9.8 240 17:22 22.02.2020
2171 Clouds 0 1018 58 14484 9.3 240 16:58 22.02.2020
2172 Clouds 0 1018 58 14484 9.3 240 16:39 22.02.2020
2173 Clouds -1 1018 58 14484 9.3 240 16:20 22.02.2020
2174 Clouds -1 1018 58 14484 8.2 240 15:45 22.02.2020
2175 Clouds -1 1018 58 14484 8.2 240 15:26 22.02.2020
2176 Clouds -2 1018 63 14484 10.3 250 14:56 22.02.2020
2177 Clouds -2 1018 63 14484 10.3 250 14:38 22.02.2020
2178 Clouds -3 1018 63 14484 10.3 250 14:19 22.02.2020
2179 Clouds -3 1017 63 14484 8.7 250 13:41 22.02.2020
2180 Clouds -3 1017 63 14484 8.7 250 13:19 22.02.2020
2181 Clouds -3 1017 63 14484 7.7 240 12:47 22.02.2020
2182 Clouds -3 1017 63 14484 7.7 240 12:24 22.02.2020
2183 Clouds -3 1017 68 14484 8.2 240 11:56 22.02.2020
2184 Clouds -3 1017 68 14484 8.2 240 11:37 22.02.2020
2185 Clouds -3 1017 68 14484 8.2 240 11:18 22.02.2020
2186 Clouds -3 1017 68 14484 9.8 240 10:41 22.02.2020
2187 Clouds -3 1017 68 14484 9.8 240 10:20 22.02.2020
2188 Clear -4 1017 68 14484 9.8 240 09:59 22.02.2020
2189 Clear -3 1017 68 14484 9.8 240 09:39 22.02.2020
2190 Clear -4 1017 68 14484 9.8 240 09:21 22.02.2020
2191 Clouds -3 1018 63 14484 9.3 240 08:50 22.02.2020
2192 Clouds -4 1018 63 14484 9.3 240 08:28 22.02.2020
2193 Clear -4 1018 63 14484 8.7 230 07:52 22.02.2020
2194 Clear -4 1018 63 14484 8.7 230 07:20 22.02.2020
2195 Clear -3 1018 63 14484 8.7 230 06:50 22.02.2020
2196 Clear -3 1018 63 14484 8.7 230 06:32 22.02.2020
2197 Clear -4 1018 58 14484 8.2 210 04:42 22.02.2020
2198 Clear -4 1019 53 14484 9.3 220 03:45 22.02.2020
2199 Clear -4 1020 53 14484 7.7 220 02:33 22.02.2020
2200 Clear -4 1020 49 14484 8.2 220 01:47 22.02.2020
2201 Clear -4 1020 49 14484 8.2 220 01:27 22.02.2020
2202 Clear -4 1021 49 14484 9.3 230 00:46 22.02.2020
2203 Clear -4 1021 57 14484 4.1 190 00:28 22.02.2020
2204 Clear -4 1021 53 14484 4.1 190 23:48 21.02.2020
2205 Clear -4 1021 53 14484 4.1 190 23:24 21.02.2020
2206 Clear -3 1022 53 14484 6.7 190 22:57 21.02.2020
2207 Clear -3 1022 53 14484 6.7 190 22:39 21.02.2020
2208 Clear -2 1022 53 14484 6.7 190 22:20 21.02.2020
2209 Clear -2 1023 50 14484 7.7 210 21:42 21.02.2020
2210 Clear -2 1023 50 14484 7.7 210 21:24 21.02.2020
2211 Clear -2 1024 58 14484 7.2 210 20:50 21.02.2020
2212 Clear -3 1024 58 14484 7.2 210 20:32 21.02.2020
2213 Clouds -4 1025 58 14484 9.3 220 19:59 21.02.2020
2214 Clouds -4 1025 58 14484 9.3 220 19:39 21.02.2020
2215 Clouds -5 1026 62 14484 4.1 200 19:19 21.02.2020
2216 Clouds -6 1028 57 14484 5.7 200 18:40 21.02.2020
2217 Clouds -7 1028 57 14484 5.7 200 18:22 21.02.2020
2218 Clouds -7 1028 57 14484 5.7 200 18:22 21.02.2020
2219 Clouds -7 1028 62 32767 8.2 230 17:55 21.02.2020
2220 Clouds -8 1028 62 32767 8.2 230 17:36 21.02.2020
2221 Snow -10 1029 56 14484 5.1 180 17:18 21.02.2020
2222 Snow -11 1029 60 14484 4.6 180 16:41 21.02.2020
2223 Snow -12 1029 60 14484 4.6 180 16:21 21.02.2020
2224 Snow -12 1030 60 14484 2.6 180 15:57 21.02.2020
2225 Snow -13 1030 60 14484 2.6 180 15:38 21.02.2020
2226 Snow -14 1030 60 14484 2.6 180 15:18 21.02.2020
2227 Snow -14 1030 60 14484 2.6 180 15:18 21.02.2020
2228 Snow -14 1030 60 14484 2.6 180 15:18 21.02.2020
2229 Snow -16 1031 65 14484 3.6 200 14:42 21.02.2020
2230 Snow -17 1031 77 32767 1.5 250 14:21 21.02.2020
2231 Clouds -18 1030 70 14484 2.1 190 13:58 21.02.2020
2232 Clouds -18 1030 70 14484 2.1 190 13:38 21.02.2020
2233 Clouds -19 1030 70 14484 2.1 190 13:20 21.02.2020
2234 Clear -19 1031 70 14484 1.5 180 12:42 21.02.2020
2235 Clear -20 1031 70 14484 1.5 180 12:24 21.02.2020
2236 Clear -20 1031 64 14484 2.6 180 11:55 21.02.2020
2237 Clear -21 1031 64 14484 2.6 180 11:37 21.02.2020
2238 Clear -20 1031 64 14484 2.6 180 11:19 21.02.2020
2239 Clear -20 1031 64 14484 1.5 190 10:42 21.02.2020
2240 Clear -20 1031 64 14484 1.5 190 10:20 21.02.2020
2241 Clear -20 1031 70 14484 1.5 170 09:58 21.02.2020
2242 Clear -20 1031 70 14484 1.5 170 09:38 21.02.2020
2243 Clear -20 1031 70 14484 1.5 170 09:20 21.02.2020
2244 Clear -20 1031 64 14484 2.1 200 08:54 21.02.2020
2245 Clear -20 1031 64 14484 2.1 200 08:36 21.02.2020
2246 Clear -20 1031 64 14484 2.1 200 08:18 21.02.2020
2247 Clear -19 1032 64 14484 3.6 200 07:41 21.02.2020
2248 Clear -19 1032 64 14484 3.6 200 07:20 21.02.2020
2249 Clear -19 1032 64 14484 3.1 200 06:55 21.02.2020
2250 Clear -19 1032 64 14484 3.1 200 06:32 21.02.2020
2251 Clear -19 1032 59 14484 3.1 160 05:55 21.02.2020
2252 Clear -18 1032 59 14484 3.1 160 05:30 21.02.2020
2253 Clear -17 1033 55 14484 3.1 280 04:26 21.02.2020
2254 Clear -17 1032 50 14484 2.1 280 03:46 21.02.2020
2255 Clear -16 1032 55 14484 3.6 250 02:58 21.02.2020
2256 Clear -14 1032 46 14484 4.1 260 01:32 21.02.2020
2257 Clear -14 1031 43 14484 6.7 250 00:54 21.02.2020
2258 Clear -14 1031 43 14484 6.7 250 00:36 21.02.2020
2259 Clear -13 1031 43 14484 6.7 250 00:18 21.02.2020
2260 Clear -13 1031 46 14484 5.7 260 23:39 20.02.2020
2261 Clear -12 1031 46 14484 5.7 260 23:21 20.02.2020
2262 Clear -12 1031 46 14484 5.7 260 23:21 20.02.2020
2263 Clear -11 1030 46 14484 6.2 260 22:40 20.02.2020
2264 Clear -11 1030 46 14484 6.2 260 22:21 20.02.2020
2265 Clear -11 1030 39 14484 3.6 280 21:57 20.02.2020
2266 Clear -11 1030 39 14484 3.6 280 21:39 20.02.2020
2267 Clear -11 1030 39 14484 3.6 280 21:19 20.02.2020
2268 Clear -11 1030 43 14484 3.6 290 20:56 20.02.2020
2269 Clear -11 1030 43 14484 3.6 290 20:38 20.02.2020
2270 Clear -11 1030 43 14484 3.6 290 20:19 20.02.2020
2271 Clear -11 1030 43 14484 3.6 290 20:19 20.02.2020
2272 Clear -11 1031 43 14484 5.1 290 19:58 20.02.2020
2273 Clear -11 1031 43 14484 5.1 290 19:40 20.02.2020
2274 Clear -11 1031 43 14484 5.1 290 19:22 20.02.2020
2275 Clear -11 1032 46 14484 5.1 280 18:55 20.02.2020
2276 Clear -11 1032 46 14484 5.1 280 18:37 20.02.2020
2277 Clear -11 1032 46 14484 5.1 280 18:18 20.02.2020
2278 -273 0 0 0 0 0 17:39 20.02.2020
2279 Clear -12 1033 50 14484 3.6 290 17:19 20.02.2020
2280 Clear -12 1033 60 14484 1.5 110 16:58 20.02.2020
2281 Clear -13 1033 60 14484 1.5 110 16:39 20.02.2020
2282 Clear -13 1033 60 14484 1.5 110 16:19 20.02.2020
2283 Clouds -14 1033 65 14484 2.1 30 15:43 20.02.2020
2284 Clouds -14 1033 65 14484 2.1 30 15:24 20.02.2020
2285 Clouds -15 1032 77 14484 2.1 30 14:59 20.02.2020
2286 Clouds -15 1032 77 14484 2.1 30 14:41 20.02.2020
2287 Clouds -15 1032 77 14484 2.1 30 14:41 20.02.2020
2288 Clouds -16 1032 77 14484 2.1 30 14:23 20.02.2020
2289 Clouds -16 1032 77 14484 2.1 30 14:23 20.02.2020
2290 Clouds -15 1031 77 14484 3.1 10 13:56 20.02.2020
2291 Clouds -16 1031 77 14484 3.1 10 13:38 20.02.2020
2292 Clouds -16 1031 77 14484 3.1 10 13:19 20.02.2020
2293 Clouds -16 1030 70 14484 4.1 40 12:42 20.02.2020
2294 Clouds -16 1030 70 14484 4.1 40 12:21 20.02.2020
2295 Clear -15 1030 55 14484 3.6 320 11:59 20.02.2020
2296 Clear -16 1030 55 14484 3.6 320 11:41 20.02.2020
2297 Clear -15 1030 55 14484 3.6 320 11:22 20.02.2020
2298 Clouds -15 1029 55 14484 3.1 310 10:56 20.02.2020
2299 Clouds -15 1029 55 14484 3.1 310 10:38 20.02.2020
2300 Clouds -15 1029 55 14484 3.1 310 10:19 20.02.2020
2301 Clouds -15 1029 60 14484 3.1 320 09:39 20.02.2020
2302 Snow -14 1029 60 11265 3.6 320 09:21 20.02.2020
2303 Clear -15 1029 60 14484 3.1 330 08:44 20.02.2020
2304 Clear -14 1029 60 14484 3.1 330 08:25 20.02.2020
2305 Clouds -13 1029 55 14484 2.6 300 07:56 20.02.2020
2306 Clouds -13 1029 55 14484 2.6 300 07:38 20.02.2020
2307 Clouds -13 1029 55 14484 2.6 300 07:19 20.02.2020
2308 Clouds -13 1029 51 14484 4.6 310 06:43 20.02.2020
2309 Clouds -13 1029 51 14484 4.6 310 06:19 20.02.2020
2310 Clouds -12 1029 51 14484 2.6 320 05:42 20.02.2020
2311 Clouds -13 1028 51 14484 4.1 340 04:50 20.02.2020
2312 Clear -12 1028 47 14484 6.2 330 03:47 20.02.2020
2313 Clear -11 1027 51 14484 5.7 360 02:59 20.02.2020
2314 Clear -9 1027 44 14484 4.6 280 01:34 20.02.2020
2315 Clear -9 1026 44 14484 7.7 270 00:54 20.02.2020
2316 Clear -8 1026 44 14484 7.7 270 00:25 20.02.2020
2317 Clear -8 1025 41 14484 7.2 270 23:49 19.02.2020
2318 Clear -7 1025 41 14484 7.2 270 23:22 19.02.2020
2319 Clear -7 1024 41 11265 8.2 280 22:44 19.02.2020
2320 Clear -6 1024 41 11265 8.2 280 22:26 19.02.2020
2321 Clouds -6 1023 45 14484 9.3 280 21:59 19.02.2020
2322 Clouds -6 1023 45 14484 9.3 280 21:40 19.02.2020
2323 Clouds -6 1023 45 14484 9.3 280 21:19 19.02.2020
2324 Haze -6 1022 41 9656 11.3 270 20:58 19.02.2020
2325 Haze -6 1022 41 9656 11.3 270 20:39 19.02.2020
2326 Clear -5 1022 45 14484 10.3 270 20:20 19.02.2020
2327 Haze -5 1022 45 8047 11.3 270 19:58 19.02.2020
2328 Haze -5 1022 45 8047 11.3 270 19:38 19.02.2020
2329 Haze -5 1022 45 8047 11.3 270 19:38 19.02.2020
2330 Snow -5 1022 45 4828 10.3 270 19:20 19.02.2020
2331 Snow -4 1021 49 4023 10.3 280 18:58 19.02.2020
2332 Snow -5 1021 49 4023 10.3 280 18:40 19.02.2020
2333 Clouds -5 1021 49 14484 10.3 280 18:22 19.02.2020
2334 Haze -5 1021 53 3219 10.8 270 17:57 19.02.2020
2335 Haze -5 1021 53 3219 10.8 270 17:39 19.02.2020
2336 Snow -4 1021 49 4828 10.8 280 17:19 19.02.2020
2337 Snow -4 1020 62 9656 8.2 270 16:43 19.02.2020
2338 Haze -4 1019 63 8047 10.3 270 16:19 19.02.2020
2339 Snow -4 1018 79 9656 7.7 280 15:57 19.02.2020
2340 Snow -4 1018 79 9656 7.7 280 15:38 19.02.2020
2341 Snow -4 1018 79 4828 6.2 270 15:19 19.02.2020
2342 Snow -4 1017 92 1207 5.1 300 14:41 19.02.2020
2343 Snow -3 1017 92 402 6.2 310 14:23 19.02.2020
2344 Snow -3 1016 79 8047 5.7 290 13:55 19.02.2020
2345 Snow -3 1016 79 8047 5.7 290 13:37 19.02.2020
2346 Snow -3 1016 79 6437 6.2 270 13:18 19.02.2020
2347 Snow -2 1015 79 9656 5.7 280 12:39 19.02.2020
2348 Snow -2 1015 79 9656 5.7 280 12:19 19.02.2020
2349 Snow -2 1015 86 9656 7.2 260 11:55 19.02.2020
2350 Snow -2 1015 86 9656 7.2 260 11:37 19.02.2020
2351 Clouds -1 1014 87 8047 4.6 280 11:18 19.02.2020
2352 Clouds -1 1013 87 14484 7.2 270 10:55 19.02.2020
2353 Clouds 0 1013 87 14484 7.2 270 10:36 19.02.2020
2354 Clouds 0 1013 87 14484 7.2 270 10:18 19.02.2020
2355 Clouds 0 1012 59 14484 8.2 280 09:41 19.02.2020
2356 Clouds 0 1012 59 14484 8.2 280 09:20 19.02.2020
2357 Clouds 0 1012 59 14484 8.2 280 09:20 19.02.2020
2358 Clouds 0 1011 64 14484 9.3 270 08:55 19.02.2020
2359 Clouds 0 1011 64 14484 9.3 270 08:37 19.02.2020
2360 Clouds 0 1011 64 14484 9.3 270 08:37 19.02.2020
2361 Clouds 1 1011 64 14484 9.3 270 08:18 19.02.2020
2362 Rain 1 1011 59 14484 10.8 280 07:40 19.02.2020
2363 Clouds 2 1011 59 14484 12.3 260 07:20 19.02.2020
2364 Clouds 1 1010 64 14484 11.8 260 06:46 19.02.2020
2365 Clouds 3 1009 69 14484 10.3 240 05:35 19.02.2020
2366 Clouds 3 1008 69 14484 12.3 240 03:56 19.02.2020
2367 Clouds 3 1008 82 14484 7.7 190 02:45 19.02.2020
2368 Clouds 2 1009 97 14484 7.2 200 01:53 19.02.2020
2369 Rain 2 1009 98 8047 9.8 180 01:23 19.02.2020
2370 Rain 2 1008 80 14484 10.3 180 00:42 19.02.2020
2371 Rain 2 1008 80 24140 7.7 160 00:23 19.02.2020
2372 Rain 1 1008 86 9656 12.9 170 23:41 18.02.2020
2373 Rain 1 1009 80 4828 12.9 180 23:20 18.02.2020
2374 Rain 1 1009 80 6437 13.9 170 22:56 18.02.2020
2375 Rain 0 1009 80 6437 13.9 170 22:37 18.02.2020
2376 Rain 0 1010 86 9656 11.3 170 22:19 18.02.2020
2377 Clouds 0 1010 86 8047 10.8 160 21:55 18.02.2020
2378 Clouds 0 1010 86 8047 10.8 160 21:36 18.02.2020
2379 Snow -1 1011 86 4023 12.3 160 21:18 18.02.2020
2380 Snow -1 1012 80 4023 10.3 160 20:55 18.02.2020
2381 Snow -1 1012 80 4023 10.3 160 20:36 18.02.2020
2382 Snow -2 1013 79 9656 7.7 160 20:18 18.02.2020
2383 Snow -3 1015 79 8047 7.7 160 19:42 18.02.2020
2384 Snow -4 1017 86 14484 4.6 160 19:20 18.02.2020
2385 Snow -5 1019 92 402 2.6 40 18:58 18.02.2020
2386 Snow -4 1019 92 402 2.6 40 18:40 18.02.2020
2387 Snow -6 1019 92 402 2.6 40 18:19 18.02.2020
2388 Snow -7 1021 85 603 1 40 17:42 18.02.2020
2389 Snow -8 1022 85 402 2.6 60 17:20 18.02.2020
2390 Snow -9 1022 85 1006 4.6 90 16:41 18.02.2020
2391 Snow -9 1024 85 1207 2.6 40 16:22 18.02.2020
2392 Snow -10 1025 77 1207 3.6 20 15:59 18.02.2020
2393 Snow -11 1025 77 1207 3.6 20 15:40 18.02.2020
2394 Snow -12 1026 65 3621 3.6 20 15:19 18.02.2020
2395 Snow -12 1026 65 3621 3.6 20 14:56 18.02.2020
2396 Snow -12 1026 65 3621 3.6 20 14:38 18.02.2020
2397 Snow -12 1026 65 14484 3.6 20 14:20 18.02.2020
2398 Clouds -13 1026 65 14484 4.1 20 13:41 18.02.2020
2399 Clouds -13 1026 65 14484 4.1 20 13:22 18.02.2020
2400 Clouds -14 1027 71 14484 3.6 360 12:56 18.02.2020
2401 Clouds -13 1027 71 24140 6.2 20 12:38 18.02.2020
2402 Clouds -14 1027 71 14484 3.6 360 12:19 18.02.2020
2403 Clouds -14 1028 71 14484 2.6 360 11:44 18.02.2020
2404 Clouds -14 1028 71 14484 2.6 360 11:26 18.02.2020
2405 Clouds -14 1029 77 14484 2.6 20 10:57 18.02.2020
2406 Clouds -14 1029 77 14484 2.6 20 10:38 18.02.2020
2407 Clouds -15 1029 77 14484 2.6 20 10:18 18.02.2020
2408 Clouds -15 1030 71 14484 2.1 60 09:56 18.02.2020
2409 Clouds -14 1030 71 14484 2.1 60 09:37 18.02.2020
2410 Clouds -14 1030 71 14484 2.1 60 09:18 18.02.2020
2411 Clouds -15 1031 71 14484 1 0 08:43 18.02.2020
2412 Clouds -16 1031 71 14484 1 0 08:21 18.02.2020
2413 Clouds -16 1031 77 14484 1.5 100 07:56 18.02.2020
2414 Clouds -16 1031 77 14484 1.5 100 07:33 18.02.2020
2415 Clear -16 1032 77 14484 1.5 80 06:57 18.02.2020
2416 Clear -16 1032 77 14484 1.5 80 06:39 18.02.2020
2417 Clear -16 1032 77 14484 1.5 80 06:19 18.02.2020
2418 Clear -16 1032 71 14484 1.91 102 05:33 18.02.2020
2419 Clear -15 1032 71 14484 1.5 120 04:28 18.02.2020
2420 Clear -14 1031 65 14484 1 110 03:31 18.02.2020
2421 Clear -13 1031 51 14484 1.62 178 01:59 18.02.2020
2422 Clear -12 1031 47 14484 2.6 190 00:56 18.02.2020
2423 Clear -10 1031 47 14484 2.6 190 00:22 18.02.2020
2424 Clear -9 1030 48 14484 4.6 180 23:56 17.02.2020
2425 Clear -8 1030 48 14484 4.6 180 23:37 17.02.2020
2426 Clear -8 1030 48 14484 4.6 180 23:19 17.02.2020
2427 Clear -7 1029 48 14484 3.6 100 22:41 17.02.2020
2428 Clear -6 1029 48 14484 3.6 100 22:21 17.02.2020
2429 Clear -6 1029 44 14484 1.5 130 21:59 17.02.2020
2430 Clear -6 1029 44 14484 1.5 130 21:38 17.02.2020
2431 Clear -6 1029 44 14484 1.5 130 21:18 17.02.2020
2432 Clear -6 1029 44 14484 1.5 130 21:18 17.02.2020
2433 Clear -6 1029 44 14484 2.1 70 20:42 17.02.2020
2434 Clear -6 1029 44 14484 2.1 70 20:21 17.02.2020
2435 Clear -6 1028 47 14484 3.6 60 19:58 17.02.2020
2436 Clouds -6 1028 41 32767 2.1 240 19:40 17.02.2020
2437 Clouds -6 1028 41 32767 2.1 240 19:20 17.02.2020
2438 Clear -7 1028 47 14484 3.1 50 18:38 17.02.2020
2439 Clear -7 1028 47 14484 3.1 50 18:38 17.02.2020
2440 Clear -7 1028 47 14484 3.1 50 18:20 17.02.2020
2441 Clear -7 1028 43 14484 4.1 360 17:58 17.02.2020
2442 Clear -8 1028 43 14484 4.1 360 17:38 17.02.2020
2443 Clear -8 1028 43 14484 4.1 360 17:19 17.02.2020
2444 Clear -8 1027 47 14484 4.6 350 16:56 17.02.2020
2445 Clear -8 1027 47 14484 4.6 350 16:38 17.02.2020
2446 Clear -8 1027 47 14484 4.6 350 16:20 17.02.2020
2447 Clear -8 1026 61 14484 5.1 10 15:45 17.02.2020
2448 Clear -9 1026 61 14484 5.1 10 15:26 17.02.2020
2449 Clear -9 1025 61 14484 4.1 340 14:56 17.02.2020
2450 Clear -9 1025 61 14484 4.1 340 14:37 17.02.2020
2451 Clear -9 1025 61 14484 4.1 340 14:19 17.02.2020
2452 Clouds -9 1024 61 14484 3.6 320 13:41 17.02.2020
2453 Clouds -9 1024 61 14484 3.6 320 13:20 17.02.2020
2454 Clouds -8 1022 52 14484 5.1 310 12:59 17.02.2020
2455 Clouds -8 1022 52 14484 5.1 310 12:40 17.02.2020
2456 Clouds -8 1022 52 14484 5.1 310 12:22 17.02.2020
2457 Clouds -7 1021 53 14484 4.1 320 11:47 17.02.2020
2458 Clouds -7 1021 53 14484 4.1 320 11:27 17.02.2020
2459 Clouds -6 1020 53 14484 6.2 330 10:58 17.02.2020
2460 Clouds -6 1020 53 14484 6.2 330 10:40 17.02.2020
2461 Clouds -6 1020 53 14484 6.2 330 10:21 17.02.2020
2462 Clouds -5 1019 57 14484 4.6 340 09:58 17.02.2020
2463 Clouds -6 1019 57 14484 4.6 340 09:40 17.02.2020
2464 Clouds -5 1019 57 14484 4.6 340 09:19 17.02.2020
2465 Clouds -4 1018 58 14484 5.7 350 08:56 17.02.2020
2466 Clouds -4 1018 58 14484 5.7 350 08:38 17.02.2020
2467 Clouds -4 1018 58 14484 5.7 350 08:19 17.02.2020
2468 Clouds -3 1017 74 14484 5.7 340 07:40 17.02.2020
2469 Clouds -2 1016 91 14484 4.1 260 07:22 17.02.2020
2470 Clouds -1 1016 80 14484 4.6 240 06:49 17.02.2020
2471 Snow -1 1016 91 14484 5.7 240 06:30 17.02.2020
2472 Clouds -1 1015 79 32186 3.1 0 05:40 17.02.2020
2473 Snow 0 1015 94 9656 5.7 250 04:40 17.02.2020
2474 Clouds -1 1014 94 14484 6.2 230 03:18 17.02.2020
2475 Clouds 0 1014 69 14484 4.6 220 01:25 17.02.2020
2476 Clouds 1 1014 74 24140 5.1 230 00:39 17.02.2020
2477 Clouds 1 1014 74 24140 5.1 230 00:19 17.02.2020
2478 Clouds 2 1013 64 14484 7.7 230 23:52 16.02.2020
2479 Clouds 2 1013 64 14484 7.7 230 23:28 16.02.2020
2480 Clouds 2 1013 64 14484 7.2 220 22:56 16.02.2020
2481 Clouds 2 1013 64 14484 7.2 220 22:38 16.02.2020
2482 Clouds 2 1013 64 14484 7.2 220 22:20 16.02.2020
2483 Clouds 2 1013 64 14484 6.2 220 21:55 16.02.2020
2484 Clouds 2 1013 64 14484 6.2 220 21:37 16.02.2020
2485 Clouds 2 1013 64 14484 6.2 220 21:18 16.02.2020
2486 Clouds 2 1013 64 14484 8.2 230 20:56 16.02.2020
2487 Clouds 2 1013 64 14484 8.2 230 20:38 16.02.2020
2488 Clouds 3 1013 64 14484 8.2 230 20:19 16.02.2020
2489 Clear 2 1014 69 14484 9.8 220 19:56 16.02.2020
2490 Clear 2 1014 69 14484 9.8 220 19:37 16.02.2020
2491 Clear 2 1014 69 14484 9.8 220 19:18 16.02.2020
2492 Clouds 2 1014 92 14484 6.2 200 18:42 16.02.2020
2493 Clouds 2 1014 92 14484 6.2 200 18:23 16.02.2020
2494 Clouds 1 1014 74 24140 7.7 220 17:46 16.02.2020
2495 Snow 0 1015 86 14484 6.2 180 17:21 16.02.2020
2496 Snow 0 1015 86 12874 6.7 180 16:58 16.02.2020
2497 Snow -1 1015 86 12874 6.7 180 16:39 16.02.2020
2498 Snow -1 1015 86 12874 6.7 180 16:39 16.02.2020
2499 Snow -1 1015 86 12874 5.7 180 16:21 16.02.2020
2500 Snow -1 1015 86 12874 5.7 180 16:21 16.02.2020
2501 Snow -1 1016 79 14484 5.7 190 15:59 16.02.2020
2502 Snow -1 1016 79 14484 5.7 190 15:39 16.02.2020
2503 Snow -2 1016 79 14484 5.7 190 15:21 16.02.2020
2504 Snow -2 1016 73 14484 4.6 180 14:41 16.02.2020
2505 Snow -2 1016 73 14484 5.1 180 14:23 16.02.2020
2506 Snow -2 1015 73 14484 5.7 180 13:48 16.02.2020
2507 Snow -2 1015 73 14484 4.1 170 13:25 16.02.2020
2508 Snow -3 1015 73 14484 5.1 190 12:58 16.02.2020
2509 Snow -3 1015 73 14484 5.1 190 12:39 16.02.2020
2510 Snow -3 1015 73 14484 5.1 190 12:19 16.02.2020
2511 Snow -3 1015 73 14484 4.1 180 11:40 16.02.2020
2512 Snow -3 1015 73 14484 4.1 180 11:19 16.02.2020
2513 Snow -3 1015 73 9656 4.6 190 10:58 16.02.2020
2514 Snow -3 1015 73 9656 4.6 190 10:40 16.02.2020
2515 Snow -3 1015 73 14484 5.1 180 10:21 16.02.2020
2516 Snow -3 1015 73 14484 5.1 180 10:21 16.02.2020
2517 Snow -3 1015 73 14484 5.1 180 10:21 16.02.2020
2518 Snow -3 1015 68 16093 6.2 220 09:59 16.02.2020
2519 Snow -3 1015 68 16093 6.2 220 09:38 16.02.2020
2520 Snow -4 1015 68 14484 6.2 180 09:20 16.02.2020
2521 Snow -4 1015 79 14484 7.2 180 08:50 16.02.2020
2522 Snow -4 1015 79 14484 7.2 180 08:22 16.02.2020
2523 Snow -6 1015 85 9656 6.7 170 07:59 16.02.2020
2524 Snow -6 1015 85 9656 6.7 170 07:39 16.02.2020
2525 Snow -5 1016 73 2816 6.7 180 06:47 16.02.2020
2526 Snow -6 1016 67 8047 7.2 170 05:43 16.02.2020
2527 Clouds -7 1017 57 14484 7.7 180 04:37 16.02.2020
2528 Clouds -7 1019 57 14484 5.7 190 03:19 16.02.2020
2529 Clouds -8 1021 62 14484 6.2 190 01:58 16.02.2020
2530 Clouds -8 1021 62 14484 6.2 190 01:38 16.02.2020
2531 Clouds -8 1021 62 14484 6.2 190 01:19 16.02.2020
2532 Clouds -8 1022 57 14484 6.7 180 00:41 16.02.2020
2533 Clouds -8 1022 57 14484 6.7 180 00:22 16.02.2020
2534 Clouds -8 1023 61 14484 7.2 170 23:43 15.02.2020
2535 Clouds -8 1023 61 14484 7.2 170 23:25 15.02.2020
2536 Clear -7 1024 61 14484 5.7 170 22:57 15.02.2020
2537 Clear -7 1024 61 14484 5.7 170 22:39 15.02.2020
2538 Clear -7 1024 61 14484 5.7 170 22:19 15.02.2020
2539 Clouds -7 1025 57 14484 7.2 170 21:44 15.02.2020
2540 Snow -7 1026 57 14484 7.2 180 21:24 15.02.2020
2541 Clouds -7 1026 61 14484 7.7 180 20:58 15.02.2020
2542 Clouds -7 1026 61 14484 7.7 180 20:37 15.02.2020
2543 Snow -7 1027 61 14484 8.2 190 20:19 15.02.2020
2544 Snow -7 1028 61 14484 8.2 190 19:42 15.02.2020
2545 Snow -7 1028 61 14484 7.2 190 19:22 15.02.2020
2546 Snow -8 1029 66 14484 7.2 190 18:42 15.02.2020
2547 Clouds -9 1030 61 14484 7.2 190 18:21 15.02.2020
2548 Clouds -9 1031 61 14484 6.7 190 17:57 15.02.2020
2549 Clouds -10 1031 61 14484 6.7 190 17:37 15.02.2020
2550 Clouds -10 1031 61 14484 6.7 190 17:19 15.02.2020
2551 Snow -12 1032 66 14484 5.7 170 16:41 15.02.2020
2552 Snow -13 1033 71 14484 6.7 190 16:23 15.02.2020
2553 Snow -13 1033 65 24140 4.1 180 15:56 15.02.2020
2554 Snow -14 1033 65 24140 4.1 180 15:38 15.02.2020
2555 Snow -15 1033 65 24140 4.1 180 15:20 15.02.2020
2556 Snow -16 1034 71 14484 5.1 170 14:43 15.02.2020
2557 Snow -17 1034 71 14484 5.1 170 14:19 15.02.2020
2558 Snow -17 1034 71 14484 4.1 180 13:43 15.02.2020
2559 Clouds -17 1034 77 14484 4.1 170 13:25 15.02.2020
2560 Clouds -18 1035 70 14484 4.1 190 12:59 15.02.2020
2561 Clouds -18 1035 70 14484 4.1 190 12:41 15.02.2020
2562 Clouds -18 1035 70 14484 4.1 190 12:22 15.02.2020
2563 Snow -18 1035 70 14484 5.1 190 11:48 15.02.2020
2564 Snow -18 1035 70 14484 5.1 190 11:29 15.02.2020
2565 Clouds -19 1035 70 14484 3.6 170 10:52 15.02.2020
2566 Clouds -20 1035 70 14484 3.6 170 10:30 15.02.2020
2567 Clouds -20 1035 70 14484 3.6 170 09:59 15.02.2020
2568 Clouds -20 1035 70 14484 3.6 170 09:41 15.02.2020
2569 Clouds -20 1035 70 14484 3.6 170 09:23 15.02.2020
2570 Clouds -20 1036 69 14484 2.6 160 08:44 15.02.2020
2571 Clouds -21 1036 69 14484 2.6 160 08:25 15.02.2020
2572 Clear -23 1036 63 14484 4.1 180 07:56 15.02.2020
2573 Clear -23 1036 63 14484 4.1 180 07:37 15.02.2020
2574 Clear -23 1036 63 14484 3.1 180 06:59 15.02.2020
2575 Clear -23 1036 63 14484 3.1 180 06:36 15.02.2020
2576 Clear -23 1036 63 14484 2.6 180 05:46 15.02.2020
2577 Clear -22 1036 58 24140 2.6 240 04:46 15.02.2020
2578 Clear -21 1036 49 14484 3.6 270 03:43 15.02.2020
2579 Clear -21 1035 49 14484 4.1 260 02:52 15.02.2020
2580 Clear -20 1035 49 14484 4.1 260 02:23 15.02.2020
2581 Clear -19 1035 49 14484 5.7 260 01:41 15.02.2020
2582 Clear -19 1034 54 14484 6.2 250 00:43 15.02.2020
2583 Clear -19 1034 54 14484 6.2 250 00:24 15.02.2020
2584 Clear -18 1034 49 14484 5.7 250 23:42 14.02.2020
2585 Clear -17 1034 49 14484 5.7 250 23:20 14.02.2020
2586 Clear -17 1033 54 14484 5.7 240 22:45 14.02.2020
2587 Clear -17 1033 54 14484 5.7 240 22:24 14.02.2020
2588 Clear -16 1033 54 14484 5.7 220 21:58 14.02.2020
2589 Clear -16 1033 54 14484 5.7 220 21:40 14.02.2020
2590 Clear -16 1033 54 14484 5.7 220 21:20 14.02.2020
2591 Clear -17 1032 54 14484 6.2 240 20:43 14.02.2020
2592 Clear -17 1032 54 14484 6.2 240 20:19 14.02.2020
2593 Clouds -17 1032 54 14484 5.1 240 19:56 14.02.2020
2594 Clouds -17 1032 54 14484 5.1 240 19:38 14.02.2020
2595 Clouds -17 1032 49 14484 2.1 70 19:18 14.02.2020
2596 Clear -17 1032 44 14484 1 0 18:55 14.02.2020
2597 Clear -18 1032 44 14484 1 0 18:37 14.02.2020
2598 Clear -18 1032 44 14484 1 0 18:18 14.02.2020
2599 Clear -18 1032 49 14484 2.6 360 17:41 14.02.2020
2600 Clear -19 1032 49 14484 2.6 360 17:19 14.02.2020
2601 Clear -19 1031 48 14484 2.6 330 16:57 14.02.2020
2602 Clear -19 1031 48 14484 2.6 330 16:39 14.02.2020
2603 Clear -20 1031 48 14484 2.6 330 16:20 14.02.2020
2604 Clear -20 1030 53 14484 2.6 360 15:55 14.02.2020
2605 Clear -20 1030 53 14484 2.6 360 15:37 14.02.2020
2606 Clear -20 1030 53 14484 2.6 360 15:19 14.02.2020
2607 Clear -20 1029 63 14484 1.5 350 14:55 14.02.2020
2608 Clear -21 1029 63 14484 1.5 350 14:37 14.02.2020
2609 Clear -21 1029 63 14484 1.5 350 14:18 14.02.2020
2610 Clear -22 1028 57 14484 2.1 330 13:39 14.02.2020
2611 Clear -23 1028 57 14484 2.1 330 13:20 14.02.2020
2612 Clear -22 1026 63 14484 3.6 340 12:57 14.02.2020
2613 Clear -22 1026 63 14484 3.6 340 12:39 14.02.2020
2614 Clear -22 1026 63 14484 3.6 340 12:20 14.02.2020
2615 Clear -23 1026 63 14484 3.6 340 12:20 14.02.2020
2616 Clear -22 1025 57 14484 3.6 340 11:58 14.02.2020
2617 Clear -22 1025 57 14484 3.6 340 11:40 14.02.2020
2618 Clear -21 1025 57 14484 3.6 340 11:20 14.02.2020
2619 Clear -20 1023 58 14484 5.7 350 10:46 14.02.2020
2620 Clear -20 1023 58 14484 5.7 350 10:28 14.02.2020
2621 Clouds -19 1021 58 14484 5.1 10 09:57 14.02.2020
2622 Clouds -19 1021 58 14484 5.1 10 09:57 14.02.2020
2623 Clouds -19 1021 58 14484 5.1 10 09:38 14.02.2020
2624 Clouds -18 1021 58 14484 5.1 10 09:19 14.02.2020
2625 Clouds -17 1020 54 14484 6.7 10 08:43 14.02.2020
2626 Clouds -17 1020 54 14484 6.7 10 08:24 14.02.2020
2627 Clouds -16 1018 59 14484 7.2 360 07:51 14.02.2020
2628 Clouds -16 1018 59 14484 7.2 360 07:33 14.02.2020
2629 Clouds -15 1017 60 14484 2.6 360 06:56 14.02.2020
2630 Clouds -15 1017 60 14484 2.6 360 06:23 14.02.2020
2631 Clouds -14 1017 65 14484 3.6 10 05:44 14.02.2020
2632 Snow -14 1015 71 2816 5.1 10 04:28 14.02.2020
2633 Snow -13 1014 77 9656 4.6 10 03:28 14.02.2020
2634 Snow -12 1013 78 9656 6.2 20 02:29 14.02.2020
2635 Snow -11 1011 78 4828 4.1 10 01:25 14.02.2020
2636 Snow -10 1011 78 8047 6.7 20 00:42 14.02.2020
2637 Snow -9 1010 78 4828 5.7 30 00:21 14.02.2020
2638 Snow -9 1008 85 1207 3.1 80 23:43 13.02.2020
2639 Snow -9 1008 85 1207 3.1 80 23:43 13.02.2020
2640 Snow -8 1008 85 4828 5.1 40 23:20 13.02.2020
2641 Snow -8 1007 85 3621 6.2 40 22:43 13.02.2020
2642 Snow -8 1007 78 4828 5.7 60 22:20 13.02.2020
2643 Snow -8 1006 78 4828 6.2 60 21:59 13.02.2020
2644 Snow -7 1006 78 4828 6.2 60 21:40 13.02.2020
2645 Snow -7 1006 78 6437 6.2 60 21:22 13.02.2020
2646 Snow -7 1005 78 8047 6.2 50 20:56 13.02.2020
2647 Snow -7 1005 78 8047 6.2 50 20:38 13.02.2020
2648 Snow -6 1005 78 8047 6.2 50 20:19 13.02.2020
2649 Snow -6 1004 85 2012 7.7 30 19:55 13.02.2020
2650 Snow -5 1004 85 2012 7.7 30 19:36 13.02.2020
2651 Snow -4 1004 85 2012 7.7 30 19:18 13.02.2020
2652 Snow -4 1004 85 2012 7.7 30 19:18 13.02.2020
2653 Snow -3 1005 85 3621 8.2 30 18:42 13.02.2020
2654 Snow -3 1005 85 3621 8.2 30 18:42 13.02.2020
2655 Snow 0 1004 91 1609 1.5 310 18:23 13.02.2020
2656 Snow 0 1004 92 3219 2.6 320 17:58 13.02.2020
2657 Snow 0 1004 92 3219 2.6 320 17:39 13.02.2020
2658 Snow 0 1005 92 1609 1.5 230 17:20 13.02.2020
2659 Snow 0 1005 92 1609 1.5 230 17:20 13.02.2020
2660 Snow 0 1005 92 2816 2.6 240 16:58 13.02.2020
2661 Snow 0 1005 92 2816 2.6 240 16:37 13.02.2020
2662 Snow -1 1005 92 4828 2.6 210 16:19 13.02.2020
2663 Snow -1 1005 92 3219 2.6 230 15:56 13.02.2020
2664 Snow -1 1005 92 3219 2.6 230 15:37 13.02.2020
2665 Snow -1 1005 100 2414 2.1 210 15:19 13.02.2020
2666 Snow -1 1005 92 3219 2.1 220 14:55 13.02.2020
2667 Snow -2 1005 92 3219 2.1 220 14:37 13.02.2020
2668 Snow -2 1005 92 3219 2.6 190 14:19 13.02.2020
2669 Snow -2 1005 92 2816 1.5 200 13:42 13.02.2020
2670 Snow -2 1006 92 4023 2.1 200 13:18 13.02.2020
2671 Snow -2 1006 92 3219 2.6 200 12:54 13.02.2020
2672 Snow -2 1006 92 3219 2.6 200 12:54 13.02.2020
2673 Snow -2 1006 92 3219 2.6 200 12:36 13.02.2020
2674 Snow -2 1006 92 2414 2.1 170 12:18 13.02.2020
2675 Snow -2 1007 79 2816 2.1 200 11:43 13.02.2020
2676 Snow -2 1007 79 2816 2.1 200 11:20 13.02.2020
2677 Snow -2 1006 86 14484 2.1 130 10:46 13.02.2020
2678 Clouds -2 1007 79 14484 1.47 178 10:27 13.02.2020
2679 Clouds -2 1008 79 14484 1.47 178 09:51 13.02.2020
2680 Clouds -2 1008 79 14484 1.47 178 09:28 13.02.2020
2681 Clouds -2 1008 74 14484 1 0 08:58 13.02.2020
2682 Clouds -2 1008 74 14484 1 0 08:37 13.02.2020
2683 Clouds -2 1008 74 14484 1 0 08:18 13.02.2020
2684 Clouds -2 1009 68 14484 1.5 190 07:39 13.02.2020
2685 Clouds -2 1009 68 14484 1.5 190 07:20 13.02.2020
2686 Clouds -2 1011 74 14484 2.6 220 06:44 13.02.2020
2687 Clouds -2 1011 74 14484 2.6 220 06:20 13.02.2020
2688 Clouds -2 1011 63 14484 3.6 180 05:33 13.02.2020
2689 Clouds -2 1011 68 14484 3.6 180 04:26 13.02.2020
2690 Clouds -2 1013 79 14484 2.6 150 03:52 13.02.2020
2691 Clouds -2 1013 79 14484 2.6 150 03:26 13.02.2020
2692 Clouds -2 1014 68 14484 2.1 200 02:52 13.02.2020
2693 Clouds -2 1014 68 14484 2.1 200 02:19 13.02.2020
2694 Clouds -1 1015 85 14484 6.7 230 01:35 13.02.2020
2695 Clear -1 1015 86 14484 6.7 240 00:40 13.02.2020
2696 Clear -1 1015 86 14484 6.7 240 00:21 13.02.2020
2697 Clear 0 1016 63 14484 4.6 220 23:40 12.02.2020
2698 Clear 0 1016 63 14484 4.6 220 23:22 12.02.2020
2699 Clear 1 1015 83 14484 4.6 220 22:45 12.02.2020
2700 Clear 1 1015 83 14484 4.6 220 22:27 12.02.2020
2701 Clouds 1 1016 55 14484 6.7 230 21:59 12.02.2020
2702 Clouds 1 1016 55 14484 6.7 230 21:40 12.02.2020
2703 Clouds 1 1016 55 14484 6.7 230 21:20 12.02.2020
2704 Clouds 1 1016 83 14484 7.2 210 20:58 12.02.2020
2705 Clouds 1 1016 83 14484 7.2 210 20:39 12.02.2020
2706 Clouds 1 1016 82 14484 7.2 210 20:20 12.02.2020
2707 Clear 1 1016 82 14484 6.7 240 19:55 12.02.2020
2708 Clear 1 1016 82 14484 6.7 240 19:37 12.02.2020
2709 Clear 1 1016 82 14484 6.7 240 19:19 12.02.2020
2710 Snow 1 1017 82 9656 8.7 240 18:47 12.02.2020
2711 Snow 1 1018 83 8047 9.3 240 18:19 12.02.2020
2712 Snow 0 1018 63 14484 8.2 230 17:56 12.02.2020
2713 Snow 0 1018 63 14484 8.2 230 17:37 12.02.2020
2714 Snow 0 1018 63 14484 8.2 230 17:37 12.02.2020
2715 Snow -1 1018 63 14484 8.2 230 17:19 12.02.2020
2716 Snow -1 1018 63 14484 7.7 230 16:40 12.02.2020
2717 Snow -1 1018 63 14484 7.7 230 16:20 12.02.2020
2718 Snow -1 1018 63 14484 7.2 240 15:58 12.02.2020
2719 Snow -1 1018 63 14484 7.2 240 15:37 12.02.2020
2720 Clear -1 1017 63 14484 7.2 270 15:18 12.02.2020
2721 Clear -2 1017 63 14484 7.2 270 14:42 12.02.2020
2722 Clear -3 1017 68 14484 7.2 260 14:21 12.02.2020
2723 Clear -3 1016 68 14484 4.6 260 13:58 12.02.2020
2724 Clear -3 1016 68 14484 4.6 260 13:40 12.02.2020
2725 Clear -3 1016 68 14484 4.6 260 13:21 12.02.2020
2726 Clouds -3 1015 74 14484 6.7 250 12:58 12.02.2020
2727 Clouds -3 1015 74 14484 6.7 250 12:39 12.02.2020
2728 Clouds -3 1015 74 14484 6.7 250 12:39 12.02.2020
2729 Clouds -3 1015 74 14484 6.7 250 12:19 12.02.2020
2730 Clear -3 1013 74 14484 7.7 260 11:58 12.02.2020
2731 Clear -3 1013 74 14484 7.7 260 11:40 12.02.2020
2732 Clear -2 1013 74 14484 7.7 260 11:20 12.02.2020
2733 Clouds -3 1012 74 14484 8.7 270 10:58 12.02.2020
2734 Clouds -2 1012 74 14484 8.7 270 10:39 12.02.2020
2735 Clouds -2 1012 74 14484 8.7 270 10:20 12.02.2020
2736 Snow -2 1011 68 14484 7.7 270 09:42 12.02.2020
2737 Snow -2 1011 68 14484 7.7 270 09:42 12.02.2020
2738 Clouds -2 1011 68 14484 7.7 270 09:24 12.02.2020
2739 Snow -2 1010 80 11265 7.2 250 08:58 12.02.2020
2740 Snow -2 1010 80 11265 7.2 250 08:38 12.02.2020
2741 Snow -1 1010 80 11265 7.2 250 08:20 12.02.2020
2742 Snow -1 1010 80 11265 7.2 250 08:20 12.02.2020
2743 Snow -1 1010 80 14484 5.7 240 07:58 12.02.2020
2744 Snow -2 1010 80 14484 5.7 240 07:39 12.02.2020
2745 Snow -2 1009 86 11265 5.1 230 07:19 12.02.2020
2746 Snow -2 1010 80 19312 6.2 250 06:41 12.02.2020
2747 Clouds -2 1009 86 12874 3.6 230 06:18 12.02.2020
2748 Snow -3 1009 86 12874 2.6 200 05:21 12.02.2020
2749 Snow -3 1009 86 11265 2.6 200 04:42 12.02.2020
2750 Clouds -3 1009 68 14484 3.1 260 03:58 12.02.2020
2751 Snow -3 1009 74 14484 2.6 260 03:29 12.02.2020
2752 Clouds -3 1009 74 14484 2.1 250 02:44 12.02.2020
2753 Clouds -3 1009 74 14484 2.1 250 02:25 12.02.2020
2754 Clouds -3 1009 74 14484 3.6 240 01:30 12.02.2020
2755 Clouds -3 1010 74 14484 5.1 240 00:41 12.02.2020
2756 Clouds -3 1010 74 14484 5.1 240 00:22 12.02.2020
2757 Clouds -2 1009 79 12874 4.6 240 23:49 11.02.2020
2758 Clouds -2 1009 79 12874 4.6 240 23:31 11.02.2020
2759 Mist -2 1010 92 6437 4.6 230 22:58 11.02.2020
2760 Mist -2 1010 92 6437 4.6 230 22:39 11.02.2020
2761 Mist -2 1010 92 6437 4.6 230 22:20 11.02.2020
2762 Mist -1 1010 92 4828 4.1 230 21:57 11.02.2020
2763 Mist -1 1010 92 4828 4.1 230 21:39 11.02.2020
2764 Mist -2 1010 92 4828 3.6 220 21:19 11.02.2020
2765 Mist -1 1010 92 3621 1.5 210 20:58 11.02.2020
2766 Mist -1 1010 92 3621 1.5 210 20:39 11.02.2020
2767 Mist -1 1010 92 3621 1.5 210 20:39 11.02.2020
2768 Mist -1 1011 92 4828 2.04 241 20:19 11.02.2020
2769 Mist -2 1011 92 4828 1 30 19:58 11.02.2020
2770 Mist -2 1011 92 4828 1 30 19:39 11.02.2020
2771 Mist -2 1011 92 4828 1 30 19:39 11.02.2020
2772 Mist -2 1011 92 4828 1 30 19:20 11.02.2020
2773 Mist -2 1013 100 4828 2.1 100 18:45 11.02.2020
2774 Mist -2 1013 100 4828 2.1 100 18:27 11.02.2020
2775 Mist -3 1013 92 4023 2.1 100 17:57 11.02.2020
2776 Mist -3 1013 92 4023 2.1 100 17:39 11.02.2020
2777 Mist -4 1014 92 3219 2.1 60 17:19 11.02.2020
2778 Mist -5 1015 92 2816 1.5 60 16:58 11.02.2020
2779 Mist -5 1015 92 2816 1.5 60 16:39 11.02.2020
2780 Mist -6 1015 92 2414 1 10 16:21 11.02.2020
2781 Mist -6 1015 92 1207 1 0 15:58 11.02.2020
2782 Mist -6 1015 92 1207 1 0 15:39 11.02.2020
2783 Snow -6 1016 92 201 2.1 60 15:21 11.02.2020
2784 Snow -6 1016 92 805 2.1 30 14:42 11.02.2020
2785 Mist -7 1017 92 2414 1 90 14:19 11.02.2020
2786 Mist -8 1017 92 3219 1.26 170 13:57 11.02.2020
2787 Mist -8 1017 92 3219 1.26 170 13:38 11.02.2020
2788 Snow -8 1017 92 805 1 330 13:20 11.02.2020
2789 Mist -9 1017 92 1207 2.1 350 12:55 11.02.2020
2790 Mist -9 1017 92 1207 2.1 350 12:36 11.02.2020
2791 Snow -10 1018 92 201 1 0 12:18 11.02.2020
2792 Snow -10 1018 92 402 1 110 11:41 11.02.2020
2793 Fog -10 1018 85 805 1 150 11:19 11.02.2020
2794 Fog -10 1018 92 201 1 120 10:54 11.02.2020
2795 Fog -10 1018 92 201 1 120 10:54 11.02.2020
2796 Fog -10 1018 92 201 1 120 10:36 11.02.2020
2797 -273 0 0 0 0 0 10:36 11.02.2020
2798 Snow -11 1018 92 201 1.58 184 10:18 11.02.2020
2799 Snow -11 1019 92 402 1.5 130 09:44 11.02.2020
2800 Snow -11 1019 85 201 1.5 130 09:22 11.02.2020
2801 Fog -11 1020 84 0 1 150 08:57 11.02.2020
2802 Fog -11 1020 84 0 1 150 08:39 11.02.2020
2803 Snow -11 1019 92 0 0.7 283 08:20 11.02.2020
2804 Snow -11 1020 85 201 1 130 07:45 11.02.2020
2805 Fog -10 1020 84 201 1.5 90 07:24 11.02.2020
2806 Fog -10 1020 92 402 0.7 283 06:43 11.02.2020
2807 Snow -9 1020 92 603 2.1 130 06:21 11.02.2020
2808 Snow -9 1019 92 201 1 80 05:47 11.02.2020
2809 Mist -8 1020 92 1006 1 120 05:23 11.02.2020
2810 Fog -7 1020 92 16093 2.1 200 04:37 11.02.2020
2811 Snow -5 1020 92 402 2.1 210 02:53 11.02.2020
2812 Clear -5 1020 92 24140 2.6 220 02:27 11.02.2020
2813 Snow -5 1020 92 1609 2.1 180 01:36 11.02.2020
2814 Clouds -4 1019 86 24140 2.6 210 00:40 11.02.2020
2815 Mist -4 1018 85 6437 3.1 210 23:57 10.02.2020
2816 Mist -3 1018 85 6437 3.1 210 23:38 10.02.2020
2817 Mist -3 1018 85 6437 3.1 210 23:19 10.02.2020
2818 Haze -2 1017 79 8047 2.6 210 22:40 10.02.2020
2819 Haze -2 1017 79 8047 2.6 210 22:20 10.02.2020
2820 Haze -2 1016 79 8047 2.1 240 21:45 10.02.2020
2821 Haze -2 1016 79 8047 2.1 240 21:25 10.02.2020
2822 Snow -1 1015 86 9656 1 0 20:58 10.02.2020
2823 Snow -2 1015 86 9656 1 0 20:39 10.02.2020
2824 Snow -2 1015 85 4828 1.5 330 20:21 10.02.2020
2825 Snow -2 1015 85 8047 3.1 340 19:59 10.02.2020
2826 Snow -2 1015 85 8047 3.1 340 19:39 10.02.2020
2827 Snow -3 1014 85 2816 2.6 320 19:19 10.02.2020
2828 Snow -3 1015 79 4023 2.6 340 18:59 10.02.2020
2829 Snow -3 1015 79 4023 2.6 340 18:40 10.02.2020
2830 Snow -3 1014 85 3219 2.6 350 18:21 10.02.2020
2831 Snow -3 1014 92 2816 2.6 340 17:58 10.02.2020
2832 Snow -3 1014 92 2816 2.6 340 17:38 10.02.2020
2833 Snow -3 1014 92 2012 1.5 10 17:20 10.02.2020
2834 Snow -3 1014 85 6437 2.6 10 16:59 10.02.2020
2835 Snow -4 1014 85 6437 2.6 10 16:40 10.02.2020
2836 Snow -4 1014 85 2012 2.6 360 16:20 10.02.2020
2837 Snow -4 1014 85 603 2.6 10 15:56 10.02.2020
2838 Snow -4 1014 85 603 2.6 10 15:38 10.02.2020
2839 Snow -5 1014 92 1207 2.6 360 15:20 10.02.2020
2840 Snow -5 1014 85 2012 5.1 10 14:56 10.02.2020
2841 Snow -4 1014 85 2012 5.1 10 14:37 10.02.2020
2842 Snow -6 1014 92 1006 3.1 360 14:18 10.02.2020
2843 Snow -5 1014 92 1609 2.1 50 13:43 10.02.2020
2844 Snow -6 1014 92 1207 3.6 10 13:24 10.02.2020
2845 Snow -6 1014 92 1207 3.6 10 13:24 10.02.2020
2846 Snow -6 1015 92 1207 3.1 10 12:54 10.02.2020
2847 Snow -6 1015 92 1207 3.1 10 12:36 10.02.2020
2848 Snow -6 1015 92 1207 2.6 360 12:18 10.02.2020
2849 Snow -6 1016 85 1207 2.1 20 11:43 10.02.2020
2850 Snow -7 1016 85 1207 2.1 20 11:20 10.02.2020
2851 Snow -7 1016 85 1207 2.1 20 11:20 10.02.2020
2852 Snow -6 1017 92 805 2.1 10 10:47 10.02.2020
2853 Snow -7 1017 92 805 2.1 10 10:28 10.02.2020
2854 Snow -7 1019 92 1207 1.5 10 09:48 10.02.2020
2855 Snow -7 1019 92 1207 1.5 10 09:27 10.02.2020
2856 Snow -7 1020 85 1207 4.1 20 08:59 10.02.2020
2857 Snow -7 1020 85 1207 4.1 20 08:59 10.02.2020
2858 Snow -8 1020 85 1207 4.1 20 08:38 10.02.2020
2859 Snow -8 1021 85 1207 2.6 10 08:19 10.02.2020
2860 Snow -8 1021 85 1609 4.1 20 07:52 10.02.2020
2861 Snow -8 1023 85 1609 2.6 20 07:32 10.02.2020
2862 Snow -8 1023 78 2012 2.6 350 06:44 10.02.2020
2863 Clouds -8 1025 78 14484 1.11 91 04:51 10.02.2020
2864 Snow -8 1026 78 24140 3.6 30 03:54 10.02.2020
2865 Clouds -8 1028 72 14484 1.5 20 02:58 10.02.2020
2866 Clouds -8 1028 72 14484 1.5 20 02:40 10.02.2020
2867 Clouds -9 1029 72 14484 2.1 30 01:21 10.02.2020
2868 Clouds -9 1029 72 24140 2.6 40 00:37 10.02.2020
2869 Clouds -9 1029 72 14484 1.5 70 00:19 10.02.2020
2870 Snow -9 1029 61 24140 2.6 70 23:41 09.02.2020
2871 Clouds -9 1030 66 14484 2.6 90 23:23 09.02.2020
2872 Clouds -9 1031 61 14484 3.1 100 22:44 09.02.2020
2873 -273 0 0 0 0 0 22:22 09.02.2020
2874 Clear -9 1031 52 14484 2.6 150 21:56 09.02.2020
2875 Clear -9 1031 52 14484 2.6 150 21:38 09.02.2020
2876 Clear -9 1031 52 14484 2.6 150 21:19 09.02.2020
2877 Clouds -9 1032 56 32767 1.5 50 20:44 09.02.2020
2878 Clear -10 1032 66 14484 1.5 30 20:21 09.02.2020
2879 Clear -10 1033 65 14484 1.5 50 19:55 09.02.2020
2880 Clear -11 1033 65 14484 1.5 50 19:37 09.02.2020
2881 Clear -11 1033 65 14484 1.5 50 19:18 09.02.2020
2882 Clear -11 1034 65 14484 2.1 180 18:42 09.02.2020
2883 Clear -12 1034 65 14484 2.1 180 18:23 09.02.2020
2884 Clear -13 1035 84 14484 2.6 150 17:56 09.02.2020
2885 Clear -14 1035 84 14484 2.6 150 17:37 09.02.2020
2886 Clear -14 1035 84 14484 2.6 150 17:19 09.02.2020
2887 Clear -16 1035 76 14484 1.5 110 16:41 09.02.2020
2888 Clear -17 1035 76 14484 1.5 110 16:22 09.02.2020
2889 Clouds -17 1034 77 32767 3.1 20 15:58 09.02.2020
2890 Clouds -17 1034 77 32767 3.1 20 15:40 09.02.2020
2891 Clear -19 1035 76 14484 2.1 60 15:21 09.02.2020
2892 Clear -20 1034 76 14484 1 60 14:56 09.02.2020
2893 Clear -20 1034 76 14484 1 60 14:37 09.02.2020
2894 Clear -23 1034 76 14484 1 60 14:18 09.02.2020
2895 Clear -24 1034 76 14484 1.5 80 13:42 09.02.2020
2896 Clear -24 1034 76 14484 1.5 80 13:23 09.02.2020
2897 Clear -24 1034 76 14484 1.5 150 12:54 09.02.2020
2898 Clear -24 1034 76 14484 1.5 150 12:36 09.02.2020
2899 Clear -24 1034 76 14484 2.1 160 12:18 09.02.2020
2900 Snow -24 1034 76 8047 1 0 11:39 09.02.2020
2901 Clear -24 1033 69 14484 1 0 11:19 09.02.2020
2902 Clear -24 1033 69 14484 1 0 11:19 09.02.2020
2903 Clear -24 1033 76 14484 1 120 10:54 09.02.2020
2904 Clear -23 1033 76 14484 1 120 10:36 09.02.2020
2905 Clear -23 1033 76 14484 1 120 10:18 09.02.2020
2906 Haze -24 1032 76 9656 1 170 09:39 09.02.2020
2907 Haze -24 1032 76 8047 1.5 140 09:20 09.02.2020
2908 Clear -23 1031 76 14484 2.1 140 08:44 09.02.2020
2909 Clear -23 1031 76 14484 2.1 140 08:25 09.02.2020
2910 Clear -22 1031 76 14484 1.5 150 07:54 09.02.2020
2911 Clear -22 1031 76 14484 1.5 150 07:34 09.02.2020
2912 Clear -22 1031 76 14484 1.5 150 07:34 09.02.2020
2913 Haze -22 1031 70 9656 1.5 240 06:42 09.02.2020
2914 Clear -22 1030 70 24140 2.1 270 05:56 09.02.2020
2915 Clear -21 1030 70 24140 2.1 270 05:34 09.02.2020
2916 Clear -20 1030 59 14484 2.6 250 04:51 09.02.2020
2917 Clear -20 1029 54 14484 2.6 280 03:30 09.02.2020
2918 Clear -19 1028 59 14484 3.1 270 02:43 09.02.2020
2919 Clear -17 1027 59 14484 4.6 250 01:45 09.02.2020
2920 Clear -17 1027 59 14484 4.6 250 01:27 09.02.2020
2921 Clear -17 1026 54 14484 7.2 240 00:38 09.02.2020
2922 Clear -17 1026 54 14484 7.2 240 00:18 09.02.2020
2923 Clear -16 1025 54 14484 7.7 250 23:41 08.02.2020
2924 Clear -15 1025 54 14484 7.7 250 23:19 08.02.2020
2925 Clear -14 1024 55 14484 7.2 250 22:40 08.02.2020
2926 Clear -14 1024 55 14484 7.2 250 22:21 08.02.2020
2927 Clear -14 1023 55 14484 7.7 240 21:54 08.02.2020
2928 Clear -14 1023 55 14484 7.7 240 21:36 08.02.2020
2929 Clear -14 1023 55 14484 7.7 240 21:18 08.02.2020
2930 Clear -14 1022 50 14484 6.7 270 20:54 08.02.2020
2931 Clear -14 1022 50 14484 6.7 270 20:54 08.02.2020
2932 Clear -14 1022 50 14484 6.7 270 20:36 08.02.2020
2933 Snow -14 1022 50 14484 7.2 260 20:18 08.02.2020
2934 Snow -14 1021 50 14484 7.7 260 19:40 08.02.2020
2935 Snow -14 1021 54 14484 8.2 260 19:20 08.02.2020
2936 Snow -14 1020 54 14484 7.2 280 18:59 08.02.2020
2937 Snow -14 1020 54 14484 7.2 280 18:40 08.02.2020
2938 Snow -14 1020 54 14484 7.2 280 18:22 08.02.2020
2939 Snow -15 1020 54 14484 8.7 260 17:42 08.02.2020
2940 Clear -15 1020 54 14484 6.2 280 17:21 08.02.2020
2941 Snow -15 1018 59 12874 7.2 280 16:57 08.02.2020
2942 Snow -16 1018 59 12874 7.2 280 16:38 08.02.2020
2943 Snow -16 1018 59 12874 7.2 280 16:19 08.02.2020
2944 Snow -16 1018 54 9656 8.2 270 15:41 08.02.2020
2945 Snow -16 1017 59 14484 7.7 280 15:19 08.02.2020
2946 Snow -16 1017 59 14484 7.7 280 14:57 08.02.2020
2947 Snow -16 1017 59 14484 7.7 280 14:39 08.02.2020
2948 Clouds -17 1016 59 14484 6.7 270 14:18 08.02.2020
2949 Clouds -17 1015 59 14484 5.7 270 13:43 08.02.2020
2950 Clouds -17 1015 59 14484 5.7 270 13:23 08.02.2020
2951 Clear -17 1013 59 14484 7.7 280 12:54 08.02.2020
2952 Clear -17 1013 59 14484 7.7 280 12:36 08.02.2020
2953 Clear -17 1013 59 14484 7.7 280 12:18 08.02.2020
2954 Clouds -16 1012 60 14484 7.2 270 11:41 08.02.2020
2955 Snow -15 1011 60 12874 9.3 280 11:21 08.02.2020
2956 Snow -15 1011 60 14484 6.7 280 10:43 08.02.2020
2957 Snow -15 1010 60 14484 5.1 260 10:25 08.02.2020
2958 Clouds -15 1008 60 12874 4.6 270 09:55 08.02.2020
2959 Snow -15 1008 60 14484 6.7 270 09:30 08.02.2020
2960 Clouds -14 1006 65 14484 5.7 270 08:59 08.02.2020
2961 Clouds -14 1006 65 14484 5.7 270 08:39 08.02.2020
2962 Clouds -14 1006 65 14484 5.7 270 08:21 08.02.2020
2963 Snow -13 1006 66 14484 6.7 280 07:50 08.02.2020
2964 Snow -13 1005 72 11265 4.6 270 07:31 08.02.2020
2965 Snow -12 1004 78 8047 3.6 280 06:41 08.02.2020
2966 Snow -12 1003 78 14484 5.1 310 06:18 08.02.2020
2967 Snow -11 1002 78 4828 4.6 340 05:32 08.02.2020
2968 Snow -10 1001 72 4828 5.1 350 04:53 08.02.2020
2969 Snow -9 1000 78 3219 3.6 300 04:18 08.02.2020
2970 Snow -9 999 78 4023 4.6 310 03:35 08.02.2020
2971 Snow -9 996 85 2414 6.7 320 02:28 08.02.2020
2972 Snow -9 996 85 2414 6.7 320 02:28 08.02.2020
2973 Snow -8 993 85 1609 8.2 330 01:29 08.02.2020
2974 Snow -8 993 85 2414 5.1 320 00:46 08.02.2020
2975 Snow -8 991 85 1207 7.7 330 00:25 08.02.2020
2976 Snow -8 991 92 1207 6.2 320 23:57 07.02.2020
2977 Snow -8 991 92 1207 6.2 320 23:39 07.02.2020
2978 Snow -8 988 85 1207 9.3 350 23:19 07.02.2020
2979 Snow -8 988 85 1207 7.7 330 22:41 07.02.2020
2980 Snow -7 985 92 1207 9.8 360 22:19 07.02.2020
2981 Snow -7 985 92 1207 9.8 360 22:19 07.02.2020
2982 Snow -7 985 85 805 11.3 10 21:57 07.02.2020
2983 Snow -7 985 85 805 11.3 10 21:39 07.02.2020
2984 Snow -7 984 85 402 12.9 10 21:19 07.02.2020
2985 Snow -7 983 85 402 13.9 10 20:39 07.02.2020
2986 Snow -7 983 85 603 10.8 10 20:19 07.02.2020
2987 Snow -6 984 85 603 11.8 360 19:54 07.02.2020
2988 Snow -6 984 85 603 11.8 360 19:36 07.02.2020
2989 Snow -6 984 92 603 8.7 10 19:18 07.02.2020
2990 Snow -6 985 85 603 9.8 10 18:43 07.02.2020
2991 Snow -6 984 92 805 9.8 20 18:25 07.02.2020
2992 Snow -6 986 92 1609 10.3 20 17:55 07.02.2020
2993 Snow -6 986 92 1609 10.3 20 17:37 07.02.2020
2994 Snow -6 987 92 1207 9.8 30 17:18 07.02.2020
2995 Snow -6 989 85 1006 10.8 30 16:42 07.02.2020
2996 Snow -6 989 85 1006 10.8 30 16:23 07.02.2020
2997 Snow -6 990 92 603 11.3 30 15:53 07.02.2020
2998 Snow -6 991 85 603 9.8 30 15:28 07.02.2020
2999 Snow -6 991 85 603 9.8 30 15:28 07.02.2020
3000 Snow -6 991 85 805 9.8 30 14:55 07.02.2020
3001 Snow -6 991 85 805 9.8 30 14:37 07.02.2020
3002 Snow -6 992 92 603 9.8 30 14:19 07.02.2020
3003 Snow -6 992 92 402 10.3 20 13:56 07.02.2020
3004 Snow -6 992 92 402 10.3 20 13:38 07.02.2020
3005 Snow -5 993 85 805 11.3 20 13:19 07.02.2020
3006 Snow -5 994 85 2012 8.7 10 12:41 07.02.2020
3007 Snow -5 993 92 1609 9.8 20 12:23 07.02.2020
3008 Snow -5 994 85 2012 9.3 20 11:45 07.02.2020
3009 Snow -5 994 92 2414 8.2 30 11:23 07.02.2020
3010 Snow -5 994 92 2012 8.2 40 10:58 07.02.2020
3011 Snow -5 994 92 2012 8.2 40 10:38 07.02.2020
3012 Snow -5 995 92 1207 9.3 40 10:19 07.02.2020
3013 Snow -5 995 92 1207 11.3 40 09:41 07.02.2020
3014 Snow -5 997 85 1006 9.8 20 09:23 07.02.2020
3015 Snow -5 997 85 2414 9.3 10 08:50 07.02.2020
3016 Snow -5 996 92 1207 7.7 20 08:24 07.02.2020
3017 Snow -5 997 85 1006 7.2 20 07:55 07.02.2020
3018 Snow -5 997 85 1006 7.2 20 07:37 07.02.2020
3019 Snow -5 998 85 2012 6.2 20 07:18 07.02.2020
3020 Snow -5 997 92 2816 8.2 30 06:42 07.02.2020
3021 Snow -6 998 92 3219 8.2 30 06:21 07.02.2020
3022 Snow -6 999 92 3219 6.2 30 05:39 07.02.2020
3023 Snow -6 1001 92 2012 5.7 30 03:54 07.02.2020
3024 Snow -7 1002 85 3219 8.7 20 02:24 07.02.2020
3025 Snow -7 1003 85 8047 6.2 20 01:21 07.02.2020
3026 Snow -7 1003 85 14484 5.1 30 00:37 07.02.2020
3027 Snow -7 1003 85 6437 7.2 20 23:39 06.02.2020
3028 Snow -7 1003 85 6437 7.2 20 23:20 06.02.2020
3029 Clouds -7 1004 85 32186 3.1 60 22:57 06.02.2020
3030 Clouds -7 1004 85 32186 3.1 60 22:39 06.02.2020
3031 Snow -7 1004 85 6437 7.2 30 22:20 06.02.2020
3032 Snow -7 1004 92 3621 7.2 30 21:37 06.02.2020
3033 Snow -7 1005 85 2414 6.7 20 21:19 06.02.2020
3034 Snow -7 1006 85 2012 6.2 20 20:56 06.02.2020
3035 Snow -7 1006 85 2012 6.2 20 20:37 06.02.2020
3036 Snow -8 1006 85 2012 6.2 20 20:18 06.02.2020
3037 Snow -7 1006 85 3219 6.7 20 19:57 06.02.2020
3038 Snow -8 1006 85 3219 6.7 20 19:39 06.02.2020
3039 Snow -7 1006 78 2816 8.2 30 19:20 06.02.2020
3040 Snow -8 1007 78 2414 8.2 30 18:57 06.02.2020
3041 Snow -7 1007 78 2414 8.2 30 18:38 06.02.2020
3042 Snow -8 1008 78 4023 6.7 30 18:19 06.02.2020
3043 Snow -8 1007 78 3219 8.2 30 17:42 06.02.2020
3044 Snow -8 1009 85 2414 7.2 30 17:20 06.02.2020
3045 Snow -8 1009 85 8047 6.2 20 16:54 06.02.2020
3046 Snow -8 1009 85 8047 6.2 20 16:36 06.02.2020
3047 Snow -8 1009 85 14484 5.7 30 16:18 06.02.2020
3048 Snow -8 1011 85 14484 4.1 20 15:41 06.02.2020
3049 Snow -8 1011 85 14484 4.1 20 15:21 06.02.2020
3050 Snow -8 1011 85 9656 3.6 40 14:46 06.02.2020
3051 Snow -8 1011 85 9656 3.6 40 14:26 06.02.2020
3052 Snow -8 1012 85 4828 2.1 30 13:54 06.02.2020
3053 Snow -8 1012 85 4828 2.1 30 13:36 06.02.2020
3054 Snow -9 1012 85 2816 3.1 60 13:18 06.02.2020
3055 Snow -8 1012 85 4828 4.6 60 12:43 06.02.2020
3056 Snow -9 1013 85 3621 2.6 50 12:18 06.02.2020
3057 Snow -8 1013 72 2816 2.1 50 11:56 06.02.2020
3058 Snow -8 1013 72 2816 2.1 50 11:56 06.02.2020
3059 Snow -9 1013 72 2816 2.1 50 11:37 06.02.2020
3060 Snow -8 1014 61 14484 1 120 11:18 06.02.2020
3061 Snow -8 1014 62 24140 3.1 110 10:54 06.02.2020
3062 Snow -8 1014 62 24140 3.1 110 10:36 06.02.2020
3063 Clouds -8 1014 67 14484 1.5 80 10:18 06.02.2020
3064 Clouds -8 1015 72 14484 1 0 09:42 06.02.2020
3065 Clouds -8 1015 72 14484 1 0 09:20 06.02.2020
3066 Clouds -9 1016 72 14484 2.1 40 08:47 06.02.2020
3067 Clouds -9 1016 72 14484 2.1 40 08:25 06.02.2020
3068 Clouds -9 1016 66 14484 2.1 140 07:58 06.02.2020
3069 Clouds -9 1016 66 14484 2.1 140 07:33 06.02.2020
3070 Clouds -9 1017 61 14484 2.6 170 06:59 06.02.2020
3071 Clouds -9 1017 61 14484 2.6 170 06:21 06.02.2020
3072 Clouds -9 1018 66 14484 4.1 180 05:41 06.02.2020
3073 Clouds -11 1019 66 14484 3.6 180 04:18 06.02.2020
3074 Clouds -11 1020 66 14484 3.6 180 03:18 06.02.2020
3075 Clear -11 1020 61 14484 2.1 210 02:25 06.02.2020
3076 Clear -10 1020 57 14484 1.5 190 01:25 06.02.2020
3077 Clouds -10 1020 57 14484 3.6 220 00:53 06.02.2020
3078 Clouds -10 1020 57 14484 3.6 220 00:23 06.02.2020
3079 Clouds -9 1021 52 14484 5.1 220 23:43 05.02.2020
3080 Clouds -8 1021 52 14484 5.1 220 23:24 05.02.2020
3081 Clear -7 1021 48 14484 2.6 240 22:57 05.02.2020
3082 Clear -7 1021 48 14484 2.6 240 22:39 05.02.2020
3083 Clear -7 1021 48 14484 2.6 240 22:20 05.02.2020
3084 Clear -6 1021 48 14484 3.6 220 21:41 05.02.2020
3085 Clear -6 1021 48 14484 3.6 220 21:23 05.02.2020
3086 Clouds -6 1021 53 14484 5.7 210 20:57 05.02.2020
3087 Clouds -6 1021 53 14484 5.7 210 20:38 05.02.2020
3088 Clouds -6 1021 53 14484 5.7 210 20:38 05.02.2020
3089 Clouds -6 1021 53 14484 5.7 210 20:19 05.02.2020
3090 Clouds -6 1021 57 14484 2.1 70 19:55 05.02.2020
3091 Clouds -6 1021 57 14484 2.1 70 19:37 05.02.2020
3092 Clouds -6 1021 57 14484 2.1 70 19:18 05.02.2020
3093 Clouds -6 1022 48 32767 3.1 260 18:44 05.02.2020
3094 Clouds -6 1022 48 32767 3.1 260 18:21 05.02.2020
3095 Clouds -7 1022 61 14484 4.6 30 17:58 05.02.2020
3096 Clouds -7 1022 61 14484 4.6 30 17:37 05.02.2020
3097 Clouds -7 1022 61 14484 4.6 30 17:18 05.02.2020
3098 Clouds -7 1021 61 14484 2.6 360 16:44 05.02.2020
3099 Clouds -7 1021 61 14484 2.6 360 16:25 05.02.2020
3100 Clouds -7 1021 57 14484 5.7 310 15:59 05.02.2020
3101 Clouds -7 1021 57 14484 5.7 310 15:41 05.02.2020
3102 Clouds -7 1021 57 14484 5.7 310 15:19 05.02.2020
3103 Clouds -8 1020 67 14484 3.1 10 14:55 05.02.2020
3104 Clouds -8 1020 67 14484 3.1 10 14:37 05.02.2020
3105 Clouds -8 1020 67 14484 3.1 10 14:19 05.02.2020
3106 Snow -7 1019 62 14484 5.1 10 13:40 05.02.2020
3107 Snow -7 1018 62 14484 7.2 20 13:22 05.02.2020
3108 Snow -7 1017 73 24140 5.7 300 12:44 05.02.2020
3109 Snow -7 1017 73 24140 5.7 300 12:25 05.02.2020
3110 Snow -5 1016 67 14484 3.1 360 11:57 05.02.2020
3111 Snow -6 1016 67 14484 3.1 360 11:39 05.02.2020
3112 Snow -5 1016 79 14484 1.5 50 11:20 05.02.2020
3113 Snow -4 1015 85 9656 3.1 30 10:43 05.02.2020
3114 Snow -4 1014 73 6437 5.1 30 10:25 05.02.2020
3115 Snow -4 1014 73 6437 5.1 30 10:25 05.02.2020
3116 Snow -4 1014 68 11265 3.6 30 09:59 05.02.2020
3117 Snow -3 1014 68 11265 3.6 30 09:38 05.02.2020
3118 Clouds -3 1014 68 14484 3.1 350 09:20 05.02.2020
3119 Clouds -3 1013 73 14484 2.1 360 08:45 05.02.2020
3120 Clouds -3 1013 73 14484 2.1 360 08:24 05.02.2020
3121 Clouds -3 1012 73 14484 3.6 360 07:55 05.02.2020
3122 Clouds -2 1012 73 14484 3.6 360 07:36 05.02.2020
3123 Clouds -2 1011 63 14484 3.6 320 06:54 05.02.2020
3124 Clouds -2 1011 63 14484 3.6 320 06:36 05.02.2020
3125 Clouds -2 1011 63 14484 3.6 320 06:18 05.02.2020
3126 Clouds -2 1011 68 14484 2.6 280 05:19 05.02.2020
3127 Clouds -1 1010 74 14484 3.6 290 04:54 05.02.2020
3128 Clouds -1 1009 88 14484 4.6 290 03:57 05.02.2020
3129 Clouds -1 1010 88 24140 4.6 260 02:31 05.02.2020
3130 Clouds 0 1009 93 14484 4.6 250 01:55 05.02.2020
3131 Clouds 0 1009 93 14484 4.6 240 00:53 05.02.2020
3132 Clouds 0 1008 69 14484 3.6 220 23:59 04.02.2020
3133 Clouds 0 1008 69 14484 3.6 220 23:39 04.02.2020
3134 Clouds 0 1008 69 14484 3.6 220 23:19 04.02.2020
3135 Clear 1 1007 69 14484 3.1 250 22:56 04.02.2020
3136 Clear 1 1007 69 14484 3.1 250 22:38 04.02.2020
3137 Clear 2 1007 69 14484 3.1 250 22:20 04.02.2020
3138 Clouds 2 1007 69 14484 1 0 21:54 04.02.2020
3139 Clouds 2 1007 69 14484 1 0 21:36 04.02.2020
3140 Clouds 2 1007 69 14484 1 0 21:18 04.02.2020
3141 Clouds 2 1007 74 14484 3.61 256 20:42 04.02.2020
3142 Clouds 2 1007 74 14484 1.18 334 20:21 04.02.2020
3143 Clouds 2 1008 69 14484 2.6 340 19:59 04.02.2020
3144 Clouds 2 1008 69 14484 2.6 340 19:40 04.02.2020
3145 Clouds 2 1008 69 14484 2.6 340 19:22 04.02.2020
3146 Clouds 1 1008 69 14484 2.6 360 18:56 04.02.2020
3147 Clouds 1 1008 69 14484 2.6 360 18:38 04.02.2020
3148 Clouds 1 1008 69 14484 2.6 360 18:19 04.02.2020
3149 Clouds 1 1009 99 14484 2.1 30 17:43 04.02.2020
3150 Clouds 0 1009 92 14484 2.1 30 17:22 04.02.2020
3151 Clouds 0 1009 80 14484 2.6 20 16:59 04.02.2020
3152 Clouds 0 1009 80 14484 2.6 20 16:38 04.02.2020
3153 Clouds -1 1009 80 14484 2.6 20 16:20 04.02.2020
3154 Clouds -1 1010 86 14484 1.5 10 15:56 04.02.2020
3155 Clouds -1 1010 86 14484 1.5 10 15:38 04.02.2020
3156 Clouds -1 1010 86 14484 1.5 10 15:19 04.02.2020
3157 Clouds -2 1010 86 14484 1.5 50 14:44 04.02.2020
3158 Clouds -3 1010 86 14484 1.5 50 14:23 04.02.2020
3159 Clouds -3 1010 86 14484 1 50 13:59 04.02.2020
3160 Clouds -3 1010 86 14484 1 50 13:40 04.02.2020
3161 Clouds -4 1010 86 14484 1 50 13:21 04.02.2020
3162 Clouds -4 1010 85 14484 1 90 12:54 04.02.2020
3163 Clouds -4 1010 85 14484 1 90 12:36 04.02.2020
3164 Clouds -4 1010 85 14484 1 90 12:18 04.02.2020
3165 Clouds -3 1010 79 14484 2.6 90 11:54 04.02.2020
3166 Clouds -3 1010 79 14484 2.6 90 11:54 04.02.2020
3167 Clouds -3 1010 79 14484 2.6 90 11:36 04.02.2020
3168 Clouds -3 1010 79 14484 2.6 90 11:18 04.02.2020
3169 Clouds -3 1011 80 14484 2.6 120 10:41 04.02.2020
3170 Clouds -2 1011 80 14484 2.6 120 10:22 04.02.2020
3171 Clouds -2 1011 86 14484 1.5 100 09:42 04.02.2020
3172 Clouds -2 1011 86 14484 1.5 100 09:23 04.02.2020
3173 Clouds -2 1011 80 14484 0.94 94 08:58 04.02.2020
3174 Clouds -2 1011 80 14484 0.94 94 08:39 04.02.2020
3175 Clouds -1 1011 80 14484 1.39 252 08:21 04.02.2020
3176 Clouds -2 1011 86 14484 1.5 210 07:46 04.02.2020
3177 Clouds -1 1011 86 14484 1.5 210 07:22 04.02.2020
3178 Clouds -2 1012 90 14484 2.1 210 06:43 04.02.2020
3179 Clouds -1 1012 90 14484 2.1 210 06:18 04.02.2020
3180 Clouds -1 1012 86 14484 1.5 210 05:29 04.02.2020
3181 Clouds 0 1012 64 14484 2.6 280 03:53 04.02.2020
3182 Clouds 0 1012 64 14484 2.6 280 03:34 04.02.2020
3183 Clouds 0 1011 64 14484 3.1 310 02:56 04.02.2020
3184 Clouds 0 1011 64 14484 3.1 310 02:32 04.02.2020
3185 Clouds 1 1011 69 14484 4.6 290 01:54 04.02.2020
3186 Clouds 1 1011 69 14484 4.6 290 01:35 04.02.2020
3187 Clouds 1 1009 74 14484 5.1 280 00:45 04.02.2020
3188 Clouds 2 1009 74 14484 5.1 280 00:21 04.02.2020
3189 Rain 2 1008 69 14484 9.8 280 23:40 03.02.2020
3190 Rain 2 1008 69 14484 9.8 280 23:22 03.02.2020
3191 Clouds 3 1007 80 32186 2.1 260 22:40 03.02.2020
3192 Clouds 3 1007 80 14484 5.7 240 22:21 03.02.2020
3193 Snow 3 1006 69 24140 5.1 260 21:56 03.02.2020
3194 Snow 3 1006 69 24140 5.1 260 21:37 03.02.2020
3195 Clouds 3 1006 80 14484 7.2 240 21:19 03.02.2020
3196 Clouds 3 1005 80 24140 6.7 250 20:42 03.02.2020
3197 Clouds 3 1004 80 14484 7.2 240 20:19 03.02.2020
3198 Clouds 3 1004 80 14484 5.7 240 19:58 03.02.2020
3199 Clouds 3 1004 80 14484 5.7 240 19:40 03.02.2020
3200 Clouds 2 1004 80 14484 5.7 240 19:20 03.02.2020
3201 Rain 2 1004 80 14484 7.2 240 18:56 03.02.2020
3202 Rain 2 1004 80 14484 7.2 240 18:37 03.02.2020
3203 Rain 2 1004 80 14484 7.2 240 18:18 03.02.2020
3204 Clouds 1 1005 86 11265 7.2 240 17:40 03.02.2020
3205 Clouds 1 1005 86 11265 7.2 240 17:20 03.02.2020
3206 Mist 1 1005 86 9656 8.2 250 16:59 03.02.2020
3207 Mist 1 1005 86 9656 8.2 250 16:39 03.02.2020
3208 Mist 0 1004 94 8047 6.2 250 16:20 03.02.2020
3209 Mist 0 1004 92 4828 4.6 230 15:56 03.02.2020
3210 Mist -1 1004 100 1609 5.7 250 15:37 03.02.2020
3211 Mist -1 1004 92 4828 4.6 230 15:19 03.02.2020
3212 Mist -2 1004 86 4023 3.6 220 14:42 03.02.2020
3213 Mist -2 1004 92 3219 2.6 180 14:24 03.02.2020
3214 Mist -2 1004 92 3219 2.6 180 14:24 03.02.2020
3215 Mist -2 1004 92 4023 4.1 240 13:58 03.02.2020
3216 Snow -2 1004 86 3219 3.1 190 13:39 03.02.2020
3217 Mist -3 1003 92 4023 3.1 180 13:19 03.02.2020
3218 Mist -3 1003 86 8047 3.6 240 12:56 03.02.2020
3219 Mist -3 1003 86 8047 3.6 240 12:36 03.02.2020
3220 Mist -3 1003 92 4023 2.6 200 12:18 03.02.2020
3221 Mist -3 1002 92 4828 2.6 210 11:39 03.02.2020
3222 Snow -3 1002 86 6437 2.6 210 11:19 03.02.2020
3223 Snow -3 1002 86 6437 2.6 210 11:19 03.02.2020
3224 Snow -3 1002 86 8047 2.6 200 10:58 03.02.2020
3225 Snow -3 1002 86 8047 2.6 200 10:38 03.02.2020
3226 Snow -3 1001 86 6437 2.6 220 10:20 03.02.2020
3227 Snow -3 1001 86 6437 1.5 250 09:39 03.02.2020
3228 Snow -3 1001 86 6437 2.6 240 09:20 03.02.2020
3229 Mist -4 1001 92 4828 3.1 230 08:41 03.02.2020
3230 Mist -4 1001 92 4828 3.1 230 08:41 03.02.2020
3231 Mist -4 1000 100 2012 1.5 220 08:23 03.02.2020
3232 Mist -4 1000 92 1609 1.29 198 07:58 03.02.2020
3233 Mist -4 1000 92 1609 1.29 198 07:39 03.02.2020
3234 Mist -4 1000 92 1609 1.29 198 07:20 03.02.2020
3235 Mist -4 999 92 6437 1.5 340 06:43 03.02.2020
3236 Mist -4 999 92 2816 2.6 300 06:24 03.02.2020
3237 Mist -4 999 85 3621 3.1 330 05:36 03.02.2020
3238 Mist -3 999 92 6437 1 220 04:50 03.02.2020
3239 Snow -2 999 86 24140 1.5 350 02:58 03.02.2020
3240 Snow -3 999 86 6437 1 60 02:33 03.02.2020
3241 Mist -2 999 86 6437 1 110 01:25 03.02.2020
3242 Snow -3 998 92 4023 1.5 360 00:45 03.02.2020
3243 Snow -2 998 86 4828 1.5 140 00:21 03.02.2020
3244 Snow -2 998 74 8047 2.1 140 23:38 02.02.2020
3245 Snow -2 998 86 3621 2.1 110 23:20 02.02.2020
3246 Snow -2 998 74 11265 1.5 150 22:57 02.02.2020
3247 Snow -2 998 74 11265 1.5 150 22:37 02.02.2020
3248 Snow -2 998 74 11265 1.5 150 22:19 02.02.2020
3249 Snow -2 997 74 9656 2.6 160 21:42 02.02.2020
3250 Snow -1 997 74 9656 2.6 160 21:24 02.02.2020
3251 Haze -1 998 74 8047 3.1 80 20:58 02.02.2020
3252 Haze -1 998 74 8047 3.1 80 20:39 02.02.2020
3253 Haze -2 998 74 9656 1.5 160 20:21 02.02.2020
3254 Clouds -2 998 79 16093 2.6 90 19:59 02.02.2020
3255 Mist -2 998 92 6437 2.6 90 19:41 02.02.2020
3256 Mist -2 998 92 6437 2.6 90 19:23 02.02.2020
3257 Snow -2 999 92 4828 2.6 100 18:58 02.02.2020
3258 Snow -2 999 92 4828 2.6 100 18:38 02.02.2020
3259 Snow -3 999 92 3621 1.5 40 18:20 02.02.2020
3260 Snow -3 1001 92 2012 1 60 17:58 02.02.2020
3261 Snow -4 1001 92 2012 1 60 17:38 02.02.2020
3262 Snow -4 1001 92 2012 1 60 17:38 02.02.2020
3263 Snow -4 1001 92 2012 1 60 17:19 02.02.2020
3264 Snow -4 1001 92 2816 1 0 16:58 02.02.2020
3265 Snow -5 1001 92 2816 1 0 16:39 02.02.2020
3266 Snow -5 1001 92 2816 1 0 16:39 02.02.2020
3267 Snow -5 1001 92 3219 1 10 16:19 02.02.2020
3268 Snow -5 1001 92 3219 1 0 15:57 02.02.2020
3269 Snow -6 1001 92 3219 1 0 15:39 02.02.2020
3270 Snow -6 1001 92 4023 1.5 60 15:19 02.02.2020
3271 Snow -7 1001 92 4023 1.5 40 14:54 02.02.2020
3272 Snow -8 1001 92 4023 1.5 40 14:36 02.02.2020
3273 Mist -8 1002 85 4023 1.09 121 14:18 02.02.2020
3274 Snow -8 1002 92 4023 2.1 360 13:54 02.02.2020
3275 Snow -9 1002 92 4023 2.1 360 13:36 02.02.2020
3276 Mist -9 1002 92 3621 1 30 13:18 02.02.2020
3277 Snow -9 1002 92 16093 2.1 340 12:40 02.02.2020
3278 Clouds -9 1002 85 24140 1 20 12:22 02.02.2020
3279 Snow -9 1002 85 12874 0.9 114 11:56 02.02.2020
3280 Snow -9 1002 85 12874 0.9 114 11:37 02.02.2020
3281 Fog -10 1003 84 201 0.62 160 11:18 02.02.2020
3282 Fog -10 1003 92 201 0.9 141 10:55 02.02.2020
3283 Fog -10 1003 92 201 0.9 141 10:36 02.02.2020
3284 Fog -10 1003 92 201 0.62 160 10:18 02.02.2020
3285 Mist -10 1004 92 2414 0.9 141 09:40 02.02.2020
3286 Mist -10 1004 92 2414 0.62 160 09:21 02.02.2020
3287 Mist -9 1004 85 2414 1 140 08:56 02.02.2020
3288 Mist -9 1004 85 2414 1 140 08:38 02.02.2020
3289 Mist -9 1004 85 2414 1 140 08:19 02.02.2020
3290 Mist -9 1005 92 2012 0.4 208 07:44 02.02.2020
3291 Mist -9 1005 92 2012 0.4 208 07:25 02.02.2020
3292 Mist -9 1005 92 1006 0.4 208 06:38 02.02.2020
3293 Snow -9 1006 92 1006 1.5 80 06:19 02.02.2020
3294 Mist -8 1007 85 4828 0.4 208 05:23 02.02.2020
3295 Haze -7 1008 79 8047 0.5 291 04:30 02.02.2020
3296 Haze -6 1008 79 8047 1 160 03:24 02.02.2020
3297 Haze -6 1009 79 8047 1.5 190 02:22 02.02.2020
3298 Clouds -5 1009 79 11265 2.1 140 01:52 02.02.2020
3299 Clouds -5 1009 79 11265 2.1 140 01:19 02.02.2020
3300 Clouds -4 1010 79 14484 2.1 180 00:39 02.02.2020
3301 Clouds -4 1010 79 14484 2.1 180 00:18 02.02.2020
3302 Clouds -4 1011 73 14484 2.6 190 23:43 01.02.2020
3303 Clouds -3 1011 73 14484 2.6 190 23:21 01.02.2020
3304 Clouds -3 1011 73 14484 3.1 180 22:45 01.02.2020
3305 Clouds -3 1011 73 14484 3.1 180 22:19 01.02.2020
3306 Clouds -2 1012 68 14484 2.6 180 21:44 01.02.2020
3307 Clouds -2 1012 68 14484 2.6 180 21:20 01.02.2020
3308 Clouds -2 1012 68 14484 2.6 180 21:20 01.02.2020
3309 Clouds -2 1012 68 14484 1.5 230 20:57 01.02.2020
3310 Clouds -2 1012 68 14484 1.5 230 20:39 01.02.2020
3311 Clouds -2 1012 68 14484 1.5 230 20:20 01.02.2020
3312 Clouds -3 1014 73 14484 1 0 19:56 01.02.2020
3313 Clouds -2 1014 73 14484 1 0 19:38 01.02.2020
3314 Clouds -3 1014 73 14484 1 0 19:19 01.02.2020
3315 Clouds -3 1015 68 12874 1.17 266 18:57 01.02.2020
3316 Clouds -3 1015 68 12874 1.17 266 18:38 01.02.2020
3317 Clouds -3 1015 68 12874 1.17 266 18:19 01.02.2020
3318 Haze -3 1016 73 9656 1.17 266 17:55 01.02.2020
3319 Haze -4 1016 73 9656 1.17 266 17:37 01.02.2020
3320 Haze -5 1016 73 9656 1.29 254 17:19 01.02.2020
3321 Mist -5 1017 85 4828 1 130 16:42 01.02.2020
3322 Mist -5 1017 85 4023 1 60 16:23 01.02.2020
3323 Mist -5 1018 85 6437 2.1 260 15:56 01.02.2020
3324 Mist -6 1018 85 6437 2.1 260 15:38 01.02.2020
3325 Mist -6 1018 85 6437 2.1 260 15:18 01.02.2020
3326 Mist -6 1018 85 6437 2.1 260 15:18 01.02.2020
3327 Clouds -7 1018 85 12874 2.1 260 14:40 01.02.2020
3328 Mist -8 1017 92 4828 1.32 238 14:21 01.02.2020
3329 Clouds -8 1018 85 16093 2.1 280 13:45 01.02.2020
3330 Mist -8 1018 92 8047 1.16 245 13:24 01.02.2020
3331 Clouds -8 1018 85 16093 1.5 270 12:57 01.02.2020
3332 Clouds -8 1018 85 16093 1.5 270 12:39 01.02.2020
3333 Mist -7 1018 92 8047 1 0 12:21 01.02.2020
3334 Snow -7 1018 92 8047 1 70 11:44 01.02.2020
3335 Mist -7 1018 92 8047 1.16 245 11:23 01.02.2020
3336 Mist -6 1019 85 8047 1 360 10:59 01.02.2020
3337 Mist -6 1019 85 8047 1 360 10:40 01.02.2020
3338 Mist -7 1019 85 8047 1 360 10:22 01.02.2020
3339 Mist -6 1019 85 8047 2.1 340 09:59 01.02.2020
3340 Mist -6 1019 85 8047 2.1 340 09:40 01.02.2020
3341 Mist -7 1019 85 8047 2.1 340 09:21 01.02.2020
3342 Snow -7 1019 85 8047 1.5 350 08:52 01.02.2020
3343 Snow -6 1019 85 4828 1.5 360 07:56 01.02.2020
3344 Snow -6 1019 85 4828 1.5 360 07:38 01.02.2020
3345 Snow -6 1020 85 6437 1.5 50 07:19 01.02.2020
3346 Snow -6 1020 85 2816 2.1 10 06:42 01.02.2020
3347 Snow -6 1021 85 6437 1.5 340 05:53 01.02.2020
3348 Clouds -5 1022 73 14484 1.5 20 04:22 01.02.2020
3349 Clouds -5 1022 73 14484 1.5 20 03:25 01.02.2020
3350 Clouds -5 1023 67 14484 1 30 02:50 01.02.2020
3351 Clouds -5 1023 67 14484 1 30 02:30 01.02.2020
3352 Clouds -5 1023 67 14484 1.5 340 01:59 01.02.2020
3353 Clouds -5 1023 67 14484 1.5 340 01:38 01.02.2020
3354 Clouds -5 1023 73 14484 2.6 20 00:46 01.02.2020
3355 Clouds -5 1023 73 14484 2.6 20 00:23 01.02.2020
3356 Clouds -5 1024 67 14484 2.1 70 23:39 31.01.2020
3357 Clouds -5 1024 67 14484 2.1 70 23:18 31.01.2020
3358 Clouds -4 1024 62 14484 1.5 50 22:55 31.01.2020
3359 Clouds -4 1024 62 14484 1.5 50 22:37 31.01.2020
3360 Clouds -4 1024 62 14484 1.5 50 22:19 31.01.2020
3361 Clouds -4 1024 62 14484 1.5 50 21:39 31.01.2020
3362 Clouds -4 1024 62 14484 1.5 50 21:21 31.01.2020
3363 Clouds -4 1024 62 14484 1.5 50 21:21 31.01.2020
3364 Clear -4 1024 67 14484 1.5 50 20:57 31.01.2020
3365 Clear -4 1024 67 14484 1.5 50 20:39 31.01.2020
3366 Clear -4 1024 67 14484 1.5 50 20:21 31.01.2020
3367 Clear -5 1025 67 14484 1.5 40 19:57 31.01.2020
3368 Clear -5 1025 67 14484 1.5 40 19:38 31.01.2020
3369 Clear -5 1025 67 14484 1.5 40 19:19 31.01.2020
3370 Clear -6 1026 72 14484 1.5 50 18:54 31.01.2020
3371 Clear -5 1026 72 14484 1.5 50 18:36 31.01.2020
3372 Clear -6 1026 72 14484 1.5 50 18:18 31.01.2020
3373 Clouds -7 1027 66 14484 1 50 17:40 31.01.2020
3374 Clouds -7 1027 66 14484 1 50 17:40 31.01.2020
3375 Clouds -8 1027 66 14484 1 50 17:21 31.01.2020
3376 Clear -9 1027 78 14484 1.5 20 16:56 31.01.2020
3377 Clear -9 1027 78 14484 1.5 20 16:56 31.01.2020
3378 Clear -10 1027 78 14484 1.5 20 16:38 31.01.2020
3379 Clear -10 1027 78 14484 1.5 20 16:19 31.01.2020
3380 Clear -11 1027 78 14484 2.1 20 15:57 31.01.2020
3381 Clear -11 1027 78 14484 2.1 20 15:38 31.01.2020
3382 Clear -11 1027 78 14484 2.1 20 15:19 31.01.2020
3383 Clear -13 1027 84 14484 2.1 10 14:42 31.01.2020
3384 Clear -14 1027 84 14484 2.1 10 14:23 31.01.2020
3385 Clear -14 1026 84 14484 1.5 10 13:53 31.01.2020
3386 Clear -15 1026 84 14484 1.5 10 13:33 31.01.2020
3387 Clear -15 1026 84 14484 0.5 40 12:58 31.01.2020
3388 Clear -15 1026 84 14484 0.5 40 12:39 31.01.2020
3389 Clear -15 1026 84 14484 0.4 110 12:21 31.01.2020
3390 Snow -15 1026 84 14484 2.1 10 11:44 31.01.2020
3391 Clear -15 1026 77 14484 1 30 11:26 31.01.2020
3392 Clear -15 1026 84 14484 0.21 117 10:59 31.01.2020
3393 Clear -14 1026 84 14484 0.21 117 10:41 31.01.2020
3394 Clear -14 1026 84 14484 0.21 117 10:21 31.01.2020
3395 Clear -14 1026 77 14484 0.21 117 09:56 31.01.2020
3396 Clear -14 1026 77 14484 0.22 246 09:38 31.01.2020
3397 Clear -14 1026 77 14484 0.21 117 09:19 31.01.2020
3398 Clear -13 1026 77 14484 1 0 08:50 31.01.2020
3399 Clear -13 1026 77 14484 1 0 08:50 31.01.2020
3400 Clear -13 1026 77 14484 1 0 08:50 31.01.2020
3401 Clear -13 1026 77 14484 1 0 08:25 31.01.2020
3402 Clouds -13 1027 78 14484 0.59 174 07:53 31.01.2020
3403 Clouds -13 1027 78 14484 0.59 174 07:25 31.01.2020
3404 Clouds -12 1027 78 14484 0.59 174 06:48 31.01.2020
3405 Clouds -12 1027 78 14484 0.59 174 06:18 31.01.2020
3406 Clouds -11 1027 78 14484 2.1 10 05:46 31.01.2020
3407 Clouds -11 1027 71 14484 1.5 60 04:55 31.01.2020
3408 Clouds -11 1027 66 14484 0.62 118 02:58 31.01.2020
3409 Clear -10 1027 61 14484 1.5 100 01:38 31.01.2020
3410 Clouds -9 1027 61 14484 2.1 140 00:46 31.01.2020
3411 Clouds -9 1027 61 14484 2.1 140 00:26 31.01.2020
3412 Clouds -9 1027 57 14484 2.6 110 23:57 30.01.2020
3413 Clouds -8 1027 57 14484 2.6 110 23:25 30.01.2020
3414 Clear -8 1028 52 14484 2.6 90 22:57 30.01.2020
3415 Clear -8 1028 52 14484 2.6 90 22:57 30.01.2020
3416 Clear -7 1028 52 14484 2.6 90 22:37 30.01.2020
3417 Clear -7 1028 52 14484 2.6 90 22:37 30.01.2020
3418 Clear -7 1028 52 14484 2.6 90 22:18 30.01.2020
3419 Clear -7 1028 52 14484 1.5 50 21:55 30.01.2020
3420 Clear -7 1028 52 14484 1.5 50 21:37 30.01.2020
3421 Clear -7 1028 52 14484 1.5 50 21:18 30.01.2020
3422 Clouds -7 1027 52 14484 1 0 20:41 30.01.2020
3423 Clouds -7 1027 52 14484 1 0 20:22 30.01.2020
3424 Clear -7 1028 52 14484 1 0 19:57 30.01.2020
3425 Clear -8 1028 52 14484 1 0 19:39 30.01.2020
3426 Clear -8 1028 52 14484 1 0 19:19 30.01.2020
3427 Clear -8 1028 56 14484 1.5 20 18:42 30.01.2020
3428 Clear -8 1028 56 14484 1.5 20 18:23 30.01.2020
3429 Clear -8 1029 61 14484 1 50 17:58 30.01.2020
3430 Clear -9 1029 61 14484 1 50 17:39 30.01.2020
3431 Clear -9 1029 61 14484 1 50 17:19 30.01.2020
3432 Clear -10 1029 72 14484 1 0 16:58 30.01.2020
3433 Clear -10 1029 72 14484 1 0 16:39 30.01.2020
3434 Clear -11 1029 72 14484 1 0 16:20 30.01.2020
3435 Clear -11 1029 77 14484 1.01 116 15:44 30.01.2020
3436 Clear -13 1029 77 14484 1.01 116 15:21 30.01.2020
3437 Clear -14 1029 84 14484 1.01 116 14:54 30.01.2020
3438 Clear -15 1029 84 14484 1.01 116 14:36 30.01.2020
3439 Clear -16 1029 84 14484 0.8 90 14:18 30.01.2020
3440 Clear -16 1029 77 14484 0.8 90 13:40 30.01.2020
3441 Clear -16 1029 77 14484 0.8 90 13:22 30.01.2020
3442 Clear -16 1028 77 14484 1.5 40 12:54 30.01.2020
3443 Clear -16 1028 77 14484 1.5 40 12:36 30.01.2020
3444 Clear -16 1028 77 14484 1.5 40 12:18 30.01.2020
3445 Clear -16 1028 84 14484 2.6 40 11:40 30.01.2020
3446 Clear -16 1028 84 14484 2.6 40 11:22 30.01.2020
3447 Clear -16 1028 84 14484 1 0 10:58 30.01.2020
3448 Clear -16 1028 84 14484 1 0 10:38 30.01.2020
3449 Clear -15 1028 84 14484 1 0 10:19 30.01.2020
3450 Clear -15 1028 77 14484 0.82 55 09:44 30.01.2020
3451 Clear -15 1028 77 14484 0.82 55 09:24 30.01.2020
3452 Clear -15 1027 84 14484 0.82 55 08:42 30.01.2020
3453 Clear -15 1027 84 14484 0.82 55 08:22 30.01.2020
3454 Clear -15 1027 77 14484 1 30 07:57 30.01.2020
3455 Clear -15 1027 77 14484 1 30 07:39 30.01.2020
3456 Clear -15 1027 77 14484 1 30 07:39 30.01.2020
3457 Clear -14 1027 77 14484 1.34 15 06:57 30.01.2020
3458 Clear -15 1027 77 14484 1.34 15 06:36 30.01.2020
3459 Clear -14 1026 78 14484 1.34 15 05:59 30.01.2020
3460 Clear -14 1026 78 14484 1.34 15 05:28 30.01.2020
3461 Clear -13 1026 72 14484 1.5 100 04:50 30.01.2020
3462 Clear -13 1026 66 14484 1.5 110 03:47 30.01.2020
3463 Clear -12 1025 66 14484 1.5 130 02:56 30.01.2020
3464 Clear -11 1025 61 14484 1.5 120 01:30 30.01.2020
3465 Clear -10 1025 56 14484 2.1 170 00:30 30.01.2020
3466 Clear -10 1024 52 14484 2.1 140 23:58 29.01.2020
3467 Clear -9 1024 52 14484 2.1 140 23:39 29.01.2020
3468 Clear -8 1024 52 14484 2.1 140 23:20 29.01.2020
3469 Clear -8 1024 52 14484 2.1 70 22:55 29.01.2020
3470 Clear -7 1024 52 14484 2.1 70 22:37 29.01.2020
3471 Clear -7 1024 52 14484 2.1 70 22:18 29.01.2020
3472 Clear -6 1024 52 14484 2.1 70 21:54 29.01.2020
3473 Clear -6 1024 52 14484 2.1 70 21:36 29.01.2020
3474 Clear -6 1024 52 14484 2.1 70 21:18 29.01.2020
3475 Clear -6 1023 56 14484 4.1 50 20:41 29.01.2020
3476 Clear -7 1023 56 14484 4.1 50 20:22 29.01.2020
3477 Clear -7 1023 56 14484 4.1 50 20:22 29.01.2020
3478 Clear -7 1023 56 14484 2.6 60 19:58 29.01.2020
3479 Clear -7 1023 56 14484 2.6 60 19:38 29.01.2020
3480 Clear -7 1023 56 14484 2.6 60 19:20 29.01.2020
3481 Clear -8 1024 61 14484 3.6 20 18:58 29.01.2020
3482 Clouds -8 1023 48 32767 2.1 30 18:38 29.01.2020
3483 Clear -8 1024 61 14484 3.6 20 18:19 29.01.2020
3484 Clouds -8 1024 56 32767 3.1 50 17:41 29.01.2020
3485 Clouds -9 1024 56 32767 3.1 50 17:23 29.01.2020
3486 Clear -9 1023 61 14484 6.2 20 16:55 29.01.2020
3487 Clear -9 1023 61 14484 6.2 20 16:37 29.01.2020
3488 Clear -9 1023 61 14484 6.2 20 16:19 29.01.2020
3489 Clear -9 1023 61 14484 6.2 20 16:19 29.01.2020
3490 Clear -9 1023 61 14484 4.6 10 15:39 29.01.2020
3491 Clear -10 1023 61 14484 4.6 10 15:21 29.01.2020
3492 Clear -10 1021 66 14484 2.6 10 14:55 29.01.2020
3493 Clear -10 1021 66 14484 2.6 10 14:37 29.01.2020
3494 Clear -11 1021 66 14484 2.6 10 14:18 29.01.2020
3495 Clear -12 1020 72 14484 1.5 340 13:40 29.01.2020
3496 Clear -12 1020 72 14484 1.5 340 13:22 29.01.2020
3497 Clear -12 1019 78 14484 1.3 357 12:56 29.01.2020
3498 Clear -12 1019 78 14484 1.3 357 12:38 29.01.2020
3499 Clear -11 1019 78 14484 1.3 357 12:20 29.01.2020
3500 Clear -12 1018 72 14484 1.5 320 11:47 29.01.2020
3501 Clear -11 1018 72 14484 1.5 320 11:24 29.01.2020
3502 Clear -10 1018 72 14484 1.5 20 10:58 29.01.2020
3503 Clear -10 1018 72 14484 1.5 20 10:40 29.01.2020
3504 Clear -10 1018 72 14484 1.5 20 10:20 29.01.2020
3505 Clear -10 1018 78 14484 2.6 10 09:40 29.01.2020
3506 Clear -9 1018 78 14484 2.6 10 09:22 29.01.2020
3507 Clear -9 1017 85 14484 1 0 08:58 29.01.2020
3508 Clear -9 1017 85 14484 1 0 08:39 29.01.2020
3509 Clear -8 1017 85 14484 1 0 08:20 29.01.2020
3510 Clear -8 1016 85 14484 1.5 340 07:45 29.01.2020
3511 Clear -8 1016 85 14484 1.5 340 07:25 29.01.2020
3512 Clear -7 1016 79 14484 1 340 06:55 29.01.2020
3513 Clear -7 1016 79 14484 1 340 06:37 29.01.2020
3514 Clear -7 1016 79 14484 1 340 06:18 29.01.2020
3515 Clear -7 1015 79 14484 2.1 340 05:45 29.01.2020
3516 Clear -6 1015 79 14484 2.1 340 05:26 29.01.2020
3517 Clear -5 1015 79 14484 3.1 330 04:38 29.01.2020
3518 Clouds -4 1014 68 14484 4.1 360 03:50 29.01.2020
3519 Clouds -3 1014 73 14484 2.1 350 02:33 29.01.2020
3520 Rain -2 1013 74 24140 4.6 280 00:44 29.01.2020
3521 Clouds -2 1013 80 0 1.78 240 00:25 29.01.2020
3522 Clouds -2 1013 80 0 1.34 285 23:58 28.01.2020
3523 Snow -2 1011 68 11265 4.1 300 23:37 28.01.2020
3524 Snow -1 1011 68 11265 4.1 300 23:19 28.01.2020
3525 Snow -1 1011 68 11265 4.1 300 22:43 28.01.2020
3526 Snow -1 1011 68 11265 4.1 300 22:21 28.01.2020
3527 Clouds -1 1011 68 14484 3.1 290 21:54 28.01.2020
3528 Clouds -1 1011 68 14484 3.1 290 21:36 28.01.2020
3529 Clouds -1 1011 68 14484 3.1 290 21:18 28.01.2020
3530 Clouds -1 1011 68 14484 3.1 290 21:18 28.01.2020
3531 Clouds -1 1011 68 14484 3.1 290 21:18 28.01.2020
3532 Clouds -1 1010 68 14484 2.6 320 20:45 28.01.2020
3533 Clouds -1 1010 68 14484 3.6 320 20:25 28.01.2020
3534 Clouds -1 1010 63 14484 3.1 330 19:55 28.01.2020
3535 Clouds -1 1010 63 14484 3.1 330 19:36 28.01.2020
3536 Clouds -1 1010 63 14484 3.1 330 19:18 28.01.2020
3537 Clouds -1 1010 63 14484 3.1 330 19:18 28.01.2020
3538 Clouds -1 1010 68 14484 4.1 330 18:41 28.01.2020
3539 Clouds -1 1010 68 14484 4.1 330 18:23 28.01.2020
3540 Clouds -1 1011 68 14484 5.1 330 17:59 28.01.2020
3541 Clouds -1 1011 68 14484 5.1 330 17:39 28.01.2020
3542 Clouds -1 1011 79 14484 4.1 320 17:21 28.01.2020
3543 Snow -1 1011 79 14484 6.2 330 16:58 28.01.2020
3544 Snow -1 1011 79 14484 6.2 330 16:40 28.01.2020
3545 Snow -1 1010 86 14484 5.1 310 16:21 28.01.2020
3546 Snow -1 1010 86 14484 3.1 320 15:47 28.01.2020
3547 Clouds -1 1010 79 14484 2.1 340 15:19 28.01.2020
3548 Clouds -1 1009 86 14484 2.1 340 14:58 28.01.2020
3549 Clouds -2 1009 86 14484 2.1 340 14:39 28.01.2020
3550 Clouds -2 1009 86 14484 2.1 340 14:18 28.01.2020
3551 Clouds -2 1009 86 14484 2.6 360 13:41 28.01.2020
3552 Snow -2 1008 86 12874 5.1 10 13:23 28.01.2020
3553 Clouds -1 1008 74 14484 3.6 320 12:43 28.01.2020
3554 Clouds -1 1008 74 14484 3.6 320 12:24 28.01.2020
3555 Clouds -1 1007 74 14484 4.6 340 11:58 28.01.2020
3556 Clouds -1 1007 74 14484 4.6 340 11:39 28.01.2020
3557 Clouds -1 1007 74 14484 4.6 340 11:20 28.01.2020
3558 Clouds -1 1007 90 14484 3.1 350 10:42 28.01.2020
3559 Clouds -1 1007 90 14484 3.1 350 10:24 28.01.2020
3560 Clouds -1 1006 90 14484 3.6 330 09:58 28.01.2020
3561 Clouds -1 1006 90 14484 3.6 330 09:38 28.01.2020
3562 Clouds 0 1006 90 14484 3.6 330 09:19 28.01.2020
3563 Clouds 0 1006 90 14484 4.6 310 08:44 28.01.2020
3564 Clouds 0 1006 93 14484 3.1 310 08:25 28.01.2020
3565 Clouds 0 1006 93 14484 4.6 310 07:44 28.01.2020
3566 Clouds 0 1006 93 14484 4.6 310 07:26 28.01.2020
3567 Clouds 0 1006 93 14484 3.1 300 06:47 28.01.2020
3568 Rain 0 1006 93 14484 2.6 300 06:24 28.01.2020
3569 Rain 0 1005 93 14484 3.1 310 05:37 28.01.2020
3570 Clouds 0 1005 94 32767 2.1 310 05:19 28.01.2020
3571 Clouds 0 1005 86 14484 3.1 310 03:46 28.01.2020
3572 Clouds 0 1004 94 14484 2.1 310 02:44 28.01.2020
3573 Clouds 0 1004 94 14484 2.1 310 02:44 28.01.2020
3574 Clouds 0 1004 95 14484 2.1 310 02:24 28.01.2020
3575 Rain 0 1004 95 14484 2.1 320 01:52 28.01.2020
3576 Clouds 1 1004 95 14484 3.1 340 01:20 28.01.2020
3577 Snow 1 1004 95 3219 4.1 340 00:41 28.01.2020
3578 Rain 1 1003 95 8047 4.1 290 00:19 28.01.2020
3579 Rain 1 1003 80 11265 3.1 290 23:42 27.01.2020
3580 Clouds 1 1003 80 14484 5.1 290 23:19 27.01.2020
3581 Clouds 2 1002 80 14484 4.1 260 22:44 27.01.2020
3582 Clouds 2 1002 80 14484 4.1 260 22:20 27.01.2020
3583 Clouds 2 1002 80 14484 4.1 260 22:20 27.01.2020
3584 Clouds 2 1002 80 14484 4.1 260 22:20 27.01.2020
3585 Rain 2 1001 90 14484 4.1 260 21:57 27.01.2020
3586 Rain 2 1001 90 14484 4.1 260 21:38 27.01.2020
3587 Rain 2 1001 90 14484 4.1 260 21:19 27.01.2020
3588 Rain 2 1001 90 14484 4.1 260 20:56 27.01.2020
3589 Rain 2 1001 90 14484 4.1 260 20:37 27.01.2020
3590 Clouds 2 1001 100 14484 3.6 250 20:19 27.01.2020
3591 Rain 2 1001 99 14484 3.6 250 19:55 27.01.2020
3592 Rain 2 1001 99 14484 3.6 250 19:37 27.01.2020
3593 Rain 2 1001 99 14484 3.6 250 19:19 27.01.2020
3594 Rain 2 1001 99 9656 3.1 240 18:39 27.01.2020
3595 Rain 2 1001 99 9656 3.1 240 18:21 27.01.2020
3596 Rain 2 1001 99 14484 3.6 270 17:57 27.01.2020
3597 Rain 2 1001 99 14484 3.6 270 17:57 27.01.2020
3598 Rain 2 1001 99 14484 3.6 270 17:37 27.01.2020
3599 Rain 2 1001 98 14484 3.6 270 17:18 27.01.2020
3600 Clouds 2 1001 98 14484 4.1 260 16:55 27.01.2020
3601 Clouds 2 1001 98 14484 4.1 260 16:36 27.01.2020
3602 Clouds 2 1001 98 14484 4.1 260 16:36 27.01.2020
3603 Rain 1 1001 98 14484 4.1 260 16:18 27.01.2020
3604 Clouds 1 1001 98 11265 3.6 250 15:41 27.01.2020
3605 Clouds 1 1001 98 11265 4.1 240 15:20 27.01.2020
3606 Mist 1 1000 98 9656 3.1 260 14:57 27.01.2020
3607 Mist 1 1000 98 9656 3.1 260 14:39 27.01.2020
3608 Rain 1 1000 98 9656 4.6 240 14:20 27.01.2020
3609 Mist 1 1000 98 9656 4.6 240 13:42 27.01.2020
3610 Mist 1 1000 98 9656 3.6 240 13:22 27.01.2020
3611 Mist 1 1000 98 9656 4.6 240 12:58 27.01.2020
3612 Mist 1 1000 98 9656 4.6 240 12:39 27.01.2020
3613 Mist 1 1000 98 9656 5.1 240 12:21 27.01.2020
3614 Clouds 1 1000 98 11265 3.6 240 11:43 27.01.2020
3615 Clouds 1 1000 98 11265 3.6 240 11:22 27.01.2020
3616 Mist 1 1000 98 9656 3.1 250 10:56 27.01.2020
3617 Mist 1 1000 98 9656 3.1 250 10:38 27.01.2020
3618 Mist 1 1000 98 9656 3.1 250 10:20 27.01.2020
3619 Mist 1 1000 98 9656 3.6 260 09:39 27.01.2020
3620 Mist 1 1000 98 9656 3.6 260 09:19 27.01.2020
3621 Mist 1 1000 98 9656 4.6 250 08:55 27.01.2020
3622 Mist 1 1000 98 9656 4.6 250 08:37 27.01.2020
3623 Rain 1 1000 99 8047 5.1 240 08:18 27.01.2020
3624 Rain 1 1000 99 4828 4.6 250 07:45 27.01.2020
3625 Rain 1 1000 99 4828 4.6 250 07:25 27.01.2020
3626 Snow 1 1000 99 16093 3.6 250 06:37 27.01.2020
3627 Snow 1 1000 99 16093 3.6 250 06:37 27.01.2020
3628 Rain 1 1000 99 6437 5.7 240 05:38 27.01.2020
3629 Rain 1 1000 98 4828 5.7 250 04:37 27.01.2020
3630 Snow 0 1000 98 4828 5.1 240 03:35 27.01.2020
3631 Snow 0 1001 98 4828 4.1 220 01:54 27.01.2020
3632 Snow 1 1001 98 6437 4.6 220 01:25 27.01.2020
3633 Snow 1 1001 98 6437 4.6 220 00:41 27.01.2020
3634 Rain 1 1001 98 14484 5.1 220 00:21 27.01.2020
3635 Clouds 1 1001 98 14484 4.6 220 23:43 26.01.2020
3636 Rain 1 1001 98 14484 3.1 220 23:22 26.01.2020
3637 Clouds 1 1001 98 14484 2.1 210 22:58 26.01.2020
3638 Clouds 1 1001 98 14484 2.1 210 22:38 26.01.2020
3639 Rain 1 1001 98 14484 5.1 230 22:20 26.01.2020
3640 Rain 1 1001 98 14484 4.6 230 21:58 26.01.2020
3641 Rain 2 1001 98 14484 4.6 230 21:39 26.01.2020
3642 Rain 1 1001 98 14484 4.6 230 21:20 26.01.2020
3643 Clouds 1 1001 98 24140 6.7 230 20:58 26.01.2020
3644 Clouds 2 1001 98 24140 6.7 230 20:38 26.01.2020
3645 Clouds 2 1001 98 24140 6.7 230 20:38 26.01.2020
3646 Rain 2 1001 100 14484 6.2 230 20:19 26.01.2020
3647 Rain 2 1002 100 14484 6.7 240 19:58 26.01.2020
3648 Rain 2 1002 100 14484 6.7 240 19:38 26.01.2020
3649 Rain 2 1002 100 14484 6.7 240 19:19 26.01.2020
3650 Rain 1 1002 100 9656 5.7 240 18:56 26.01.2020
3651 Rain 2 1002 100 9656 5.7 240 18:38 26.01.2020
3652 Rain 2 1002 100 6437 7.2 240 18:19 26.01.2020
3653 Snow 2 1003 100 4828 6.2 230 17:55 26.01.2020
3654 Snow 1 1003 100 4828 6.2 230 17:36 26.01.2020
3655 Rain 1 1003 100 14484 6.7 240 17:18 26.01.2020
3656 Rain 1 1003 93 14484 5.1 230 16:55 26.01.2020
3657 Rain 1 1003 93 14484 5.1 230 16:37 26.01.2020
3658 Rain 1 1003 93 14484 5.1 230 16:18 26.01.2020
3659 Drizzle 1 1004 100 19312 5.7 220 15:43 26.01.2020
3660 Mist 1 1003 100 8047 1.5 230 15:21 26.01.2020
3661 Clouds 1 1004 93 14484 4.6 220 14:56 26.01.2020
3662 Clouds 1 1004 93 14484 4.6 220 14:38 26.01.2020
3663 Clouds 1 1004 93 14484 4.6 220 14:19 26.01.2020
3664 Rain 1 1004 92 0 2.24 284 13:39 26.01.2020
3665 Rain 1 1004 92 0 2.68 269 13:19 26.01.2020
3666 Clouds 1 1004 100 0 4.33 234 12:56 26.01.2020
3667 Clouds 1 1000 87 0 4.33 234 12:36 26.01.2020
3668 Clouds 1 1004 96 0 1.79 180 12:18 26.01.2020
3669 Clouds 0 1004 100 0 4.33 234 11:56 26.01.2020
3670 Clouds 0 997 99 0 2.68 180 11:36 26.01.2020
3671 Clouds 0 1005 99 14484 3.1 150 11:18 26.01.2020
3672 Clouds 0 1005 99 14484 3.1 150 10:39 26.01.2020
3673 Clouds 0 1005 99 14484 3.1 150 10:21 26.01.2020
3674 Clouds 0 1005 99 14484 2.6 140 09:59 26.01.2020
3675 Clouds 1 1005 99 14484 2.6 140 09:41 26.01.2020
3676 Rain 0 1005 99 14484 1 110 09:23 26.01.2020
3677 Rain 0 1005 99 9656 3.6 70 08:57 26.01.2020
3678 Rain 0 1005 99 9656 3.6 70 08:57 26.01.2020
3679 Rain 0 1005 99 9656 3.6 70 08:39 26.01.2020
3680 Rain 0 1006 98 9656 3.1 70 08:20 26.01.2020
3681 Snow 0 1006 98 4828 2.6 60 07:47 26.01.2020
3682 Mist 0 1006 98 2816 3.6 30 07:25 26.01.2020
3683 Rain 0 1007 98 4828 3.6 30 06:38 26.01.2020
3684 Rain 0 1007 98 6437 3.1 50 06:18 26.01.2020
3685 Snow 0 1008 98 9656 6.2 80 05:26 26.01.2020
3686 Rain 1 1011 97 9656 6.7 60 03:23 26.01.2020
3687 Snow 0 1013 97 3219 4.6 60 02:24 26.01.2020
3688 Snow 1 1014 92 8047 4.6 60 01:40 26.01.2020
3689 Rain 1 1014 92 14484 5.7 50 01:21 26.01.2020
3690 Mist 1 1014 91 9656 5.7 40 00:41 26.01.2020
3691 Snow 0 1014 91 4828 5.1 40 00:20 26.01.2020
3692 Snow 0 1016 95 0 5.49 57 23:38 25.01.2020
3693 Clouds 0 1008 97 0 3.13 47 23:20 25.01.2020
3694 Clouds 1 1017 83 0 3.03 27 22:45 25.01.2020
3695 Clouds 1 1009 81 0 6.71 45 22:21 25.01.2020
3696 Clouds 1 1016 84 0 1.34 31 21:59 25.01.2020
3697 Clouds 1 1017 80 0 0.45 23 21:41 25.01.2020
3698 Clouds 0 1017 99 0 3.03 27 21:23 25.01.2020
3699 Clouds 1 1013 70 0 3.03 27 20:56 25.01.2020
3700 Clouds 1 1018 86 0 3.03 27 20:38 25.01.2020
3701 Clouds 1 1017 81 0 2.68 11 20:19 25.01.2020
3702 Clouds 1 1014 70 0 2.7 49 19:43 25.01.2020
3703 Clouds 1 1019 79 0 1.34 68 19:20 25.01.2020
3704 Clouds 1 1018 87 0 3.37 48 18:57 25.01.2020
3705 Clouds 1 1018 80 0 1.34 7 18:38 25.01.2020
3706 Clouds 0 1017 75 0 2.68 23 18:20 25.01.2020
3707 Clouds 0 1020 89 0 2.7 49 17:40 25.01.2020
3708 Clouds -1 1020 83 0 0.89 55 17:21 25.01.2020
3709 Clouds -2 1020 83 0 1.79 47 16:58 25.01.2020
3710 Clouds -2 1021 90 0 3.73 44 16:39 25.01.2020
3711 Clouds -2 1021 85 0 0.89 32 16:19 25.01.2020
3712 Clouds -2 1021 86 0 0.45 22 15:47 25.01.2020
3713 Clouds -3 1022 88 0 0.45 23 15:25 25.01.2020
3714 Clouds -3 1022 88 0 1.79 46 14:59 25.01.2020
3715 Clouds -4 1023 93 0 3.73 44 14:41 25.01.2020
3716 Clouds -4 1016 99 0 2.62 35 14:18 25.01.2020
3717 Clouds -5 1020 80 0 2.62 35 13:43 25.01.2020
3718 Clouds -5 1019 80 0 2.83 35 13:23 25.01.2020
3719 Clouds -5 1020 80 0 2.83 35 12:46 25.01.2020
3720 Clouds -5 1024 85 14484 4.1 20 12:26 25.01.2020
3721 Clouds -5 1024 85 14484 4.1 20 11:46 25.01.2020
3722 Clouds -5 1024 85 14484 4.1 20 11:22 25.01.2020
3723 Clouds -4 1025 85 14484 4.1 10 11:00 25.01.2020
3724 Clouds -4 1025 85 14484 4.1 10 10:40 25.01.2020
3725 Clouds -5 1025 85 14484 4.1 10 10:21 25.01.2020
3726 Clouds -5 1025 85 14484 4.1 20 09:57 25.01.2020
3727 Clouds -5 1025 85 14484 4.1 20 09:37 25.01.2020
3728 Clouds -4 1025 85 14484 4.1 20 09:18 25.01.2020
3729 Clouds -5 1025 85 14484 5.1 20 08:42 25.01.2020
3730 Clouds -5 1026 85 14484 4.1 20 07:51 25.01.2020
3731 Clear -5 1026 79 14484 5.1 20 06:57 25.01.2020
3732 Clear -4 1026 79 14484 5.1 20 06:31 25.01.2020
3733 Clouds -4 1026 85 14484 4.6 20 05:50 25.01.2020
3734 Clouds -4 1026 85 14484 4.6 20 05:28 25.01.2020
3735 Clear -3 1027 79 14484 4.1 20 03:55 25.01.2020
3736 Clear -3 1027 79 14484 4.1 20 03:34 25.01.2020
3737 Clear -2 1027 79 14484 4.1 20 02:24 25.01.2020
3738 Clear -2 1027 79 14484 4.1 10 01:54 25.01.2020
3739 Clear -2 1027 74 14484 4.1 20 00:59 25.01.2020
3740 Clear -1 1027 74 14484 4.1 20 00:37 25.01.2020
3741 Clear -1 1027 74 14484 4.1 20 00:18 25.01.2020
3742 Clear -1 1027 74 14484 4.1 20 00:18 25.01.2020
3743 Clear -1 1027 79 14484 4.6 30 23:41 24.01.2020
3744 Clear -1 1027 79 14484 4.6 30 23:41 24.01.2020
3745 Clear -1 1027 79 14484 4.6 30 23:41 24.01.2020
3746 Clear -1 1027 79 14484 4.6 30 23:23 24.01.2020
3747 Clouds 0 1028 97 14484 5.1 30 22:46 24.01.2020
3748 Clouds 0 1028 97 14484 5.1 30 22:27 24.01.2020
3749 Clouds 1 1028 69 24140 5.7 50 21:57 24.01.2020
3750 Clouds 1 1028 69 24140 5.7 50 21:39 24.01.2020
3751 Clear 0 1028 80 14484 5.1 30 21:18 24.01.2020
3752 Clouds 1 1029 97 14484 4.1 50 20:43 24.01.2020
3753 Clouds 1 1029 94 14484 4.1 50 20:22 24.01.2020
3754 Clouds 1 1029 96 14484 6.7 30 19:58 24.01.2020
3755 Clouds 1 1029 96 14484 6.7 30 19:40 24.01.2020
3756 Clouds 1 1029 96 14484 6.7 30 19:21 24.01.2020
3757 Clouds 1 1030 96 14484 5.7 30 18:54 24.01.2020
3758 Clouds 1 1030 96 14484 5.7 30 18:36 24.01.2020
3759 Clouds 1 1030 96 14484 5.7 30 18:18 24.01.2020
3760 Clouds 0 1030 74 14484 5.1 40 17:42 24.01.2020
3761 Clouds 0 1030 74 14484 5.1 40 17:21 24.01.2020
3762 Clouds 0 1031 68 14484 5.7 40 16:43 24.01.2020
3763 -273 0 0 0 0 0 16:22 24.01.2020
3764 Clouds -1 1030 68 14484 5.7 50 15:56 24.01.2020
3765 Clouds -1 1030 68 14484 5.7 50 15:38 24.01.2020
3766 Clouds -1 1030 68 14484 5.7 50 15:19 24.01.2020
3767 Clouds -2 1030 73 14484 3.6 10 14:41 24.01.2020
3768 Clouds -2 1030 73 14484 3.6 10 14:41 24.01.2020
3769 Clouds -2 1030 73 14484 3.6 10 14:23 24.01.2020
3770 Clouds -2 1030 73 14484 3.6 10 14:23 24.01.2020
3771 Clouds -2 1030 73 14484 3.1 20 13:57 24.01.2020
3772 Clouds -2 1030 73 14484 3.1 20 13:39 24.01.2020
3773 Clouds -3 1030 73 14484 3.1 20 13:19 24.01.2020
3774 Clouds -3 1030 73 14484 3.1 30 12:41 24.01.2020
3775 Clouds -3 1030 73 14484 3.1 30 12:18 24.01.2020
3776 Clouds -3 1029 73 14484 4.1 20 11:43 24.01.2020
3777 Clouds -4 1029 73 14484 4.1 20 11:19 24.01.2020
3778 Clouds -4 1029 79 14484 1 50 10:43 24.01.2020
3779 Clouds -4 1029 79 14484 1 50 10:22 24.01.2020
3780 Clouds -4 1029 85 11265 1.39 48 09:57 24.01.2020
3781 Clouds -4 1029 85 11265 1.39 48 09:39 24.01.2020
3782 Clouds -4 1029 85 11265 1.39 48 09:21 24.01.2020
3783 Clouds -4 1029 85 14484 2.1 40 08:40 24.01.2020
3784 Clouds -4 1029 85 14484 2.1 40 08:19 24.01.2020
3785 Clouds -3 1028 79 24140 2.6 40 07:50 24.01.2020
3786 Clouds -3 1028 79 24140 2.6 40 07:32 24.01.2020
3787 Clouds -4 1028 85 14484 1 50 06:48 24.01.2020
3788 Clouds -4 1028 85 14484 1 50 06:29 24.01.2020
3789 Clouds -3 1028 79 14484 1 120 05:58 24.01.2020
3790 Clouds -3 1028 73 14484 1.96 213 04:57 24.01.2020
3791 Clouds -2 1028 74 14484 1.96 213 02:53 24.01.2020
3792 Clouds -1 1028 74 14484 1.96 213 02:25 24.01.2020
3793 Clouds -1 1027 68 14484 1.5 200 01:45 24.01.2020
3794 Clouds -1 1027 68 14484 1.5 200 01:26 24.01.2020
3795 Clouds -1 1027 68 14484 3.6 180 00:23 24.01.2020
3796 Clouds -1 1026 92 14484 3.1 170 23:49 23.01.2020
3797 Clouds -1 1026 92 14484 3.1 170 23:31 23.01.2020
3798 Clouds 0 1026 59 14484 3.1 240 22:59 23.01.2020
3799 Clouds 0 1026 59 14484 3.1 240 22:38 23.01.2020
3800 Clouds 0 1026 59 14484 3.1 240 22:38 23.01.2020
3801 Clouds 1 1026 59 14484 3.1 240 22:19 23.01.2020
3802 Clear 1 1026 51 14484 4.6 240 21:57 23.01.2020
3803 Clear 1 1026 51 14484 4.6 240 21:39 23.01.2020
3804 Clear 1 1026 51 14484 4.6 240 21:20 23.01.2020
3805 Clouds 1 1026 50 14484 5.1 230 20:58 23.01.2020
3806 Clouds 1 1026 50 14484 5.1 230 20:38 23.01.2020
3807 Clouds 1 1026 50 14484 5.1 230 20:19 23.01.2020
3808 Clouds 1 1026 50 14484 5.1 230 20:19 23.01.2020
3809 Clouds 1 1026 88 14484 4.6 210 19:56 23.01.2020
3810 Clouds 1 1026 88 14484 4.6 210 19:38 23.01.2020
3811 Clouds 1 1026 88 14484 4.6 210 19:19 23.01.2020
3812 Clouds 1 1026 88 14484 4.1 220 18:42 23.01.2020
3813 Clouds 0 1026 88 14484 4.1 220 18:21 23.01.2020
3814 Clouds 0 1026 88 14484 4.1 220 18:21 23.01.2020
3815 Clouds 0 1026 63 14484 3.6 190 17:58 23.01.2020
3816 Clouds 0 1026 63 14484 3.6 190 17:40 23.01.2020
3817 Clouds -1 1026 63 14484 3.6 190 17:20 23.01.2020
3818 Clouds -1 1026 63 14484 3.1 180 16:56 23.01.2020
3819 Clouds -2 1026 63 14484 3.1 180 16:37 23.01.2020
3820 Clouds -1 1026 63 14484 3.1 180 16:18 23.01.2020
3821 Clouds -2 1026 68 14484 4.1 190 15:55 23.01.2020
3822 Clouds -2 1026 68 14484 4.1 190 15:37 23.01.2020
3823 Clouds -3 1026 68 14484 4.1 190 15:18 23.01.2020
3824 Clouds -3 1026 73 14484 4.6 180 14:55 23.01.2020
3825 Clouds -3 1026 73 14484 4.6 180 14:37 23.01.2020
3826 Clouds -4 1026 73 14484 4.6 180 14:18 23.01.2020
3827 Clouds -4 1026 73 14484 4.1 180 13:40 23.01.2020
3828 Clouds -4 1026 73 14484 4.1 180 13:20 23.01.2020
3829 Clouds -4 1025 73 14484 3.1 180 12:47 23.01.2020
3830 Clouds -4 1025 73 14484 3.1 180 12:26 23.01.2020
3831 Clouds -3 1025 73 14484 2.1 180 11:59 23.01.2020
3832 Clouds -3 1025 73 14484 2.1 180 11:59 23.01.2020
3833 Clouds -3 1025 73 14484 2.1 180 11:39 23.01.2020
3834 Clouds -3 1025 73 14484 2.1 180 11:20 23.01.2020
3835 Clouds -3 1025 73 14484 2.1 180 11:20 23.01.2020
3836 Clouds -3 1025 79 14484 2.6 180 10:55 23.01.2020
3837 Clouds -3 1025 79 14484 2.6 180 10:36 23.01.2020
3838 Clouds -3 1025 79 14484 2.6 180 10:18 23.01.2020
3839 Clouds -3 1025 79 14484 3.1 180 09:39 23.01.2020
3840 Clouds -3 1025 79 14484 3.1 180 09:20 23.01.2020
3841 Clouds -4 1025 79 14484 3.1 200 08:43 23.01.2020
3842 Clouds -4 1025 79 14484 3.1 200 08:25 23.01.2020
3843 Clouds -4 1025 79 14484 4.1 190 07:51 23.01.2020
3844 Clouds -4 1025 79 14484 4.1 190 07:27 23.01.2020
3845 Clouds -4 1024 85 14484 4.6 170 06:55 23.01.2020
3846 Clouds -4 1024 85 14484 4.6 170 06:25 23.01.2020
3847 Clouds -4 1025 85 14484 3.1 170 05:59 23.01.2020
3848 Clouds -4 1025 79 14484 3.1 170 04:25 23.01.2020
3849 Clouds -3 1025 79 14484 3.1 190 02:50 23.01.2020
3850 Clouds -2 1025 74 14484 4.6 210 01:51 23.01.2020
3851 Clear -2 1025 74 14484 4.1 190 00:44 23.01.2020
3852 Clear -2 1025 74 14484 4.1 190 00:22 23.01.2020
3853 Clear -2 1025 74 14484 4.1 230 23:46 22.01.2020
3854 Clear -1 1025 74 14484 4.1 230 23:28 22.01.2020
3855 Clear -1 1024 64 14484 6.7 220 22:43 22.01.2020
3856 Clear 0 1024 64 14484 6.7 220 22:25 22.01.2020
3857 Clouds 0 1024 88 14484 5.7 190 21:58 22.01.2020
3858 Clouds 1 1024 88 14484 5.7 190 21:36 22.01.2020
3859 Clouds 1 1024 88 14484 5.7 190 21:18 22.01.2020
3860 Clouds 1 1024 68 14484 5.7 170 20:42 22.01.2020
3861 Clouds 0 1024 68 14484 5.7 170 20:23 22.01.2020
3862 Clouds 0 1025 74 14484 5.7 180 19:59 22.01.2020
3863 Clouds -1 1025 74 14484 5.7 180 19:41 22.01.2020
3864 Clouds -1 1025 74 14484 5.7 180 19:21 22.01.2020
3865 Clouds -1 1025 74 14484 5.1 190 18:59 22.01.2020
3866 Clouds -1 1025 74 14484 5.1 190 18:40 22.01.2020
3867 Clouds -1 1025 74 14484 5.1 190 18:21 22.01.2020
3868 Clouds -2 1026 73 14484 6.7 190 17:57 22.01.2020
3869 Clouds -2 1026 73 14484 6.7 190 17:39 22.01.2020
3870 Clouds -2 1026 73 14484 6.7 190 17:20 22.01.2020
3871 Clouds -2 1026 73 14484 6.7 190 17:20 22.01.2020
3872 Clouds -3 1026 68 14484 6.7 230 16:55 22.01.2020
3873 Clouds -3 1026 68 14484 6.7 230 16:55 22.01.2020
3874 Clouds -3 1026 68 14484 6.7 230 16:55 22.01.2020
3875 Clouds -3 1026 68 14484 6.7 230 16:37 22.01.2020
3876 Clouds -3 1026 68 14484 6.7 230 16:18 22.01.2020
3877 Clear -4 1026 73 14484 4.6 220 15:42 22.01.2020
3878 Clear -4 1026 73 14484 4.6 220 15:24 22.01.2020
3879 Clear -4 1026 73 14484 6.2 230 14:59 22.01.2020
3880 Clear -4 1026 73 14484 6.2 230 14:38 22.01.2020
3881 Clear -5 1026 73 14484 6.2 230 14:20 22.01.2020
3882 Clouds -5 1026 73 14484 5.7 230 13:56 22.01.2020
3883 Clouds -5 1026 73 14484 5.7 230 13:37 22.01.2020
3884 Clouds -5 1026 73 14484 5.7 230 13:19 22.01.2020
3885 Clouds -4 1026 73 14484 7.2 230 12:57 22.01.2020
3886 Clouds -4 1026 73 14484 7.2 230 12:38 22.01.2020
3887 Clouds -4 1026 73 14484 7.2 230 12:19 22.01.2020
3888 Clouds -4 1025 73 14484 6.7 230 11:57 22.01.2020
3889 Clouds -4 1025 73 14484 6.7 230 11:38 22.01.2020
3890 Clouds -4 1025 73 14484 6.7 230 11:19 22.01.2020
3891 Clouds -4 1025 73 14484 6.2 230 10:45 22.01.2020
3892 Clouds -4 1025 73 14484 6.2 230 10:21 22.01.2020
3893 Clouds -4 1025 73 14484 7.2 240 09:58 22.01.2020
3894 Clouds -4 1025 73 14484 7.2 240 09:40 22.01.2020
3895 Clouds -4 1025 73 14484 7.2 240 09:21 22.01.2020
3896 Clouds -4 1025 73 14484 7.7 230 08:55 22.01.2020
3897 Clouds -4 1025 73 14484 7.7 230 08:37 22.01.2020
3898 Clouds -5 1025 73 14484 7.7 230 08:19 22.01.2020
3899 Clouds -5 1025 79 14484 3.6 200 07:44 22.01.2020
3900 Clouds -5 1025 79 14484 3.6 200 07:26 22.01.2020
3901 Clouds -5 1025 73 14484 3.6 190 06:36 22.01.2020
3902 Snow -5 1026 79 14484 4.1 190 05:57 22.01.2020
3903 Snow -7 1027 78 14484 4.1 180 04:26 22.01.2020
3904 Snow -7 1027 78 14484 4.1 180 03:27 22.01.2020
3905 Snow -7 1027 67 14484 3.6 180 02:48 22.01.2020
3906 Snow -9 1028 72 14484 4.6 180 00:47 22.01.2020
3907 Clouds -9 1028 66 14484 4.1 180 00:28 22.01.2020
3908 Clouds -9 1028 66 14484 4.6 180 23:57 21.01.2020
3909 Clouds -9 1028 66 14484 4.6 180 23:37 21.01.2020
3910 Clouds -9 1028 66 14484 4.6 180 23:19 21.01.2020
3911 Clouds -9 1028 66 14484 6.7 180 22:41 21.01.2020
3912 Clouds -10 1028 66 14484 6.7 180 22:23 21.01.2020
3913 Clouds -9 1029 61 14484 6.7 230 21:58 21.01.2020
3914 Clouds -9 1029 61 14484 6.7 230 21:39 21.01.2020
3915 Clouds -9 1029 61 14484 6.7 230 21:20 21.01.2020
3916 Clouds -9 1029 66 14484 7.2 240 20:57 21.01.2020
3917 Clouds -10 1029 66 14484 7.2 240 20:39 21.01.2020
3918 Clouds -10 1029 66 14484 7.2 240 20:20 21.01.2020
3919 Clouds -10 1029 61 14484 5.7 240 19:58 21.01.2020
3920 Clouds -10 1029 61 14484 5.7 240 19:58 21.01.2020
3921 Clouds -10 1029 61 14484 5.7 240 19:39 21.01.2020
3922 Snow -11 1029 66 14484 7.2 250 19:21 21.01.2020
3923 Clouds -11 1030 72 14484 6.2 230 18:56 21.01.2020
3924 Clouds -11 1030 72 14484 6.2 230 18:38 21.01.2020
3925 Clear -12 1031 72 14484 5.1 210 18:20 21.01.2020
3926 Snow -12 1031 71 14484 4.1 210 17:56 21.01.2020
3927 Snow -13 1031 71 14484 4.1 210 17:37 21.01.2020
3928 Snow -13 1031 71 14484 3.6 210 17:18 21.01.2020
3929 Snow -14 1031 77 14484 3.1 200 16:37 21.01.2020
3930 Snow -15 1031 77 14484 3.1 200 16:19 21.01.2020
3931 Clear -16 1031 77 14484 2.1 160 15:57 21.01.2020
3932 Clear -16 1031 77 14484 2.1 160 15:37 21.01.2020
3933 Clear -17 1031 77 14484 2.1 160 15:19 21.01.2020
3934 Clear -18 1031 83 14484 1.5 160 14:39 21.01.2020
3935 Clear -18 1031 83 14484 1.5 160 14:20 21.01.2020
3936 Snow -19 1031 77 14484 1.5 150 13:43 21.01.2020
3937 Clear -19 1031 76 14484 1 0 13:20 21.01.2020
3938 Clear -19 1030 77 14484 2.1 260 12:58 21.01.2020
3939 Clear -18 1030 77 14484 2.1 260 12:39 21.01.2020
3940 Clear -18 1030 77 14484 2.1 260 12:21 21.01.2020
3941 Clear -19 1030 77 14484 1.5 320 11:55 21.01.2020
3942 Clear -19 1030 77 14484 1.5 320 11:36 21.01.2020
3943 Clear -18 1030 77 14484 1.5 320 11:18 21.01.2020
3944 Clear -18 1029 77 14484 1 0 10:42 21.01.2020
3945 Clear -18 1029 77 14484 1 0 10:22 21.01.2020
3946 Clear -17 1029 71 14484 2.6 270 09:55 21.01.2020
3947 Clear -17 1029 71 14484 2.6 270 09:37 21.01.2020
3948 Clear -17 1029 71 14484 2.6 270 09:18 21.01.2020
3949 Clear -17 1029 77 14484 2.6 260 08:41 21.01.2020
3950 Clear -16 1029 77 14484 2.6 260 08:21 21.01.2020
3951 Clear -16 1028 65 14484 4.6 270 07:42 21.01.2020
3952 Clear -16 1028 65 14484 4.6 270 07:23 21.01.2020
3953 Clear -16 1028 71 24140 3.1 230 06:56 21.01.2020
3954 Clear -16 1028 71 24140 3.1 230 06:37 21.01.2020
3955 Clear -16 1028 65 14484 3.6 270 05:53 21.01.2020
3956 Clear -14 1028 60 14484 3.1 250 04:41 21.01.2020
3957 Clear -15 1028 60 14484 3.1 250 04:19 21.01.2020
3958 Clear -14 1028 60 14484 3.6 250 02:26 21.01.2020
3959 Clear -13 1027 55 14484 5.7 260 01:36 21.01.2020
3960 Clear -13 1027 55 14484 7.2 250 00:41 21.01.2020
3961 Clear -13 1027 55 14484 7.2 250 00:22 21.01.2020
3962 Clear -13 1026 60 14484 9.3 250 23:41 20.01.2020
3963 Clear -12 1026 60 14484 9.3 250 23:19 20.01.2020
3964 Clear -12 1025 60 14484 8.7 250 22:59 20.01.2020
3965 Clear -12 1025 60 14484 8.7 250 22:39 20.01.2020
3966 Snow -12 1026 60 14484 7.2 250 22:21 20.01.2020
3967 Snow -11 1026 60 14484 8.7 250 21:58 20.01.2020
3968 Snow -11 1026 60 14484 8.7 250 21:58 20.01.2020
3969 Snow -11 1026 60 14484 8.7 250 21:38 20.01.2020
3970 Snow -11 1026 60 14484 8.7 250 21:20 20.01.2020
3971 Snow -12 1025 60 11265 8.7 250 20:58 20.01.2020
3972 Snow -11 1025 60 11265 8.7 250 20:39 20.01.2020
3973 Snow -12 1025 60 1006 9.3 250 20:20 20.01.2020
3974 Snow -12 1026 60 1006 7.2 250 19:58 20.01.2020
3975 Snow -12 1026 60 1006 7.2 250 19:40 20.01.2020
3976 Snow -12 1026 60 603 7.7 260 19:19 20.01.2020
3977 Snow -12 1026 60 402 8.7 240 18:54 20.01.2020
3978 Snow -13 1026 60 402 8.7 240 18:36 20.01.2020
3979 Snow -13 1026 60 805 7.2 230 18:18 20.01.2020
3980 Snow -13 1026 65 603 7.7 230 17:38 20.01.2020
3981 Snow -14 1027 65 603 7.7 250 17:19 20.01.2020
3982 Snow -14 1027 65 3621 6.7 240 16:46 20.01.2020
3983 Snow -15 1027 65 14484 6.2 240 16:26 20.01.2020
3984 Clear -16 1027 70 14484 3.1 250 15:59 20.01.2020
3985 Clear -16 1027 70 14484 3.1 250 15:40 20.01.2020
3986 Clear -16 1027 70 14484 3.1 250 15:21 20.01.2020
3987 Clear -17 1026 64 14484 2.6 270 14:56 20.01.2020
3988 Clear -17 1026 64 14484 2.6 270 14:37 20.01.2020
3989 Clear -18 1026 64 14484 2.6 270 14:19 20.01.2020
3990 Clear -18 1025 70 14484 3.1 300 13:42 20.01.2020
3991 Clear -18 1025 70 14484 3.1 300 13:24 20.01.2020
3992 Clear -18 1024 71 14484 3.1 290 12:58 20.01.2020
3993 Clear -18 1024 71 14484 3.1 290 12:40 20.01.2020
3994 Clear -18 1024 71 14484 3.1 290 12:21 20.01.2020
3995 Clear -17 1023 71 14484 3.1 300 11:54 20.01.2020
3996 Clear -17 1023 71 14484 3.1 300 11:36 20.01.2020
3997 Clear -17 1023 71 14484 3.1 300 11:18 20.01.2020
3998 Clear -17 1023 77 11265 1 270 10:41 20.01.2020
3999 Clear -17 1023 77 11265 1 270 10:20 20.01.2020
4000 Clear -17 1022 71 14484 4.1 340 09:41 20.01.2020
4001 Clear -17 1022 71 14484 4.1 340 09:23 20.01.2020
4002 Clear -16 1021 71 14484 3.6 310 08:55 20.01.2020
4003 Clear -16 1021 71 14484 3.6 310 08:31 20.01.2020
4004 Haze -15 1021 71 9656 2.6 310 07:55 20.01.2020
4005 Haze -15 1021 71 9656 2.6 310 07:37 20.01.2020
4006 Snow -15 1020 71 6437 3.1 310 07:19 20.01.2020
4007 Clear -14 1020 71 14484 1.5 300 06:36 20.01.2020
4008 Clouds -14 1019 71 14484 4.1 330 05:56 20.01.2020
4009 Clouds -14 1019 71 14484 4.1 330 05:37 20.01.2020
4010 Clouds -14 1019 71 14484 4.1 330 05:18 20.01.2020
4011 Clouds -13 1017 65 14484 3.6 340 03:55 20.01.2020
4012 Clouds -11 1016 61 14484 4.1 350 01:58 20.01.2020
4013 Clouds -11 1016 61 14484 4.1 350 01:39 20.01.2020
4014 Clouds -11 1015 61 14484 3.6 350 00:56 20.01.2020
4015 Clouds -11 1015 61 14484 3.6 350 00:37 20.01.2020
4016 Snow -10 1014 78 9656 5.7 30 00:19 20.01.2020
4017 Snow -10 1013 72 14484 2.1 20 23:37 19.01.2020
4018 Snow -10 1013 72 8047 1.5 30 23:18 19.01.2020
4019 Clouds -10 1012 72 24140 1.5 260 22:55 19.01.2020
4020 Clouds -9 1012 72 24140 1.5 260 22:37 19.01.2020
4021 Snow -9 1012 72 14484 3.1 40 22:18 19.01.2020
4022 Clouds -9 1011 66 14484 1.5 20 21:56 19.01.2020
4023 Clouds -9 1011 66 14484 1.5 20 21:37 19.01.2020
4024 Snow -9 1010 66 14484 1 0 21:19 19.01.2020
4025 Snow -9 1009 72 14484 1.5 350 20:56 19.01.2020
4026 Snow -9 1009 72 14484 1.5 350 20:38 19.01.2020
4027 Snow -9 1009 66 14484 2.6 360 20:19 19.01.2020
4028 Snow -9 1008 72 11265 3.1 20 19:55 19.01.2020
4029 Snow -9 1008 72 11265 3.1 20 19:37 19.01.2020
4030 Snow -9 1008 66 9656 3.1 20 19:19 19.01.2020
4031 Snow -9 1008 66 9656 5.1 360 18:55 19.01.2020
4032 Snow -9 1008 66 9656 5.1 360 18:37 19.01.2020
4033 Snow -9 1007 72 8047 4.1 360 18:18 19.01.2020
4034 Snow -10 1007 72 8047 5.7 360 17:57 19.01.2020
4035 Snow -10 1007 72 8047 5.7 360 17:38 19.01.2020
4036 Snow -10 1007 72 11265 5.1 360 17:19 19.01.2020
4037 Snow -10 1006 72 6437 6.2 360 16:57 19.01.2020
4038 Snow -10 1006 72 6437 6.2 360 16:37 19.01.2020
4039 Snow -10 1006 78 3621 4.6 360 16:19 19.01.2020
4040 Snow -10 1005 78 9656 6.2 350 15:56 19.01.2020
4041 Snow -10 1005 78 9656 6.2 350 15:37 19.01.2020
4042 Snow -11 1004 78 9656 5.7 360 15:18 19.01.2020
4043 Snow -11 1004 78 4828 6.2 360 14:56 19.01.2020
4044 Snow -11 1004 78 4828 6.2 360 14:37 19.01.2020
4045 Snow -11 1004 78 8047 4.6 350 14:18 19.01.2020
4046 Snow -11 1004 78 8047 4.6 350 14:18 19.01.2020
4047 Snow -11 1003 78 6437 5.7 10 13:54 19.01.2020
4048 Snow -11 1003 78 6437 5.7 10 13:36 19.01.2020
4049 Snow -11 1002 85 3219 5.1 350 13:18 19.01.2020
4050 Snow -11 1002 78 4828 6.2 360 12:42 19.01.2020
4051 Snow -11 1001 85 3621 7.2 10 12:23 19.01.2020
4052 Snow -11 1001 85 2816 5.7 360 11:57 19.01.2020
4053 Snow -11 1001 85 2816 5.7 360 11:39 19.01.2020
4054 Snow -11 1000 78 2414 6.2 10 11:18 19.01.2020
4055 Snow -11 1000 85 2816 7.2 20 10:54 19.01.2020
4056 Snow -11 1000 85 1207 6.7 10 10:36 19.01.2020
4057 Snow -11 1000 85 1207 6.7 10 10:18 19.01.2020
4058 Snow -12 1000 85 2816 6.2 20 09:41 19.01.2020
4059 Snow -11 1000 85 3621 6.7 20 09:23 19.01.2020
4060 Snow -12 1001 84 2414 6.7 20 08:56 19.01.2020
4061 Snow -12 1001 84 2414 6.7 20 08:38 19.01.2020
4062 Snow -12 1001 84 1609 6.2 20 08:19 19.01.2020
4063 Snow -13 1002 84 2012 6.2 20 07:30 19.01.2020
4064 Snow -13 1004 84 2012 5.7 20 06:56 19.01.2020
4065 Snow -13 1004 84 2012 5.7 20 06:25 19.01.2020
4066 Snow -14 1006 84 2816 8.2 40 04:39 19.01.2020
4067 Snow -14 1011 84 805 5.7 60 02:36 19.01.2020
4068 Snow -15 1014 77 1207 8.2 40 01:58 19.01.2020
4069 Snow -15 1015 77 1207 6.7 40 01:24 19.01.2020
4070 Snow -15 1016 77 1609 6.7 50 00:45 19.01.2020
4071 Snow -15 1016 77 1609 6.7 50 00:26 19.01.2020
4072 Snow -15 1017 71 14484 6.7 40 23:55 18.01.2020
4073 Snow -15 1017 71 14484 6.7 40 23:36 18.01.2020
4074 Clouds -14 1019 71 14484 5.7 50 23:18 18.01.2020
4075 Clouds -14 1019 71 14484 5.7 50 23:18 18.01.2020
4076 Clouds -14 1021 71 14484 5.7 60 22:54 18.01.2020
4077 Clouds -15 1021 71 14484 5.7 60 22:36 18.01.2020
4078 Clouds -14 1021 71 14484 5.7 60 22:18 18.01.2020
4079 Clouds -14 1024 65 14484 5.1 50 21:56 18.01.2020
4080 Clouds -14 1024 65 14484 5.1 50 21:36 18.01.2020
4081 Clouds -14 1024 65 14484 5.1 50 21:18 18.01.2020
4082 Clouds -14 1026 71 14484 5.1 40 20:41 18.01.2020
4083 Clouds -14 1026 71 14484 5.1 40 20:19 18.01.2020
4084 Clouds -14 1028 65 14484 3.6 90 19:54 18.01.2020
4085 Clouds -14 1028 65 14484 3.6 90 19:36 18.01.2020
4086 Clouds -14 1028 65 14484 3.6 90 19:18 18.01.2020
4087 Clouds -14 1030 65 14484 3.6 60 18:40 18.01.2020
4088 Clouds -14 1030 65 14484 3.6 60 18:40 18.01.2020
4089 Clouds -14 1030 65 14484 3.6 60 18:21 18.01.2020
4090 Clouds -15 1030 71 24140 5.1 80 17:41 18.01.2020
4091 Clouds -15 1032 65 14484 3.6 100 17:21 18.01.2020
4092 Clouds -15 1034 70 14484 3.1 100 16:57 18.01.2020
4093 Clouds -16 1034 70 14484 3.1 100 16:39 18.01.2020
4094 Clouds -16 1034 70 14484 3.1 100 16:21 18.01.2020
4095 Clouds -16 1034 77 24140 5.1 80 15:57 18.01.2020
4096 Clouds -16 1034 77 24140 5.1 80 15:39 18.01.2020
4097 Clouds -17 1035 77 14484 2.6 100 15:20 18.01.2020
4098 Snow -17 1035 77 19312 2.6 30 14:42 18.01.2020
4099 Clear -18 1036 77 14484 3.1 110 14:20 18.01.2020
4100 Clear -18 1037 77 14484 1.5 100 13:58 18.01.2020
4101 Clear -18 1037 77 14484 1.5 100 13:39 18.01.2020
4102 Clear -19 1037 77 14484 1.5 100 13:20 18.01.2020
4103 Clouds -18 1037 77 14484 2.1 90 12:54 18.01.2020
4104 Clouds -18 1037 77 14484 2.1 90 12:54 18.01.2020
4105 Clouds -18 1037 77 14484 2.1 90 12:36 18.01.2020
4106 Clouds -18 1037 77 14484 2.1 90 12:18 18.01.2020
4107 Clouds -18 1039 77 14484 1.09 104 11:43 18.01.2020
4108 Clouds -18 1039 77 14484 0.84 247 11:21 18.01.2020
4109 Clouds -18 1039 77 14484 1.5 120 10:43 18.01.2020
4110 Clouds -18 1039 77 14484 1.5 120 10:22 18.01.2020
4111 Clear -18 1040 77 14484 1 0 09:57 18.01.2020
4112 Clear -18 1040 77 14484 1 0 09:39 18.01.2020
4113 Clear -18 1040 77 14484 1 0 09:19 18.01.2020
4114 Clear -18 1040 70 14484 1.5 170 08:42 18.01.2020
4115 Clear -18 1040 70 14484 1.5 170 08:20 18.01.2020
4116 Clear -18 1040 70 14484 1.5 90 07:59 18.01.2020
4117 Clear -18 1040 70 14484 1.5 90 07:39 18.01.2020
4118 Clear -18 1040 70 14484 1.5 90 07:18 18.01.2020
4119 Clear -18 1041 65 14484 2.1 290 06:44 18.01.2020
4120 Clear -18 1042 64 14484 4.1 290 05:52 18.01.2020
4121 Clear -18 1042 64 14484 3.6 280 04:25 18.01.2020
4122 Clear -17 1041 59 14484 5.1 260 02:38 18.01.2020
4123 Clear -17 1041 59 14484 4.6 250 01:40 18.01.2020
4124 Clear -17 1041 59 14484 4.1 260 00:39 18.01.2020
4125 Clear -17 1041 59 14484 4.1 260 00:20 18.01.2020
4126 Clear -17 1041 59 14484 7.7 260 23:58 17.01.2020
4127 Clear -17 1041 59 14484 7.7 260 23:39 17.01.2020
4128 Clear -17 1041 59 14484 7.7 260 23:18 17.01.2020
4129 Clear -16 1041 54 14484 4.6 250 22:42 17.01.2020
4130 Clear -16 1041 54 14484 4.6 250 22:20 17.01.2020
4131 Clear -16 1041 54 14484 4.6 250 22:20 17.01.2020
4132 Clear -15 1041 54 14484 6.7 240 21:56 17.01.2020
4133 Clear -15 1041 54 14484 6.7 240 21:38 17.01.2020
4134 Clear -15 1041 54 14484 6.7 240 21:19 17.01.2020
4135 Clear -15 1041 49 14484 5.7 270 20:43 17.01.2020
4136 Clear -16 1041 49 14484 5.7 270 20:21 17.01.2020
4137 Clear -15 1041 49 14484 5.7 250 19:58 17.01.2020
4138 Clear -16 1041 49 14484 5.7 250 19:39 17.01.2020
4139 Clear -16 1041 49 14484 5.7 250 19:21 17.01.2020
4140 Clear -16 1041 49 14484 5.7 250 19:21 17.01.2020
4141 Clear -16 1042 49 14484 5.7 270 18:59 17.01.2020
4142 Clear -16 1042 49 14484 5.7 270 18:41 17.01.2020
4143 Clear -16 1042 49 14484 5.7 270 18:23 17.01.2020
4144 Clear -17 1042 49 14484 4.6 250 17:54 17.01.2020
4145 Clear -17 1042 49 14484 4.6 250 17:36 17.01.2020
4146 Clear -17 1042 49 14484 4.6 250 17:18 17.01.2020
4147 Clear -17 1043 54 14484 5.1 300 16:41 17.01.2020
4148 Clear -18 1043 54 14484 5.1 300 16:19 17.01.2020
4149 Clear -18 1042 54 14484 4.6 280 15:48 17.01.2020
4150 Clear -18 1042 54 14484 4.6 280 15:48 17.01.2020
4151 Clear -18 1042 54 14484 4.6 280 15:26 17.01.2020
4152 Clear -19 1041 58 14484 4.1 290 14:54 17.01.2020
4153 Clear -19 1041 58 14484 4.1 290 14:36 17.01.2020
4154 Clear -19 1041 58 14484 4.1 290 14:18 17.01.2020
4155 Clear -19 1041 58 14484 4.1 290 14:18 17.01.2020
4156 Clear -19 1040 64 14484 5.1 280 13:39 17.01.2020
4157 Clear -19 1040 64 14484 5.1 280 13:20 17.01.2020
4158 Clear -19 1039 54 14484 3.1 310 12:45 17.01.2020
4159 Clear -19 1039 54 14484 3.1 310 12:22 17.01.2020
4160 Clear -18 1037 59 14484 4.1 340 11:41 17.01.2020
4161 Clear -18 1037 59 14484 4.1 340 11:19 17.01.2020
4162 Clear -18 1036 54 14484 4.6 340 10:45 17.01.2020
4163 Clear -17 1036 54 14484 4.6 340 10:24 17.01.2020
4164 Clear -17 1034 54 14484 6.7 330 09:59 17.01.2020
4165 Clear -17 1034 54 14484 6.7 330 09:41 17.01.2020
4166 Clear -17 1034 54 14484 6.7 330 09:20 17.01.2020
4167 Clear -16 1033 54 14484 8.2 340 08:55 17.01.2020
4168 Clear -16 1033 54 14484 8.2 340 08:36 17.01.2020
4169 Clear -15 1033 54 14484 8.2 340 08:18 17.01.2020
4170 Clear -15 1030 55 14484 7.7 350 07:42 17.01.2020
4171 Clear -14 1030 55 14484 7.7 350 07:24 17.01.2020
4172 Clear -14 1029 60 14484 7.2 340 06:43 17.01.2020
4173 Clear -13 1029 60 14484 7.2 340 06:20 17.01.2020
4174 Clouds -11 1026 61 14484 5.1 310 04:25 17.01.2020
4175 Clouds -10 1024 57 24140 6.7 330 02:55 17.01.2020
4176 Clouds -10 1024 56 32767 4.1 320 02:30 17.01.2020
4177 Clouds -8 1022 57 14484 6.7 350 01:32 17.01.2020
4178 Clouds -7 1022 67 0 3.58 331 00:59 17.01.2020
4179 Clouds -7 1020 74 0 0.89 42 00:35 17.01.2020
4180 Clouds -6 1018 62 14484 8.2 350 23:56 16.01.2020
4181 Clouds -5 1018 62 14484 8.2 350 23:38 16.01.2020
4182 Clouds -5 1018 62 14484 8.2 350 23:19 16.01.2020
4183 Clouds -4 1018 58 24140 8.2 330 22:40 16.01.2020
4184 Snow -4 1016 73 11265 8.7 350 22:21 16.01.2020
4185 Clouds -3 1015 63 14484 9.8 350 21:56 16.01.2020
4186 Clouds -2 1015 63 14484 9.8 350 21:37 16.01.2020
4187 Snow -2 1014 79 8047 6.2 350 21:19 16.01.2020
4188 Snow -2 1014 92 11265 5.1 340 20:56 16.01.2020
4189 Snow -1 1014 92 11265 5.1 340 20:37 16.01.2020
4190 Snow -1 1013 92 1609 3.1 310 20:18 16.01.2020
4191 Snow -1 1013 80 2816 2.6 320 19:55 16.01.2020
4192 Snow -1 1013 80 2816 2.6 320 19:37 16.01.2020
4193 Snow -1 1013 86 11265 5.1 340 19:18 16.01.2020
4194 Snow -1 1013 86 12874 5.1 340 18:55 16.01.2020
4195 Snow -1 1013 86 12874 5.1 340 18:36 16.01.2020
4196 Snow -1 1013 86 12874 5.1 340 18:36 16.01.2020
4197 Snow -1 1013 86 14484 5.1 330 18:18 16.01.2020
4198 Rain -1 1013 80 16093 2.1 310 17:41 16.01.2020
4199 Rain -1 1013 80 16093 2.1 310 17:41 16.01.2020
4200 Snow -1 1013 86 6437 4.6 340 17:23 16.01.2020
4201 Snow -2 1013 92 3621 5.1 350 16:57 16.01.2020
4202 Snow -2 1013 92 3621 5.1 350 16:38 16.01.2020
4203 Snow -2 1013 92 2414 5.7 340 16:19 16.01.2020
4204 Snow -2 1013 92 2414 5.7 340 16:19 16.01.2020
4205 Snow -2 1012 92 2414 5.1 340 15:44 16.01.2020
4206 Snow -2 1012 92 2012 4.1 340 15:22 16.01.2020
4207 Snow -2 1012 92 2816 4.1 360 14:57 16.01.2020
4208 Snow -2 1012 92 2816 4.1 360 14:38 16.01.2020
4209 Snow -2 1012 92 1609 3.6 10 14:20 16.01.2020
4210 Snow -2 1012 92 1006 3.1 20 13:45 16.01.2020
4211 Snow -2 1012 100 1609 2.6 360 13:26 16.01.2020
4212 Snow -2 1012 100 1609 2.6 10 12:47 16.01.2020
4213 Snow -2 1012 100 1609 2.6 10 12:47 16.01.2020
4214 Snow -2 1012 100 1207 3.1 20 12:28 16.01.2020
4215 Snow -2 1013 100 1609 3.1 20 11:59 16.01.2020
4216 Snow -2 1013 100 1609 3.1 20 11:40 16.01.2020
4217 Snow -2 1013 100 1609 3.1 10 11:22 16.01.2020
4218 Snow -2 1013 100 1609 2.6 10 10:40 16.01.2020
4219 Snow -2 1013 92 8047 2.1 30 10:22 16.01.2020
4220 Snow -1 1014 86 8047 1.5 150 09:59 16.01.2020
4221 Snow -1 1014 86 8047 1.5 150 09:41 16.01.2020
4222 Snow -1 1014 86 11265 1.5 130 09:23 16.01.2020
4223 Snow -1 1015 92 9656 1.5 130 08:55 16.01.2020
4224 Snow -1 1015 92 9656 1.5 130 08:36 16.01.2020
4225 Snow -1 1015 92 19312 1 210 07:59 16.01.2020
4226 Snow -1 1015 92 19312 1 210 07:41 16.01.2020
4227 Clouds -1 1016 86 14484 2.1 210 07:23 16.01.2020
4228 Clouds -1 1016 86 14484 2.1 210 06:46 16.01.2020
4229 Clouds -1 1016 86 14484 2.1 210 06:28 16.01.2020
4230 Clouds -1 1017 90 14484 2.6 210 05:46 16.01.2020
4231 Clouds -1 1018 92 14484 2.6 220 04:46 16.01.2020
4232 Clouds -1 1018 92 14484 2.6 220 04:46 16.01.2020
4233 Clouds -1 1018 89 14484 2.6 210 03:29 16.01.2020
4234 Clouds -1 1019 89 14484 2.1 210 02:44 16.01.2020
4235 Clouds 0 1020 90 14484 3.1 240 01:28 16.01.2020
4236 Clouds 0 1020 90 14484 3.6 240 00:42 16.01.2020
4237 Clouds 0 1020 90 14484 3.6 240 00:22 16.01.2020
4238 Clouds 0 1020 90 14484 3.6 260 23:40 15.01.2020
4239 Clouds 0 1020 92 14484 3.6 260 23:21 15.01.2020
4240 Clouds 0 1019 92 14484 3.1 230 22:56 15.01.2020
4241 Clouds 0 1019 92 14484 3.1 230 22:38 15.01.2020
4242 Clouds 0 1019 92 14484 3.1 230 22:18 15.01.2020
4243 Clouds 0 1019 92 11265 3.6 240 21:56 15.01.2020
4244 Clouds 0 1019 92 11265 3.6 240 21:37 15.01.2020
4245 Clouds 0 1019 92 11265 3.6 240 21:18 15.01.2020
4246 Clouds 0 1018 92 14484 3.6 260 20:55 15.01.2020
4247 Clouds 0 1018 92 14484 3.6 260 20:37 15.01.2020
4248 Clouds 0 1018 95 14484 3.6 260 20:18 15.01.2020
4249 Clouds 0 1018 95 11265 5.1 270 19:54 15.01.2020
4250 Clouds 0 1018 95 11265 5.1 270 19:36 15.01.2020
4251 Clouds 0 1018 95 11265 5.1 270 19:18 15.01.2020
4252 Haze 0 1019 95 9656 6.2 270 18:55 15.01.2020
4253 Haze 0 1019 95 9656 6.2 270 18:55 15.01.2020
4254 Haze 0 1019 95 9656 6.2 270 18:55 15.01.2020
4255 Haze 0 1019 95 9656 6.2 270 18:37 15.01.2020
4256 Mist -1 1019 86 8047 4.1 260 18:19 15.01.2020
4257 Mist -1 1019 86 8047 4.1 260 18:19 15.01.2020
4258 Mist -1 1020 86 6437 4.1 250 17:41 15.01.2020
4259 Mist -2 1020 86 6437 4.1 250 17:23 15.01.2020
4260 Mist -2 1020 86 4828 3.1 250 16:59 15.01.2020
4261 Mist -2 1020 86 4828 3.1 250 16:39 15.01.2020
4262 Mist -2 1020 86 4828 3.1 250 16:39 15.01.2020
4263 Snow -3 1020 86 4828 4.1 250 16:21 15.01.2020
4264 Clouds -3 1019 86 16093 3.6 250 15:43 15.01.2020
4265 Snow -3 1019 86 4828 5.1 250 15:21 15.01.2020
4266 Snow -3 1019 86 4828 5.1 250 15:21 15.01.2020
4267 Snow -4 1019 92 6437 4.6 240 14:59 15.01.2020
4268 Snow -4 1019 92 6437 4.6 240 14:41 15.01.2020
4269 Mist -4 1019 85 6437 5.1 230 14:18 15.01.2020
4270 Mist -5 1019 85 6437 4.6 240 13:46 15.01.2020
4271 Mist -5 1019 85 6437 4.1 250 13:26 15.01.2020
4272 Mist -5 1019 85 6437 2.74 260 12:59 15.01.2020
4273 Mist -5 1019 85 6437 2.74 260 12:39 15.01.2020
4274 Mist -5 1018 92 6437 5.1 240 12:19 15.01.2020
4275 Clouds -5 1018 85 24140 3.1 240 11:56 15.01.2020
4276 Clouds -5 1018 85 24140 3.1 240 11:37 15.01.2020
4277 Mist -5 1018 85 8047 3.6 230 11:18 15.01.2020
4278 Snow -6 1018 85 9656 3.6 250 10:42 15.01.2020
4279 Clouds -6 1018 85 11265 2.6 250 10:24 15.01.2020
4280 Clouds -6 1018 85 11265 2.1 270 09:42 15.01.2020
4281 Clouds -6 1018 85 11265 2.1 270 09:23 15.01.2020
4282 Clouds -6 1017 92 12874 3.1 280 08:56 15.01.2020
4283 Clouds -7 1017 92 12874 3.1 280 08:37 15.01.2020
4284 Clouds -7 1017 92 12874 3.1 280 08:19 15.01.2020
4285 Clouds -7 1016 92 12874 2.6 320 07:50 15.01.2020
4286 Snow -7 1016 85 9656 3.6 320 07:30 15.01.2020
4287 Snow -7 1016 92 3219 4.1 320 06:44 15.01.2020
4288 Snow -7 1016 85 2012 3.6 350 06:19 15.01.2020
4289 Snow -7 1016 92 2816 3.1 10 04:36 15.01.2020
4290 Snow -7 1018 85 3219 4.6 30 02:38 15.01.2020
4291 Snow -7 1019 79 8047 6.2 30 01:28 15.01.2020
4292 Snow -7 1020 79 14484 5.7 40 00:45 15.01.2020
4293 Clouds -7 1021 85 14484 5.7 30 00:27 15.01.2020
4294 Clouds -8 1020 78 32767 4.1 60 23:56 14.01.2020
4295 Clouds -8 1020 78 32767 4.1 60 23:38 14.01.2020
4296 Clouds -7 1021 85 14484 5.7 30 23:19 14.01.2020
4297 Clouds -7 1022 85 14484 4.6 50 22:41 14.01.2020
4298 Clouds -7 1022 85 14484 4.6 50 22:19 14.01.2020
4299 Snow -7 1023 85 24140 5.7 50 21:58 14.01.2020
4300 Snow -7 1023 85 24140 5.7 50 21:58 14.01.2020
4301 Clouds -6 1024 79 14484 4.1 40 21:40 14.01.2020
4302 Clouds -6 1024 79 14484 4.1 40 21:21 14.01.2020
4303 Clouds -6 1025 79 14484 5.7 60 20:59 14.01.2020
4304 Clouds -6 1025 79 14484 5.7 60 20:40 14.01.2020
4305 Snow -6 1025 79 24140 6.2 40 20:20 14.01.2020
4306 Snow -6 1025 79 24140 6.2 40 19:56 14.01.2020
4307 Snow -6 1025 79 24140 6.2 40 19:38 14.01.2020
4308 Clouds -6 1026 85 14484 3.6 50 19:18 14.01.2020
4309 Clouds -6 1028 85 14484 3.6 40 18:55 14.01.2020
4310 Clouds -5 1028 85 14484 3.6 40 18:37 14.01.2020
4311 Clouds -5 1028 79 14484 3.1 50 18:18 14.01.2020
4312 Clouds -6 1028 79 14484 3.1 50 17:38 14.01.2020
4313 Clouds -6 1028 79 14484 3.1 50 17:19 14.01.2020
4314 Clouds -7 1029 79 14484 2.1 30 16:55 14.01.2020
4315 Clouds -7 1029 79 14484 2.1 30 16:37 14.01.2020
4316 Clouds -7 1029 79 14484 2.1 30 16:19 14.01.2020
4317 Snow -7 1029 79 14484 2.1 110 15:43 14.01.2020
4318 Snow -7 1029 79 14484 2.1 110 15:19 14.01.2020
4319 Snow -7 1029 85 16093 1.5 70 14:57 14.01.2020
4320 Snow -7 1029 85 16093 1.5 70 14:39 14.01.2020
4321 Snow -8 1029 79 14484 4.1 80 14:18 14.01.2020
4322 Snow -8 1030 79 14484 4.1 70 13:42 14.01.2020
4323 Clouds -8 1030 85 14484 2.6 60 13:19 14.01.2020
4324 Clouds -8 1031 85 14484 2.1 50 12:43 14.01.2020
4325 Clouds -8 1031 85 14484 2.1 50 12:25 14.01.2020
4326 Clouds -8 1031 79 14484 2.6 60 11:59 14.01.2020
4327 Clouds -8 1031 79 14484 2.6 60 11:40 14.01.2020
4328 Clouds -8 1031 79 14484 2.6 60 11:40 14.01.2020
4329 Clouds -8 1031 79 14484 2.6 60 11:22 14.01.2020
4330 Clouds -8 1031 85 24140 1.5 360 10:56 14.01.2020
4331 Clouds -7 1031 85 24140 1.5 360 10:38 14.01.2020
4332 Clouds -7 1031 85 14484 2.6 40 10:19 14.01.2020
4333 Clouds -7 1031 85 24140 1 0 09:55 14.01.2020
4334 Clouds -7 1031 85 24140 1 0 09:37 14.01.2020
4335 Clouds -7 1031 79 14484 1.5 20 09:19 14.01.2020
4336 Snow -8 1031 85 24140 0.74 102 08:41 14.01.2020
4337 Snow -8 1031 85 24140 0.74 102 08:41 14.01.2020
4338 Snow -8 1031 85 24140 0.74 102 08:41 14.01.2020
4339 Clouds -8 1030 85 14484 1 0 08:22 14.01.2020
4340 Clouds -7 1030 85 14484 1 60 07:53 14.01.2020
4341 Clouds -7 1030 85 14484 1 60 07:25 14.01.2020
4342 Clouds -8 1030 85 14484 2.6 30 06:44 14.01.2020
4343 Clouds -8 1030 85 14484 2.6 30 06:18 14.01.2020
4344 Snow -8 1030 85 24140 2.1 340 04:56 14.01.2020
4345 Snow -8 1030 85 12874 1.5 10 03:48 14.01.2020
4346 Snow -8 1030 85 9656 1.5 20 02:40 14.01.2020
4347 Snow -8 1030 85 14484 2.1 10 01:34 14.01.2020
4348 Snow -8 1029 85 11265 2.1 50 00:49 14.01.2020
4349 Snow -8 1029 85 11265 2.1 50 00:26 14.01.2020
4350 Snow -8 1029 85 9656 1.5 40 23:47 13.01.2020
4351 Snow -8 1029 85 8047 3.1 20 23:19 13.01.2020
4352 Snow -8 1029 85 9656 4.1 360 22:59 13.01.2020
4353 Snow -8 1029 85 9656 4.1 360 22:40 13.01.2020
4354 Snow -8 1029 85 8047 3.6 360 22:20 13.01.2020
4355 Snow -8 1029 85 8047 3.6 360 21:56 13.01.2020
4356 Snow -8 1029 85 8047 3.6 360 21:56 13.01.2020
4357 Snow -8 1029 85 8047 3.6 360 21:37 13.01.2020
4358 Snow -8 1028 85 8047 3.1 10 21:18 13.01.2020
4359 Snow -8 1028 85 14484 5.1 360 20:56 13.01.2020
4360 Snow -8 1028 85 14484 5.1 360 20:38 13.01.2020
4361 Snow -8 1028 85 14484 5.1 360 20:20 13.01.2020
4362 Clouds -8 1028 85 14484 4.1 20 19:56 13.01.2020
4363 Clouds -8 1028 85 14484 4.1 20 19:37 13.01.2020
4364 Snow -8 1028 85 14484 4.1 350 19:18 13.01.2020
4365 Snow -8 1029 85 11265 3.1 340 18:55 13.01.2020
4366 Snow -8 1029 85 11265 3.1 340 18:36 13.01.2020
4367 Snow -9 1029 85 4828 3.1 30 18:18 13.01.2020
4368 Snow -9 1029 85 2816 4.1 30 17:40 13.01.2020
4369 Snow -9 1030 85 14484 5.1 20 17:22 13.01.2020
4370 Snow -9 1031 85 14484 4.6 10 16:56 13.01.2020
4371 Snow -9 1031 85 14484 4.6 10 16:37 13.01.2020
4372 Clouds -9 1031 85 14484 4.1 20 16:19 13.01.2020
4373 Clouds -9 1027 81 0 3.28 29 15:43 13.01.2020
4374 Clouds -9 1027 81 0 3.28 29 15:23 13.01.2020
4375 Clouds -9 1032 89 0 0.45 315 14:57 13.01.2020
4376 Clouds -10 1031 89 0 3.28 29 14:37 13.01.2020
4377 Clouds -10 1032 87 0 0.89 49 14:19 13.01.2020
4378 Clouds -11 1032 88 0 0.45 49 13:41 13.01.2020
4379 Clouds -11 1032 92 0 2.8 28 13:23 13.01.2020
4380 Clouds -11 1032 78 14484 4.6 50 12:59 13.01.2020
4381 Clouds -11 1032 78 14484 4.6 50 12:40 13.01.2020
4382 Clouds -11 1032 78 14484 4.6 50 12:22 13.01.2020
4383 Clouds -11 1032 78 14484 4.6 50 11:57 13.01.2020
4384 Clouds -11 1032 78 14484 4.6 50 11:37 13.01.2020
4385 Snow -10 1033 78 14484 5.1 30 11:19 13.01.2020
4386 Snow -10 1034 85 14484 4.1 20 10:55 13.01.2020
4387 Snow -11 1034 85 14484 4.1 20 10:37 13.01.2020
4388 Clouds -11 1034 85 14484 4.1 10 10:19 13.01.2020
4389 Snow -10 1034 85 14484 3.6 50 09:42 13.01.2020
4390 Snow -10 1035 78 14484 4.6 30 09:23 13.01.2020
4391 Snow -11 1035 78 14484 3.1 30 08:44 13.01.2020
4392 Snow -10 1035 78 14484 3.1 30 08:24 13.01.2020
4393 Snow -10 1035 78 14484 3.6 30 07:59 13.01.2020
4394 Snow -10 1035 78 14484 3.6 30 07:59 13.01.2020
4395 Snow -10 1035 78 14484 3.6 30 07:41 13.01.2020
4396 Snow -10 1035 78 14484 3.6 30 07:19 13.01.2020
4397 Snow -11 1034 78 14484 3.1 40 06:37 13.01.2020
4398 Snow -10 1034 85 11265 4.6 40 05:37 13.01.2020
4399 Snow -9 1033 78 11265 4.1 40 04:26 13.01.2020
4400 Snow -9 1033 78 14484 3.6 50 03:38 13.01.2020
4401 Snow -8 1033 72 14484 3.1 40 02:49 13.01.2020
4402 Snow -8 1033 72 14484 3.1 40 02:30 13.01.2020
4403 Snow -8 1033 72 14484 3.1 40 02:30 13.01.2020
4404 Snow -8 1032 78 9656 2.6 20 01:33 13.01.2020
4405 Snow -8 1032 78 9656 2.6 20 00:44 13.01.2020
4406 Snow -7 1031 72 14484 2.6 10 00:26 13.01.2020
4407 Snow -7 1029 78 12874 2.6 350 23:57 12.01.2020
4408 Snow -7 1029 78 12874 2.6 350 23:39 12.01.2020
4409 Snow -7 1029 78 12874 2.6 350 23:21 12.01.2020
4410 Snow -7 1028 73 8047 3.6 360 22:43 12.01.2020
4411 Snow -7 1028 73 8047 3.6 360 22:43 12.01.2020
4412 Snow -7 1027 73 8047 2.6 350 22:25 12.01.2020
4413 Snow -7 1027 79 1006 3.1 340 21:59 12.01.2020
4414 Snow -7 1027 79 1006 3.1 340 21:40 12.01.2020
4415 Snow -7 1026 73 2012 3.1 340 21:20 12.01.2020
4416 Snow -6 1023 79 3219 3.1 320 20:58 12.01.2020
4417 Snow -6 1023 79 3219 3.1 320 20:39 12.01.2020
4418 Snow -6 1022 73 14484 5.1 340 20:21 12.01.2020
4419 Snow -6 1021 73 14484 5.7 330 19:56 12.01.2020
4420 Snow -7 1021 73 14484 5.7 330 19:38 12.01.2020
4421 Snow -7 1021 73 14484 5.7 330 19:38 12.01.2020
4422 Snow -7 1019 85 14484 6.7 330 19:19 12.01.2020
4423 Snow -7 1018 85 4828 6.7 320 18:58 12.01.2020
4424 Snow -7 1018 85 4828 6.7 320 18:40 12.01.2020
4425 Snow -7 1015 85 4828 7.7 330 18:21 12.01.2020
4426 Snow -7 1014 85 1609 6.7 320 17:58 12.01.2020
4427 Snow -7 1013 92 603 5.31 342 17:40 12.01.2020
4428 Snow -7 1013 92 603 7.09 28 17:19 12.01.2020
4429 Snow -7 1013 85 1207 6.7 360 16:56 12.01.2020
4430 Snow -7 1013 85 1207 6.7 360 16:37 12.01.2020
4431 Snow -7 1013 85 1207 6.7 360 16:37 12.01.2020
4432 Snow -7 1010 79 3219 9.8 20 16:19 12.01.2020
4433 Snow -7 1009 85 8047 9.3 20 15:43 12.01.2020
4434 Clouds -7 1008 85 2012 12.3 30 15:24 12.01.2020
4435 Snow -7 1008 85 2816 12.9 30 14:57 12.01.2020
4436 Snow -7 1008 85 2816 12.9 30 14:38 12.01.2020
4437 Snow -6 1008 85 4023 12.3 30 14:20 12.01.2020
4438 Snow -6 1008 92 4828 13.9 30 13:54 12.01.2020
4439 Snow -6 1008 92 2816 11.8 20 13:36 12.01.2020
4440 Snow -6 1007 92 3621 13.4 20 13:18 12.01.2020
4441 Clouds -5 1007 85 4023 8.7 30 12:42 12.01.2020
4442 Snow -5 1007 92 2414 10.8 30 12:20 12.01.2020
4443 Mist -5 1008 92 8047 12.3 30 11:59 12.01.2020
4444 Mist -5 1008 92 8047 12.3 30 11:39 12.01.2020
4445 Snow -5 1008 85 2816 9.8 30 11:21 12.01.2020
4446 Snow -5 1009 85 2816 10.8 30 10:42 12.01.2020
4447 Snow -5 1010 85 2816 11.8 30 10:22 12.01.2020
4448 Mist -5 1012 92 4023 10.8 30 09:59 12.01.2020
4449 Mist -5 1012 92 4023 10.8 30 09:41 12.01.2020
4450 Snow -5 1013 92 1609 10.3 30 09:20 12.01.2020
4451 Snow -5 1013 85 2414 8.7 20 08:45 12.01.2020
4452 Snow -5 1013 85 2414 8.7 20 08:21 12.01.2020
4453 Snow -4 1014 92 3219 10.8 30 07:44 12.01.2020
4454 Snow -4 1014 92 2816 8.2 20 07:25 12.01.2020
4455 Snow -4 1014 92 3219 10.8 20 06:50 12.01.2020
4456 Snow -3 1015 92 2816 9.8 20 06:32 12.01.2020
4457 Snow -2 1015 92 2816 10.3 30 05:47 12.01.2020
4458 Snow -1 1016 92 4023 9.3 30 04:52 12.01.2020
4459 Mist 0 1015 92 9656 8.7 30 03:29 12.01.2020
4460 Rain 1 1015 92 11265 10.3 30 02:34 12.01.2020
4461 Rain 1 1015 92 11265 10.3 30 02:34 12.01.2020
4462 Rain 1 1015 93 4828 8.7 40 01:58 12.01.2020
4463 Mist 2 1014 100 9656 8.2 30 01:30 12.01.2020
4464 Rain 2 1013 93 4828 6.2 40 00:45 12.01.2020
4465 Rain 2 1014 93 12874 6.7 50 00:22 12.01.2020
4466 Rain 2 1014 93 9656 6.2 40 23:56 11.01.2020
4467 Rain 2 1014 93 9656 6.2 40 23:37 11.01.2020
4468 Rain 3 1013 100 9656 6.7 30 23:18 11.01.2020
4469 Rain 3 1013 93 6437 7.2 30 22:56 11.01.2020
4470 Rain 3 1013 93 6437 7.2 30 22:37 11.01.2020
4471 Rain 4 1012 93 6437 8.2 20 22:18 11.01.2020
4472 Rain 4 1011 93 3219 4.6 360 21:43 11.01.2020
4473 Rain 4 1011 100 402 1 0 21:19 11.01.2020
4474 Rain 4 1010 93 1207 1.5 10 20:56 11.01.2020
4475 Rain 4 1010 93 1207 1.5 10 20:37 11.01.2020
4476 Rain 4 1009 100 2414 4.6 340 20:19 11.01.2020
4477 Rain 5 1009 93 201 2.6 0 19:55 11.01.2020
4478 Rain 5 1009 93 201 2.6 0 19:37 11.01.2020
4479 Rain 6 1009 93 4828 5.7 190 19:19 11.01.2020
4480 Rain 6 1009 93 4828 5.7 190 19:19 11.01.2020
4481 Rain 6 1008 100 3219 4.1 150 18:55 11.01.2020
4482 Rain 6 1008 100 3219 4.1 150 18:36 11.01.2020
4483 Rain 6 1009 100 4828 5.7 180 18:18 11.01.2020
4484 Rain 6 1009 100 4828 5.7 180 18:18 11.01.2020
4485 Rain 5 1009 93 4023 6.7 180 17:55 11.01.2020
4486 Rain 5 1009 93 4023 6.7 180 17:36 11.01.2020
4487 Rain 5 1010 93 6437 5.7 190 17:18 11.01.2020
4488 Rain 5 1011 93 8047 6.7 190 16:43 11.01.2020
4489 Rain 5 1011 93 9656 6.7 190 16:24 11.01.2020
4490 Rain 4 1012 93 6437 7.7 180 15:56 11.01.2020
4491 Rain 4 1012 93 6437 7.7 180 15:37 11.01.2020
4492 Rain 4 1012 93 6437 7.7 180 15:19 11.01.2020
4493 Rain 4 1012 93 14484 7.2 180 14:44 11.01.2020
4494 Rain 4 1013 100 12874 7.7 180 14:24 11.01.2020
4495 Rain 3 1014 93 4828 6.2 180 13:56 11.01.2020
4496 Rain 3 1014 93 4828 6.2 180 13:37 11.01.2020
4497 Rain 3 1015 100 6437 5.7 180 13:19 11.01.2020
4498 Rain 3 1017 93 8047 5.7 170 12:44 11.01.2020
4499 Rain 2 1017 93 8047 5.7 170 12:26 11.01.2020
4500 Rain 3 1018 100 8047 5.1 170 11:56 11.01.2020
4501 Rain 2 1018 100 8047 5.1 170 11:37 11.01.2020
4502 Mist 2 1019 100 8047 4.6 170 11:18 11.01.2020
4503 Rain 2 1020 100 4828 2.1 150 10:44 11.01.2020
4504 Rain 2 1021 100 3219 2.1 150 10:24 11.01.2020
4505 Rain 2 1022 93 2816 1.5 150 09:42 11.01.2020
4506 Mist 2 1023 93 4023 1.5 150 09:21 11.01.2020
4507 Mist 2 1023 93 3219 2.6 150 08:43 11.01.2020
4508 Mist 2 1023 100 2414 3.1 160 08:23 11.01.2020
4509 Rain 2 1024 93 8047 3.1 170 07:45 11.01.2020
4510 Clouds 2 1024 93 14484 2.6 170 07:27 11.01.2020
4511 Clouds 2 1025 99 14484 3.1 160 06:57 11.01.2020
4512 Clouds 2 1025 99 14484 3.1 160 06:37 11.01.2020
4513 Clouds 2 1025 99 14484 1 170 05:22 11.01.2020
4514 Rain 2 1025 99 14484 2.1 210 04:38 11.01.2020
4515 Clouds 2 1025 99 14484 3.1 180 04:20 11.01.2020
4516 Clouds 2 1024 99 14484 3.6 180 02:46 11.01.2020
4517 Clouds 2 1024 98 14484 4.6 180 01:45 11.01.2020
4518 Clouds 1 1024 99 14484 4.6 180 01:22 11.01.2020
4519 Clouds 2 1024 99 24140 1.5 160 00:51 11.01.2020
4520 Clouds 1 1024 99 14484 4.6 180 00:21 11.01.2020
4521 Clouds 2 1023 80 14484 4.6 190 23:56 10.01.2020
4522 Clouds 2 1023 80 14484 4.6 190 23:38 10.01.2020
4523 Clouds 2 1023 80 14484 4.6 190 23:20 10.01.2020
4524 Clouds 1 1023 80 14484 4.1 180 22:41 10.01.2020
4525 Clouds 2 1023 80 14484 4.1 180 22:22 10.01.2020
4526 Clouds 1 1023 74 14484 4.6 180 21:58 10.01.2020
4527 Clouds 1 1023 74 14484 4.6 180 21:40 10.01.2020
4528 Clouds 1 1023 74 14484 4.6 180 21:40 10.01.2020
4529 Clouds 1 1023 74 14484 4.6 180 21:20 10.01.2020
4530 Clouds 1 1023 74 14484 4.6 180 21:20 10.01.2020
4531 Clouds 1 1022 80 14484 5.7 180 20:57 10.01.2020
4532 Clouds 1 1022 80 14484 5.7 180 20:38 10.01.2020
4533 Clouds 1 1022 80 14484 5.7 180 20:19 10.01.2020
4534 Clouds 1 1022 74 14484 5.1 180 19:40 10.01.2020
4535 Clouds 0 1022 74 14484 6.2 180 19:21 10.01.2020
4536 Clouds 0 1023 96 14484 5.7 180 18:55 10.01.2020
4537 Clouds 0 1023 96 14484 5.7 180 18:37 10.01.2020
4538 Clouds 0 1023 96 14484 5.7 180 18:18 10.01.2020
4539 Clouds 0 1023 96 14484 6.2 180 17:56 10.01.2020
4540 Clouds 0 1023 96 14484 6.2 180 17:56 10.01.2020
4541 Clouds 0 1023 96 14484 6.2 180 17:37 10.01.2020
4542 Clouds -3 1023 87 14484 6.2 180 17:19 10.01.2020
4543 Clouds -3 1023 87 14484 6.2 180 17:19 10.01.2020
4544 Clouds -3 1024 87 14484 7.2 180 16:42 10.01.2020
4545 Clouds -4 1024 87 14484 7.2 180 16:21 10.01.2020
4546 Clouds -4 1024 87 14484 7.2 180 16:21 10.01.2020
4547 Clouds -4 1024 87 14484 6.7 190 15:57 10.01.2020
4548 Clouds -1 1024 87 14484 6.7 190 15:38 10.01.2020
4549 Clouds -3 1024 87 14484 6.7 190 15:20 10.01.2020
4550 Clouds -4 1023 68 14484 7.2 180 14:59 10.01.2020
4551 Clouds -4 1023 68 14484 7.2 180 14:40 10.01.2020
4552 Clouds -6 1023 68 14484 7.2 180 14:19 10.01.2020
4553 Snow -6 1023 63 14484 7.2 190 13:57 10.01.2020
4554 Snow -6 1023 63 14484 7.2 190 13:38 10.01.2020
4555 Snow -6 1023 63 14484 7.7 190 13:19 10.01.2020
4556 Snow -6 1023 58 14484 8.7 180 12:56 10.01.2020
4557 Snow -6 1023 58 14484 8.7 180 12:38 10.01.2020
4558 Snow -6 1023 58 14484 8.7 180 12:18 10.01.2020
4559 Snow -6 1024 58 14484 6.7 180 11:42 10.01.2020
4560 Clouds -7 1024 68 14484 4.1 0 11:22 10.01.2020
4561 Clouds -7 1024 68 14484 4.1 0 11:22 10.01.2020
4562 Snow -7 1025 72 24140 3.1 360 10:59 10.01.2020
4563 Snow -7 1025 72 24140 3.1 360 10:38 10.01.2020
4564 Clouds -7 1025 58 14484 7.2 190 10:20 10.01.2020
4565 Clouds -8 1025 58 14484 7.2 180 09:55 10.01.2020
4566 Clouds -8 1025 58 14484 7.2 180 09:36 10.01.2020
4567 Clouds -8 1025 58 14484 7.2 180 09:18 10.01.2020
4568 Clouds -8 1026 58 14484 8.2 180 08:40 10.01.2020
4569 Clouds -9 1027 67 14484 2.6 100 08:21 10.01.2020
4570 Clouds -9 1027 72 14484 3.1 30 07:44 10.01.2020
4571 Clouds -9 1027 72 14484 3.1 30 07:23 10.01.2020
4572 Clouds -9 1029 61 14484 2.6 40 06:45 10.01.2020
4573 Clouds -9 1029 61 14484 2.6 40 06:25 10.01.2020
4574 Clouds -9 1031 61 14484 3.6 90 05:44 10.01.2020
4575 Clouds -11 1037 61 14484 3.6 70 03:35 10.01.2020
4576 Clouds -11 1038 60 14484 2.6 70 02:58 10.01.2020
4577 Clouds -11 1038 60 14484 2.6 70 02:37 10.01.2020
4578 Clouds -11 1038 60 14484 2.1 100 01:38 10.01.2020
4579 Clouds -12 1040 60 14484 3.1 100 00:58 10.01.2020
4580 Clouds -12 1040 60 14484 3.1 100 00:38 10.01.2020
4581 Clouds -12 1040 60 14484 2.6 120 23:57 09.01.2020
4582 Clouds -12 1040 60 14484 2.6 120 23:38 09.01.2020
4583 Clouds -12 1040 60 14484 2.6 120 23:20 09.01.2020
4584 Clouds -12 1040 55 14484 3.6 140 22:57 09.01.2020
4585 Clouds -12 1040 55 14484 3.6 140 22:37 09.01.2020
4586 Clouds -12 1040 55 14484 3.6 140 22:19 09.01.2020
4587 Clouds -12 1040 55 14484 3.6 140 22:19 09.01.2020
4588 Clouds -12 1040 55 14484 3.1 140 21:56 09.01.2020
4589 Clouds -12 1040 55 14484 3.1 140 21:37 09.01.2020
4590 Clouds -12 1040 55 14484 3.1 140 21:37 09.01.2020
4591 Clouds -12 1040 55 14484 3.1 140 21:18 09.01.2020
4592 Clear -12 1041 60 14484 3.6 230 20:56 09.01.2020
4593 Clear -11 1041 60 14484 3.6 230 20:38 09.01.2020
4594 Clear -11 1041 60 14484 3.6 230 20:19 09.01.2020
4595 Clear -11 1041 60 14484 3.6 230 20:19 09.01.2020
4596 Clear -11 1041 60 14484 3.6 230 20:19 09.01.2020
4597 Clear -12 1041 55 14484 3.6 220 19:56 09.01.2020
4598 Clear -12 1041 55 14484 3.6 220 19:37 09.01.2020
4599 Clear -12 1041 55 14484 3.6 220 19:18 09.01.2020
4600 Clear -12 1041 55 14484 3.1 260 18:54 09.01.2020
4601 Clear -12 1041 55 14484 3.1 260 18:36 09.01.2020
4602 Clear -12 1041 55 14484 3.1 260 18:18 09.01.2020
4603 Clear -13 1041 50 14484 1.81 227 17:41 09.01.2020
4604 Clear -13 1041 50 14484 1.44 246 17:18 09.01.2020
4605 Clear -14 1042 55 14484 1.5 340 16:48 09.01.2020
4606 Clear -14 1042 55 14484 1.5 340 16:23 09.01.2020
4607 Clear -14 1041 60 14484 4.1 280 15:57 09.01.2020
4608 Clear -14 1041 60 14484 4.1 280 15:39 09.01.2020
4609 Clear -15 1041 60 14484 4.1 280 15:18 09.01.2020
4610 Clear -16 1040 65 14484 4.1 290 14:42 09.01.2020
4611 Clear -16 1040 65 14484 4.1 290 14:21 09.01.2020
4612 Clear -16 1039 60 14484 5.7 280 13:57 09.01.2020
4613 Clear -16 1039 60 14484 5.7 280 13:39 09.01.2020
4614 Clear -16 1039 60 14484 5.7 280 13:39 09.01.2020
4615 Clear -16 1039 60 14484 5.7 280 13:20 09.01.2020
4616 Clear -16 1037 65 14484 6.7 280 12:58 09.01.2020
4617 Clear -15 1037 65 14484 6.7 280 12:38 09.01.2020
4618 Clear -15 1037 65 14484 6.7 280 12:19 09.01.2020
4619 Clear -15 1036 60 14484 5.1 270 11:56 09.01.2020
4620 Clear -15 1036 60 14484 5.1 270 11:37 09.01.2020
4621 Clear -15 1036 60 14484 5.1 270 11:19 09.01.2020
4622 Clear -14 1034 60 14484 7.2 270 10:43 09.01.2020
4623 Clear -14 1034 60 14484 7.2 270 10:22 09.01.2020
4624 Clear -14 1032 60 14484 9.8 270 09:56 09.01.2020
4625 Clear -14 1032 60 14484 9.8 270 09:38 09.01.2020
4626 Clear -14 1032 60 14484 9.8 270 09:18 09.01.2020
4627 Clear -13 1030 60 14484 8.2 270 08:55 09.01.2020
4628 Clear -13 1030 60 14484 8.2 270 08:37 09.01.2020
4629 Clear -13 1030 60 14484 8.2 270 08:19 09.01.2020
4630 Clouds -12 1028 61 14484 8.7 270 07:42 09.01.2020
4631 Clouds -12 1028 61 14484 8.7 270 07:23 09.01.2020
4632 Clouds -11 1026 66 14484 5.7 260 06:38 09.01.2020
4633 Clouds -11 1026 66 14484 5.7 260 06:19 09.01.2020
4634 Clouds -10 1026 66 24140 8.7 250 05:44 09.01.2020
4635 Clouds -10 1023 61 14484 6.7 280 04:42 09.01.2020
4636 Clouds -10 1022 61 24140 6.2 270 03:30 09.01.2020
4637 Clouds -8 1021 66 24140 8.7 280 02:52 09.01.2020
4638 Snow -8 1019 62 9656 8.2 280 02:24 09.01.2020
4639 Clouds -7 1017 67 14484 7.2 280 01:38 09.01.2020
4640 Clear -5 1016 67 14484 8.7 280 00:42 09.01.2020
4641 Clear -5 1016 67 14484 8.7 280 00:42 09.01.2020
4642 Snow -5 1014 68 14484 9.8 280 00:21 09.01.2020
4643 Snow -4 1014 68 24140 9.3 260 23:42 08.01.2020
4644 Snow -4 1014 68 24140 9.3 260 23:42 08.01.2020
4645 Snow -3 1014 68 24140 9.3 260 23:24 08.01.2020
4646 Clouds -3 1013 68 24140 9.3 270 22:59 08.01.2020
4647 Snow -3 1013 68 24140 9.3 270 22:39 08.01.2020
4648 Clouds -2 1011 63 14484 8.7 270 22:20 08.01.2020
4649 Snow -2 1010 63 32767 5.1 260 21:57 08.01.2020
4650 Clouds -1 1009 82 14484 7.7 270 21:38 08.01.2020
4651 Clouds -1 1009 82 14484 7.7 270 21:19 08.01.2020
4652 Clouds 0 1008 82 14484 8.7 270 20:57 08.01.2020
4653 Snow 0 1008 82 14484 6.2 260 20:38 08.01.2020
4654 Snow 0 1008 87 14484 6.2 260 20:20 08.01.2020
4655 Clouds 0 1007 80 14484 7.7 250 19:56 08.01.2020
4656 Clouds 0 1007 80 14484 7.7 250 19:56 08.01.2020
4657 Clouds 0 1006 80 14484 4.1 260 19:36 08.01.2020
4658 Clouds 0 1006 80 14484 4.1 260 19:36 08.01.2020
4659 Clouds 0 1006 80 14484 4.1 260 19:18 08.01.2020
4660 Clouds 0 1006 80 14484 4.6 290 18:55 08.01.2020
4661 Clouds 0 1006 80 14484 4.6 290 18:55 08.01.2020
4662 Clouds 0 1006 80 14484 4.6 290 18:55 08.01.2020
4663 Clouds 0 1006 80 14484 4.6 290 18:36 08.01.2020
4664 Clouds 0 1006 80 14484 4.6 290 18:18 08.01.2020
4665 Snow -1 1007 86 19312 5.1 280 17:45 08.01.2020
4666 Snow -1 1007 86 19312 5.1 280 17:24 08.01.2020
4667 Snow -2 1007 86 12874 3.6 290 16:57 08.01.2020
4668 Snow -2 1007 92 11265 4.1 290 16:39 08.01.2020
4669 Snow -2 1007 92 11265 4.1 290 16:19 08.01.2020
4670 Snow -2 1007 92 11265 4.1 290 16:19 08.01.2020
4671 Clouds -2 1006 92 12874 4.1 230 15:58 08.01.2020
4672 Snow -2 1006 92 4828 3.1 200 15:39 08.01.2020
4673 Snow -2 1006 92 4828 3.1 200 15:19 08.01.2020
4674 Snow -2 1006 92 1207 3.1 190 14:55 08.01.2020
4675 Snow -2 1006 100 805 3.6 180 14:37 08.01.2020
4676 Snow -3 1006 100 805 3.6 180 14:19 08.01.2020
4677 Snow -3 1006 92 4023 3.6 160 13:39 08.01.2020
4678 Snow -3 1006 92 4023 3.6 160 13:18 08.01.2020
4679 Snow -3 1006 92 12874 3.1 150 12:41 08.01.2020
4680 Snow -3 1006 92 12874 3.1 150 12:18 08.01.2020
4681 Clouds -3 1006 92 14484 3.1 150 11:55 08.01.2020
4682 Snow -3 1006 92 24140 1 0 11:37 08.01.2020
4683 Snow -4 1006 92 24140 1 0 11:18 08.01.2020
4684 Snow -3 1007 92 14484 3.6 150 10:42 08.01.2020
4685 Snow -3 1007 92 14484 3.6 150 10:22 08.01.2020
4686 Snow -3 1008 100 14484 2.6 160 09:59 08.01.2020
4687 Snow -3 1008 100 14484 2.6 160 09:41 08.01.2020
4688 Snow -3 1008 100 14484 2.6 160 09:19 08.01.2020
4689 Snow -3 1008 92 9656 1.5 160 08:55 08.01.2020
4690 Snow -3 1008 92 3219 1.5 130 08:36 08.01.2020
4691 Snow -3 1008 92 3219 1.5 130 08:18 08.01.2020
4692 Snow -3 1008 92 3219 1.5 130 08:18 08.01.2020
4693 Snow -3 1008 92 12874 1.5 140 07:47 08.01.2020
4694 Snow -3 1009 86 2816 2.1 200 07:29 08.01.2020
4695 Snow -3 1009 79 14484 1.63 184 06:44 08.01.2020
4696 Snow -3 1010 79 24140 1 120 05:59 08.01.2020
4697 Clouds -3 1011 73 14484 1.5 140 05:38 08.01.2020
4698 Clouds -4 1011 73 14484 1.5 140 04:54 08.01.2020
4699 Clouds -4 1012 73 14484 1 0 03:33 08.01.2020
4700 Clouds -4 1013 73 14484 1.5 150 02:44 08.01.2020
4701 Clouds -4 1013 73 14484 1.5 150 02:19 08.01.2020
4702 Clouds -4 1013 73 14484 1.5 110 01:42 08.01.2020
4703 Clouds -4 1014 73 14484 1.5 110 00:59 08.01.2020
4704 Clouds -4 1014 73 14484 1.5 110 00:27 08.01.2020
4705 Clouds -4 1014 68 14484 1.5 150 23:47 07.01.2020
4706 Clouds -4 1014 68 14484 1.5 150 23:22 07.01.2020
4707 Clouds -4 1014 63 14484 2.1 160 22:58 07.01.2020
4708 Clouds -3 1014 63 14484 2.1 160 22:39 07.01.2020
4709 Clouds -3 1014 63 14484 2.1 160 22:20 07.01.2020
4710 Clouds -3 1014 63 14484 2.1 170 21:55 07.01.2020
4711 Clouds -3 1014 63 14484 2.1 170 21:37 07.01.2020
4712 Clouds -3 1014 63 14484 2.1 170 21:19 07.01.2020
4713 Clouds -3 1014 63 14484 2.1 170 21:19 07.01.2020
4714 Clouds -3 1015 58 14484 5.1 220 20:55 07.01.2020
4715 Clouds -3 1015 58 14484 5.1 220 20:36 07.01.2020
4716 Clouds -2 1015 58 14484 5.1 220 20:18 07.01.2020
4717 Clear -2 1015 53 14484 5.1 210 19:38 07.01.2020
4718 Clear -3 1015 53 14484 5.1 210 19:19 07.01.2020
4719 Clear -3 1015 53 14484 3.6 220 18:58 07.01.2020
4720 Clear -3 1015 53 14484 3.6 220 18:40 07.01.2020
4721 Clear -3 1015 53 14484 3.6 220 18:18 07.01.2020
4722 Clouds -4 1015 58 14484 3.1 240 17:58 07.01.2020
4723 Clouds -4 1015 58 14484 3.1 240 17:39 07.01.2020
4724 Clouds -4 1015 58 14484 3.1 240 17:20 07.01.2020
4725 Clear -5 1016 62 14484 4.1 240 16:56 07.01.2020
4726 Clear -5 1016 62 14484 4.1 240 16:37 07.01.2020
4727 Clear -5 1016 62 14484 4.1 240 16:19 07.01.2020
4728 Clear -6 1016 73 14484 2.1 160 15:57 07.01.2020
4729 Clear -6 1016 73 14484 2.1 160 15:37 07.01.2020
4730 Clear -6 1016 73 14484 2.1 160 15:18 07.01.2020
4731 Clouds -7 1016 78 14484 2.1 260 14:42 07.01.2020
4732 Clouds -7 1016 78 14484 2.1 260 14:24 07.01.2020
4733 Clear -7 1015 73 14484 4.1 260 13:57 07.01.2020
4734 Clear -7 1015 73 14484 4.1 260 13:39 07.01.2020
4735 Clear -7 1015 73 14484 4.1 260 13:18 07.01.2020
4736 Clouds -7 1014 79 14484 3.6 250 12:41 07.01.2020
4737 Clouds -7 1014 79 14484 3.6 250 12:19 07.01.2020
4738 Clouds -6 1013 67 14484 5.1 260 11:55 07.01.2020
4739 Clouds -6 1013 67 14484 5.1 260 11:36 07.01.2020
4740 Clouds -6 1013 67 14484 5.1 260 11:18 07.01.2020
4741 Clear -6 1012 73 14484 7.7 260 10:41 07.01.2020
4742 Clear -6 1012 73 14484 7.7 260 10:23 07.01.2020
4743 Clouds -6 1012 79 14484 6.7 250 09:57 07.01.2020
4744 -273 0 0 0 0 0 09:38 07.01.2020
4745 Clouds -6 1012 79 14484 6.7 250 09:20 07.01.2020
4746 Clouds -6 1011 85 14484 6.2 270 08:42 07.01.2020
4747 Clouds -6 1011 85 14484 6.2 270 08:23 07.01.2020
4748 Snow -6 1011 92 9656 5.1 270 07:54 07.01.2020
4749 Snow -6 1010 92 3219 2.1 271 07:28 07.01.2020
4750 Snow -6 1010 92 3219 2.1 271 07:28 07.01.2020
4751 Snow -6 1010 85 16093 2.6 290 06:53 07.01.2020
4752 Snow -6 1009 92 1609 4.6 290 06:34 07.01.2020
4753 Snow -7 1009 92 4828 2.1 110 05:54 07.01.2020
4754 Snow -8 1009 92 12874 1 0 04:39 07.01.2020
4755 Snow -9 1009 85 24140 1.5 40 03:26 07.01.2020
4756 Mist -9 1010 85 8047 1.13 306 02:22 07.01.2020
4757 Clouds -9 1010 85 14484 1.5 250 01:52 07.01.2020
4758 Clouds -9 1010 85 14484 1.5 250 01:30 07.01.2020
4759 Clouds -9 1010 85 24140 2.1 270 00:37 07.01.2020
4760 Clouds -8 1010 85 24140 2.1 270 00:18 07.01.2020
4761 Clouds -8 1009 85 14484 1 330 23:39 06.01.2020
4762 Clouds -8 1009 85 14484 1 330 23:21 06.01.2020
4763 Snow -8 1008 85 9656 3.6 330 22:58 06.01.2020
4764 Snow -8 1008 85 8047 3.6 330 22:39 06.01.2020
4765 Snow -8 1008 85 8047 3.6 330 22:21 06.01.2020
4766 Snow -7 1008 85 8047 3.6 330 21:56 06.01.2020
4767 Snow -7 1008 85 9656 3.6 330 21:38 06.01.2020
4768 Snow -7 1008 85 9656 3.6 330 21:19 06.01.2020
4769 Snow -7 1007 92 2816 4.6 10 20:56 06.01.2020
4770 Snow -7 1007 92 4828 4.6 20 20:37 06.01.2020
4771 Snow -7 1007 92 4828 4.6 20 20:19 06.01.2020
4772 Snow -7 1007 85 2816 5.7 30 19:55 06.01.2020
4773 Snow -7 1007 85 3219 5.7 40 19:37 06.01.2020
4774 Snow -7 1007 85 3219 5.7 40 19:18 06.01.2020
4775 Snow -7 1008 85 4828 5.1 40 18:45 06.01.2020
4776 Snow -8 1008 85 3219 5.7 40 18:21 06.01.2020
4777 Snow -8 1010 78 2816 4.6 30 17:40 06.01.2020
4778 Snow -8 1010 78 2816 4.6 30 17:20 06.01.2020
4779 Snow -8 1010 78 2816 4.6 30 17:20 06.01.2020
4780 Snow -9 1010 78 8047 4.6 30 16:59 06.01.2020
4781 Snow -9 1011 78 14484 4.6 30 16:41 06.01.2020
4782 Snow -9 1011 78 14484 4.6 30 16:23 06.01.2020
4783 Snow -9 1012 85 9656 3.6 40 15:59 06.01.2020
4784 Snow -10 1012 85 4828 3.6 40 15:37 06.01.2020
4785 Snow -10 1012 85 4828 3.6 40 15:37 06.01.2020
4786 Snow -10 1012 78 8047 4.1 30 15:18 06.01.2020
4787 Snow -10 1012 85 4828 3.6 40 15:18 06.01.2020
4788 Clouds -10 1012 78 14484 4.1 30 14:42 06.01.2020
4789 Clouds -10 1012 78 14484 4.1 30 14:23 06.01.2020
4790 Clouds -10 1012 78 14484 4.1 30 14:23 06.01.2020
4791 Snow -11 1012 78 19312 5.1 30 13:59 06.01.2020
4792 Clouds -10 1012 78 14484 4.6 30 13:39 06.01.2020
4793 Clouds -11 1012 78 14484 4.6 30 13:21 06.01.2020
4794 Clouds -11 1012 85 14484 3.1 30 12:58 06.01.2020
4795 Clouds -11 1012 85 14484 3.1 30 12:39 06.01.2020
4796 Clouds -11 1012 85 14484 3.1 30 12:20 06.01.2020
4797 Clouds -11 1013 84 14484 2.1 20 11:55 06.01.2020
4798 Clouds -11 1013 84 14484 2.1 20 11:37 06.01.2020
4799 Clouds -11 1013 84 14484 2.1 20 11:18 06.01.2020
4800 Clouds -11 1013 84 14484 3.1 20 10:42 06.01.2020
4801 Clouds -12 1013 84 14484 3.1 20 10:21 06.01.2020
4802 Clear -12 1013 84 14484 2.6 40 09:42 06.01.2020
4803 Clear -12 1013 84 14484 2.6 40 09:24 06.01.2020
4804 Clouds -12 1013 84 14484 1 20 08:58 06.01.2020
4805 Clouds -12 1013 84 14484 1 20 08:39 06.01.2020
4806 Clouds -12 1013 84 14484 1 20 08:21 06.01.2020
4807 Clouds -12 1014 84 12874 1.5 30 07:45 06.01.2020
4808 Clouds -12 1014 84 12874 1.5 30 07:21 06.01.2020
4809 Clear -11 1014 78 14484 0.75 264 06:38 06.01.2020
4810 Clear -11 1014 78 14484 2.1 60 05:49 06.01.2020
4811 Clear -12 1014 78 14484 2.1 60 05:28 06.01.2020
4812 Clear -10 1014 66 14484 1.5 340 04:24 06.01.2020
4813 Clouds -10 1014 66 14484 2.6 300 03:51 06.01.2020
4814 Clouds -9 1014 67 14484 4.1 290 02:29 06.01.2020
4815 Clouds -8 1014 67 14484 2.6 290 01:54 06.01.2020
4816 Clouds -8 1014 66 24140 1.5 250 01:31 06.01.2020
4817 Clear -8 1013 61 14484 3.6 290 00:48 06.01.2020
4818 Clear -8 1013 61 14484 3.6 290 00:29 06.01.2020
4819 Clouds -8 1013 57 14484 5.7 290 23:59 05.01.2020
4820 Clouds -7 1013 57 14484 5.7 290 23:40 05.01.2020
4821 Clouds -7 1013 57 14484 5.7 290 23:21 05.01.2020
4822 Clouds -7 1013 57 14484 5.1 310 22:40 05.01.2020
4823 Clouds -7 1013 57 14484 5.1 310 22:40 05.01.2020
4824 Clouds -7 1013 57 14484 5.1 310 22:21 05.01.2020
4825 Clouds -6 1012 62 14484 6.7 290 21:59 05.01.2020
4826 Clouds -6 1012 62 14484 6.7 290 21:40 05.01.2020
4827 Clouds -6 1012 62 14484 6.7 290 21:20 05.01.2020
4828 Snow -6 1011 62 14484 5.1 270 20:58 05.01.2020
4829 Clouds -5 1011 57 14484 6.7 270 20:39 05.01.2020
4830 Clouds -5 1011 57 14484 6.7 270 20:19 05.01.2020
4831 Clouds -5 1010 62 14484 5.7 300 19:59 05.01.2020
4832 Clouds -5 1010 62 14484 5.7 300 19:39 05.01.2020
4833 Clouds -5 1010 62 14484 5.7 300 19:21 05.01.2020
4834 Clouds -5 1010 58 14484 6.2 290 18:56 05.01.2020
4835 Clouds -4 1010 58 14484 6.2 290 18:38 05.01.2020
4836 Clouds -4 1010 58 14484 6.2 290 18:19 05.01.2020
4837 Clouds -4 1010 62 14484 6.7 290 17:59 05.01.2020
4838 Clouds -4 1010 62 14484 6.7 290 17:39 05.01.2020
4839 Clouds -4 1010 62 14484 6.7 290 17:20 05.01.2020
4840 Clouds -4 1010 62 14484 6.2 310 16:57 05.01.2020
4841 Clouds -4 1010 62 14484 6.2 310 16:39 05.01.2020
4842 Clouds -5 1010 62 14484 6.2 310 16:20 05.01.2020
4843 Clouds -5 1009 62 14484 6.2 290 15:40 05.01.2020
4844 Clouds -5 1009 62 14484 6.2 290 15:22 05.01.2020
4845 Clouds -5 1008 68 14484 5.7 300 14:57 05.01.2020
4846 Snow -5 1008 73 14484 3.1 310 14:39 05.01.2020
4847 Snow -4 1008 73 14484 3.1 310 14:20 05.01.2020
4848 Clouds -4 1008 73 14484 3.6 310 13:57 05.01.2020
4849 Snow -4 1007 68 14484 3.6 310 13:38 05.01.2020
4850 Snow -4 1007 68 14484 3.6 310 13:20 05.01.2020
4851 Snow -4 1007 68 14484 3.6 310 13:20 05.01.2020
4852 Clouds -4 1006 68 14484 6.7 310 12:56 05.01.2020
4853 Clouds -3 1006 68 14484 6.7 310 12:37 05.01.2020
4854 Clouds -3 1006 68 14484 6.7 310 12:19 05.01.2020
4855 Clouds -3 1006 68 14484 6.7 310 12:19 05.01.2020
4856 Snow -3 1006 73 14484 4.6 320 11:54 05.01.2020
4857 Snow -3 1006 73 14484 4.6 320 11:36 05.01.2020
4858 Snow -3 1006 73 14484 4.6 320 11:18 05.01.2020
4859 Clouds -3 1005 74 14484 4.6 320 10:40 05.01.2020
4860 Clouds -3 1005 74 14484 4.6 320 10:20 05.01.2020
4861 Clouds -2 1005 74 24140 3.6 310 09:55 05.01.2020
4862 Clouds -2 1005 74 14484 4.6 330 09:36 05.01.2020
4863 Clouds -2 1005 74 14484 4.6 330 09:18 05.01.2020
4864 Clouds -2 1004 79 14484 4.1 320 08:44 05.01.2020
4865 Clouds -2 1004 79 14484 4.1 320 08:21 05.01.2020
4866 Snow -2 1004 79 14484 2.6 320 07:44 05.01.2020
4867 Snow -2 1004 79 14484 2.6 320 07:44 05.01.2020
4868 Snow -2 1004 79 14484 3.1 340 07:26 05.01.2020
4869 Clouds -2 1004 86 14484 4.1 330 06:54 05.01.2020
4870 Clouds -2 1005 86 14484 2.6 350 05:41 05.01.2020
4871 Snow -2 1005 92 14484 3.1 360 04:56 05.01.2020
4872 Snow -2 1005 92 14484 3.6 360 04:19 05.01.2020
4873 Snow -2 1005 92 14484 3.6 360 04:19 05.01.2020
4874 Snow -2 1005 92 4828 3.1 360 03:38 05.01.2020
4875 Snow -2 1005 92 3621 2.6 360 02:35 05.01.2020
4876 Snow -2 1005 92 2816 3.1 360 01:52 05.01.2020
4877 Snow -2 1005 92 8047 3.1 10 01:20 05.01.2020
4878 Snow -1 1005 92 8047 3.6 360 00:58 05.01.2020
4879 Snow -2 1005 92 14484 3.1 350 00:39 05.01.2020
4880 Snow -1 1005 92 14484 3.1 350 00:20 05.01.2020
4881 Snow -1 1005 86 14484 4.1 20 23:57 04.01.2020
4882 Snow -1 1005 86 14484 4.1 20 23:38 04.01.2020
4883 Snow -1 1005 86 14484 4.1 20 23:18 04.01.2020
4884 Snow -1 1005 86 14484 4.1 20 22:39 04.01.2020
4885 Snow -1 1005 86 14484 4.1 20 22:20 04.01.2020
4886 Snow -1 1005 92 9656 5.7 20 21:56 04.01.2020
4887 Snow -1 1005 92 9656 5.7 20 21:37 04.01.2020
4888 Snow 0 1005 92 9656 5.7 20 21:19 04.01.2020
4889 Snow 0 1005 92 4828 5.7 20 20:56 04.01.2020
4890 Snow 0 1005 92 3219 5.1 40 20:37 04.01.2020
4891 Snow 0 1005 92 3219 5.1 40 20:18 04.01.2020
4892 Snow 0 1005 92 2414 5.1 30 19:41 04.01.2020
4893 Snow 0 1005 92 2414 5.1 30 19:41 04.01.2020
4894 Snow 0 1005 92 2414 5.1 30 19:23 04.01.2020
4895 Clouds 1 1005 90 14484 5.1 20 18:58 04.01.2020
4896 Clouds 1 1006 74 14484 4.6 20 18:39 04.01.2020
4897 Clouds 1 1006 74 14484 4.6 20 18:20 04.01.2020
4898 Snow 1 1006 74 16093 1.5 60 17:58 04.01.2020
4899 Clouds 1 1007 80 14484 3.1 40 17:40 04.01.2020
4900 Clouds 1 1007 80 14484 3.1 40 17:21 04.01.2020
4901 Clouds 1 1008 80 14484 2.6 20 16:42 04.01.2020
4902 Clouds 1 1008 80 14484 2.6 20 16:24 04.01.2020
4903 Clouds 1 1008 80 14484 2.6 20 16:24 04.01.2020
4904 Clouds 1 1008 92 14484 1 0 15:59 04.01.2020
4905 Clouds 1 1008 92 14484 1 0 15:41 04.01.2020
4906 Clouds 0 1008 92 14484 1 0 15:19 04.01.2020
4907 Clouds 0 1008 87 32767 1 0 14:58 04.01.2020
4908 Clouds 0 1008 87 32767 1 0 14:58 04.01.2020
4909 Clouds 0 1008 92 11265 1 20 14:40 04.01.2020
4910 Clouds 0 1008 92 11265 1 20 14:19 04.01.2020
4911 Clouds 0 1008 92 14484 1.7 8 13:56 04.01.2020
4912 Clouds -1 1008 92 14484 1.7 8 13:37 04.01.2020
4913 Clouds -1 1008 92 14484 1.7 8 13:37 04.01.2020
4914 Clouds -1 1008 92 14484 1.7 8 13:18 04.01.2020
4915 Mist -1 1008 92 9656 1.49 23 12:42 04.01.2020
4916 Mist 0 1008 92 9656 1.49 23 12:20 04.01.2020
4917 Clouds 0 1008 100 14484 1 270 11:59 04.01.2020
4918 Clouds 0 1008 100 14484 1 270 11:40 04.01.2020
4919 Clouds 0 1008 100 14484 1 270 11:40 04.01.2020
4920 Clouds 0 1008 100 14484 1 270 11:20 04.01.2020
4921 Clouds 0 1009 92 14484 1.5 230 10:58 04.01.2020
4922 Clouds 0 1009 92 14484 1.5 230 10:38 04.01.2020
4923 Clouds 0 1009 92 14484 1.5 230 10:19 04.01.2020
4924 Clouds 0 1009 91 14484 1.5 240 09:43 04.01.2020
4925 Clouds 1 1009 91 14484 1.5 240 09:25 04.01.2020
4926 Clouds 1 1008 80 14484 1 250 08:47 04.01.2020
4927 Clouds 1 1008 80 14484 1 250 08:28 04.01.2020
4928 Clouds 1 1008 80 14484 2.1 260 07:52 04.01.2020
4929 Clouds 1 1008 80 14484 2.1 260 07:52 04.01.2020
4930 Clouds 2 1008 80 14484 2.1 260 07:33 04.01.2020
4931 Clouds 2 1008 80 24140 2.6 300 06:43 04.01.2020
4932 Clouds 3 1008 93 14484 2.6 300 05:57 04.01.2020
4933 Clouds 3 1009 86 14484 3.1 250 04:50 04.01.2020
4934 Clouds 3 1009 86 14484 3.1 250 04:29 04.01.2020
4935 Clouds 3 1008 97 24140 3.1 240 03:28 04.01.2020
4936 Clouds 3 1008 86 14484 2.6 230 02:46 04.01.2020
4937 Clouds 3 1008 86 14484 2.6 230 02:18 04.01.2020
4938 Clouds 3 1007 86 14484 3.1 250 01:41 04.01.2020
4939 Clouds 3 1007 86 14484 3.1 250 01:23 04.01.2020
4940 Clouds 3 1006 93 14484 2.6 240 00:29 04.01.2020
4941 Clouds 3 1006 86 14484 2.1 210 23:57 03.01.2020
4942 Clouds 3 1006 86 14484 2.1 210 23:30 03.01.2020
4943 Clouds 3 1005 86 14484 1 200 22:59 03.01.2020
4944 Clouds 4 1005 86 14484 1 200 22:40 03.01.2020
4945 Clouds 4 1005 86 14484 1 200 22:19 03.01.2020
4946 Clouds 4 1005 80 14484 2.6 230 21:57 03.01.2020
4947 Clouds 4 1005 80 14484 2.6 230 21:38 03.01.2020
4948 Clouds 4 1005 80 14484 2.6 230 21:19 03.01.2020
4949 Clouds 4 1004 80 14484 2.6 220 20:55 03.01.2020
4950 Clouds 4 1004 80 14484 2.6 220 20:55 03.01.2020
4951 Clouds 4 1004 80 14484 2.6 220 20:36 03.01.2020
4952 Clouds 5 1004 80 14484 2.6 220 20:18 03.01.2020
4953 Clouds 5 1004 80 14484 5.1 240 19:54 03.01.2020
4954 Clouds 5 1004 80 14484 5.1 240 19:36 03.01.2020
4955 Clouds 5 1004 80 14484 5.1 240 19:18 03.01.2020
4956 Clouds 4 1005 80 14484 6.2 240 18:39 03.01.2020
4957 Clouds 4 1005 80 14484 6.2 240 18:39 03.01.2020
4958 Clouds 4 1005 80 14484 6.2 240 18:20 03.01.2020
4959 Clouds 4 1005 80 14484 2.6 230 17:54 03.01.2020
4960 Clouds 4 1005 80 14484 2.6 230 17:36 03.01.2020
4961 Clouds 4 1005 80 14484 2.6 230 17:18 03.01.2020
4962 Clouds 4 1005 100 14484 2.6 210 16:42 03.01.2020
4963 Clouds 4 1005 100 14484 2.6 210 16:22 03.01.2020
4964 Clouds 4 1005 100 14484 2.1 190 15:43 03.01.2020
4965 Clouds 3 1005 100 14484 2.1 190 15:19 03.01.2020
4966 Clouds 3 1005 100 14484 2.1 190 15:19 03.01.2020
4967 Clouds 3 1004 100 14484 2.6 170 14:56 03.01.2020
4968 Clouds 3 1004 100 14484 2.6 170 14:37 03.01.2020
4969 Clouds 3 1004 97 14484 2.6 170 14:19 03.01.2020
4970 Clouds 3 1004 97 14484 2.6 170 13:41 03.01.2020
4971 Clouds 3 1004 97 14484 2.6 170 13:23 03.01.2020
4972 Clouds 3 1004 74 14484 3.6 190 12:56 03.01.2020
4973 Clouds 3 1004 74 14484 3.6 190 12:38 03.01.2020
4974 Clouds 3 1004 74 14484 3.6 190 12:19 03.01.2020
4975 Clouds 3 1004 98 14484 3.1 210 11:42 03.01.2020
4976 Clouds 3 1004 98 14484 3.1 210 11:18 03.01.2020
4977 Rain 3 1004 74 14484 4.1 230 10:43 03.01.2020
4978 Rain 3 1004 98 24140 3.1 220 10:24 03.01.2020
4979 Rain 3 1004 80 32767 2.1 240 09:57 03.01.2020
4980 Clouds 3 1004 74 14484 3.6 180 09:38 03.01.2020
4981 Clouds 3 1004 74 14484 3.6 180 09:20 03.01.2020
4982 Clouds 3 1004 80 14484 3.1 180 08:56 03.01.2020
4983 Clouds 2 1004 80 14484 3.1 180 08:36 03.01.2020
4984 Clouds 2 1004 80 14484 3.1 180 08:18 03.01.2020
4985 Clouds 2 1003 80 14484 3.6 200 07:39 03.01.2020
4986 Clouds 2 1003 80 14484 3.6 200 07:18 03.01.2020
4987 Clouds 2 1003 80 14484 3.6 190 06:46 03.01.2020
4988 Clouds 2 1003 80 14484 3.6 190 06:28 03.01.2020
4989 Clouds 2 1003 80 14484 3.6 170 05:28 03.01.2020
4990 Clouds 2 1004 80 14484 4.6 170 04:18 03.01.2020
4991 Clouds 2 1004 80 14484 4.6 180 02:55 03.01.2020
4992 Clouds 2 1004 80 14484 4.6 180 02:26 03.01.2020
4993 Clouds 2 1004 80 14484 5.7 170 01:39 03.01.2020
4994 Clouds 2 1004 80 14484 5.7 170 00:49 03.01.2020
4995 Clouds 2 1004 80 14484 5.7 170 00:29 03.01.2020
4996 Clouds 2 1006 74 14484 4.1 200 23:55 02.01.2020
4997 Clouds 2 1006 74 14484 4.1 200 23:37 02.01.2020
4998 Clouds 2 1006 74 14484 4.1 200 23:18 02.01.2020
4999 Clouds 2 1005 74 14484 3.6 180 22:44 02.01.2020
5000 Clouds 2 1005 74 14484 3.6 180 22:21 02.01.2020
5001 Clouds 2 1005 74 14484 3.6 180 22:21 02.01.2020
5002 Clouds 2 1005 74 14484 5.1 180 21:57 02.01.2020
5003 Clouds 2 1005 74 14484 5.1 180 21:39 02.01.2020
5004 Clouds 2 1005 74 14484 5.1 180 21:21 02.01.2020
5005 Clouds 2 1005 80 14484 4.6 180 20:57 02.01.2020
5006 Clouds 2 1005 80 14484 4.6 180 20:39 02.01.2020
5007 Clouds 2 1005 80 14484 4.6 180 20:20 02.01.2020
5008 Clouds 2 1005 80 14484 5.7 180 19:55 02.01.2020
5009 Clouds 2 1005 80 14484 5.7 180 19:37 02.01.2020
5010 Clouds 2 1005 80 14484 5.7 180 19:37 02.01.2020
5011 Clouds 2 1005 80 14484 5.7 180 19:19 02.01.2020
5012 Clouds 2 1006 80 14484 4.6 180 18:56 02.01.2020
5013 Clouds 1 1006 80 14484 4.6 180 18:37 02.01.2020
5014 Clouds 1 1006 80 14484 4.6 180 18:19 02.01.2020
5015 Clouds 1 1007 100 14484 5.1 170 17:55 02.01.2020
5016 Clouds 1 1007 100 14484 5.1 170 17:36 02.01.2020
5017 Clouds 1 1007 100 14484 5.1 170 17:36 02.01.2020
5018 Clouds 0 1007 95 14484 5.1 170 17:18 02.01.2020
5019 Clouds 0 1007 95 14484 5.1 170 17:18 02.01.2020
5020 Clouds 0 1007 95 14484 4.6 180 16:54 02.01.2020
5021 Rain 0 1008 95 14484 4.1 180 16:36 02.01.2020
5022 Rain 0 1008 95 14484 4.1 180 16:18 02.01.2020
5023 Snow -1 1008 95 14484 3.6 170 15:42 02.01.2020
5024 Snow -1 1008 80 14484 1 190 15:24 02.01.2020
5025 Clouds -1 1008 74 14484 2.1 150 14:58 02.01.2020
5026 Clouds -1 1008 74 14484 2.1 150 14:37 02.01.2020
5027 Clouds -1 1008 74 14484 2.1 150 14:19 02.01.2020
5028 Clouds -1 1008 74 14484 2.1 160 13:58 02.01.2020
5029 Clouds -1 1008 79 14484 2.1 180 13:38 02.01.2020
5030 Clouds -2 1008 79 14484 2.1 180 12:59 02.01.2020
5031 Clouds -2 1008 79 14484 2.1 180 12:40 02.01.2020
5032 Clouds -2 1008 79 14484 2.1 180 12:20 02.01.2020
5033 Clouds -1 1007 74 14484 3.1 200 11:41 02.01.2020
5034 Clouds -1 1007 74 14484 3.1 200 11:21 02.01.2020
5035 Clouds -1 1007 80 24140 5.7 230 10:46 02.01.2020
5036 Clouds -1 1007 89 14484 5.1 240 10:27 02.01.2020
5037 Clouds -1 1007 89 14484 6.7 250 09:56 02.01.2020
5038 Clouds -1 1007 89 14484 6.7 250 09:35 02.01.2020
5039 Clouds -1 1006 89 14484 5.1 250 08:59 02.01.2020
5040 Clouds -1 1006 89 14484 5.1 250 08:39 02.01.2020
5041 Clouds 0 1006 90 14484 5.1 250 08:19 02.01.2020
5042 Clouds 0 1006 90 14484 6.7 260 07:47 02.01.2020
5043 Clouds 0 1006 90 14484 6.7 260 07:26 02.01.2020
5044 Clouds 0 1005 90 14484 6.7 260 06:41 02.01.2020
5045 Clouds 0 1005 90 14484 7.7 260 05:40 02.01.2020
5046 Rain 0 1005 88 9656 7.7 250 04:35 02.01.2020
5047 Snow 0 1004 80 14484 8.2 250 03:29 02.01.2020
5048 Clouds 0 1004 86 14484 7.7 250 02:21 02.01.2020
5049 Snow 1 1004 86 24140 6.7 250 01:53 02.01.2020
5050 Clouds 1 1004 86 24140 7.2 250 01:25 02.01.2020
5051 Clouds 0 1003 86 14484 6.7 250 00:45 02.01.2020
5052 Clouds 0 1003 84 14484 5.1 250 00:26 02.01.2020
5053 Clouds 0 1003 84 14484 5.1 250 00:26 02.01.2020
5054 Clouds 0 1002 84 14484 6.2 250 23:43 01.01.2020
5055 Clouds 0 1002 86 14484 6.2 250 23:23 01.01.2020
5056 Clouds 0 1001 86 14484 5.7 240 22:39 01.01.2020
5057 Clouds 0 1001 86 14484 5.7 240 22:20 01.01.2020
5058 Clouds 0 1000 86 14484 5.7 240 21:58 01.01.2020
5059 Clouds 0 1000 86 14484 5.7 240 21:58 01.01.2020
5060 Clouds 0 1000 86 14484 5.7 230 21:40 01.01.2020
5061 Clouds 1 1000 86 14484 5.7 230 21:20 01.01.2020
5062 Clouds 1 1000 86 14484 5.7 230 21:20 01.01.2020
5063 Clouds 1 1000 74 14484 7.7 250 20:58 01.01.2020
5064 Rain 1 999 74 14484 8.2 250 20:38 01.01.2020
5065 Rain 1 999 74 14484 8.2 250 20:20 01.01.2020
5066 Clouds 1 999 74 14484 8.7 260 19:57 01.01.2020
5067 Clouds 1 999 80 14484 8.2 260 19:38 01.01.2020
5068 Clouds 1 999 80 14484 8.2 260 19:20 01.01.2020
5069 Clouds 1 999 74 14484 8.2 260 18:57 01.01.2020
5070 Clouds 1 999 80 14484 7.2 260 18:38 01.01.2020
5071 Clouds 1 999 80 14484 7.2 260 18:20 01.01.2020
5072 Clouds 1 999 80 14484 7.2 270 17:58 01.01.2020
5073 Clouds 1 999 80 14484 7.2 270 17:39 01.01.2020
5074 Clouds 1 999 80 14484 7.2 270 17:19 01.01.2020
5075 Clouds 0 999 89 14484 5.1 260 16:57 01.01.2020
5076 Rain 0 999 89 14484 7.2 260 16:38 01.01.2020
5077 Rain 0 999 89 14484 7.2 260 16:19 01.01.2020
5078 Snow 0 998 89 14484 6.2 260 15:56 01.01.2020
5079 Snow 0 998 89 14484 6.2 260 15:37 01.01.2020
5080 Snow 0 998 89 14484 6.2 260 15:19 01.01.2020
5081 Snow 0 998 89 9656 7.2 260 14:55 01.01.2020
5082 Snow -1 997 92 4828 7.2 250 14:37 01.01.2020
5083 Snow -1 997 92 4828 7.2 250 14:19 01.01.2020
5084 Snow -1 998 92 19312 6.2 250 13:55 01.01.2020
5085 Snow -1 997 92 2816 6.7 260 13:36 01.01.2020
5086 Snow -1 997 92 2816 6.7 260 13:18 01.01.2020
5087 Snow -1 997 92 2414 7.2 240 12:40 01.01.2020
5088 Snow -1 997 92 2414 7.2 240 12:19 01.01.2020
5089 Snow -1 997 94 2816 6.7 240 11:56 01.01.2020
5090 Snow -1 996 94 4023 5.1 230 11:38 01.01.2020
5091 Snow -1 996 98 4023 5.1 230 11:19 01.01.2020
5092 Snow -1 996 98 4828 5.1 230 10:55 01.01.2020
5093 Snow -1 996 98 3621 7.7 230 10:36 01.01.2020
5094 Snow -1 996 98 3621 7.7 230 10:18 01.01.2020
5095 Snow -1 997 98 3621 4.6 230 09:40 01.01.2020
5096 Snow -1 997 98 3621 4.6 230 09:20 01.01.2020
5097 Snow -1 997 98 4828 4.1 230 08:57 01.01.2020
5098 Snow -1 997 98 4023 4.6 230 08:37 01.01.2020
5099 Snow -1 997 90 4023 4.6 230 08:19 01.01.2020
5100 Snow -1 997 88 6437 4.6 220 07:57 01.01.2020
5101 Clouds -1 997 88 14484 4.6 220 07:38 01.01.2020
5102 Clouds -1 997 88 14484 3.6 230 06:55 01.01.2020
5103 Snow -1 997 88 14484 4.6 230 06:36 01.01.2020
5104 Snow 0 997 88 4828 6.2 240 05:48 01.01.2020
5105 Rain 0 998 95 14484 5.1 240 04:20 01.01.2020
5106 Rain 0 998 95 6437 6.2 240 03:39 01.01.2020
5107 Rain 0 998 95 6437 6.2 240 03:21 01.01.2020
5108 Snow 0 998 95 8047 3.6 190 02:41 01.01.2020
5109 Snow 0 998 95 8047 3.6 190 02:22 01.01.2020
5110 Snow 0 999 98 2816 1.5 50 01:41 01.01.2020
5111 Snow 0 999 96 2816 1.5 50 01:22 01.01.2020
5112 Rain 0 999 96 8047 2.6 30 00:45 01.01.2020
5113 Mist 0 999 96 6437 2.1 10 00:26 01.01.2020
5114 Mist 0 999 96 8047 1 0 23:56 31.12.2019
5115 Clouds 0 999 96 12874 1.5 40 23:36 31.12.2019
5116 Clouds 0 999 96 12874 1.5 40 23:18 31.12.2019
5117 Clouds 0 1000 96 14484 1 80 22:55 31.12.2019
5118 Clouds 0 1000 96 14484 1 80 22:36 31.12.2019
5119 Clouds 0 1000 96 14484 1 80 22:18 31.12.2019
5120 Rain 0 1000 96 14484 3.1 110 21:42 31.12.2019
5121 Rain 1 1000 96 14484 3.1 110 21:24 31.12.2019
5122 Rain 1 1000 96 14484 2.6 90 20:57 31.12.2019
5123 Snow 1 1000 96 16093 2.6 90 20:38 31.12.2019
5124 Snow 1 1000 100 16093 2.6 90 20:20 31.12.2019
5125 Snow 1 1001 100 4828 2.1 100 19:55 31.12.2019
5126 Rain 1 1001 100 9656 2.1 100 19:37 31.12.2019
5127 Rain 1 1001 100 9656 2.1 100 19:18 31.12.2019
5128 Mist 1 1001 100 4023 1.5 110 18:55 31.12.2019
5129 Rain 1 1002 100 14484 2.1 140 18:37 31.12.2019
5130 Rain 1 1002 100 14484 2.1 140 18:19 31.12.2019
5131 Snow 1 1003 100 4828 3.6 120 17:55 31.12.2019
5132 Snow 0 1004 100 2414 3.1 90 17:36 31.12.2019
5133 Snow 0 1004 100 2414 3.1 90 17:36 31.12.2019
5134 Snow 0 1004 98 2414 3.1 90 17:18 31.12.2019
5135 Snow 0 1004 98 2414 4.1 100 16:56 31.12.2019
5136 Snow 0 1005 100 1609 3.6 80 16:37 31.12.2019
5137 Snow -1 1005 100 1609 3.6 80 16:18 31.12.2019
5138 Snow -1 1005 98 1609 5.7 70 15:56 31.12.2019
5139 Snow -1 1005 92 1207 5.7 80 15:37 31.12.2019
5140 Snow -1 1006 92 2012 3.6 90 15:19 31.12.2019
5141 Snow -1 1005 92 2012 5.1 80 14:55 31.12.2019
5142 Snow -2 1006 100 2816 3.6 90 14:37 31.12.2019
5143 Snow -2 1006 100 2816 3.6 90 14:18 31.12.2019
5144 Snow -2 1006 100 2012 5.1 50 13:56 31.12.2019
5145 Snow -2 1006 100 2012 5.1 50 13:37 31.12.2019
5146 Snow -2 1006 100 2012 5.1 50 13:19 31.12.2019
5147 Snow -2 1006 100 1609 4.1 60 12:55 31.12.2019
5148 Snow -2 1007 92 2816 3.6 50 12:37 31.12.2019
5149 Snow -2 1007 92 2816 3.6 50 12:18 31.12.2019
5150 Snow -2 1007 92 1207 6.2 50 11:55 31.12.2019
5151 Snow -2 1007 92 8047 2.6 50 11:36 31.12.2019
5152 Snow -2 1007 92 8047 2.6 50 11:18 31.12.2019
5153 Snow -2 1008 92 14484 3.1 50 10:55 31.12.2019
5154 Snow -2 1008 92 14484 3.1 50 10:37 31.12.2019
5155 Snow -2 1008 92 14484 3.1 50 10:19 31.12.2019
5156 Snow -2 1008 92 2414 4.1 60 09:56 31.12.2019
5157 Snow -2 1009 92 14484 4.6 60 09:38 31.12.2019
5158 Snow -2 1009 92 14484 4.6 60 09:18 31.12.2019
5159 Snow -2 1009 92 14484 4.6 60 09:18 31.12.2019
5160 Snow -2 1009 92 8047 5.1 70 08:42 31.12.2019
5161 Snow -2 1009 92 8047 5.1 70 08:23 31.12.2019
5162 Snow -2 1009 92 14484 4.6 80 07:57 31.12.2019
5163 Snow -2 1009 92 14484 4.6 80 07:38 31.12.2019
5164 Snow -2 1009 92 14484 4.6 80 07:18 31.12.2019
5165 Snow -2 1010 100 9656 5.1 80 06:40 31.12.2019
5166 Snow -2 1011 92 4828 5.1 80 05:28 31.12.2019
5167 Snow -2 1012 100 2012 4.6 80 04:25 31.12.2019
5168 Snow -2 1013 92 2816 5.1 80 03:24 31.12.2019
5169 Snow -2 1012 92 2816 5.7 70 02:36 31.12.2019
5170 Snow -2 1013 92 1207 4.6 70 01:51 31.12.2019
5171 Snow -2 1013 92 1207 4.6 70 01:32 31.12.2019
5172 Snow -2 1013 92 1006 4.1 80 00:56 31.12.2019
5173 Snow -2 1012 92 1609 5.7 90 00:37 31.12.2019
5174 Snow -2 1012 92 1609 5.7 90 00:18 31.12.2019
5175 Snow -2 1012 92 2012 5.7 100 23:55 30.12.2019
5176 Snow -2 1012 92 3621 6.7 90 23:37 30.12.2019
5177 Snow -2 1012 92 3621 6.7 90 23:18 30.12.2019
5178 Snow -2 1012 92 2012 7.7 80 22:55 30.12.2019
5179 Snow -2 1013 92 2816 6.2 80 22:37 30.12.2019
5180 Snow -2 1013 92 2816 6.2 80 22:18 30.12.2019
5181 Snow -2 1012 92 6437 6.7 90 21:55 30.12.2019
5182 Snow -2 1012 92 9656 6.7 80 21:37 30.12.2019
5183 Snow -2 1012 92 9656 6.7 80 21:18 30.12.2019
5184 Clouds -2 1011 92 4828 8.7 70 20:55 30.12.2019
5185 Clouds -2 1011 92 4828 8.7 70 20:55 30.12.2019
5186 Mist -2 1012 92 9656 9.3 80 20:37 30.12.2019
5187 Mist -2 1012 92 9656 9.3 80 20:18 30.12.2019
5188 Snow -2 1012 86 8047 8.2 90 19:55 30.12.2019
5189 Snow -3 1013 86 4828 8.2 80 19:36 30.12.2019
5190 Snow -3 1013 86 4828 8.2 80 19:18 30.12.2019
5191 Snow -4 1013 85 805 7.7 70 18:42 30.12.2019
5192 Snow -4 1013 85 805 7.7 70 18:21 30.12.2019
5193 Snow -4 1014 85 2816 7.2 60 17:59 30.12.2019
5194 Snow -4 1015 73 4828 9.8 60 17:41 30.12.2019
5195 Snow -3 1015 73 4828 9.8 60 17:20 30.12.2019
5196 Snow -4 1015 73 2816 9.8 60 17:00 30.12.2019
5197 Snow -3 1015 63 8047 8.7 60 16:40 30.12.2019
5198 Snow -3 1015 63 8047 8.7 60 16:20 30.12.2019
5199 Snow -3 1015 63 8047 9.3 60 15:57 30.12.2019
5200 Clouds -3 1015 73 19312 8.7 50 15:39 30.12.2019
5201 Clouds -3 1015 73 19312 8.7 50 15:19 30.12.2019
5202 Clouds -3 1015 73 19312 8.7 50 15:19 30.12.2019
5203 Clouds -3 1015 67 32767 6.7 60 14:55 30.12.2019
5204 Clouds -3 1015 63 24140 11.8 60 14:37 30.12.2019
5205 Clouds -3 1015 63 24140 11.8 60 14:37 30.12.2019
5206 Clouds -3 1015 63 24140 11.8 60 14:18 30.12.2019
5207 Clouds -3 1017 63 14484 8.7 60 13:42 30.12.2019
5208 Clouds -3 1017 63 14484 8.7 60 13:24 30.12.2019
5209 Clouds -3 1017 63 14484 8.7 60 13:24 30.12.2019
5210 Clouds -3 1018 63 14484 10.8 60 12:59 30.12.2019
5211 Clouds -3 1018 63 14484 10.8 60 12:41 30.12.2019
5212 Clouds -3 1018 63 14484 10.8 60 12:19 30.12.2019
5213 Clouds -3 1018 68 14484 8.7 60 11:56 30.12.2019
5214 Clouds -3 1018 68 14484 8.7 60 11:38 30.12.2019
5215 Clouds -3 1018 68 14484 8.7 60 11:18 30.12.2019
5216 Clouds -3 1019 68 14484 7.2 50 10:43 30.12.2019
5217 Clouds -3 1019 68 14484 7.2 50 10:20 30.12.2019
5218 Clouds -3 1020 68 14484 4.6 50 09:55 30.12.2019
5219 Clouds -3 1020 68 14484 4.6 50 09:55 30.12.2019
5220 Clouds -3 1020 68 14484 4.6 50 09:37 30.12.2019
5221 Clouds -3 1020 68 14484 4.6 50 09:18 30.12.2019
5222 Clouds -3 1021 68 14484 4.6 50 08:46 30.12.2019
5223 Clouds -3 1021 68 14484 4.6 50 08:23 30.12.2019
5224 Clouds -3 1020 68 14484 5.1 50 07:53 30.12.2019
5225 Clouds -3 1020 68 14484 5.1 50 07:33 30.12.2019
5226 Clouds -3 1021 68 14484 5.7 50 06:50 30.12.2019
5227 Clouds -3 1021 68 14484 6.7 50 04:45 30.12.2019
5228 Clouds -3 1023 68 14484 5.7 50 03:52 30.12.2019
5229 Clouds -3 1023 68 14484 6.2 50 02:47 30.12.2019
5230 Clouds -3 1023 68 14484 6.2 50 02:47 30.12.2019
5231 Clouds -3 1023 68 14484 6.2 50 02:29 30.12.2019
5232 Clouds -2 1023 68 14484 7.2 50 01:47 30.12.2019
5233 Clouds -2 1023 68 24140 8.2 50 01:19 30.12.2019
5234 Clouds -2 1023 74 14484 6.2 50 00:42 30.12.2019
5235 Clouds -1 1023 74 14484 4.1 40 23:59 29.12.2019
5236 Clouds -1 1023 74 14484 4.1 40 23:38 29.12.2019
5237 Clouds -1 1023 74 14484 4.1 40 23:20 29.12.2019
5238 Clouds -1 1023 68 14484 3.6 50 22:42 29.12.2019
5239 Clouds -1 1023 68 14484 3.6 50 22:22 29.12.2019
5240 Clouds -1 1023 68 14484 3.6 50 22:22 29.12.2019
5241 Clouds 0 1023 68 14484 3.6 60 21:58 29.12.2019
5242 Clouds 0 1023 68 14484 3.6 60 21:40 29.12.2019
5243 Clouds 0 1023 68 14484 3.6 60 21:20 29.12.2019
5244 Clouds 0 1023 60 14484 3.1 70 20:57 29.12.2019
5245 Clouds 0 1023 60 14484 3.1 70 20:38 29.12.2019
5246 Clouds 0 1023 56 14484 3.1 70 20:20 29.12.2019
5247 Clouds 0 1023 56 14484 3.6 60 19:58 29.12.2019
5248 Clouds 0 1023 56 14484 3.6 60 19:39 29.12.2019
5249 Clouds 0 1023 56 14484 3.6 60 19:20 29.12.2019
5250 Clouds 0 1024 56 14484 4.1 60 18:57 29.12.2019
5251 Clouds 0 1024 56 14484 4.1 60 18:38 29.12.2019
5252 Clouds 0 1024 56 14484 2.6 50 18:19 29.12.2019
5253 Clouds 0 1024 56 14484 2.6 50 17:57 29.12.2019
5254 Clouds 0 1024 56 14484 2.6 50 17:39 29.12.2019
5255 Clouds 0 1024 62 14484 2.6 50 17:20 29.12.2019
5256 Clear 0 1025 62 14484 2.6 50 16:56 29.12.2019
5257 Clear 0 1025 62 14484 2.6 50 16:37 29.12.2019
5258 Clear -1 1025 62 14484 2.6 50 16:19 29.12.2019
5259 Clouds -1 1025 62 14484 1.5 40 15:57 29.12.2019
5260 Clouds -1 1025 62 14484 1.5 40 15:39 29.12.2019
5261 Clouds -1 1025 62 14484 1.5 40 15:20 29.12.2019
5262 Clouds -2 1025 86 14484 1.86 15 14:57 29.12.2019
5263 Clouds -2 1025 86 14484 1.86 15 14:38 29.12.2019
5264 Clouds -2 1025 86 14484 1.29 287 14:18 29.12.2019
5265 Clouds -2 1024 74 14484 2.1 330 13:57 29.12.2019
5266 Clouds -2 1024 74 14484 2.1 330 13:57 29.12.2019
5267 Clouds -2 1024 74 14484 2.1 330 13:38 29.12.2019
5268 Clouds -2 1024 74 14484 2.1 330 13:19 29.12.2019
5269 Clouds -2 1024 86 14484 1 310 12:45 29.12.2019
5270 Clouds -2 1024 86 14484 1 310 12:27 29.12.2019
5271 Clouds -2 1023 79 14484 1.5 10 11:57 29.12.2019
5272 Clouds -2 1023 79 14484 1.5 10 11:38 29.12.2019
5273 Clouds -2 1023 79 14484 1.5 10 11:20 29.12.2019
5274 Clouds -2 1023 74 14484 2.1 290 10:43 29.12.2019
5275 Clouds -2 1023 74 14484 2.1 290 10:25 29.12.2019
5276 Clouds -1 1023 74 14484 2.6 260 09:58 29.12.2019
5277 Clouds -1 1023 74 14484 2.6 260 09:39 29.12.2019
5278 Clouds -1 1023 74 14484 2.6 260 09:21 29.12.2019
5279 Clouds -1 1023 78 14484 3.1 280 08:48 29.12.2019
5280 Clouds -1 1023 78 14484 3.1 280 08:28 29.12.2019
5281 Clouds -1 1022 80 14484 2.1 260 07:56 29.12.2019
5282 Clouds -1 1022 80 14484 2.1 260 07:28 29.12.2019
5283 Clear -1 1022 80 14484 3.6 250 06:56 29.12.2019
5284 Clear -1 1022 80 14484 3.6 250 06:26 29.12.2019
5285 Clear -1 1022 86 14484 5.1 250 05:53 29.12.2019
5286 Clear 0 1021 82 14484 5.7 250 04:36 29.12.2019
5287 Clouds 0 1021 82 14484 4.6 250 03:58 29.12.2019
5288 Clouds 0 1021 82 14484 4.6 250 03:21 29.12.2019
5289 Clear 1 1020 74 14484 6.2 250 02:21 29.12.2019
5290 Clear 1 1020 74 14484 7.2 240 01:40 29.12.2019
5291 Clear 1 1020 74 14484 7.2 240 01:21 29.12.2019
5292 Clear 1 1020 69 14484 8.2 240 00:42 29.12.2019
5293 Clear 1 1020 69 14484 8.2 240 00:23 29.12.2019
5294 Clear 1 1020 69 14484 6.2 250 23:44 28.12.2019
5295 Clear 2 1020 69 14484 6.2 250 23:18 28.12.2019
5296 Clear 2 1020 69 14484 6.2 250 23:18 28.12.2019
5297 Clouds 2 1020 74 32767 5.7 240 22:39 28.12.2019
5298 Clouds 2 1020 74 32767 5.7 240 22:21 28.12.2019
5299 Clear 3 1019 64 14484 7.7 260 21:58 28.12.2019
5300 Clear 3 1019 64 14484 7.7 260 21:40 28.12.2019
5301 Clear 3 1019 64 14484 7.7 260 21:21 28.12.2019
5302 Clear 4 1019 60 14484 7.2 260 20:58 28.12.2019
5303 Clear 4 1019 60 14484 7.2 260 20:38 28.12.2019
5304 Clear 4 1019 60 14484 7.2 260 20:20 28.12.2019
5305 Clear 4 1020 60 14484 7.7 250 19:58 28.12.2019
5306 Clear 4 1020 60 14484 7.7 250 19:39 28.12.2019
5307 Clear 4 1020 60 14484 7.7 250 19:21 28.12.2019
5308 Clouds 4 1020 64 14484 5.7 260 18:58 28.12.2019
5309 Clouds 4 1020 64 14484 5.7 260 18:40 28.12.2019
5310 Clouds 4 1020 64 14484 5.7 260 18:19 28.12.2019
5311 Clear 3 1021 69 14484 8.2 250 17:55 28.12.2019
5312 Clear 3 1021 69 14484 8.2 250 17:37 28.12.2019
5313 Clear 3 1021 69 14484 8.2 250 17:18 28.12.2019
5314 Clear 3 1021 69 14484 8.2 250 17:18 28.12.2019
5315 Clear 3 1021 74 14484 7.7 260 16:46 28.12.2019
5316 Clear 3 1021 74 14484 7.7 260 16:26 28.12.2019
5317 Clear 3 1021 74 14484 7.7 260 16:26 28.12.2019
5318 Clear 3 1021 74 14484 7.7 260 16:26 28.12.2019
5319 Clear 2 1021 80 14484 6.7 250 15:47 28.12.2019
5320 Clear 2 1021 80 14484 6.7 250 15:25 28.12.2019
5321 Clouds 2 1020 86 14484 6.2 250 14:59 28.12.2019
5322 Clouds 1 1020 86 14484 6.2 250 14:40 28.12.2019
5323 Clouds 1 1020 86 14484 6.2 250 14:40 28.12.2019
5324 Clouds 1 1020 86 14484 6.2 250 14:21 28.12.2019
5325 Clear 1 1019 78 14484 4.1 260 13:57 28.12.2019
5326 Clear 1 1019 78 14484 4.1 260 13:38 28.12.2019
5327 Clear 1 1019 78 14484 4.1 260 13:19 28.12.2019
5328 Clouds 2 1019 79 14484 6.7 250 12:43 28.12.2019
5329 Clouds 2 1019 79 14484 6.7 250 12:24 28.12.2019
5330 Clouds 2 1019 79 14484 7.7 240 11:57 28.12.2019
5331 Clouds 2 1018 79 14484 7.7 240 11:39 28.12.2019
5332 Clouds 2 1018 80 14484 7.7 240 11:20 28.12.2019
5333 Clouds 2 1018 80 14484 5.1 230 10:46 28.12.2019
5334 Clouds 2 1018 80 14484 5.1 230 10:22 28.12.2019
5335 Clouds 2 1018 80 14484 5.1 230 10:22 28.12.2019
5336 Clouds 2 1018 80 14484 5.1 230 10:22 28.12.2019
5337 Clouds 2 1018 80 14484 5.1 230 10:22 28.12.2019
5338 Clouds 2 1018 80 14484 6.2 230 09:58 28.12.2019
5339 Rain 2 1018 80 14484 5.7 230 09:40 28.12.2019
5340 Rain 2 1018 80 14484 5.7 230 09:20 28.12.2019
5341 Rain 2 1018 80 14484 5.7 230 09:20 28.12.2019
5342 Clouds 2 1018 74 14484 7.2 240 08:44 28.12.2019
5343 Clouds 2 1018 74 14484 7.2 240 08:26 28.12.2019
5344 Clouds 2 1018 81 14484 6.2 250 07:55 28.12.2019
5345 Clouds 2 1018 81 14484 6.2 250 07:32 28.12.2019
5346 Clouds 2 1018 81 14484 5.7 250 06:41 28.12.2019
5347 Clouds 2 1018 83 14484 5.7 240 05:19 28.12.2019
5348 Clouds 2 1017 83 24140 5.1 250 03:47 28.12.2019
5349 Clouds 2 1016 83 14484 6.2 270 02:49 28.12.2019
5350 Clouds 2 1017 80 24140 5.1 250 02:19 28.12.2019
5351 Clouds 2 1016 80 14484 5.7 270 01:42 28.12.2019
5352 Clouds 2 1016 80 14484 5.7 270 01:18 28.12.2019
5353 Clouds 2 1015 86 12874 7.2 300 00:40 28.12.2019
5354 Clouds 2 1015 86 12874 7.2 300 00:21 28.12.2019
5355 Mist 2 1015 93 9656 6.7 280 23:44 27.12.2019
5356 Mist 2 1014 100 6437 3.6 250 23:20 27.12.2019
5357 Mist 2 1014 93 3219 4.6 250 22:58 27.12.2019
5358 Drizzle 2 1013 100 6437 6.2 250 22:39 27.12.2019
5359 Drizzle 2 1013 100 6437 6.2 250 22:20 27.12.2019
5360 Mist 2 1013 100 1609 2.6 220 21:58 27.12.2019
5361 Mist 2 1012 92 2012 1 280 21:37 27.12.2019
5362 Mist 2 1012 92 2012 1 280 21:19 27.12.2019
5363 Rain 2 1013 92 2012 3.1 300 20:42 27.12.2019
5364 Rain 1 1013 92 2012 3.1 300 20:23 27.12.2019
5365 Snow 1 1012 97 2012 1.5 340 19:55 27.12.2019
5366 Mist 1 1011 100 4828 1 0 19:36 27.12.2019
5367 Mist 1 1011 100 4828 1 0 19:18 27.12.2019
5368 Mist 1 1013 92 6437 2.1 360 18:41 27.12.2019
5369 Mist 0 1013 92 6437 2.1 360 18:23 27.12.2019
5370 Mist 0 1013 92 6437 3.1 360 17:59 27.12.2019
5371 Mist 0 1014 92 6437 3.1 10 17:41 27.12.2019
5372 Mist 0 1014 92 6437 3.1 10 17:19 27.12.2019
5373 Rain 0 1015 93 2816 4.1 200 16:59 27.12.2019
5374 Rain 0 1015 93 2816 4.1 200 16:59 27.12.2019
5375 Rain 0 1015 93 2816 4.1 200 16:59 27.12.2019
5376 Rain 0 1016 100 8047 4.1 200 16:39 27.12.2019
5377 Rain 0 1016 100 8047 4.1 200 16:21 27.12.2019
5378 Mist 0 1016 100 6437 3.1 350 15:56 27.12.2019
5379 Mist 0 1016 100 6437 3.1 10 15:37 27.12.2019
5380 Mist 0 1016 100 6437 3.1 10 15:18 27.12.2019
5381 Rain -1 1017 100 4023 1 40 14:55 27.12.2019
5382 Snow -1 1017 92 2816 1 360 14:36 27.12.2019
5383 Snow -1 1017 92 2816 1 360 14:18 27.12.2019
5384 Snow -1 1017 100 4828 2.1 350 13:43 27.12.2019
5385 Mist -1 1018 92 4828 2.1 10 13:22 27.12.2019
5386 Clouds -1 1018 92 12874 4.6 20 12:48 27.12.2019
5387 Snow -1 1018 92 8047 3.1 10 12:29 27.12.2019
5388 Clouds -2 1018 92 24140 3.6 20 11:59 27.12.2019
5389 Mist -2 1018 92 9656 2.6 20 11:41 27.12.2019
5390 Mist -2 1018 92 9656 2.6 20 11:20 27.12.2019
5391 Mist -2 1019 92 8047 3.1 360 10:46 27.12.2019
5392 Snow -2 1019 100 4023 3.1 20 10:24 27.12.2019
5393 Mist -2 1020 92 9656 2.6 360 09:55 27.12.2019
5394 Snow -2 1020 100 6437 2.6 10 09:37 27.12.2019
5395 Snow -2 1020 100 6437 2.6 10 09:19 27.12.2019
5396 Snow -2 1020 100 6437 2.6 10 09:19 27.12.2019
5397 Clouds -2 1021 92 14484 2.6 10 08:43 27.12.2019
5398 Mist -3 1021 92 4828 2.6 30 08:25 27.12.2019
5399 Snow -3 1022 85 4023 2.6 10 07:41 27.12.2019
5400 Snow -4 1022 85 4023 2.6 10 07:22 27.12.2019
5401 Clouds -4 1022 79 14484 4.6 20 06:27 27.12.2019
5402 Clouds -5 1024 79 14484 4.1 40 04:40 27.12.2019
5403 Snow -5 1026 73 24140 6.7 40 02:29 27.12.2019
5404 Snow -5 1026 67 8047 6.7 30 01:48 27.12.2019
5405 Clouds -5 1027 62 14484 5.7 30 01:23 27.12.2019
5406 Clouds -5 1027 62 14484 4.6 30 00:51 27.12.2019
5407 Clouds -5 1027 62 14484 4.6 30 00:33 27.12.2019
5408 Clouds -5 1027 62 14484 5.7 40 23:57 26.12.2019
5409 Clouds -5 1027 62 14484 5.7 40 23:38 26.12.2019
5410 Clouds -5 1027 62 14484 5.7 40 23:20 26.12.2019
5411 Clouds -5 1028 62 14484 4.6 40 22:42 26.12.2019
5412 Clouds -5 1028 62 14484 4.6 40 22:21 26.12.2019
5413 Clouds -5 1028 62 14484 5.7 40 21:55 26.12.2019
5414 Clouds -5 1028 62 14484 5.7 40 21:55 26.12.2019
5415 Clouds -5 1028 62 14484 5.7 40 21:37 26.12.2019
5416 Clouds -5 1028 62 14484 5.7 40 21:19 26.12.2019
5417 Clouds -5 1029 62 14484 5.7 30 20:44 26.12.2019
5418 Clouds -5 1029 62 14484 5.7 30 20:22 26.12.2019
5419 Clouds -5 1029 67 14484 5.7 30 19:58 26.12.2019
5420 Clouds -5 1029 67 14484 5.7 30 19:39 26.12.2019
5421 Clouds -6 1029 67 14484 5.7 30 19:20 26.12.2019
5422 Clouds -6 1029 67 14484 5.1 40 18:57 26.12.2019
5423 Clouds -6 1029 67 14484 5.1 40 18:38 26.12.2019
5424 Clouds -6 1029 67 14484 5.1 40 18:19 26.12.2019
5425 Clouds -7 1030 67 14484 4.6 30 17:42 26.12.2019
5426 Clouds -7 1030 67 14484 4.6 30 17:22 26.12.2019
5427 Clouds -7 1031 72 14484 5.1 50 16:58 26.12.2019
5428 Clouds -7 1031 72 14484 5.1 50 16:40 26.12.2019
5429 Clouds -8 1031 72 14484 5.1 50 16:21 26.12.2019
5430 Clear -8 1030 78 14484 6.2 40 15:41 26.12.2019
5431 Clear -8 1030 78 14484 6.2 40 15:21 26.12.2019
5432 Clear -9 1030 78 14484 6.2 30 14:59 26.12.2019
5433 Clear -9 1030 78 14484 6.2 30 14:39 26.12.2019
5434 Clear -9 1030 78 14484 6.2 30 14:20 26.12.2019
5435 Clear -9 1030 78 14484 5.1 30 13:43 26.12.2019
5436 Clear -9 1030 78 14484 5.1 30 13:21 26.12.2019
5437 Clear -9 1029 78 14484 6.2 40 12:58 26.12.2019
5438 Clear -9 1029 78 14484 6.2 40 12:37 26.12.2019
5439 Clear -9 1029 78 14484 6.2 40 12:19 26.12.2019
5440 Clear -9 1028 78 14484 4.1 30 11:57 26.12.2019
5441 Clear -9 1028 78 14484 4.1 30 11:38 26.12.2019
5442 Clear -9 1028 78 14484 4.1 30 11:19 26.12.2019
5443 Clear -8 1029 78 14484 4.6 30 10:42 26.12.2019
5444 Clear -8 1029 78 14484 4.6 30 10:18 26.12.2019
5445 Clear -8 1028 85 14484 5.1 40 09:49 26.12.2019
5446 Clear -8 1028 85 14484 5.1 40 09:31 26.12.2019
5447 Clear -8 1027 78 14484 5.7 40 08:43 26.12.2019
5448 Clear -8 1027 78 14484 5.7 40 08:24 26.12.2019
5449 Clear -7 1026 78 14484 5.1 30 07:53 26.12.2019
5450 Clear -7 1026 78 14484 5.1 30 07:28 26.12.2019
5451 Clear -7 1026 73 14484 5.1 40 06:53 26.12.2019
5452 Clear -7 1026 73 14484 5.1 40 06:32 26.12.2019
5453 Clouds -6 1025 73 14484 6.7 30 05:45 26.12.2019
5454 Clouds -5 1025 67 14484 6.7 30 04:59 26.12.2019
5455 Clouds -5 1025 67 14484 6.7 30 04:30 26.12.2019
5456 Clouds -5 1024 67 14484 5.1 40 02:58 26.12.2019
5457 Clouds -4 1024 67 14484 5.1 40 02:34 26.12.2019
5458 Clouds -4 1024 67 14484 5.7 30 01:51 26.12.2019
5459 Clouds -4 1024 67 14484 5.7 30 01:33 26.12.2019
5460 Clouds -4 1024 67 14484 4.6 20 00:50 26.12.2019
5461 Clouds -4 1024 67 14484 4.6 20 00:27 26.12.2019
5462 Clouds -4 1023 67 14484 5.1 40 23:59 25.12.2019
5463 Clouds -4 1023 67 14484 5.1 40 23:40 25.12.2019
5464 Clouds -4 1023 67 14484 5.1 40 23:21 25.12.2019
5465 Clouds -4 1023 67 14484 3.6 40 22:59 25.12.2019
5466 Clouds -4 1023 67 14484 3.6 40 22:39 25.12.2019
5467 Clouds -4 1023 67 14484 3.6 40 22:21 25.12.2019
5468 Clouds -4 1022 68 14484 4.6 50 21:59 25.12.2019
5469 Clouds -4 1022 68 14484 4.6 50 21:39 25.12.2019
5470 Clouds -4 1022 68 14484 4.6 50 21:20 25.12.2019
5471 Clouds -3 1022 68 14484 4.6 50 20:56 25.12.2019
5472 Clouds -3 1022 68 14484 4.6 50 20:38 25.12.2019
5473 Clouds -3 1022 68 14484 4.6 50 20:18 25.12.2019
5474 Clear -3 1022 63 14484 4.1 40 19:43 25.12.2019
5475 Clear -3 1022 63 14484 4.1 40 19:25 25.12.2019
5476 Clear -3 1022 68 14484 4.6 20 18:58 25.12.2019
5477 Clear -4 1022 68 14484 4.6 20 18:37 25.12.2019
5478 Clear -4 1022 68 14484 4.6 20 18:19 25.12.2019
5479 Clouds -4 1023 67 14484 5.1 20 17:42 25.12.2019
5480 Clouds -4 1023 67 14484 5.1 20 17:20 25.12.2019
5481 Clouds -5 1024 73 14484 5.7 30 16:59 25.12.2019
5482 Clouds -5 1024 73 14484 5.7 30 16:38 25.12.2019
5483 Clouds -5 1024 73 14484 5.7 30 16:19 25.12.2019
5484 Clouds -5 1024 73 14484 3.6 30 15:57 25.12.2019
5485 Clouds -5 1024 73 14484 3.6 30 15:39 25.12.2019
5486 Clouds -6 1024 73 14484 3.6 30 15:20 25.12.2019
5487 Clouds -6 1024 79 14484 3.6 30 14:58 25.12.2019
5488 Clouds -6 1024 79 14484 3.6 30 14:39 25.12.2019
5489 Clouds -6 1024 79 14484 3.6 30 14:39 25.12.2019
5490 Clouds -6 1024 79 14484 3.6 30 14:39 25.12.2019
5491 Clouds -6 1024 79 14484 3.6 30 14:20 25.12.2019
5492 Clouds -6 1024 79 14484 3.1 40 13:45 25.12.2019
5493 Clouds -6 1024 79 14484 3.1 40 13:22 25.12.2019
5494 Clouds -6 1023 73 14484 4.1 40 12:58 25.12.2019
5495 Clouds -6 1023 73 14484 4.1 40 12:38 25.12.2019
5496 Clouds -6 1023 73 14484 4.1 40 12:20 25.12.2019
5497 Clouds -6 1024 73 14484 4.1 30 11:54 25.12.2019
5498 Clouds -6 1024 73 14484 4.1 30 11:36 25.12.2019
5499 Clouds -6 1024 73 14484 4.1 30 11:18 25.12.2019
5500 Clouds -6 1023 73 24140 4.1 40 10:38 25.12.2019
5501 Clouds -6 1024 78 14484 3.6 30 10:19 25.12.2019
5502 Clouds -6 1024 78 14484 3.6 30 10:19 25.12.2019
5503 Clouds -5 1024 85 14484 3.1 30 09:50 25.12.2019
5504 Clouds -5 1024 85 14484 3.1 30 09:32 25.12.2019
5505 Clouds -5 1024 73 14484 2.1 110 08:51 25.12.2019
5506 Clouds -5 1024 73 14484 2.1 110 08:30 25.12.2019
5507 Clouds -5 1024 73 14484 2.6 90 07:50 25.12.2019
5508 Clouds -5 1024 73 14484 2.6 90 07:31 25.12.2019
5509 Clouds -5 1025 79 14484 1.68 89 06:51 25.12.2019
5510 Clouds -5 1025 79 14484 1.68 89 06:22 25.12.2019
5511 Clouds -6 1025 79 14484 1.5 120 05:18 25.12.2019
5512 Clouds -6 1026 79 14484 1.5 100 04:39 25.12.2019
5513 Clouds -5 1026 79 14484 1.5 100 04:20 25.12.2019
5514 Clouds -5 1026 73 14484 1 180 03:41 25.12.2019
5515 Clouds -5 1026 79 14484 1 0 02:53 25.12.2019
5516 Clouds -5 1026 79 14484 1 0 02:20 25.12.2019
5517 Clear -5 1025 62 14484 0.27 120 01:25 25.12.2019
5518 Clouds -4 1025 68 14484 2.1 120 00:53 25.12.2019
5519 Clouds -4 1025 68 14484 2.1 120 00:30 25.12.2019
5520 Clouds -4 1025 58 14484 0.27 120 23:57 24.12.2019
5521 Clouds -3 1025 58 14484 0.27 120 23:38 24.12.2019
5522 Clouds -3 1025 58 14484 0.05 297 23:20 24.12.2019
5523 Clouds -3 1025 63 14484 1 90 22:41 24.12.2019
5524 Clouds -2 1025 63 14484 1 90 22:21 24.12.2019
5525 Clear -2 1024 54 14484 2.6 40 21:44 24.12.2019
5526 Clear -2 1024 54 14484 2.6 40 21:23 24.12.2019
5527 Clear -1 1025 50 14484 2.1 330 20:59 24.12.2019
5528 Clear -1 1025 50 14484 2.1 330 20:40 24.12.2019
5529 Clear -1 1025 50 14484 2.1 330 20:19 24.12.2019
5530 Clear -1 1024 50 14484 2.1 320 19:45 24.12.2019
5531 Clear -1 1024 50 14484 2.1 320 19:21 24.12.2019
5532 Clear -1 1025 54 14484 2.1 10 18:58 24.12.2019
5533 Clear -1 1025 54 14484 2.1 10 18:40 24.12.2019
5534 Clear -1 1025 54 14484 2.1 10 18:18 24.12.2019
5535 Clear -2 1025 58 14484 3.6 10 17:42 24.12.2019
5536 Clear -2 1025 58 14484 3.6 10 17:21 24.12.2019
5537 Clear -2 1025 63 14484 3.6 360 16:56 24.12.2019
5538 Clear -3 1025 63 14484 3.6 360 16:38 24.12.2019
5539 Clear -3 1025 63 14484 3.6 360 16:20 24.12.2019
5540 Clear -3 1025 63 14484 3.6 350 15:56 24.12.2019
5541 Clear -3 1025 63 14484 3.6 350 15:36 24.12.2019
5542 Clear -3 1025 63 14484 3.6 350 15:18 24.12.2019
5543 Clear -3 1024 68 14484 1.5 350 14:57 24.12.2019
5544 Clear -4 1024 68 14484 1.5 350 14:38 24.12.2019
5545 Clear -4 1024 68 14484 1.5 350 14:20 24.12.2019
5546 Clear -4 1023 68 14484 4.1 350 13:55 24.12.2019
5547 Clear -4 1023 68 14484 4.1 350 13:37 24.12.2019
5548 Clear -4 1023 68 14484 4.1 350 13:19 24.12.2019
5549 Clear -4 1021 68 14484 4.1 310 12:55 24.12.2019
5550 Clear -3 1021 68 14484 4.1 310 12:36 24.12.2019
5551 Clear -3 1021 68 14484 4.1 310 12:18 24.12.2019
5552 Clear -3 1021 68 14484 3.1 310 11:55 24.12.2019
5553 Clear -3 1021 68 14484 3.1 310 11:37 24.12.2019
5554 Clear -3 1021 68 14484 3.1 310 11:37 24.12.2019
5555 Clear -3 1021 68 14484 3.1 310 11:37 24.12.2019
5556 Clear -3 1021 68 14484 3.1 310 11:18 24.12.2019
5557 Clear -2 1020 68 14484 3.6 320 10:56 24.12.2019
5558 Clear -2 1020 68 14484 3.6 320 10:37 24.12.2019
5559 Clear -2 1020 68 14484 3.6 320 10:19 24.12.2019
5560 Clouds -2 1020 63 14484 6.2 350 09:55 24.12.2019
5561 Clouds -1 1020 63 14484 6.2 350 09:37 24.12.2019
5562 Clouds -1 1020 63 14484 6.2 350 09:18 24.12.2019
5563 Clear -1 1018 65 14484 6.2 320 08:45 24.12.2019
5564 Clear 0 1018 64 14484 6.2 320 08:21 24.12.2019
5565 Clouds 0 1018 64 14484 7.7 320 07:46 24.12.2019
5566 Clouds 0 1018 64 14484 7.7 320 07:46 24.12.2019
5567 Clouds 0 1018 59 14484 2.6 310 07:26 24.12.2019
5568 Clouds 0 1018 59 14484 2.6 310 07:26 24.12.2019
5569 Clouds 0 1017 59 14484 3.6 290 06:58 24.12.2019
5570 Clouds 1 1017 59 14484 3.6 290 06:38 24.12.2019
5571 Clouds 1 1017 59 14484 3.6 290 06:19 24.12.2019
5572 Clouds 1 1016 55 14484 6.7 330 05:40 24.12.2019
5573 Clouds 1 1016 55 14484 6.7 330 05:18 24.12.2019
5574 Clouds 3 1013 55 14484 8.2 300 03:50 24.12.2019
5575 Clouds 3 1013 55 14484 8.2 300 03:23 24.12.2019
5576 Clouds 4 1012 65 14484 5.7 280 02:25 24.12.2019
5577 Clouds 4 1012 65 14484 5.7 280 02:25 24.12.2019
5578 Rain 4 1012 83 14484 6.2 300 01:51 24.12.2019
5579 Clouds 4 1011 65 14484 6.2 280 01:23 24.12.2019
5580 Clouds 5 1010 82 14484 5.7 270 00:46 24.12.2019
5581 Clouds 5 1010 82 14484 5.7 270 00:26 24.12.2019
5582 Clouds 5 1009 82 14484 7.2 260 23:59 23.12.2019
5583 Clouds 5 1009 82 14484 7.2 260 23:59 23.12.2019
5584 Clouds 5 1009 82 14484 7.2 260 23:41 23.12.2019
5585 Clouds 5 1009 81 14484 7.2 260 23:23 23.12.2019
5586 Clouds 5 1009 81 14484 7.7 270 22:56 23.12.2019
5587 Clouds 5 1009 81 14484 7.7 270 22:56 23.12.2019
5588 Clouds 5 1009 81 14484 7.7 270 22:56 23.12.2019
5589 Clouds 5 1009 81 14484 7.7 270 22:37 23.12.2019
5590 Clouds 5 1009 81 14484 7.7 270 22:19 23.12.2019
5591 Clouds 5 1008 81 14484 11.8 280 21:55 23.12.2019
5592 Clouds 5 1008 81 14484 11.8 280 21:55 23.12.2019
5593 Clouds 6 1008 70 14484 6.2 250 21:36 23.12.2019
5594 Clouds 6 1008 70 14484 6.2 250 21:36 23.12.2019
5595 Clouds 6 1008 70 14484 6.2 250 21:18 23.12.2019
5596 Clear 6 1007 81 14484 11.3 240 20:57 23.12.2019
5597 Clear 6 1007 81 14484 11.3 240 20:39 23.12.2019
5598 Clear 6 1007 81 14484 11.3 240 20:39 23.12.2019
5599 Clear 6 1007 75 14484 11.3 240 20:18 23.12.2019
5600 Clear 6 1008 77 14484 10.8 240 19:56 23.12.2019
5601 Clear 6 1008 77 14484 10.8 240 19:56 23.12.2019
5602 Clear 6 1008 77 14484 10.8 240 19:38 23.12.2019
5603 Clear 6 1008 77 14484 10.8 240 19:19 23.12.2019
5604 Clear 6 1008 77 14484 8.2 230 18:58 23.12.2019
5605 Clear 6 1008 77 14484 8.2 230 18:58 23.12.2019
5606 Clear 6 1008 77 14484 8.2 230 18:38 23.12.2019
5607 Clear 6 1008 77 14484 8.2 230 18:20 23.12.2019
5608 Clear 6 1009 77 14484 6.2 210 17:56 23.12.2019
5609 Clear 5 1009 77 14484 6.2 210 17:38 23.12.2019
5610 Clear 4 1009 87 14484 6.2 210 17:19 23.12.2019
5611 Clear 4 1009 87 14484 6.2 210 17:19 23.12.2019
5612 Mist 3 1010 87 4828 3.6 240 16:55 23.12.2019
5613 Mist 3 1010 87 4828 3.6 240 16:55 23.12.2019
5614 Clear 3 1012 74 14484 3.6 190 16:36 23.12.2019
5615 Clear 2 1012 74 14484 3.6 190 16:18 23.12.2019
5616 Clear 2 1012 74 14484 3.6 190 16:18 23.12.2019
5617 Mist 1 1011 100 4023 3.1 230 15:55 23.12.2019
5618 Haze 1 1012 80 9656 3.1 180 15:36 23.12.2019
5619 Haze 1 1012 80 9656 3.1 180 15:18 23.12.2019
5620 Mist 0 1012 87 1609 2.6 250 14:45 23.12.2019
5621 Mist 0 1012 93 9656 4.1 160 14:26 23.12.2019
5622 Mist 0 1013 86 8047 3.6 170 13:59 23.12.2019
5623 Mist -1 1013 86 8047 3.6 170 13:41 23.12.2019
5624 Mist -1 1013 86 8047 3.6 170 13:22 23.12.2019
5625 Mist -1 1014 86 8047 4.6 170 12:59 23.12.2019
5626 Mist -1 1014 86 8047 4.6 170 12:40 23.12.2019
5627 Mist 0 1014 86 8047 4.6 170 12:21 23.12.2019
5628 Mist 0 1013 100 4828 3.1 240 11:56 23.12.2019
5629 Mist 0 1014 92 8047 3.1 180 11:38 23.12.2019
5630 Mist 0 1014 93 8047 3.1 180 11:20 23.12.2019
5631 Mist 0 1015 93 8047 3.6 170 10:55 23.12.2019
5632 Mist 0 1015 93 8047 3.6 170 10:55 23.12.2019
5633 Clouds 1 1015 93 24140 3.1 210 10:37 23.12.2019
5634 Clouds 1 1015 93 24140 3.1 210 10:18 23.12.2019
5635 Clouds 1 1015 93 24140 6.7 230 09:54 23.12.2019
5636 Mist 1 1016 93 6437 4.1 200 09:36 23.12.2019
5637 Mist 1 1016 93 6437 4.1 200 09:18 23.12.2019
5638 Mist 1 1016 93 6437 3.6 190 08:41 23.12.2019
5639 Mist 1 1016 92 6437 3.6 190 08:22 23.12.2019
5640 Mist 1 1016 92 8047 3.1 180 07:55 23.12.2019
5641 Mist 1 1016 92 8047 3.1 180 07:37 23.12.2019
5642 Mist 1 1016 92 8047 3.1 180 07:18 23.12.2019
5643 Mist 1 1017 86 6437 3.1 190 06:39 23.12.2019
5644 Mist 1 1017 86 6437 3.1 190 06:21 23.12.2019
5645 Mist 1 1018 86 8047 1.5 180 05:44 23.12.2019
5646 Mist 1 1018 86 9656 2.6 180 04:40 23.12.2019
5647 Mist 1 1018 86 9656 1 160 03:58 23.12.2019
5648 Mist 1 1018 86 6437 2.1 160 02:46 23.12.2019
5649 Mist 1 1018 86 6437 2.1 160 02:19 23.12.2019
5650 Haze 1 1019 80 9656 2.1 250 01:50 23.12.2019
5651 Clouds 1 1018 80 11265 2.1 240 01:31 23.12.2019
5652 Clouds 1 1018 80 11265 2.1 240 00:48 23.12.2019
5653 Clouds 1 1018 80 11265 2.1 240 00:27 23.12.2019
5654 Clouds 1 1018 74 12874 2.1 330 23:57 22.12.2019
5655 Clouds 1 1018 74 12874 2.1 330 23:37 22.12.2019
5656 Clouds 1 1018 74 12874 2.1 330 23:19 22.12.2019
5657 Clouds 1 1018 74 14484 1.5 300 22:55 22.12.2019
5658 Clouds 1 1018 74 14484 1.5 300 22:37 22.12.2019
5659 Clouds 1 1018 74 14484 1.5 300 22:18 22.12.2019
5660 Clouds 1 1018 74 24140 2.6 300 21:54 22.12.2019
5661 Clouds 1 1018 74 24140 2.6 300 21:36 22.12.2019
5662 Clouds 2 1018 74 24140 2.6 300 21:18 22.12.2019
5663 Clouds 1 1017 74 12874 5.7 240 20:40 22.12.2019
5664 Clouds 1 1017 74 12874 5.7 240 20:19 22.12.2019
5665 Clouds 1 1018 69 14484 4.1 240 19:57 22.12.2019
5666 Clouds 1 1018 69 14484 4.1 240 19:39 22.12.2019
5667 Clouds 1 1018 69 14484 4.1 240 19:20 22.12.2019
5668 Clouds 1 1018 74 14484 3.1 200 18:55 22.12.2019
5669 Clouds 1 1018 74 14484 3.1 200 18:37 22.12.2019
5670 Clouds 1 1018 74 14484 3.1 200 18:18 22.12.2019
5671 Clear 0 1019 88 14484 3.1 190 17:54 22.12.2019
5672 Clear 0 1019 88 14484 3.1 190 17:36 22.12.2019
5673 Clear -2 1019 83 14484 3.1 190 17:18 22.12.2019
5674 Clouds -3 1020 79 14484 4.1 190 16:42 22.12.2019
5675 Clouds -3 1020 79 14484 4.1 190 16:23 22.12.2019
5676 Clouds -4 1021 85 14484 2.6 200 15:57 22.12.2019
5677 Clouds -5 1021 85 14484 2.6 200 15:39 22.12.2019
5678 Clouds -5 1021 85 14484 2.6 200 15:21 22.12.2019
5679 Clouds -6 1021 78 14484 1.5 180 14:56 22.12.2019
5680 Clouds -6 1021 78 14484 1.5 180 14:38 22.12.2019
5681 Clouds -6 1021 78 14484 1.5 180 14:19 22.12.2019
5682 Clouds -7 1022 85 14484 1.5 340 13:56 22.12.2019
5683 Clouds -7 1022 85 14484 1.5 340 13:38 22.12.2019
5684 Clouds -7 1022 85 14484 1.5 340 13:19 22.12.2019
5685 Clouds -7 1022 85 14484 1 60 12:57 22.12.2019
5686 Clouds -7 1022 85 14484 1 60 12:38 22.12.2019
5687 Clouds -7 1022 85 14484 1 60 12:19 22.12.2019
5688 Clouds -7 1023 85 14484 1.5 340 11:57 22.12.2019
5689 Clouds -7 1023 85 14484 1.5 340 11:38 22.12.2019
5690 Clouds -8 1023 85 14484 1.5 340 11:19 22.12.2019
5691 Clouds -8 1024 85 14484 1.5 20 10:57 22.12.2019
5692 Clouds -8 1024 85 14484 1.5 20 10:38 22.12.2019
5693 Clouds -8 1024 85 14484 1.5 20 10:19 22.12.2019
5694 Clouds -9 1025 85 14484 2.6 10 09:58 22.12.2019
5695 Clouds -9 1025 85 14484 2.6 10 09:57 22.12.2019
5696 Clouds -9 1025 85 14484 2.6 10 09:39 22.12.2019
5697 Clouds -9 1025 85 14484 2.6 10 09:20 22.12.2019
5698 Clouds -9 1026 78 14484 2.1 50 08:45 22.12.2019
5699 Clouds -10 1026 78 14484 2.1 50 08:23 22.12.2019
5700 Clouds -11 1026 85 11265 1.5 10 07:44 22.12.2019
5701 Clouds -11 1026 85 11265 1.5 10 07:21 22.12.2019
5702 Clouds -11 1026 85 11265 1.5 10 07:21 22.12.2019
5703 Clouds -11 1026 85 11265 1.5 10 07:21 22.12.2019
5704 Clouds -11 1027 85 12874 2.1 20 06:55 22.12.2019
5705 Clouds -11 1027 85 12874 2.1 20 06:27 22.12.2019
5706 Clouds -11 1028 78 14484 1 0 05:41 22.12.2019
5707 Clouds -11 1028 78 14484 1 0 05:20 22.12.2019
5708 Clouds -12 1028 84 14484 0.8 72 04:26 22.12.2019
5709 Clouds -12 1029 78 14484 2.1 10 02:56 22.12.2019
5710 Clouds -12 1029 78 14484 2.1 10 02:34 22.12.2019
5711 Clouds -11 1030 78 14484 2.1 10 01:32 22.12.2019
5712 Clouds -11 1030 78 14484 3.1 10 00:58 22.12.2019
5713 Clouds -11 1030 78 14484 3.1 10 00:39 22.12.2019
5714 Clouds -11 1030 78 14484 3.1 10 00:20 22.12.2019
5715 Clouds -11 1031 72 14484 2.6 360 23:42 21.12.2019
5716 Clouds -10 1031 72 14484 2.6 360 23:24 21.12.2019
5717 Clouds -10 1030 72 14484 4.1 30 22:58 21.12.2019
5718 Clouds -10 1030 72 14484 4.1 30 22:39 21.12.2019
5719 Clouds -9 1030 72 14484 4.1 30 22:19 21.12.2019
5720 Clouds -9 1031 66 14484 1.5 90 21:56 21.12.2019
5721 Clouds -9 1031 66 14484 1.5 90 21:37 21.12.2019
5722 Clouds -9 1031 66 14484 1.5 90 21:19 21.12.2019
5723 Clouds -9 1031 66 14484 3.6 60 20:57 21.12.2019
5724 Clouds -9 1031 66 14484 3.6 60 20:38 21.12.2019
5725 Clouds -9 1031 66 14484 3.6 60 20:20 21.12.2019
5726 Clouds -9 1033 72 14484 3.1 60 19:57 21.12.2019
5727 Clouds -9 1033 72 14484 3.1 60 19:39 21.12.2019
5728 Clouds -9 1033 72 14484 3.1 60 19:19 21.12.2019
5729 Clouds -9 1034 72 14484 2.6 50 18:42 21.12.2019
5730 Clouds -10 1034 72 14484 2.6 50 18:24 21.12.2019
5731 Clear -10 1036 78 14484 2.6 40 17:57 21.12.2019
5732 Clear -10 1036 78 14484 2.6 40 17:39 21.12.2019
5733 Clear -11 1036 78 14484 2.6 40 17:21 21.12.2019
5734 Clouds -11 1037 78 14484 1.5 30 16:58 21.12.2019
5735 Clouds -11 1037 78 14484 1.5 30 16:39 21.12.2019
5736 Clouds -12 1037 78 14484 1.5 30 16:18 21.12.2019
5737 Clouds -11 1037 77 14484 1.5 80 15:57 21.12.2019
5738 Clouds -12 1037 77 14484 1.5 80 15:38 21.12.2019
5739 Clouds -13 1037 77 14484 1.5 80 15:19 21.12.2019
5740 Clouds -13 1038 77 14484 1.5 120 14:55 21.12.2019
5741 Clouds -14 1038 77 14484 1.5 120 14:37 21.12.2019
5742 Clouds -14 1038 77 14484 1.5 120 14:18 21.12.2019
5743 Clouds -15 1038 77 14484 1.31 112 13:54 21.12.2019
5744 Clouds -15 1038 77 14484 1.31 112 13:36 21.12.2019
5745 Clouds -15 1038 77 14484 1.28 115 13:18 21.12.2019
5746 Clouds -15 1038 77 14484 1 140 12:54 21.12.2019
5747 Clouds -16 1038 77 14484 1 140 12:36 21.12.2019
5748 Clouds -16 1038 77 14484 1 140 12:36 21.12.2019
5749 Clouds -16 1038 77 14484 1 140 12:18 21.12.2019
5750 Clouds -16 1039 84 14484 1 90 11:41 21.12.2019
5751 Clouds -16 1039 84 14484 1 90 11:41 21.12.2019
5752 Clouds -16 1039 84 14484 1 90 11:23 21.12.2019
5753 Clouds -16 1039 77 14484 1.17 180 10:54 21.12.2019
5754 Clouds -16 1039 77 14484 1.17 180 10:36 21.12.2019
5755 Clouds -16 1039 77 14484 1.17 180 10:18 21.12.2019
5756 Clouds -16 1040 77 14484 2.1 180 09:42 21.12.2019
5757 Clouds -16 1040 77 14484 2.1 180 09:21 21.12.2019
5758 Clouds -16 1040 77 14484 2.1 180 08:57 21.12.2019
5759 Clouds -16 1040 77 14484 2.1 180 08:37 21.12.2019
5760 Clouds -16 1040 77 14484 2.1 180 08:18 21.12.2019
5761 Clouds -16 1040 77 14484 1.5 160 07:41 21.12.2019
5762 Clouds -16 1040 77 14484 1.5 160 07:22 21.12.2019
5763 Clear -15 1040 77 14484 2.1 170 06:44 21.12.2019
5764 Clear -15 1040 77 14484 2.1 170 06:25 21.12.2019
5765 Clear -15 1040 77 11265 3.1 130 05:47 21.12.2019
5766 Clear -15 1040 71 14484 2.6 260 04:58 21.12.2019
5767 Clear -14 1040 66 14484 4.1 250 03:57 21.12.2019
5768 Clear -14 1040 66 14484 5.1 240 02:52 21.12.2019
5769 Clear -14 1040 71 14484 4.1 240 01:57 21.12.2019
5770 Clear -13 1040 71 14484 4.1 240 01:27 21.12.2019
5771 Clear -13 1040 66 14484 4.6 250 00:53 21.12.2019
5772 Clear -13 1040 66 14484 4.6 250 00:32 21.12.2019
5773 Clear -13 1040 66 14484 4.6 240 23:59 20.12.2019
5774 Clear -13 1040 66 14484 4.6 240 23:37 20.12.2019
5775 Clear -12 1040 66 14484 4.6 240 23:18 20.12.2019
5776 Clear -12 1039 66 14484 4.6 240 22:40 20.12.2019
5777 Clear -12 1039 66 14484 4.6 240 22:21 20.12.2019
5778 Clear -11 1039 61 14484 5.7 240 21:59 20.12.2019
5779 Clear -11 1039 61 14484 5.7 240 21:40 20.12.2019
5780 Clear -11 1039 61 14484 5.7 240 21:20 20.12.2019
5781 Clear -11 1038 66 14484 4.6 240 20:41 20.12.2019
5782 Clear -11 1038 66 14484 4.6 240 20:21 20.12.2019
5783 Clear -11 1038 66 14484 4.6 240 19:59 20.12.2019
5784 Clear -11 1038 66 14484 4.6 240 19:59 20.12.2019
5785 Clear -11 1038 66 14484 4.6 240 19:40 20.12.2019
5786 Clear -11 1038 66 14484 4.6 240 19:20 20.12.2019
5787 Clear -12 1038 60 14484 3.6 240 18:56 20.12.2019
5788 Clear -12 1038 60 14484 3.6 240 18:38 20.12.2019
5789 Clear -12 1038 60 14484 3.6 240 18:20 20.12.2019
5790 Clear -12 1038 65 14484 5.1 230 17:42 20.12.2019
5791 Clear -13 1038 65 14484 5.1 230 17:22 20.12.2019
5792 Clouds -13 1038 65 14484 4.6 230 16:59 20.12.2019
5793 Clouds -14 1038 60 14484 4.1 220 16:40 20.12.2019
5794 Clouds -14 1038 60 14484 4.1 220 16:20 20.12.2019
5795 Clear -14 1037 71 14484 3.1 240 15:57 20.12.2019
5796 Clear -15 1037 71 14484 3.1 240 15:39 20.12.2019
5797 Clear -15 1037 71 14484 3.1 240 15:19 20.12.2019
5798 Clear -15 1036 65 14484 4.1 250 14:58 20.12.2019
5799 Clear -16 1036 65 14484 4.1 250 14:39 20.12.2019
5800 Clear -16 1036 65 14484 4.1 250 14:21 20.12.2019
5801 Clear -17 1036 70 14484 3.1 250 13:42 20.12.2019
5802 Clear -17 1036 70 14484 3.1 250 13:21 20.12.2019
5803 Clear -16 1034 65 14484 3.1 260 12:59 20.12.2019
5804 Clear -16 1034 65 14484 3.1 260 12:41 20.12.2019
5805 Clear -16 1034 65 14484 3.1 260 12:19 20.12.2019
5806 Clear -16 1034 65 14484 3.6 270 11:59 20.12.2019
5807 Clear -16 1034 65 14484 3.6 270 11:40 20.12.2019
5808 Clear -16 1034 65 14484 3.6 270 11:20 20.12.2019
5809 Clear -16 1033 65 14484 4.1 270 10:59 20.12.2019
5810 Clear -16 1033 65 14484 4.1 270 10:41 20.12.2019
5811 Clear -16 1033 65 14484 4.1 270 10:20 20.12.2019
5812 Clouds -16 1032 65 14484 3.6 280 09:56 20.12.2019
5813 Clouds -16 1032 65 14484 3.6 280 09:38 20.12.2019
5814 Clouds -16 1032 65 14484 3.6 280 09:19 20.12.2019
5815 Clouds -15 1031 65 14484 4.6 280 08:43 20.12.2019
5816 Clouds -15 1031 65 14484 4.6 280 08:24 20.12.2019
5817 Clouds -15 1030 65 14484 5.1 280 07:58 20.12.2019
5818 Clouds -15 1030 65 14484 5.1 280 07:40 20.12.2019
5819 Clouds -15 1030 65 14484 5.1 280 07:19 20.12.2019
5820 Clouds -15 1029 65 14484 4.6 280 06:52 20.12.2019
5821 Clouds -15 1029 65 14484 4.6 280 06:32 20.12.2019
5822 Clouds -15 1029 65 14484 4.1 260 05:53 20.12.2019
5823 Clouds -16 1029 65 14484 4.1 260 05:35 20.12.2019
5824 Clouds -16 1029 65 14484 7.7 280 04:33 20.12.2019
5825 Clouds -16 1028 65 14484 7.2 270 03:30 20.12.2019
5826 Clouds -16 1028 71 14484 5.7 260 02:43 20.12.2019
5827 Clouds -16 1027 65 14484 7.2 250 01:49 20.12.2019
5828 Clouds -16 1027 65 14484 7.2 250 01:49 20.12.2019
5829 Clouds -16 1027 65 14484 7.2 250 01:30 20.12.2019
5830 Clouds -16 1027 65 14484 5.1 270 00:43 20.12.2019
5831 Clouds -16 1027 65 14484 5.1 270 00:23 20.12.2019
5832 Clear -16 1026 60 14484 6.7 260 23:44 19.12.2019
5833 Clear -16 1026 60 14484 6.7 260 23:25 19.12.2019
5834 Clear -15 1025 60 14484 8.2 250 22:59 19.12.2019
5835 Clear -15 1025 60 14484 8.2 250 22:37 19.12.2019
5836 Clear -15 1025 60 14484 8.2 250 22:18 19.12.2019
5837 Clear -15 1025 55 14484 8.2 250 21:55 19.12.2019
5838 Clear -15 1025 55 14484 8.2 250 21:37 19.12.2019
5839 Clear -15 1025 55 14484 8.2 250 21:18 19.12.2019
5840 Clear -15 1025 55 14484 8.2 250 21:18 19.12.2019
5841 Clouds -15 1024 54 14484 10.8 280 20:55 19.12.2019
5842 Clouds -15 1024 54 14484 10.8 280 20:36 19.12.2019
5843 Clouds -15 1024 54 14484 10.8 280 20:18 19.12.2019
5844 Clouds -15 1024 59 14484 8.7 270 19:54 19.12.2019
5845 Clouds -15 1024 59 14484 8.7 270 19:54 19.12.2019
5846 Clouds -16 1024 59 14484 8.7 270 19:36 19.12.2019
5847 Clouds -16 1024 59 14484 8.7 270 19:18 19.12.2019
5848 Clouds -17 1024 64 14484 8.2 260 18:41 19.12.2019
5849 Clouds -16 1024 64 14484 8.2 260 18:22 19.12.2019
5850 Clouds -17 1024 59 14484 10.3 260 17:58 19.12.2019
5851 Clouds -17 1024 59 14484 10.3 260 17:39 19.12.2019
5852 Clouds -17 1024 59 14484 10.3 260 17:19 19.12.2019
5853 Clouds -18 1025 64 14484 8.2 260 16:58 19.12.2019
5854 Clouds -18 1025 64 14484 8.2 260 16:40 19.12.2019
5855 Clouds -18 1025 64 14484 8.2 260 16:22 19.12.2019
5856 Clouds -19 1024 64 14484 8.2 250 15:59 19.12.2019
5857 Clouds -19 1024 64 14484 8.2 250 15:39 19.12.2019
5858 Clouds -19 1024 64 14484 8.2 250 15:20 19.12.2019
5859 Haze -19 1023 64 9656 8.7 260 14:59 19.12.2019
5860 Haze -20 1023 64 9656 8.7 260 14:41 19.12.2019
5861 Haze -20 1023 70 8047 10.8 260 14:19 19.12.2019
5862 Clouds -20 1022 64 11265 8.7 270 13:57 19.12.2019
5863 Clouds -19 1022 64 11265 8.7 270 13:37 19.12.2019
5864 Clouds -20 1022 64 11265 8.7 270 13:18 19.12.2019
5865 Clouds -20 1021 64 14484 10.3 260 12:55 19.12.2019
5866 Clouds -20 1021 64 14484 10.3 260 12:55 19.12.2019
5867 Clouds -20 1021 64 14484 10.3 260 12:37 19.12.2019
5868 Clouds -20 1021 64 14484 10.3 260 12:18 19.12.2019
5869 Snow -19 1021 64 11265 7.7 270 11:57 19.12.2019
5870 Snow -19 1021 64 11265 7.7 270 11:57 19.12.2019
5871 Snow -19 1021 64 11265 7.7 270 11:38 19.12.2019
5872 Clouds -19 1021 64 14484 9.3 270 11:18 19.12.2019
5873 Clouds -19 1020 64 14484 6.7 270 10:55 19.12.2019
5874 Clouds -19 1020 64 14484 6.7 270 10:36 19.12.2019
5875 Clouds -19 1020 64 14484 6.7 270 10:18 19.12.2019
5876 Clouds -19 1020 64 14484 6.7 270 10:18 19.12.2019
5877 Clouds -19 1020 64 14484 6.7 270 10:18 19.12.2019
5878 Clear -19 1019 64 14484 7.7 260 09:38 19.12.2019
5879 Clear -19 1019 64 11265 8.7 260 09:20 19.12.2019
5880 Clear -19 1019 64 11265 8.7 260 09:20 19.12.2019
5881 Clear -19 1019 64 11265 8.7 260 09:20 19.12.2019
5882 Clear -19 1019 64 11265 8.7 260 09:20 19.12.2019
5883 Haze -19 1018 64 8047 10.8 270 08:58 19.12.2019
5884 Haze -19 1018 64 8047 10.8 270 08:39 19.12.2019
5885 Haze -19 1018 59 8047 10.8 270 08:19 19.12.2019
5886 Clouds -18 1017 59 11265 9.8 270 07:56 19.12.2019
5887 Clouds -18 1017 59 11265 9.8 270 07:38 19.12.2019
5888 Clouds -18 1017 59 11265 9.8 270 07:19 19.12.2019
5889 Snow -18 1016 64 8047 11.3 270 06:49 19.12.2019
5890 Snow -17 1015 64 8047 11.3 270 06:28 19.12.2019
5891 Haze -17 1015 65 8047 9.8 270 05:55 19.12.2019
5892 Clear -16 1014 60 14484 8.7 270 05:33 19.12.2019
5893 Snow -15 1013 65 14484 7.7 260 04:48 19.12.2019
5894 Snow -12 1011 72 14484 8.2 260 02:49 19.12.2019
5895 Snow -10 1010 72 9656 9.3 260 01:47 19.12.2019
5896 Snow -10 1009 78 6437 10.3 270 01:22 19.12.2019
5897 Snow -9 1008 73 2816 11.3 250 00:40 19.12.2019
5898 Snow -8 1008 73 14484 8.7 260 00:21 19.12.2019
5899 Snow -7 1007 73 8047 9.3 270 23:55 18.12.2019
5900 Snow -7 1007 73 8047 9.3 270 23:36 18.12.2019
5901 Snow -6 1007 73 12874 8.2 280 23:18 18.12.2019
5902 Snow -6 1006 85 2816 9.3 290 22:55 18.12.2019
5903 Snow -5 1006 73 11265 9.3 290 22:36 18.12.2019
5904 Snow -5 1005 85 1609 7.2 300 22:18 18.12.2019
5905 Snow -5 1006 85 2414 9.3 290 21:55 18.12.2019
5906 Snow -4 1004 86 2414 4.6 270 21:36 18.12.2019
5907 Snow -4 1004 86 2414 4.6 270 21:36 18.12.2019
5908 Snow -4 1004 86 3219 4.1 270 21:18 18.12.2019
5909 Snow -3 1004 86 8047 4.1 280 20:54 18.12.2019
5910 Snow -3 1004 86 8047 4.1 280 20:36 18.12.2019
5911 Snow -3 1004 86 11265 4.1 280 20:18 18.12.2019
5912 Snow -3 1003 92 1207 4.1 230 19:54 18.12.2019
5913 Snow -3 1003 92 1207 4.1 230 19:54 18.12.2019
5914 Snow -3 1003 92 1207 4.1 230 19:36 18.12.2019
5915 Snow -2 1003 92 1207 4.1 230 19:18 18.12.2019
5916 Snow -2 1004 92 2414 3.1 240 18:43 18.12.2019
5917 Snow -3 1004 86 1207 2.6 200 18:25 18.12.2019
5918 Snow -3 1004 92 1609 3.1 210 17:56 18.12.2019
5919 Snow -3 1004 92 1609 3.1 210 17:38 18.12.2019
5920 Snow -3 1005 86 2816 3.1 220 17:19 18.12.2019
5921 Snow -3 1005 86 2816 2.6 210 16:54 18.12.2019
5922 Snow -3 1005 92 4023 3.1 230 16:36 18.12.2019
5923 Snow -3 1005 92 4023 3.1 230 16:18 18.12.2019
5924 Snow -3 1005 86 24140 3.6 210 15:54 18.12.2019
5925 Snow -3 1005 86 24140 3.6 210 15:36 18.12.2019
5926 Snow -3 1005 86 24140 3.6 210 15:18 18.12.2019
5927 Snow -4 1006 92 8047 3.6 190 14:40 18.12.2019
5928 Snow -4 1006 92 8047 3.6 190 14:20 18.12.2019
5929 Snow -4 1006 92 9656 4.1 190 13:57 18.12.2019
5930 Snow -4 1006 92 9656 4.1 190 13:57 18.12.2019
5931 Snow -4 1006 92 4828 2.1 190 13:37 18.12.2019
5932 Snow -4 1006 92 4828 2.1 190 13:19 18.12.2019
5933 Snow -4 1006 92 4828 2.1 190 12:57 18.12.2019
5934 Snow -4 1006 92 4828 2.1 190 12:38 18.12.2019
5935 Snow -4 1006 92 4828 2.1 190 12:19 18.12.2019
5936 Snow -4 1006 92 4828 2.6 180 11:55 18.12.2019
5937 Snow -5 1007 92 4828 2.1 160 11:37 18.12.2019
5938 Snow -4 1007 92 4828 2.1 160 11:18 18.12.2019
5939 Snow -4 1007 92 4828 2.1 160 10:55 18.12.2019
5940 Snow -4 1007 92 2414 1 170 10:37 18.12.2019
5941 Snow -5 1007 92 2414 1 170 10:19 18.12.2019
5942 Snow -4 1008 92 4023 1.07 241 09:43 18.12.2019
5943 Snow -5 1008 92 4023 1.07 241 09:18 18.12.2019
5944 Snow -5 1008 92 6437 1 280 08:40 18.12.2019
5945 Snow -4 1008 92 6437 1 280 08:21 18.12.2019
5946 Snow -5 1008 92 4828 1 330 07:43 18.12.2019
5947 Snow -5 1008 92 4828 1 330 07:23 18.12.2019
5948 Snow -5 1007 100 4023 1 20 06:55 18.12.2019
5949 Snow -4 1008 92 4828 1.5 360 06:27 18.12.2019
5950 Snow -4 1008 92 3219 1.5 10 05:54 18.12.2019
5951 Snow -4 1008 92 2816 2.6 340 04:57 18.12.2019
5952 Snow -4 1009 92 4828 3.1 20 02:55 18.12.2019
5953 Snow -4 1009 92 4023 2.1 20 02:36 18.12.2019
5954 Snow -4 1009 92 4023 2.1 20 02:18 18.12.2019
5955 Snow -4 1009 92 4023 3.1 20 01:40 18.12.2019
5956 Snow -4 1009 92 4023 3.1 20 01:21 18.12.2019
5957 Snow -3 1009 92 6437 2.6 40 00:41 18.12.2019
5958 Snow -3 1009 92 6437 2.6 40 00:23 18.12.2019
5959 Snow -3 1009 92 6437 2.6 40 00:23 18.12.2019
5960 Snow -3 1009 92 6437 3.1 20 23:56 17.12.2019
5961 Snow -3 1009 92 6437 3.1 20 23:38 17.12.2019
5962 Snow -3 1009 86 4828 3.1 20 23:18 17.12.2019
5963 Snow -3 1009 86 3219 2.1 30 22:56 17.12.2019
5964 Snow -3 1009 92 2414 2.6 40 22:37 17.12.2019
5965 Snow -3 1009 92 2414 2.6 40 22:18 17.12.2019
5966 Snow -3 1010 86 3621 1 0 21:55 17.12.2019
5967 Snow -2 1010 86 3621 1 0 21:37 17.12.2019
5968 Snow -2 1010 86 3621 1 0 21:37 17.12.2019
5969 Snow -2 1010 74 8047 1.99 34 21:19 17.12.2019
5970 Snow -2 1010 74 8047 1.99 34 20:56 17.12.2019
5971 Clouds -2 1011 74 14484 1 0 20:38 17.12.2019
5972 Clouds -2 1011 74 14484 1 0 20:18 17.12.2019
5973 Snow -2 1010 68 9656 2.1 140 19:55 17.12.2019
5974 Snow -2 1011 63 14484 1.5 160 19:37 17.12.2019
5975 Snow -2 1011 63 14484 1.5 160 19:18 17.12.2019
5976 Clouds -2 1012 63 14484 1.5 210 18:42 17.12.2019
5977 Clouds -2 1012 63 14484 1.5 210 18:42 17.12.2019
5978 Clouds -2 1012 63 14484 1.5 210 18:22 17.12.2019
5979 Clouds -2 1013 68 14484 2.6 160 17:59 17.12.2019
5980 Clouds -2 1013 68 14484 2.6 160 17:59 17.12.2019
5981 Clouds -2 1013 68 14484 2.6 160 17:41 17.12.2019
5982 Clouds -2 1013 68 14484 2.6 160 17:19 17.12.2019
5983 Clouds -2 1015 68 14484 1.5 180 16:56 17.12.2019
5984 Clouds -2 1015 68 14484 1.5 180 16:37 17.12.2019
5985 Clouds -2 1015 68 14484 1.5 180 16:37 17.12.2019
5986 Clouds -2 1015 68 14484 1.5 180 16:19 17.12.2019
5987 Clouds -2 1015 73 14484 2.6 170 15:56 17.12.2019
5988 Clouds -3 1015 73 14484 2.6 170 15:37 17.12.2019
5989 Clouds -3 1015 73 14484 2.6 170 15:37 17.12.2019
5990 Clouds -3 1015 73 14484 2.6 170 15:19 17.12.2019
5991 Clouds -3 1016 73 14484 2.1 180 14:55 17.12.2019
5992 Clouds -3 1016 73 14484 2.1 180 14:37 17.12.2019
5993 Clouds -4 1016 73 14484 2.1 180 14:18 17.12.2019
5994 Clouds -4 1017 79 14484 2.1 150 13:55 17.12.2019
5995 Clouds -4 1017 79 14484 2.1 150 13:37 17.12.2019
5996 Clouds -4 1017 79 14484 2.1 150 13:18 17.12.2019
5997 Clouds -4 1017 79 14484 1.5 150 12:41 17.12.2019
5998 Clouds -4 1017 79 14484 1.5 150 12:19 17.12.2019
5999 Clouds -4 1018 73 14484 1.5 180 11:59 17.12.2019
6000 Clouds -4 1018 73 14484 1.5 180 11:38 17.12.2019
6001 Clouds -4 1018 73 14484 1.5 180 11:38 17.12.2019
6002 Clouds -4 1018 73 14484 1.5 180 11:19 17.12.2019
6003 Clouds -4 1019 73 14484 2.6 180 10:59 17.12.2019
6004 Clouds -4 1019 73 14484 2.6 180 10:41 17.12.2019
6005 Clouds -4 1019 73 14484 2.6 180 10:23 17.12.2019
6006 Clouds -4 1019 73 14484 3.6 180 09:59 17.12.2019
6007 Clouds -4 1019 73 14484 3.6 180 09:41 17.12.2019
6008 Clouds -4 1019 73 14484 3.6 180 09:20 17.12.2019
6009 Clouds -4 1020 73 14484 2.6 170 08:56 17.12.2019
6010 Clouds -4 1020 73 14484 2.6 170 08:38 17.12.2019
6011 Clouds -4 1020 73 14484 2.6 170 08:38 17.12.2019
6012 Clouds -4 1020 73 14484 2.6 170 08:38 17.12.2019
6013 Clouds -4 1020 73 14484 2.6 170 08:20 17.12.2019
6014 Clouds -4 1020 68 14484 2.6 190 07:55 17.12.2019
6015 Clouds -4 1020 68 14484 2.6 190 07:36 17.12.2019
6016 Clouds -4 1020 68 14484 2.6 190 07:18 17.12.2019
6017 Clouds -4 1020 68 14484 2.6 170 06:35 17.12.2019
6018 Clouds -5 1021 73 14484 2.6 180 05:56 17.12.2019
6019 Clouds -5 1021 73 14484 2.6 180 05:36 17.12.2019
6020 Clouds -5 1021 67 14484 3.1 180 04:45 17.12.2019
6021 Clouds -5 1022 62 14484 2.1 210 02:47 17.12.2019
6022 Clouds -5 1023 62 14484 1.5 190 01:56 17.12.2019
6023 Clouds -5 1023 62 14484 1.5 190 01:20 17.12.2019
6024 Clouds -5 1023 57 14484 2.6 200 00:38 17.12.2019
6025 Clouds -5 1023 57 14484 2.6 200 00:20 17.12.2019
6026 Clouds -6 1023 62 14484 3.1 200 23:42 16.12.2019
6027 Clouds -6 1023 62 14484 3.1 200 23:42 16.12.2019
6028 Clouds -6 1023 62 14484 3.1 200 23:19 16.12.2019
6029 Snow -6 1023 62 14484 4.1 210 22:58 16.12.2019
6030 Snow -6 1023 62 32767 2.1 240 22:38 16.12.2019
6031 Snow -6 1023 62 32767 2.1 240 22:20 16.12.2019
6032 Clouds -6 1023 57 14484 6.2 250 21:56 16.12.2019
6033 Clouds -6 1023 57 14484 6.2 250 21:38 16.12.2019
6034 Clouds -6 1023 57 14484 6.2 250 21:38 16.12.2019
6035 Clouds -6 1023 57 14484 6.2 250 21:20 16.12.2019
6036 Clouds -6 1024 49 14484 4.6 240 20:58 16.12.2019
6037 Clouds -6 1024 49 14484 4.6 240 20:38 16.12.2019
6038 Clouds -6 1024 49 14484 4.6 240 20:19 16.12.2019
6039 Clouds -6 1024 57 14484 6.7 240 19:56 16.12.2019
6040 Clouds -6 1024 57 14484 6.7 240 19:56 16.12.2019
6041 Clouds -6 1024 57 14484 6.7 240 19:37 16.12.2019
6042 Clouds -6 1024 57 14484 6.7 240 19:19 16.12.2019
6043 Clouds -6 1024 52 14484 6.2 250 18:56 16.12.2019
6044 Clouds -6 1024 52 14484 6.2 250 18:56 16.12.2019
6045 Clouds -6 1024 52 14484 6.2 250 18:38 16.12.2019
6046 Clouds -6 1024 52 14484 6.2 250 18:38 16.12.2019
6047 Clouds -7 1024 52 14484 6.2 250 18:19 16.12.2019
6048 Clear -7 1025 52 14484 3.6 250 17:57 16.12.2019
6049 Clear -7 1025 52 14484 3.6 250 17:38 16.12.2019
6050 Clear -8 1025 52 14484 3.6 250 17:20 16.12.2019
6051 Clear -8 1025 52 14484 3.6 250 17:20 16.12.2019
6052 Clear -8 1025 56 14484 6.2 250 16:57 16.12.2019
6053 Clear -8 1025 56 14484 6.2 250 16:38 16.12.2019
6054 Clear -9 1025 56 14484 6.2 250 16:19 16.12.2019
6055 Clear -9 1025 61 14484 6.2 250 15:58 16.12.2019
6056 Clear -9 1025 61 14484 6.2 250 15:38 16.12.2019
6057 Clear -10 1025 61 14484 6.2 250 15:20 16.12.2019
6058 Clear -11 1024 66 14484 4.1 260 14:55 16.12.2019
6059 Clear -11 1024 66 14484 4.1 260 14:37 16.12.2019
6060 Clear -11 1024 66 14484 4.1 260 14:19 16.12.2019
6061 Clear -12 1023 66 14484 6.2 240 13:56 16.12.2019
6062 Clear -11 1023 66 14484 6.2 240 13:37 16.12.2019
6063 Clear -11 1023 66 14484 6.2 240 13:19 16.12.2019
6064 Clear -11 1022 66 14484 4.1 260 12:57 16.12.2019
6065 Clear -11 1022 66 14484 4.1 260 12:39 16.12.2019
6066 Clear -11 1022 66 14484 4.1 260 12:18 16.12.2019
6067 Clear -11 1022 72 14484 5.1 240 11:57 16.12.2019
6068 Clear -11 1022 72 14484 5.1 240 11:39 16.12.2019
6069 Clear -11 1022 72 14484 5.1 240 11:19 16.12.2019
6070 Clear -11 1022 61 14484 6.2 270 10:55 16.12.2019
6071 Clear -11 1022 61 14484 6.2 270 10:36 16.12.2019
6072 Clear -11 1022 61 14484 6.2 270 10:18 16.12.2019
6073 Clear -10 1022 61 14484 4.1 260 09:44 16.12.2019
6074 Clear -10 1022 61 14484 4.1 260 09:44 16.12.2019
6075 Clear -10 1022 61 14484 4.1 260 09:26 16.12.2019
6076 Clear -10 1021 61 14484 9.3 270 08:41 16.12.2019
6077 Clear -10 1021 61 14484 9.3 270 08:21 16.12.2019
6078 Clear -10 1019 61 14484 10.8 280 07:57 16.12.2019
6079 Clear -10 1019 61 14484 10.8 280 07:38 16.12.2019
6080 Clear -10 1019 61 14484 10.8 280 07:19 16.12.2019
6081 Clouds -10 1019 56 14484 10.3 260 06:40 16.12.2019
6082 Clouds -9 1019 56 14484 10.3 260 06:22 16.12.2019
6083 Clouds -9 1019 56 14484 10.3 260 06:21 16.12.2019
6084 Clouds -9 1018 61 14484 9.3 270 05:44 16.12.2019
6085 Clouds -9 1018 61 14484 9.3 270 05:26 16.12.2019
6086 Clear -8 1015 57 14484 11.8 270 03:33 16.12.2019
6087 Clouds -7 1014 57 14484 11.8 270 01:57 16.12.2019
6088 Snow -7 1013 62 14484 9.3 280 01:39 16.12.2019
6089 Snow -7 1012 62 14484 11.8 280 00:41 16.12.2019
6090 Snow -7 1012 62 14484 11.8 280 00:23 16.12.2019
6091 Clouds -7 1012 67 24140 11.3 270 23:58 15.12.2019
6092 Snow -6 1009 62 14484 12.9 280 23:38 15.12.2019
6093 Snow -6 1009 62 14484 12.9 280 23:19 15.12.2019
6094 Snow -6 1009 67 24140 11.3 260 22:54 15.12.2019
6095 Snow -6 1007 67 14484 11.3 280 22:36 15.12.2019
6096 Snow -6 1007 67 14484 11.3 280 22:18 15.12.2019
6097 Clouds -6 1006 62 14484 9.3 280 21:55 15.12.2019
6098 Snow -5 1006 67 14484 9.3 260 21:37 15.12.2019
6099 Snow -5 1006 67 14484 9.3 260 21:37 15.12.2019
6100 Snow -5 1006 67 14484 9.3 260 21:18 15.12.2019
6101 Snow -5 1004 67 14484 11.8 260 20:55 15.12.2019
6102 Snow -5 1004 67 24140 10.3 270 20:36 15.12.2019
6103 Snow -4 1004 67 24140 10.3 270 20:18 15.12.2019
6104 Clouds -4 1001 68 14484 8.2 260 19:55 15.12.2019
6105 Clouds -4 1001 68 14484 8.2 260 19:37 15.12.2019
6106 Clouds -3 1001 68 14484 8.2 260 19:18 15.12.2019
6107 -273 0 0 0 0 0 18:55 15.12.2019
6108 Clouds -4 1000 68 14484 11.3 270 18:36 15.12.2019
6109 Clouds -3 1000 68 14484 11.3 270 18:18 15.12.2019
6110 Clouds -3 999 68 14484 11.3 280 17:55 15.12.2019
6111 Snow -3 999 68 14484 11.8 260 17:36 15.12.2019
6112 Snow -3 999 68 14484 11.8 260 17:18 15.12.2019
6113 Clouds -2 998 68 14484 10.3 270 16:42 15.12.2019
6114 Clouds -2 998 68 14484 10.3 270 16:23 15.12.2019
6115 Clouds -2 997 74 14484 13.9 260 15:57 15.12.2019
6116 Clouds -2 997 74 24140 12.9 270 15:39 15.12.2019
6117 Clouds -2 997 74 24140 12.9 270 15:19 15.12.2019
6118 Snow -2 994 80 14484 13.9 270 14:56 15.12.2019
6119 Snow -1 994 68 14484 8.7 260 14:38 15.12.2019
6120 Snow -1 994 71 14484 8.7 260 14:19 15.12.2019
6121 Clouds 0 992 74 14484 11.3 260 13:59 15.12.2019
6122 Clouds 0 992 74 14484 11.3 260 13:39 15.12.2019
6123 Clouds 0 992 74 14484 11.3 260 13:20 15.12.2019
6124 Clouds 0 989 80 14484 13.4 250 12:57 15.12.2019
6125 Clouds 0 989 80 14484 13.4 250 12:57 15.12.2019
6126 Clouds 0 989 80 14484 13.4 250 12:39 15.12.2019
6127 Clouds 0 989 80 14484 13.4 250 12:21 15.12.2019
6128 Clouds 1 987 80 14484 12.3 260 11:59 15.12.2019
6129 Rain 1 987 80 14484 12.3 260 11:38 15.12.2019
6130 Rain 1 987 80 14484 12.3 260 11:19 15.12.2019
6131 Rain 1 987 80 14484 12.3 260 11:19 15.12.2019
6132 Rain 1 987 80 14484 9.8 260 10:55 15.12.2019
6133 Snow 1 986 86 14484 13.4 260 10:37 15.12.2019
6134 Snow 1 986 86 14484 13.4 260 10:19 15.12.2019
6135 Snow 0 985 86 9656 10.3 250 09:57 15.12.2019
6136 Rain 1 983 93 14484 12.9 250 09:37 15.12.2019
6137 Rain 1 983 93 14484 12.9 250 09:19 15.12.2019
6138 Rain 1 981 93 14484 11.8 240 08:42 15.12.2019
6139 Rain 1 981 94 14484 11.8 240 08:23 15.12.2019
6140 Rain 1 981 87 9656 12.3 240 07:57 15.12.2019
6141 Clouds 1 981 87 8047 9.8 220 07:38 15.12.2019
6142 Snow 1 980 87 4828 6.2 230 06:59 15.12.2019
6143 Clouds 1 980 93 14484 10.8 230 06:24 15.12.2019
6144 Clouds 2 980 93 14484 10.3 230 05:42 15.12.2019
6145 Clouds 2 980 93 14484 10.3 230 05:20 15.12.2019
6146 Rain 3 980 93 2816 7.7 230 04:19 15.12.2019
6147 Rain 3 979 100 4828 2.6 30 02:49 15.12.2019
6148 Mist 3 980 100 3219 5.7 40 02:30 15.12.2019
6149 Rain 3 982 100 4828 5.7 20 01:40 15.12.2019
6150 Rain 3 982 100 4828 5.7 20 01:18 15.12.2019
6151 Rain 3 984 93 4828 4.6 10 00:47 15.12.2019
6152 Rain 3 984 93 4828 4.6 10 00:29 15.12.2019
6153 Rain 3 986 100 4828 4.1 10 23:41 14.12.2019
6154 Rain 3 986 100 4828 4.1 10 23:22 14.12.2019
6155 Rain 3 987 93 8047 7.7 30 22:59 14.12.2019
6156 Mist 3 988 100 4828 4.6 20 22:41 14.12.2019
6157 Mist 3 988 100 4828 4.6 20 22:22 14.12.2019
6158 Mist 3 988 100 4023 6.2 20 21:57 14.12.2019
6159 Mist 3 991 93 4828 4.6 20 21:38 14.12.2019
6160 Mist 3 991 93 4828 4.6 20 21:19 14.12.2019
6161 Mist 3 991 93 4828 4.6 20 21:19 14.12.2019
6162 Mist 3 991 100 8047 5.7 30 20:59 14.12.2019
6163 Mist 3 991 100 8047 5.7 30 20:40 14.12.2019
6164 Mist 3 991 100 8047 5.7 30 20:20 14.12.2019
6165 Clouds 3 995 100 12874 6.7 20 19:57 14.12.2019
6166 Clouds 3 995 100 12874 6.7 20 19:39 14.12.2019
6167 Clouds 3 995 100 12874 6.7 20 19:20 14.12.2019
6168 Mist 3 995 100 9656 8.2 30 18:56 14.12.2019
6169 Clouds 3 997 100 14484 6.2 20 18:38 14.12.2019
6170 Clouds 3 997 100 14484 6.2 20 18:38 14.12.2019
6171 Clouds 3 997 100 14484 6.2 20 18:19 14.12.2019
6172 Clouds 3 999 93 12874 5.1 20 17:44 14.12.2019
6173 Clouds 3 999 93 12874 5.1 20 17:24 14.12.2019
6174 Clouds 3 1001 93 14484 5.7 20 16:59 14.12.2019
6175 Rain 2 1002 100 14484 5.1 20 16:40 14.12.2019
6176 Rain 2 1002 100 14484 5.1 20 16:19 14.12.2019
6177 Drizzle 2 1002 100 11265 8.2 30 15:54 14.12.2019
6178 Rain 2 1004 100 11265 5.1 20 15:36 14.12.2019
6179 Rain 2 1004 100 11265 5.1 20 15:36 14.12.2019
6180 Rain 2 1004 100 11265 5.1 20 15:36 14.12.2019
6181 Rain 2 1004 100 11265 5.1 20 15:18 14.12.2019
6182 Clouds 2 1005 100 14484 6.7 30 14:40 14.12.2019
6183 Clouds 2 1005 100 14484 6.7 30 14:21 14.12.2019
6184 Rain 2 1006 93 14484 5.7 40 13:59 14.12.2019
6185 Rain 2 1007 93 12874 5.1 30 13:41 14.12.2019
6186 Rain 2 1007 93 12874 5.1 30 13:41 14.12.2019
6187 Rain 2 1007 93 12874 5.1 30 13:19 14.12.2019
6188 Rain 1 1008 100 9656 4.6 40 12:57 14.12.2019
6189 Rain 2 1008 100 4828 5.1 40 12:38 14.12.2019
6190 Rain 1 1008 100 4828 5.1 40 12:20 14.12.2019
6191 Rain 1 1009 100 2816 4.6 30 11:56 14.12.2019
6192 Rain 1 1010 100 2816 4.6 20 11:38 14.12.2019
6193 Rain 1 1010 100 2816 4.6 20 11:19 14.12.2019
6194 Rain 1 1011 100 4828 4.1 20 10:56 14.12.2019
6195 Rain 1 1012 100 3219 4.1 20 10:38 14.12.2019
6196 Rain 1 1012 100 3219 4.1 20 10:19 14.12.2019
6197 Rain 1 1014 93 2012 3.1 20 09:43 14.12.2019
6198 Rain 1 1014 93 2012 3.1 20 09:23 14.12.2019
6199 Rain 2 1015 100 12874 3.1 30 08:57 14.12.2019
6200 Rain 2 1015 100 12874 3.1 30 08:38 14.12.2019
6201 Rain 2 1015 100 12874 3.1 30 08:19 14.12.2019
6202 Rain 2 1016 93 2816 2.6 30 07:40 14.12.2019
6203 Rain 2 1016 93 2816 2.6 30 07:21 14.12.2019
6204 Rain 2 1017 100 4023 2.6 70 06:48 14.12.2019
6205 Rain 2 1017 93 9656 3.1 80 06:30 14.12.2019
6206 Rain 2 1017 100 3219 3.1 90 05:50 14.12.2019
6207 Rain 2 1019 86 14484 3.1 140 03:44 14.12.2019
6208 Rain 1 1020 95 14484 4.1 150 02:24 14.12.2019
6209 Clouds 2 1021 74 14484 4.1 160 01:44 14.12.2019
6210 Clouds 2 1021 74 14484 4.1 160 01:20 14.12.2019
6211 Clouds 1 1022 80 14484 5.7 170 00:43 14.12.2019
6212 Clouds 2 1022 80 14484 5.7 170 00:22 14.12.2019
6213 Clouds 1 1022 74 14484 5.7 160 23:42 13.12.2019
6214 Clouds 2 1022 74 14484 5.7 160 23:20 13.12.2019
6215 Clouds 2 1022 74 32767 3.1 130 22:59 13.12.2019
6216 Clouds 2 1022 69 32767 3.6 130 22:40 13.12.2019
6217 Clouds 2 1022 69 32767 3.6 130 22:19 13.12.2019
6218 Clear 2 1023 64 14484 5.1 180 21:55 13.12.2019
6219 Clear 2 1023 64 14484 5.1 180 21:36 13.12.2019
6220 Clear 2 1023 64 14484 5.1 180 21:18 13.12.2019
6221 Clouds 3 1023 60 14484 5.1 160 20:40 13.12.2019
6222 Clouds 3 1023 60 14484 5.1 160 20:21 13.12.2019
6223 Clear 4 1024 55 14484 5.7 180 19:58 13.12.2019
6224 Clear 4 1024 55 14484 5.7 180 19:40 13.12.2019
6225 Clear 3 1024 55 14484 5.7 180 19:20 13.12.2019
6226 Clouds 3 1025 59 14484 6.7 180 18:57 13.12.2019
6227 Clouds 3 1025 59 14484 6.7 180 18:39 13.12.2019
6228 Clouds 3 1025 59 14484 6.7 180 18:18 13.12.2019
6229 Clouds 2 1026 59 14484 6.7 180 17:41 13.12.2019
6230 Clouds 1 1026 59 14484 6.7 180 17:19 13.12.2019
6231 Clouds 1 1026 59 14484 6.7 180 17:19 13.12.2019
6232 Clouds 1 1027 60 14484 6.7 180 16:59 13.12.2019
6233 Clouds 0 1027 60 14484 6.7 180 16:39 13.12.2019
6234 Clouds 0 1027 60 14484 6.7 180 16:20 13.12.2019
6235 Clear -1 1027 63 14484 6.2 170 15:43 13.12.2019
6236 Clear -2 1027 63 14484 6.2 170 15:23 13.12.2019
6237 Clouds -2 1027 63 14484 5.7 170 14:58 13.12.2019
6238 Clouds -2 1027 63 14484 5.7 170 14:40 13.12.2019
6239 Clouds -3 1027 63 14484 5.7 170 14:20 13.12.2019
6240 Clouds -3 1027 63 14484 5.7 170 14:20 13.12.2019
6241 Clouds -3 1027 63 14484 4.6 180 13:56 13.12.2019
6242 Clouds -3 1027 63 14484 4.6 180 13:37 13.12.2019
6243 Clouds -3 1027 63 14484 4.6 180 13:19 13.12.2019
6244 Clouds -3 1027 63 14484 4.1 180 12:42 13.12.2019
6245 Clouds -3 1027 63 14484 4.1 180 12:20 13.12.2019
6246 Clouds -3 1027 58 14484 5.7 190 11:57 13.12.2019
6247 Clouds -3 1027 58 14484 5.7 190 11:57 13.12.2019
6248 Clouds -3 1027 58 14484 5.7 190 11:39 13.12.2019
6249 Clouds -3 1027 58 14484 5.7 190 11:20 13.12.2019
6250 Clouds -3 1028 58 14484 6.2 170 10:42 13.12.2019
6251 Clouds -3 1028 58 14484 6.2 170 10:23 13.12.2019
6252 Clouds -3 1029 58 14484 6.2 170 09:55 13.12.2019
6253 Clouds -3 1029 58 14484 6.2 170 09:36 13.12.2019
6254 Clouds -3 1029 58 14484 6.2 170 09:18 13.12.2019
6255 Clouds -3 1029 63 14484 7.2 160 08:41 13.12.2019
6256 Clouds -3 1029 63 14484 7.2 160 08:23 13.12.2019
6257 Clouds -3 1030 63 14484 4.6 160 07:44 13.12.2019
6258 Clouds -4 1030 63 14484 4.6 160 07:21 13.12.2019
6259 Clouds -4 1031 67 14484 2.6 130 06:51 13.12.2019
6260 Clouds -4 1031 67 14484 2.6 130 06:28 13.12.2019
6261 Clouds -4 1032 62 14484 2.6 140 05:45 13.12.2019
6262 Clouds -5 1032 62 14484 2.6 140 05:24 13.12.2019
6263 Clouds -6 1033 62 14484 3.1 140 04:35 13.12.2019
6264 Clear -6 1034 67 14484 3.6 150 03:31 13.12.2019
6265 Clouds -6 1035 57 14484 3.6 150 02:33 13.12.2019
6266 Clouds -6 1036 62 14484 3.6 150 01:43 13.12.2019
6267 Clouds -6 1037 57 14484 3.1 160 00:55 13.12.2019
6268 Clouds -6 1037 57 14484 3.1 160 00:36 13.12.2019
6269 Clouds -6 1037 57 14484 4.1 160 23:57 12.12.2019
6270 Clouds -5 1037 57 14484 4.1 160 23:37 12.12.2019
6271 Clouds -6 1037 57 14484 4.1 160 23:19 12.12.2019
6272 Clouds -6 1037 53 14484 2.1 200 22:54 12.12.2019
6273 Clouds -5 1037 53 14484 2.1 200 22:36 12.12.2019
6274 Clouds -5 1037 53 14484 2.1 200 22:18 12.12.2019
6275 Clouds -5 1037 49 14484 3.6 230 21:54 12.12.2019
6276 Clouds -5 1037 49 14484 3.6 230 21:36 12.12.2019
6277 Clouds -5 1037 49 14484 3.6 230 21:18 12.12.2019
6278 Clouds -5 1037 49 14484 5.7 220 20:55 12.12.2019
6279 Clouds -5 1037 49 14484 5.7 220 20:37 12.12.2019
6280 Clouds -5 1037 49 14484 5.7 220 20:19 12.12.2019
6281 Clouds -5 1038 48 14484 5.7 240 19:42 12.12.2019
6282 Clouds -6 1038 48 14484 5.7 240 19:22 12.12.2019
6283 Clear -6 1038 48 14484 5.7 240 18:58 12.12.2019
6284 Clear -6 1038 48 14484 5.7 240 18:39 12.12.2019
6285 Clear -6 1038 48 14484 5.7 240 18:20 12.12.2019
6286 Clear -6 1039 48 14484 5.1 260 17:57 12.12.2019
6287 Clear -6 1039 48 14484 5.1 260 17:39 12.12.2019
6288 Clear -7 1039 48 14484 5.1 260 17:20 12.12.2019
6289 Clear -7 1039 48 14484 5.7 280 16:57 12.12.2019
6290 Clear -7 1039 48 14484 5.7 280 16:39 12.12.2019
6291 Clear -8 1039 48 14484 5.7 280 16:20 12.12.2019
6292 Clear -8 1038 52 14484 6.7 280 15:56 12.12.2019
6293 Clear -8 1038 52 14484 6.7 280 15:37 12.12.2019
6294 Clear -9 1038 52 14484 6.7 280 15:18 12.12.2019
6295 Clear -9 1036 56 14484 6.7 270 14:38 12.12.2019
6296 Clear -9 1036 56 14484 6.7 270 14:38 12.12.2019
6297 Clear -10 1036 56 14484 6.7 270 14:20 12.12.2019
6298 Clear -10 1036 52 14484 6.7 280 13:58 12.12.2019
6299 Clear -10 1036 52 14484 6.7 280 13:40 12.12.2019
6300 Clear -10 1036 52 14484 6.7 280 13:21 12.12.2019
6301 Clear -10 1034 56 14484 6.2 280 12:59 12.12.2019
6302 Clear -10 1034 56 14484 6.2 280 12:40 12.12.2019
6303 Clear -10 1034 56 14484 6.2 280 12:21 12.12.2019
6304 Clear -9 1033 52 14484 6.2 270 11:57 12.12.2019
6305 Clear -9 1033 52 14484 6.2 270 11:38 12.12.2019
6306 Clear -9 1033 52 14484 6.2 270 11:19 12.12.2019
6307 Clear -9 1032 48 14484 8.7 260 10:56 12.12.2019
6308 Clear -9 1032 48 14484 8.7 260 10:38 12.12.2019
6309 Clear -9 1032 48 14484 8.7 260 10:20 12.12.2019
6310 Clear -9 1031 52 14484 7.2 260 09:55 12.12.2019
6311 Clear -9 1031 52 14484 7.2 260 09:37 12.12.2019
6312 Clear -9 1031 52 14484 7.2 260 09:18 12.12.2019
6313 Clear -9 1031 52 14484 6.2 270 08:43 12.12.2019
6314 Clear -9 1031 52 14484 6.2 270 08:25 12.12.2019
6315 Clear -9 1029 48 14484 9.3 270 07:49 12.12.2019
6316 Clear -9 1029 48 14484 9.3 270 07:27 12.12.2019
6317 Clear -9 1028 48 14484 9.3 280 06:55 12.12.2019
6318 Clear -8 1028 48 14484 9.3 280 06:35 12.12.2019
6319 Clear -8 1026 48 14484 12.3 260 05:42 12.12.2019
6320 Clear -7 1024 53 14484 10.3 270 04:55 12.12.2019
6321 Clear -7 1024 53 14484 10.3 270 04:23 12.12.2019
6322 Clear -5 1022 62 14484 12.9 260 02:40 12.12.2019
6323 Snow -5 1021 67 9656 9.8 260 02:22 12.12.2019
6324 Snow -5 1022 85 8047 9.8 260 01:54 12.12.2019
6325 Clouds -4 1020 63 14484 9.8 250 01:32 12.12.2019
6326 Snow -4 1020 68 12874 10.8 250 00:47 12.12.2019
6327 Snow -4 1019 86 14484 4.6 240 00:21 12.12.2019
6328 Snow -4 1019 92 2816 4.1 220 23:45 11.12.2019
6329 Snow -4 1019 92 8047 3.6 200 23:21 11.12.2019
6330 Snow -4 1019 73 2816 5.1 190 22:59 11.12.2019
6331 Snow -3 1019 73 2816 5.1 190 22:39 11.12.2019
6332 Snow -4 1019 68 8047 8.2 190 22:20 11.12.2019
6333 Snow -3 1019 68 2816 6.7 180 21:59 11.12.2019
6334 Clouds -3 1019 58 14484 4.6 170 21:39 11.12.2019
6335 Clouds -3 1019 58 14484 4.6 170 21:20 11.12.2019
6336 Clouds -3 1019 58 14484 3.6 160 20:57 11.12.2019
6337 Clouds -3 1019 58 14484 3.6 160 20:39 11.12.2019
6338 Clouds -3 1019 58 14484 3.6 160 20:19 11.12.2019
6339 Clear -3 1020 53 14484 5.7 140 19:58 11.12.2019
6340 Clear -4 1020 53 14484 5.7 140 19:40 11.12.2019
6341 Clear -4 1020 53 14484 5.7 140 19:20 11.12.2019
6342 Clear -4 1022 53 14484 4.6 160 18:55 11.12.2019
6343 Clear -4 1022 53 14484 4.6 160 18:37 11.12.2019
6344 Clear -5 1022 53 14484 4.6 160 18:18 11.12.2019
6345 Clear -5 1024 57 14484 4.6 180 17:55 11.12.2019
6346 Clear -6 1024 57 14484 4.6 180 17:36 11.12.2019
6347 Clear -6 1024 57 14484 4.6 180 17:18 11.12.2019
6348 Clear -6 1024 61 14484 3.6 170 16:55 11.12.2019
6349 Clear -6 1024 61 14484 3.6 170 16:55 11.12.2019
6350 Clear -7 1024 61 14484 3.6 170 16:36 11.12.2019
6351 Clear -7 1024 61 14484 3.6 170 16:18 11.12.2019
6352 Clear -8 1025 66 14484 2.1 170 15:41 11.12.2019
6353 Clear -8 1025 66 14484 2.1 170 15:41 11.12.2019
6354 Clear -8 1025 66 14484 2.1 170 15:23 11.12.2019
6355 Clear -8 1025 66 14484 2.1 170 15:23 11.12.2019
6356 Clear -9 1024 72 14484 2.1 130 14:57 11.12.2019
6357 Clear -10 1024 72 14484 2.1 130 14:39 11.12.2019
6358 Clear -11 1024 72 14484 2.1 130 14:20 11.12.2019
6359 Clear -11 1025 66 14484 2.1 120 13:58 11.12.2019
6360 Clear -11 1025 66 14484 2.1 120 13:39 11.12.2019
6361 Clear -11 1025 66 14484 2.1 120 13:20 11.12.2019
6362 Clear -11 1025 66 14484 2.1 120 13:20 11.12.2019
6363 Clouds -11 1024 72 14484 1.5 20 12:57 11.12.2019
6364 Clouds -11 1024 72 14484 1.5 20 12:38 11.12.2019
6365 Clouds -11 1024 72 14484 1.5 20 12:38 11.12.2019
6366 Clouds -11 1024 72 14484 1.5 20 12:20 11.12.2019
6367 Clouds -10 1024 61 14484 2.6 320 11:58 11.12.2019
6368 Clouds -10 1024 61 14484 2.6 320 11:38 11.12.2019
6369 Clouds -10 1024 61 14484 2.6 320 11:18 11.12.2019
6370 Clouds -10 1024 56 14484 3.1 310 10:57 11.12.2019
6371 Clouds -10 1024 56 14484 3.1 310 10:38 11.12.2019
6372 Clouds -10 1024 56 14484 3.1 310 10:19 11.12.2019
6373 Clouds -10 1023 61 14484 2.6 300 09:43 11.12.2019
6374 Clouds -10 1023 61 14484 2.6 300 09:21 11.12.2019
6375 Clouds -10 1023 61 14484 2.6 300 09:21 11.12.2019
6376 Clear -9 1023 56 14484 4.6 310 08:58 11.12.2019
6377 Clear -9 1023 56 14484 4.6 310 08:58 11.12.2019
6378 Clear -9 1023 56 14484 4.6 310 08:39 11.12.2019
6379 Clear -9 1023 56 14484 4.6 310 08:19 11.12.2019
6380 Clear -9 1023 56 14484 4.6 310 08:19 11.12.2019
6381 Clouds -9 1022 52 14484 5.1 320 07:58 11.12.2019
6382 Clouds -9 1022 52 14484 5.1 320 07:39 11.12.2019
6383 Clouds -9 1022 52 14484 5.1 320 07:21 11.12.2019
6384 Clouds -8 1021 57 14484 4.1 330 06:44 11.12.2019
6385 Clouds -8 1021 57 14484 4.1 330 06:22 11.12.2019
6386 Clouds -7 1020 57 14484 5.1 320 05:46 11.12.2019
6387 Clouds -7 1020 57 14484 5.1 320 05:27 11.12.2019
6388 Clouds -6 1018 57 14484 4.1 290 04:41 11.12.2019
6389 Clouds -4 1016 49 14484 7.7 260 02:50 11.12.2019
6390 Clouds -3 1014 50 14484 6.7 280 01:30 11.12.2019
6391 Clouds -2 1012 50 14484 10.3 290 00:56 11.12.2019
6392 Clouds -2 1012 50 14484 10.3 290 00:36 11.12.2019
6393 Clouds -1 1012 50 14484 10.3 290 00:18 11.12.2019
6394 Clouds -1 1010 48 14484 8.2 280 23:41 10.12.2019
6395 Clouds -1 1010 56 14484 8.2 280 23:22 10.12.2019
6396 Clouds 0 1008 59 14484 7.7 270 22:42 10.12.2019
6397 Clouds 0 1008 59 14484 7.7 270 22:24 10.12.2019
6398 Clouds 0 1008 59 14484 7.7 270 22:24 10.12.2019
6399 Clouds 1 1007 69 32767 9.3 270 21:58 10.12.2019
6400 Clouds 1 1007 69 32767 9.3 270 21:39 10.12.2019
6401 Clouds 2 1007 69 32767 9.3 270 21:21 10.12.2019
6402 Clouds 4 1004 52 14484 13.4 240 20:59 10.12.2019
6403 Clouds 4 1004 52 14484 13.4 240 20:59 10.12.2019
6404 Clouds 4 1004 52 14484 13.4 240 20:38 10.12.2019
6405 Clouds 4 1004 52 14484 13.4 240 20:38 10.12.2019
6406 Clouds 4 1004 52 14484 13.4 240 20:38 10.12.2019
6407 Clouds 4 1004 52 14484 13.4 240 20:38 10.12.2019
6408 Clouds 4 1004 52 14484 13.4 240 20:38 10.12.2019
6409 Clouds 4 1004 52 14484 13.4 240 20:19 10.12.2019
6410 Clouds 4 1004 52 14484 13.4 240 20:19 10.12.2019
6411 Clouds 5 1002 69 14484 15.9 260 19:58 10.12.2019
6412 Clouds 6 1002 69 14484 15.9 260 19:40 10.12.2019
6413 Clouds 6 1002 69 14484 15.9 260 19:22 10.12.2019
6414 Rain 7 1002 69 32767 6.7 260 18:56 10.12.2019
6415 Clouds 7 1001 70 14484 11.3 250 18:38 10.12.2019
6416 Clouds 7 1001 70 14484 11.3 250 18:18 10.12.2019
6417 Clouds 8 1001 70 24140 7.7 250 17:54 10.12.2019
6418 Clouds 8 1001 76 14484 9.3 250 17:36 10.12.2019
6419 Clouds 8 1001 76 14484 9.3 250 17:18 10.12.2019
6420 Rain 9 1001 75 24140 7.2 230 16:41 10.12.2019
6421 Clouds 9 1000 76 14484 9.3 230 16:19 10.12.2019
6422 Clouds 9 999 76 14484 9.8 240 15:40 10.12.2019
6423 Clouds 9 999 76 14484 9.8 240 15:19 10.12.2019
6424 Clouds 9 998 81 32767 5.7 230 14:59 10.12.2019
6425 Clouds 9 998 81 32767 5.7 230 14:41 10.12.2019
6426 Clouds 9 998 76 14484 9.8 230 14:23 10.12.2019
6427 Rain 9 997 87 12874 6.7 230 13:59 10.12.2019
6428 Rain 9 997 87 12874 6.7 230 13:40 10.12.2019
6429 Clouds 8 998 93 14484 6.2 190 13:20 10.12.2019
6430 Clouds 8 997 93 14484 5.1 190 12:55 10.12.2019
6431 Clouds 8 997 93 14484 5.1 190 12:36 10.12.2019
6432 Clouds 8 997 93 14484 6.7 180 12:18 10.12.2019
6433 Clouds 8 997 93 14484 6.2 180 11:40 10.12.2019
6434 Rain 8 997 93 9656 5.7 190 11:22 10.12.2019
6435 Clouds 8 996 87 14484 5.7 180 10:55 10.12.2019
6436 Clouds 8 996 87 14484 5.7 180 10:37 10.12.2019
6437 Clouds 7 996 87 14484 5.7 180 10:18 10.12.2019
6438 Rain 7 996 93 14484 5.1 180 09:54 10.12.2019
6439 Rain 7 996 93 14484 5.1 180 09:36 10.12.2019
6440 Rain 7 996 93 8047 6.2 180 09:18 10.12.2019
6441 Clouds 7 996 93 14484 5.1 200 08:41 10.12.2019
6442 Rain 7 996 93 8047 4.6 180 08:22 10.12.2019
6443 Rain 7 996 93 8047 4.6 180 08:22 10.12.2019
6444 Clouds 7 996 93 14484 6.7 180 07:57 10.12.2019
6445 Clouds 7 996 93 14484 6.7 180 07:39 10.12.2019
6446 Rain 7 996 93 8047 6.2 190 07:21 10.12.2019
6447 Clouds 6 996 87 24140 4.6 170 06:46 10.12.2019
6448 Clouds 6 996 93 14484 7.7 180 06:19 10.12.2019
6449 Rain 6 996 93 12874 6.7 180 05:52 10.12.2019
6450 Rain 6 996 100 8047 6.7 180 04:51 10.12.2019
6451 Rain 6 997 93 8047 7.7 180 03:36 10.12.2019
6452 Rain 6 998 87 14484 7.2 190 02:44 10.12.2019
6453 Rain 5 998 93 9656 8.2 180 01:44 10.12.2019
6454 Clouds 5 999 100 14484 4.6 170 01:20 10.12.2019
6455 Rain 5 1000 93 9656 4.6 170 00:41 10.12.2019
6456 Rain 4 1001 100 11265 5.1 140 00:20 10.12.2019
6457 Rain 4 1003 93 4828 2.1 110 23:41 09.12.2019
6458 Rain 4 1003 93 4023 2.1 110 23:22 09.12.2019
6459 Rain 4 1004 93 8047 1.5 120 22:58 09.12.2019
6460 Rain 4 1004 93 8047 1.5 120 22:40 09.12.2019
6461 Rain 4 1004 93 8047 1 0 22:19 09.12.2019
6462 Rain 4 1005 93 8047 2.6 100 21:56 09.12.2019
6463 Rain 4 1005 93 8047 2.6 100 21:38 09.12.2019
6464 Rain 4 1007 93 14484 4.1 130 21:19 09.12.2019
6465 Rain 4 1008 86 14484 4.6 140 20:56 09.12.2019
6466 Rain 4 1007 100 9656 2.1 40 20:38 09.12.2019
6467 Rain 4 1008 86 14484 4.6 140 20:20 09.12.2019
6468 Clouds 4 1009 80 24140 3.6 140 19:55 09.12.2019
6469 Clouds 4 1009 80 24140 3.6 140 19:37 09.12.2019
6470 Clouds 4 1010 86 14484 4.6 160 19:19 09.12.2019
6471 Clouds 4 1011 86 14484 6.7 160 18:56 09.12.2019
6472 Clouds 4 1011 86 14484 6.7 160 18:38 09.12.2019
6473 Clouds 3 1012 80 14484 6.2 170 18:19 09.12.2019
6474 Rain 3 1014 97 14484 9.3 170 17:57 09.12.2019
6475 Rain 3 1014 97 14484 9.3 170 17:39 09.12.2019
6476 Rain 3 1014 95 14484 9.3 170 17:20 09.12.2019
6477 Rain 3 1015 95 14484 6.7 170 16:56 09.12.2019
6478 Rain 3 1015 95 14484 6.7 170 16:37 09.12.2019
6479 Rain 3 1015 95 14484 7.2 170 16:19 09.12.2019
6480 Rain 3 1016 95 14484 6.7 170 15:55 09.12.2019
6481 Rain 2 1016 95 14484 6.7 170 15:37 09.12.2019
6482 Rain 2 1016 95 14484 6.7 170 15:19 09.12.2019
6483 Rain 2 1016 80 14484 5.7 170 14:55 09.12.2019
6484 Rain 2 1016 80 14484 5.7 170 14:37 09.12.2019
6485 Rain 2 1016 80 14484 5.7 170 14:18 09.12.2019
6486 Rain 1 1017 80 14484 6.7 170 13:39 09.12.2019
6487 Rain 1 1017 80 14484 6.7 170 13:20 09.12.2019
6488 Rain 1 1017 80 14484 4.6 180 12:58 09.12.2019
6489 Rain 1 1017 80 14484 4.6 180 12:39 09.12.2019
6490 Rain 1 1017 80 14484 4.6 180 12:21 09.12.2019
6491 Rain 1 1017 80 14484 7.2 190 11:59 09.12.2019
6492 Rain 1 1017 80 14484 7.2 190 11:39 09.12.2019
6493 Rain 1 1017 80 14484 7.2 190 11:39 09.12.2019
6494 Rain 1 1017 80 14484 7.2 190 11:21 09.12.2019
6495 Clouds 1 1016 92 32186 1 0 10:56 09.12.2019
6496 Clouds 1 1016 92 32186 1 0 10:38 09.12.2019
6497 Rain 1 1017 80 14484 8.7 180 10:19 09.12.2019
6498 Rain 1 1017 80 14484 7.7 180 09:41 09.12.2019
6499 Rain 1 1017 80 14484 7.7 180 09:23 09.12.2019
6500 Rain 1 1017 80 14484 6.2 180 08:55 09.12.2019
6501 Rain 1 1017 80 14484 6.2 180 08:37 09.12.2019
6502 Rain 0 1017 80 14484 6.2 180 08:19 09.12.2019
6503 Snow 1 1017 80 12874 6.7 180 07:44 09.12.2019
6504 Snow 0 1017 74 9656 6.2 180 07:25 09.12.2019
6505 Snow 0 1017 74 8047 6.7 190 06:55 09.12.2019
6506 Snow 0 1017 74 9656 8.2 180 06:28 09.12.2019
6507 Clouds 0 1017 69 14484 7.2 180 05:30 09.12.2019
6508 Rain 0 1017 64 14484 9.3 180 04:54 09.12.2019
6509 Rain 0 1017 69 14484 9.3 180 04:23 09.12.2019
6510 Clouds 0 1017 82 14484 8.7 180 02:27 09.12.2019
6511 Clouds -1 1018 76 14484 9.3 180 01:45 09.12.2019
6512 Clouds -1 1018 63 14484 10.8 180 00:57 09.12.2019
6513 Clouds -1 1018 63 14484 10.8 180 00:32 09.12.2019
6514 Clouds -1 1019 58 14484 9.8 180 23:54 08.12.2019
6515 Clouds -1 1019 58 14484 9.8 180 23:36 08.12.2019
6516 Clouds -1 1019 58 14484 9.8 180 23:18 08.12.2019
6517 Clouds -2 1018 63 14484 10.8 180 22:56 08.12.2019
6518 Clouds -2 1018 63 14484 10.8 180 22:37 08.12.2019
6519 Clouds -2 1018 63 14484 10.8 180 22:18 08.12.2019
6520 Clouds -2 1019 63 32767 8.7 150 21:55 08.12.2019
6521 Clouds -2 1020 68 14484 7.7 170 21:36 08.12.2019
6522 Clouds -2 1020 68 14484 7.7 170 21:18 08.12.2019
6523 Snow -2 1020 63 24140 7.2 140 20:54 08.12.2019
6524 Clouds -2 1021 74 14484 5.1 160 20:36 08.12.2019
6525 Clouds -3 1021 74 14484 5.1 160 20:18 08.12.2019
6526 Clouds -3 1023 73 14484 7.7 170 19:54 08.12.2019
6527 Clouds -3 1023 73 14484 7.7 170 19:36 08.12.2019
6528 Clouds -3 1023 73 14484 7.7 170 19:18 08.12.2019
6529 Clouds -3 1025 73 14484 8.2 170 18:54 08.12.2019
6530 Clouds -3 1025 73 14484 8.2 170 18:36 08.12.2019
6531 Clouds -3 1025 73 14484 8.2 170 18:18 08.12.2019
6532 Clouds -4 1026 73 14484 7.2 180 17:54 08.12.2019
6533 Clouds -4 1026 73 14484 7.2 180 17:36 08.12.2019
6534 Clouds -4 1026 73 14484 7.2 180 17:18 08.12.2019
6535 Clouds -5 1027 79 14484 5.7 170 16:42 08.12.2019
6536 Clouds -5 1027 79 14484 5.7 170 16:23 08.12.2019
6537 Clouds -5 1028 79 14484 6.7 180 15:58 08.12.2019
6538 Clouds -6 1028 79 14484 6.7 180 15:37 08.12.2019
6539 Clouds -7 1028 79 14484 6.7 180 15:18 08.12.2019
6540 Clouds -7 1028 85 14484 4.1 180 14:46 08.12.2019
6541 Clouds -7 1028 85 14484 4.1 180 14:25 08.12.2019
6542 Snow -8 1028 85 14484 2.6 140 13:59 08.12.2019
6543 Snow -9 1028 85 14484 2.6 140 13:41 08.12.2019
6544 Clouds -10 1029 85 14484 2.6 150 13:22 08.12.2019
6545 Clouds -10 1029 78 14484 3.6 170 12:59 08.12.2019
6546 Clouds -11 1029 78 14484 3.6 170 12:40 08.12.2019
6547 Clouds -11 1029 78 14484 3.6 170 12:19 08.12.2019
6548 Clouds -11 1029 78 14484 3.6 170 12:19 08.12.2019
6549 Clear -11 1030 78 14484 1 190 11:58 08.12.2019
6550 Clear -11 1030 78 14484 1 190 11:37 08.12.2019
6551 Clear -11 1030 78 14484 1 190 11:19 08.12.2019
6552 Clear -11 1030 85 14484 3.1 170 10:57 08.12.2019
6553 Clear -11 1030 85 14484 3.1 170 10:38 08.12.2019
6554 Clear -11 1030 85 14484 3.1 170 10:19 08.12.2019
6555 Clouds -11 1031 85 14484 3.6 180 09:55 08.12.2019
6556 Clouds -11 1031 85 14484 3.6 180 09:37 08.12.2019
6557 Clouds -11 1031 85 14484 3.6 180 09:18 08.12.2019
6558 Clouds -11 1031 92 14484 1.5 180 08:43 08.12.2019
6559 Clouds -11 1031 92 14484 1.5 180 08:43 08.12.2019
6560 Clouds -11 1031 85 14484 2.1 160 08:23 08.12.2019
6561 Clear -11 1030 85 14484 3.1 180 07:58 08.12.2019
6562 Clear -11 1030 85 14484 3.1 180 07:40 08.12.2019
6563 Clear -11 1030 85 14484 3.1 180 07:19 08.12.2019
6564 Clear -10 1030 72 14484 2.6 240 06:41 08.12.2019
6565 Clear -10 1030 72 14484 2.6 240 06:21 08.12.2019
6566 Clear -9 1030 72 14484 4.6 260 05:27 08.12.2019
6567 Clear -10 1030 72 14484 4.1 240 04:54 08.12.2019
6568 Clear -9 1030 72 14484 4.1 230 03:41 08.12.2019
6569 Clear -9 1030 67 14484 4.1 250 02:52 08.12.2019
6570 Clear -9 1030 67 14484 4.1 250 02:52 08.12.2019
6571 Clear -9 1030 67 14484 4.1 250 02:27 08.12.2019
6572 Clear -8 1029 73 14484 4.6 250 01:48 08.12.2019
6573 Clear -8 1029 73 14484 4.6 260 00:56 08.12.2019
6574 Clear -8 1029 73 14484 4.6 260 00:38 08.12.2019
6575 Clear -8 1029 73 14484 4.6 260 00:19 08.12.2019
6576 Clear -7 1029 62 14484 3.1 250 23:40 07.12.2019
6577 Clear -7 1029 62 14484 3.1 250 23:40 07.12.2019
6578 Clear -7 1029 62 14484 3.1 250 23:20 07.12.2019
6579 Clear -6 1028 62 14484 5.7 260 22:56 07.12.2019
6580 Clear -6 1028 62 14484 5.7 260 22:38 07.12.2019
6581 Clear -6 1028 62 14484 5.7 260 22:19 07.12.2019
6582 Clear -6 1028 62 14484 5.7 260 22:19 07.12.2019
6583 Clear -5 1027 57 14484 5.7 250 21:56 07.12.2019
6584 Clear -5 1027 57 14484 5.7 250 21:38 07.12.2019
6585 Clear -5 1027 57 14484 5.7 250 21:19 07.12.2019
6586 Clear -5 1027 57 14484 4.6 270 20:55 07.12.2019
6587 Clear -4 1027 57 14484 4.6 270 20:36 07.12.2019
6588 Clear -5 1027 57 14484 4.6 270 20:18 07.12.2019
6589 Snow -5 1026 62 32767 5.1 220 19:55 07.12.2019
6590 Snow -5 1026 62 32767 5.1 220 19:36 07.12.2019
6591 Clouds -5 1027 62 14484 5.7 260 19:18 07.12.2019
6592 Clouds -5 1027 57 14484 5.7 270 18:44 07.12.2019
6593 Clouds -5 1027 57 14484 5.7 270 18:19 07.12.2019
6594 Clouds -5 1027 67 14484 4.6 270 17:57 07.12.2019
6595 Clouds -5 1027 67 14484 4.6 270 17:39 07.12.2019
6596 Clouds -6 1027 67 14484 4.6 270 17:21 07.12.2019
6597 Clouds -6 1027 85 14484 1 0 16:56 07.12.2019
6598 Clouds -6 1027 85 14484 1 0 16:38 07.12.2019
6599 Clouds -6 1027 85 14484 1 0 16:19 07.12.2019
6600 Clouds -7 1026 92 24140 1 320 15:42 07.12.2019
6601 Clouds -8 1026 92 24140 1 320 15:24 07.12.2019
6602 Clouds -8 1026 85 32767 3.34 280 14:58 07.12.2019
6603 Clouds -8 1026 85 32767 3.34 280 14:40 07.12.2019
6604 Clouds -9 1026 85 32767 1.85 275 14:18 07.12.2019
6605 Clouds -10 1025 85 24140 1 350 13:41 07.12.2019
6606 Clouds -10 1025 85 24140 1 350 13:21 07.12.2019
6607 Clouds -10 1025 92 24140 1 230 12:59 07.12.2019
6608 Clouds -10 1025 92 24140 1 230 12:40 07.12.2019
6609 Clouds -10 1025 92 24140 1 230 12:22 07.12.2019
6610 Clouds -10 1024 92 24140 1 310 11:58 07.12.2019
6611 Clouds -10 1024 92 24140 1 310 11:39 07.12.2019
6612 Clouds -10 1024 92 24140 1 310 11:21 07.12.2019
6613 Clear -10 1023 85 14484 1.4 268 10:38 07.12.2019
6614 Clear -10 1023 85 14484 1.4 268 10:19 07.12.2019
6615 Clear -10 1023 85 14484 1.5 310 09:56 07.12.2019
6616 Clear -9 1023 85 14484 1.5 310 09:36 07.12.2019
6617 Clear -9 1023 85 14484 1.5 310 09:18 07.12.2019
6618 Clouds -9 1022 72 14484 1.5 300 08:40 07.12.2019
6619 Clouds -9 1022 72 14484 1.5 300 08:21 07.12.2019
6620 Clear -9 1022 78 14484 2.1 270 07:45 07.12.2019
6621 Clear -9 1022 78 14484 2.1 270 07:26 07.12.2019
6622 Clouds -8 1021 79 14484 2.1 290 06:50 07.12.2019
6623 Clouds -8 1021 79 14484 2.1 290 06:25 07.12.2019
6624 Clouds -8 1021 79 14484 2.1 290 06:25 07.12.2019
6625 Clear -8 1020 67 14484 4.1 300 05:34 07.12.2019
6626 Clear -8 1020 73 14484 2.6 290 04:19 07.12.2019
6627 Clouds -7 1019 67 14484 3.6 300 03:44 07.12.2019
6628 Clouds -6 1018 68 14484 3.6 300 02:21 07.12.2019
6629 Snow -5 1017 73 14484 4.6 290 01:35 07.12.2019
6630 Snow -5 1017 79 14484 3.6 270 00:55 07.12.2019
6631 Snow -5 1017 79 14484 3.6 270 00:20 07.12.2019
6632 Snow -5 1016 79 14484 2.6 240 23:56 06.12.2019
6633 Snow -5 1016 79 14484 2.6 240 23:38 06.12.2019
6634 Snow -5 1016 79 14484 2.6 240 23:18 06.12.2019
6635 Clouds -4 1016 79 14484 2.1 220 22:38 06.12.2019
6636 Snow -4 1015 85 6437 2.1 220 22:20 06.12.2019
6637 Snow -4 1015 79 8047 1.5 230 21:58 06.12.2019
6638 Snow -4 1015 79 8047 1.5 230 21:39 06.12.2019
6639 Snow -4 1015 79 8047 1.5 230 21:39 06.12.2019
6640 Snow -4 1015 79 24140 1.5 260 21:20 06.12.2019
6641 Snow -3 1014 79 14484 1.15 293 20:43 06.12.2019
6642 Clouds -3 1014 79 14484 1.15 283 20:25 06.12.2019
6643 Snow -3 1014 79 16093 1.92 262 19:59 06.12.2019
6644 Snow -3 1014 79 16093 1.92 262 19:40 06.12.2019
6645 Snow -3 1014 79 11265 1.92 262 19:22 06.12.2019
6646 Snow -3 1014 79 11265 1.92 262 19:22 06.12.2019
6647 Snow -3 1015 79 9656 1.5 310 18:57 06.12.2019
6648 Snow -4 1015 79 9656 1.5 310 18:39 06.12.2019
6649 Snow -4 1015 79 8047 1.92 262 18:19 06.12.2019
6650 Snow -4 1016 85 3219 1.92 262 17:56 06.12.2019
6651 Snow -4 1016 85 3219 1.92 262 17:56 06.12.2019
6652 Snow -4 1016 85 3219 1.92 262 17:38 06.12.2019
6653 Snow -4 1016 85 3219 1.5 280 17:19 06.12.2019
6654 Snow -4 1016 85 3219 1.5 280 17:19 06.12.2019
6655 Snow -4 1016 85 3219 2.1 300 16:43 06.12.2019
6656 Snow -4 1016 85 2012 2.6 300 16:25 06.12.2019
6657 Snow -4 1016 85 2012 2.1 280 15:59 06.12.2019
6658 Snow -4 1016 85 2012 2.1 280 15:41 06.12.2019
6659 Snow -5 1016 85 2012 2.1 280 15:19 06.12.2019
6660 Snow -5 1016 85 2012 2.6 250 14:57 06.12.2019
6661 Snow -5 1016 85 2012 2.6 250 14:39 06.12.2019
6662 Snow -5 1016 79 4023 3.6 240 14:19 06.12.2019
6663 Snow -5 1016 73 8047 3.6 250 13:44 06.12.2019
6664 Snow -6 1016 73 14484 2.6 240 13:26 06.12.2019
6665 Snow -6 1016 67 14484 3.1 260 12:44 06.12.2019
6666 Clouds -6 1016 67 14484 2.6 270 12:23 06.12.2019
6667 Clouds -6 1016 67 14484 4.1 270 11:59 06.12.2019
6668 Clouds -6 1016 67 14484 4.1 270 11:41 06.12.2019
6669 Clouds -6 1016 67 14484 4.1 270 11:23 06.12.2019
6670 Clouds -6 1016 67 14484 4.6 280 10:54 06.12.2019
6671 Clouds -6 1016 67 14484 4.6 280 10:36 06.12.2019
6672 Clouds -6 1016 67 14484 4.6 280 10:18 06.12.2019
6673 Clouds -6 1016 67 14484 4.1 270 09:54 06.12.2019
6674 Clouds -6 1016 67 14484 4.1 270 09:36 06.12.2019
6675 Clouds -6 1016 67 14484 4.1 270 09:18 06.12.2019
6676 Clouds -6 1016 67 14484 6.7 270 08:40 06.12.2019
6677 Clouds -6 1016 67 14484 6.7 270 08:21 06.12.2019
6678 Clouds -6 1015 67 14484 5.1 270 07:38 06.12.2019
6679 Clouds -6 1015 67 14484 5.1 270 07:20 06.12.2019
6680 Clear -6 1014 67 14484 7.2 270 06:31 06.12.2019
6681 Clear -6 1014 67 14484 7.2 270 06:31 06.12.2019
6682 Clear -5 1014 73 14484 6.2 270 05:57 06.12.2019
6683 Clear -5 1014 73 14484 6.2 270 05:38 06.12.2019
6684 Snow -4 1011 68 14484 6.2 270 02:20 06.12.2019
6685 Snow -4 1011 73 14484 8.2 270 01:43 06.12.2019
6686 Snow -4 1009 73 12874 7.7 260 00:50 06.12.2019
6687 Snow -4 1009 73 12874 7.7 260 00:23 06.12.2019
6688 Snow -4 1009 73 9656 7.2 270 23:51 05.12.2019
6689 Snow -4 1008 73 11265 9.3 270 23:20 05.12.2019
6690 Snow -3 1007 79 9656 7.7 260 22:58 05.12.2019
6691 Snow -3 1007 79 9656 7.7 260 22:39 05.12.2019
6692 Snow -3 1007 79 4828 9.3 250 22:19 05.12.2019
6693 Snow -3 1006 79 8047 10.8 250 21:56 05.12.2019
6694 Snow -3 1006 79 8047 10.8 250 21:37 05.12.2019
6695 Snow -3 1005 74 14484 8.7 250 21:19 05.12.2019
6696 Snow -2 1004 86 11265 8.7 240 20:56 05.12.2019
6697 Snow -2 1004 86 11265 8.7 240 20:56 05.12.2019
6698 Snow -2 1004 86 11265 8.7 240 20:37 05.12.2019
6699 Snow -2 1004 86 11265 8.7 240 20:18 05.12.2019
6700 Snow -2 1004 86 11265 8.7 240 20:18 05.12.2019
6701 Snow -1 1003 80 6437 5.7 260 19:40 05.12.2019
6702 Snow -1 1003 80 6437 5.7 260 19:22 05.12.2019
6703 Snow 0 1004 80 9656 8.2 250 18:59 05.12.2019
6704 Snow 0 1003 80 9656 5.7 270 18:39 05.12.2019
6705 Snow 0 1003 80 9656